<?xml version="1.0" encoding="UTF-8" standalone="no" ?>
<gpx xmlns="http://www.topografix.com/GPX/1/1" xmlns:xsi="http://www.w3.org/2001/XMLSchema-instance" xsi:schemaLocation="http://www.topografix.com/GPX/1/1 http://www.topografix.com/GPX/1/1/gpx.xsd" version="1.1" creator="VisuGPX - https://www.visugpx.com">
  <metadata>
    <name>CMC Cap des Teches</name>
    <desc><![CDATA[Belle journée pour la randonnée et l'omelette pascale.]]></desc>
  </metadata>
  <wpt lat="42.96801" lon="0.8836">
    <ele>1087</ele>
    <name><![CDATA[Pause à 26/03/2016 à 16:19]]></name>
    <desc><![CDATA[Pause de 2min 5s]]></desc>
  </wpt>
  <wpt lat="42.95858" lon="0.8655">
    <ele>1521</ele>
    <name><![CDATA[Pause à 26/03/2016 à 12:36]]></name>
    <desc><![CDATA[Pause de 5min 52s]]></desc>
  </wpt>
  <wpt lat="42.96156" lon="0.85667">
    <ele>1345</ele>
    <name><![CDATA[Pause à 26/03/2016 à 11:41]]></name>
    <desc><![CDATA[Pause de 3min 5s]]></desc>
  </wpt>
  <wpt lat="42.9617" lon="0.85674">
    <ele>1347</ele>
    <name><![CDATA[Pause à 26/03/2016 à 11:34]]></name>
    <desc><![CDATA[Pause de 2min 8s]]></desc>
  </wpt>
  <wpt lat="42.95646" lon="0.85703">
    <ele>1443</ele>
    <name><![CDATA[Pause à 26/03/2016 à 12:15]]></name>
    <desc><![CDATA[Pause de 2min 37s]]></desc>
  </wpt>
  <wpt lat="42.96163" lon="0.85671">
    <ele>1346</ele>
    <name><![CDATA[Pause à 26/03/2016 à 13:17]]></name>
    <desc><![CDATA[Pause de 33min 55s]]></desc>
  </wpt>
  <wpt lat="42.96163" lon="0.85663">
    <ele>1349</ele>
    <name><![CDATA[Pause à 26/03/2016 à 14:04]]></name>
    <desc><![CDATA[Pause de 7min 40s]]></desc>
  </wpt>
  <wpt lat="42.96233" lon="0.8546">
    <ele>1410</ele>
    <name><![CDATA[Pause à 26/03/2016 à 15:06]]></name>
    <desc><![CDATA[Pause de 2min 1s]]></desc>
  </wpt>
  <wpt lat="42.96157" lon="0.8567">
    <ele>1347</ele>
    <name><![CDATA[Pause à 26/03/2016 à 11:37]]></name>
    <desc><![CDATA[Pause de 3min 38s]]></desc>
  </wpt>
  <wpt lat="42.96157" lon="0.85645">
    <ele>1357</ele>
    <name><![CDATA[Pause à 26/03/2016 à 14:26]]></name>
    <desc><![CDATA[Pause de 4min 5s]]></desc>
  </wpt>
  <wpt lat="42.96328" lon="0.86302">
    <ele>1296</ele>
    <name><![CDATA[Pause à 26/03/2016 à 15:31]]></name>
    <desc><![CDATA[Pause de 2min 12s]]></desc>
  </wpt>
  <wpt lat="42.96165" lon="0.85672">
    <ele>1337</ele>
    <name><![CDATA[Pause à 26/03/2016 à 13:51]]></name>
    <desc><![CDATA[Pause de 8min 2s]]></desc>
  </wpt>
  <wpt lat="42.96156" lon="0.85654">
    <ele>1351</ele>
    <name><![CDATA[Pause à 26/03/2016 à 14:12]]></name>
    <desc><![CDATA[Pause de 13min 45s]]></desc>
  </wpt>
  <wpt lat="42.9616" lon="0.85666">
    <ele>1350</ele>
    <name><![CDATA[Pause à 26/03/2016 à 14:50]]></name>
    <desc><![CDATA[Pause de 2min 16s]]></desc>
  </wpt>
  <wpt lat="42.96158" lon="0.85659">
    <ele>1356</ele>
    <name><![CDATA[Pause à 26/03/2016 à 14:35]]></name>
    <desc><![CDATA[Pause de 9min 17s]]></desc>
  </wpt>
  <wpt lat="42.96167" lon="0.85654">
    <ele>1344</ele>
    <name><![CDATA[Pause à 26/03/2016 à 14:01]]></name>
    <desc><![CDATA[Pause de 3min 1s]]></desc>
  </wpt>
  <wpt lat="42.95806" lon="0.86158">
    <ele>1516</ele>
    <name><![CDATA[Pause à 26/03/2016 à 12:28]]></name>
    <desc><![CDATA[Pause de 2min 26s]]></desc>
  </wpt>
  <wpt lat="42.95639" lon="0.85705">
    <ele>1442</ele>
    <name><![CDATA[Pause à 26/03/2016 à 12:11]]></name>
    <desc><![CDATA[Pause de 3min 17s]]></desc>
  </wpt>
  <wpt lat="42.96328" lon="0.86286">
    <ele>1294</ele>
    <name><![CDATA[Pause à 26/03/2016 à 11:04]]></name>
    <desc><![CDATA[Pause de 2min 55s]]></desc>
  </wpt>
  <wpt lat="42.96164" lon="0.85669">
    <ele>1343</ele>
    <name><![CDATA[Pause à 26/03/2016 à 11:23]]></name>
    <desc><![CDATA[Pause de 3min 35s]]></desc>
  </wpt>
  <wpt lat="42.96157" lon="0.85651">
    <ele>1356</ele>
    <name><![CDATA[Pause à 26/03/2016 à 14:30]]></name>
    <desc><![CDATA[Pause de 4min 25s]]></desc>
  </wpt>
  <wpt lat="42.96156" lon="0.85663">
    <ele>1350</ele>
    <name><![CDATA[Pause à 26/03/2016 à 14:44]]></name>
    <desc><![CDATA[Pause de 6min 2s]]></desc>
  </wpt>
  <wpt lat="42.96157" lon="0.85676">
    <ele>1342</ele>
    <name><![CDATA[Pause à 26/03/2016 à 11:27]]></name>
    <desc><![CDATA[Pause de 3min 22s]]></desc>
  </wpt>
  <trk>
    <name><![CDATA[Teche]]></name>
    <trkseg>
      <trkpt lat="42.96483" lon="0.86672">
        <ele>1235</ele>
        <time>2016-03-26T09:50:14Z</time>
      </trkpt>
      <trkpt lat="42.96484" lon="0.86669">
        <ele>1238</ele>
        <time>2016-03-26T09:50:16Z</time>
      </trkpt>
      <trkpt lat="42.96484" lon="0.86667">
        <ele>1240</ele>
        <time>2016-03-26T09:50:18Z</time>
      </trkpt>
      <trkpt lat="42.96483" lon="0.86665">
        <ele>1242</ele>
        <time>2016-03-26T09:50:20Z</time>
      </trkpt>
      <trkpt lat="42.96483" lon="0.86664">
        <ele>1244</ele>
        <time>2016-03-26T09:50:22Z</time>
      </trkpt>
      <trkpt lat="42.96483" lon="0.86664">
        <ele>1246</ele>
        <time>2016-03-26T09:50:24Z</time>
      </trkpt>
      <trkpt lat="42.96481" lon="0.86663">
        <ele>1248</ele>
        <time>2016-03-26T09:50:27Z</time>
      </trkpt>
      <trkpt lat="42.96481" lon="0.86662">
        <ele>1250</ele>
        <time>2016-03-26T09:50:28Z</time>
      </trkpt>
      <trkpt lat="42.96482" lon="0.8666">
        <ele>1251</ele>
        <time>2016-03-26T09:50:30Z</time>
      </trkpt>
      <trkpt lat="42.96481" lon="0.86657">
        <ele>1252</ele>
        <time>2016-03-26T09:50:32Z</time>
      </trkpt>
      <trkpt lat="42.96481" lon="0.86656">
        <ele>1253</ele>
        <time>2016-03-26T09:50:33Z</time>
      </trkpt>
      <trkpt lat="42.96481" lon="0.86654">
        <ele>1253</ele>
        <time>2016-03-26T09:50:35Z</time>
      </trkpt>
      <trkpt lat="42.96481" lon="0.86653">
        <ele>1254</ele>
        <time>2016-03-26T09:50:36Z</time>
      </trkpt>
      <trkpt lat="42.96481" lon="0.86651">
        <ele>1255</ele>
        <time>2016-03-26T09:50:38Z</time>
      </trkpt>
      <trkpt lat="42.96481" lon="0.8665">
        <ele>1255</ele>
        <time>2016-03-26T09:50:40Z</time>
      </trkpt>
      <trkpt lat="42.9648" lon="0.86647">
        <ele>1255</ele>
        <time>2016-03-26T09:50:42Z</time>
      </trkpt>
      <trkpt lat="42.96479" lon="0.86645">
        <ele>1256</ele>
        <time>2016-03-26T09:50:44Z</time>
      </trkpt>
      <trkpt lat="42.96479" lon="0.86642">
        <ele>1256</ele>
        <time>2016-03-26T09:50:46Z</time>
      </trkpt>
      <trkpt lat="42.96477" lon="0.86639">
        <ele>1257</ele>
        <time>2016-03-26T09:50:48Z</time>
      </trkpt>
      <trkpt lat="42.96477" lon="0.86638">
        <ele>1257</ele>
        <time>2016-03-26T09:50:49Z</time>
      </trkpt>
      <trkpt lat="42.96476" lon="0.86633">
        <ele>1257</ele>
        <time>2016-03-26T09:50:51Z</time>
      </trkpt>
      <trkpt lat="42.96475" lon="0.86629">
        <ele>1258</ele>
        <time>2016-03-26T09:50:53Z</time>
      </trkpt>
      <trkpt lat="42.96475" lon="0.86628">
        <ele>1258</ele>
        <time>2016-03-26T09:50:54Z</time>
      </trkpt>
      <trkpt lat="42.96475" lon="0.86625">
        <ele>1258</ele>
        <time>2016-03-26T09:50:56Z</time>
      </trkpt>
      <trkpt lat="42.96473" lon="0.86625">
        <ele>1259</ele>
        <time>2016-03-26T09:50:57Z</time>
      </trkpt>
      <trkpt lat="42.96473" lon="0.86624">
        <ele>1259</ele>
        <time>2016-03-26T09:50:58Z</time>
      </trkpt>
      <trkpt lat="42.96471" lon="0.86622">
        <ele>1259</ele>
        <time>2016-03-26T09:51:00Z</time>
      </trkpt>
      <trkpt lat="42.96471" lon="0.86622">
        <ele>1260</ele>
        <time>2016-03-26T09:51:01Z</time>
      </trkpt>
      <trkpt lat="42.96471" lon="0.86621">
        <ele>1260</ele>
        <time>2016-03-26T09:51:02Z</time>
      </trkpt>
      <trkpt lat="42.9647" lon="0.8662">
        <ele>1261</ele>
        <time>2016-03-26T09:51:04Z</time>
      </trkpt>
      <trkpt lat="42.9647" lon="0.86618">
        <ele>1261</ele>
        <time>2016-03-26T09:51:06Z</time>
      </trkpt>
      <trkpt lat="42.96468" lon="0.86615">
        <ele>1262</ele>
        <time>2016-03-26T09:51:08Z</time>
      </trkpt>
      <trkpt lat="42.96468" lon="0.86613">
        <ele>1262</ele>
        <time>2016-03-26T09:51:09Z</time>
      </trkpt>
      <trkpt lat="42.96468" lon="0.86612">
        <ele>1263</ele>
        <time>2016-03-26T09:51:10Z</time>
      </trkpt>
      <trkpt lat="42.96468" lon="0.8661">
        <ele>1263</ele>
        <time>2016-03-26T09:51:12Z</time>
      </trkpt>
      <trkpt lat="42.96468" lon="0.86608">
        <ele>1264</ele>
        <time>2016-03-26T09:51:14Z</time>
      </trkpt>
      <trkpt lat="42.96468" lon="0.86605">
        <ele>1264</ele>
        <time>2016-03-26T09:51:15Z</time>
      </trkpt>
      <trkpt lat="42.96467" lon="0.86602">
        <ele>1265</ele>
        <time>2016-03-26T09:51:17Z</time>
      </trkpt>
      <trkpt lat="42.96466" lon="0.866">
        <ele>1265</ele>
        <time>2016-03-26T09:51:18Z</time>
      </trkpt>
      <trkpt lat="42.96465" lon="0.86598">
        <ele>1266</ele>
        <time>2016-03-26T09:51:20Z</time>
      </trkpt>
      <trkpt lat="42.96464" lon="0.86597">
        <ele>1267</ele>
        <time>2016-03-26T09:51:22Z</time>
      </trkpt>
      <trkpt lat="42.96463" lon="0.86595">
        <ele>1267</ele>
        <time>2016-03-26T09:51:24Z</time>
      </trkpt>
      <trkpt lat="42.96462" lon="0.86593">
        <ele>1268</ele>
        <time>2016-03-26T09:51:26Z</time>
      </trkpt>
      <trkpt lat="42.9646" lon="0.86589">
        <ele>1268</ele>
        <time>2016-03-26T09:51:29Z</time>
      </trkpt>
      <trkpt lat="42.9646" lon="0.86588">
        <ele>1269</ele>
        <time>2016-03-26T09:51:30Z</time>
      </trkpt>
      <trkpt lat="42.9646" lon="0.86585">
        <ele>1269</ele>
        <time>2016-03-26T09:51:32Z</time>
      </trkpt>
      <trkpt lat="42.96458" lon="0.86581">
        <ele>1270</ele>
        <time>2016-03-26T09:51:34Z</time>
      </trkpt>
      <trkpt lat="42.96458" lon="0.86579">
        <ele>1270</ele>
        <time>2016-03-26T09:51:35Z</time>
      </trkpt>
      <trkpt lat="42.96458" lon="0.86577">
        <ele>1271</ele>
        <time>2016-03-26T09:51:37Z</time>
      </trkpt>
      <trkpt lat="42.96457" lon="0.86575">
        <ele>1271</ele>
        <time>2016-03-26T09:51:38Z</time>
      </trkpt>
      <trkpt lat="42.96457" lon="0.86572">
        <ele>1271</ele>
        <time>2016-03-26T09:51:40Z</time>
      </trkpt>
      <trkpt lat="42.96456" lon="0.86569">
        <ele>1272</ele>
        <time>2016-03-26T09:51:42Z</time>
      </trkpt>
      <trkpt lat="42.96455" lon="0.86568">
        <ele>1272</ele>
        <time>2016-03-26T09:51:43Z</time>
      </trkpt>
      <trkpt lat="42.96455" lon="0.86566">
        <ele>1273</ele>
        <time>2016-03-26T09:51:45Z</time>
      </trkpt>
      <trkpt lat="42.96455" lon="0.86565">
        <ele>1273</ele>
        <time>2016-03-26T09:51:46Z</time>
      </trkpt>
      <trkpt lat="42.96454" lon="0.86562">
        <ele>1273</ele>
        <time>2016-03-26T09:51:48Z</time>
      </trkpt>
      <trkpt lat="42.96452" lon="0.86561">
        <ele>1274</ele>
        <time>2016-03-26T09:51:50Z</time>
      </trkpt>
      <trkpt lat="42.9645" lon="0.8656">
        <ele>1274</ele>
        <time>2016-03-26T09:51:51Z</time>
      </trkpt>
      <trkpt lat="42.9645" lon="0.86559">
        <ele>1274</ele>
        <time>2016-03-26T09:51:53Z</time>
      </trkpt>
      <trkpt lat="42.96449" lon="0.86557">
        <ele>1274</ele>
        <time>2016-03-26T09:51:55Z</time>
      </trkpt>
      <trkpt lat="42.96449" lon="0.86555">
        <ele>1275</ele>
        <time>2016-03-26T09:51:57Z</time>
      </trkpt>
      <trkpt lat="42.96449" lon="0.86554">
        <ele>1275</ele>
        <time>2016-03-26T09:51:59Z</time>
      </trkpt>
      <trkpt lat="42.96449" lon="0.86553">
        <ele>1275</ele>
        <time>2016-03-26T09:52:01Z</time>
      </trkpt>
      <trkpt lat="42.96449" lon="0.8655">
        <ele>1276</ele>
        <time>2016-03-26T09:52:03Z</time>
      </trkpt>
      <trkpt lat="42.96449" lon="0.86549">
        <ele>1276</ele>
        <time>2016-03-26T09:52:05Z</time>
      </trkpt>
      <trkpt lat="42.96449" lon="0.86548">
        <ele>1276</ele>
        <time>2016-03-26T09:52:07Z</time>
      </trkpt>
      <trkpt lat="42.96448" lon="0.86546">
        <ele>1276</ele>
        <time>2016-03-26T09:52:09Z</time>
      </trkpt>
      <trkpt lat="42.96448" lon="0.86546">
        <ele>1276</ele>
        <time>2016-03-26T09:52:10Z</time>
      </trkpt>
      <trkpt lat="42.96448" lon="0.86544">
        <ele>1277</ele>
        <time>2016-03-26T09:52:12Z</time>
      </trkpt>
      <trkpt lat="42.96448" lon="0.86543">
        <ele>1277</ele>
        <time>2016-03-26T09:52:14Z</time>
      </trkpt>
      <trkpt lat="42.96447" lon="0.86542">
        <ele>1277</ele>
        <time>2016-03-26T09:52:15Z</time>
      </trkpt>
      <trkpt lat="42.96447" lon="0.86541">
        <ele>1277</ele>
        <time>2016-03-26T09:52:17Z</time>
      </trkpt>
      <trkpt lat="42.96447" lon="0.8654">
        <ele>1277</ele>
        <time>2016-03-26T09:52:18Z</time>
      </trkpt>
      <trkpt lat="42.96446" lon="0.86538">
        <ele>1277</ele>
        <time>2016-03-26T09:52:20Z</time>
      </trkpt>
      <trkpt lat="42.96444" lon="0.86536">
        <ele>1277</ele>
        <time>2016-03-26T09:52:22Z</time>
      </trkpt>
      <trkpt lat="42.96443" lon="0.86535">
        <ele>1278</ele>
        <time>2016-03-26T09:52:23Z</time>
      </trkpt>
      <trkpt lat="42.96442" lon="0.86534">
        <ele>1278</ele>
        <time>2016-03-26T09:52:25Z</time>
      </trkpt>
      <trkpt lat="42.96441" lon="0.86532">
        <ele>1278</ele>
        <time>2016-03-26T09:52:27Z</time>
      </trkpt>
      <trkpt lat="42.96439" lon="0.8653">
        <ele>1278</ele>
        <time>2016-03-26T09:52:29Z</time>
      </trkpt>
      <trkpt lat="42.96439" lon="0.86529">
        <ele>1278</ele>
        <time>2016-03-26T09:52:30Z</time>
      </trkpt>
      <trkpt lat="42.96439" lon="0.86528">
        <ele>1279</ele>
        <time>2016-03-26T09:52:31Z</time>
      </trkpt>
      <trkpt lat="42.96437" lon="0.86527">
        <ele>1279</ele>
        <time>2016-03-26T09:52:33Z</time>
      </trkpt>
      <trkpt lat="42.96437" lon="0.86524">
        <ele>1279</ele>
        <time>2016-03-26T09:52:35Z</time>
      </trkpt>
      <trkpt lat="42.96436" lon="0.86522">
        <ele>1279</ele>
        <time>2016-03-26T09:52:37Z</time>
      </trkpt>
      <trkpt lat="42.96436" lon="0.86522">
        <ele>1279</ele>
        <time>2016-03-26T09:52:38Z</time>
      </trkpt>
      <trkpt lat="42.96434" lon="0.86519">
        <ele>1280</ele>
        <time>2016-03-26T09:52:40Z</time>
      </trkpt>
      <trkpt lat="42.96434" lon="0.86518">
        <ele>1280</ele>
        <time>2016-03-26T09:52:41Z</time>
      </trkpt>
      <trkpt lat="42.96433" lon="0.86517">
        <ele>1280</ele>
        <time>2016-03-26T09:52:43Z</time>
      </trkpt>
      <trkpt lat="42.96433" lon="0.86516">
        <ele>1280</ele>
        <time>2016-03-26T09:52:45Z</time>
      </trkpt>
      <trkpt lat="42.96432" lon="0.86515">
        <ele>1280</ele>
        <time>2016-03-26T09:52:46Z</time>
      </trkpt>
      <trkpt lat="42.96431" lon="0.86515">
        <ele>1280</ele>
        <time>2016-03-26T09:52:48Z</time>
      </trkpt>
      <trkpt lat="42.96431" lon="0.86514">
        <ele>1280</ele>
        <time>2016-03-26T09:52:49Z</time>
      </trkpt>
      <trkpt lat="42.96431" lon="0.86513">
        <ele>1280</ele>
        <time>2016-03-26T09:52:51Z</time>
      </trkpt>
      <trkpt lat="42.96431" lon="0.86511">
        <ele>1281</ele>
        <time>2016-03-26T09:52:54Z</time>
      </trkpt>
      <trkpt lat="42.96431" lon="0.86509">
        <ele>1281</ele>
        <time>2016-03-26T09:52:55Z</time>
      </trkpt>
      <trkpt lat="42.9643" lon="0.86508">
        <ele>1281</ele>
        <time>2016-03-26T09:52:57Z</time>
      </trkpt>
      <trkpt lat="42.9643" lon="0.86507">
        <ele>1281</ele>
        <time>2016-03-26T09:52:58Z</time>
      </trkpt>
      <trkpt lat="42.9643" lon="0.86506">
        <ele>1282</ele>
        <time>2016-03-26T09:53:00Z</time>
      </trkpt>
      <trkpt lat="42.9643" lon="0.86505">
        <ele>1282</ele>
        <time>2016-03-26T09:53:01Z</time>
      </trkpt>
      <trkpt lat="42.96429" lon="0.86503">
        <ele>1282</ele>
        <time>2016-03-26T09:53:03Z</time>
      </trkpt>
      <trkpt lat="42.96429" lon="0.86503">
        <ele>1282</ele>
        <time>2016-03-26T09:53:04Z</time>
      </trkpt>
      <trkpt lat="42.96428" lon="0.865">
        <ele>1282</ele>
        <time>2016-03-26T09:53:06Z</time>
      </trkpt>
      <trkpt lat="42.96427" lon="0.86499">
        <ele>1282</ele>
        <time>2016-03-26T09:53:08Z</time>
      </trkpt>
      <trkpt lat="42.96426" lon="0.86498">
        <ele>1282</ele>
        <time>2016-03-26T09:53:09Z</time>
      </trkpt>
      <trkpt lat="42.96426" lon="0.86496">
        <ele>1282</ele>
        <time>2016-03-26T09:53:11Z</time>
      </trkpt>
      <trkpt lat="42.96426" lon="0.86495">
        <ele>1283</ele>
        <time>2016-03-26T09:53:13Z</time>
      </trkpt>
      <trkpt lat="42.96426" lon="0.86494">
        <ele>1283</ele>
        <time>2016-03-26T09:53:14Z</time>
      </trkpt>
      <trkpt lat="42.96425" lon="0.86493">
        <ele>1283</ele>
        <time>2016-03-26T09:53:16Z</time>
      </trkpt>
      <trkpt lat="42.96425" lon="0.86491">
        <ele>1283</ele>
        <time>2016-03-26T09:53:18Z</time>
      </trkpt>
      <trkpt lat="42.96425" lon="0.8649">
        <ele>1283</ele>
        <time>2016-03-26T09:53:19Z</time>
      </trkpt>
      <trkpt lat="42.96423" lon="0.86489">
        <ele>1283</ele>
        <time>2016-03-26T09:53:21Z</time>
      </trkpt>
      <trkpt lat="42.96423" lon="0.86489">
        <ele>1284</ele>
        <time>2016-03-26T09:53:22Z</time>
      </trkpt>
      <trkpt lat="42.96423" lon="0.86487">
        <ele>1284</ele>
        <time>2016-03-26T09:53:24Z</time>
      </trkpt>
      <trkpt lat="42.96422" lon="0.86485">
        <ele>1284</ele>
        <time>2016-03-26T09:53:26Z</time>
      </trkpt>
      <trkpt lat="42.96422" lon="0.86484">
        <ele>1284</ele>
        <time>2016-03-26T09:53:27Z</time>
      </trkpt>
      <trkpt lat="42.96422" lon="0.86482">
        <ele>1284</ele>
        <time>2016-03-26T09:53:29Z</time>
      </trkpt>
      <trkpt lat="42.96421" lon="0.8648">
        <ele>1284</ele>
        <time>2016-03-26T09:53:31Z</time>
      </trkpt>
      <trkpt lat="42.96421" lon="0.86479">
        <ele>1284</ele>
        <time>2016-03-26T09:53:32Z</time>
      </trkpt>
      <trkpt lat="42.9642" lon="0.86478">
        <ele>1284</ele>
        <time>2016-03-26T09:53:34Z</time>
      </trkpt>
      <trkpt lat="42.96419" lon="0.86477">
        <ele>1284</ele>
        <time>2016-03-26T09:53:35Z</time>
      </trkpt>
      <trkpt lat="42.96418" lon="0.86472">
        <ele>1284</ele>
        <time>2016-03-26T09:53:37Z</time>
      </trkpt>
      <trkpt lat="42.96417" lon="0.8647">
        <ele>1284</ele>
        <time>2016-03-26T09:53:39Z</time>
      </trkpt>
      <trkpt lat="42.96415" lon="0.86468">
        <ele>1284</ele>
        <time>2016-03-26T09:53:41Z</time>
      </trkpt>
      <trkpt lat="42.96416" lon="0.86465">
        <ele>1284</ele>
        <time>2016-03-26T09:53:43Z</time>
      </trkpt>
      <trkpt lat="42.96415" lon="0.86463">
        <ele>1285</ele>
        <time>2016-03-26T09:53:45Z</time>
      </trkpt>
      <trkpt lat="42.96414" lon="0.86461">
        <ele>1285</ele>
        <time>2016-03-26T09:53:46Z</time>
      </trkpt>
      <trkpt lat="42.96413" lon="0.8646">
        <ele>1285</ele>
        <time>2016-03-26T09:53:48Z</time>
      </trkpt>
      <trkpt lat="42.96413" lon="0.86459">
        <ele>1285</ele>
        <time>2016-03-26T09:53:49Z</time>
      </trkpt>
      <trkpt lat="42.96412" lon="0.86458">
        <ele>1285</ele>
        <time>2016-03-26T09:53:50Z</time>
      </trkpt>
      <trkpt lat="42.96412" lon="0.86457">
        <ele>1285</ele>
        <time>2016-03-26T09:53:51Z</time>
      </trkpt>
      <trkpt lat="42.96411" lon="0.86456">
        <ele>1285</ele>
        <time>2016-03-26T09:53:52Z</time>
      </trkpt>
      <trkpt lat="42.9641" lon="0.86454">
        <ele>1285</ele>
        <time>2016-03-26T09:53:54Z</time>
      </trkpt>
      <trkpt lat="42.96409" lon="0.86454">
        <ele>1286</ele>
        <time>2016-03-26T09:53:55Z</time>
      </trkpt>
      <trkpt lat="42.96409" lon="0.86452">
        <ele>1286</ele>
        <time>2016-03-26T09:53:57Z</time>
      </trkpt>
      <trkpt lat="42.96407" lon="0.86449">
        <ele>1286</ele>
        <time>2016-03-26T09:53:59Z</time>
      </trkpt>
      <trkpt lat="42.96406" lon="0.86448">
        <ele>1286</ele>
        <time>2016-03-26T09:54:00Z</time>
      </trkpt>
      <trkpt lat="42.96406" lon="0.86447">
        <ele>1286</ele>
        <time>2016-03-26T09:54:01Z</time>
      </trkpt>
      <trkpt lat="42.96406" lon="0.86445">
        <ele>1286</ele>
        <time>2016-03-26T09:54:03Z</time>
      </trkpt>
      <trkpt lat="42.96406" lon="0.86443">
        <ele>1286</ele>
        <time>2016-03-26T09:54:05Z</time>
      </trkpt>
      <trkpt lat="42.96405" lon="0.86442">
        <ele>1286</ele>
        <time>2016-03-26T09:54:06Z</time>
      </trkpt>
      <trkpt lat="42.96405" lon="0.86441">
        <ele>1286</ele>
        <time>2016-03-26T09:54:07Z</time>
      </trkpt>
      <trkpt lat="42.96403" lon="0.8644">
        <ele>1287</ele>
        <time>2016-03-26T09:54:09Z</time>
      </trkpt>
      <trkpt lat="42.96402" lon="0.86438">
        <ele>1287</ele>
        <time>2016-03-26T09:54:10Z</time>
      </trkpt>
      <trkpt lat="42.96401" lon="0.86437">
        <ele>1287</ele>
        <time>2016-03-26T09:54:12Z</time>
      </trkpt>
      <trkpt lat="42.96398" lon="0.86433">
        <ele>1287</ele>
        <time>2016-03-26T09:54:16Z</time>
      </trkpt>
      <trkpt lat="42.96397" lon="0.86432">
        <ele>1287</ele>
        <time>2016-03-26T09:54:18Z</time>
      </trkpt>
      <trkpt lat="42.96396" lon="0.8643">
        <ele>1288</ele>
        <time>2016-03-26T09:54:20Z</time>
      </trkpt>
      <trkpt lat="42.96396" lon="0.8643">
        <ele>1288</ele>
        <time>2016-03-26T09:54:22Z</time>
      </trkpt>
      <trkpt lat="42.96394" lon="0.86426">
        <ele>1288</ele>
        <time>2016-03-26T09:54:27Z</time>
      </trkpt>
      <trkpt lat="42.96392" lon="0.86425">
        <ele>1289</ele>
        <time>2016-03-26T09:54:29Z</time>
      </trkpt>
      <trkpt lat="42.96391" lon="0.86424">
        <ele>1289</ele>
        <time>2016-03-26T09:54:31Z</time>
      </trkpt>
      <trkpt lat="42.9639" lon="0.86423">
        <ele>1289</ele>
        <time>2016-03-26T09:54:33Z</time>
      </trkpt>
      <trkpt lat="42.96389" lon="0.86422">
        <ele>1289</ele>
        <time>2016-03-26T09:54:35Z</time>
      </trkpt>
      <trkpt lat="42.96388" lon="0.8642">
        <ele>1289</ele>
        <time>2016-03-26T09:54:36Z</time>
      </trkpt>
      <trkpt lat="42.96387" lon="0.86419">
        <ele>1289</ele>
        <time>2016-03-26T09:54:38Z</time>
      </trkpt>
      <trkpt lat="42.96387" lon="0.86418">
        <ele>1289</ele>
        <time>2016-03-26T09:54:39Z</time>
      </trkpt>
      <trkpt lat="42.96386" lon="0.86418">
        <ele>1289</ele>
        <time>2016-03-26T09:54:40Z</time>
      </trkpt>
      <trkpt lat="42.96386" lon="0.86418">
        <ele>1289</ele>
        <time>2016-03-26T09:54:41Z</time>
      </trkpt>
      <trkpt lat="42.96384" lon="0.86416">
        <ele>1289</ele>
        <time>2016-03-26T09:54:44Z</time>
      </trkpt>
      <trkpt lat="42.96384" lon="0.86416">
        <ele>1289</ele>
        <time>2016-03-26T09:54:45Z</time>
      </trkpt>
      <trkpt lat="42.96383" lon="0.86416">
        <ele>1289</ele>
        <time>2016-03-26T09:54:46Z</time>
      </trkpt>
      <trkpt lat="42.96382" lon="0.86415">
        <ele>1289</ele>
        <time>2016-03-26T09:54:48Z</time>
      </trkpt>
      <trkpt lat="42.96381" lon="0.86413">
        <ele>1289</ele>
        <time>2016-03-26T09:54:50Z</time>
      </trkpt>
      <trkpt lat="42.9638" lon="0.86412">
        <ele>1289</ele>
        <time>2016-03-26T09:54:52Z</time>
      </trkpt>
      <trkpt lat="42.96379" lon="0.86412">
        <ele>1289</ele>
        <time>2016-03-26T09:54:53Z</time>
      </trkpt>
      <trkpt lat="42.96377" lon="0.8641">
        <ele>1289</ele>
        <time>2016-03-26T09:54:55Z</time>
      </trkpt>
      <trkpt lat="42.96377" lon="0.8641">
        <ele>1290</ele>
        <time>2016-03-26T09:54:56Z</time>
      </trkpt>
      <trkpt lat="42.96376" lon="0.86407">
        <ele>1290</ele>
        <time>2016-03-26T09:54:58Z</time>
      </trkpt>
      <trkpt lat="42.96375" lon="0.86405">
        <ele>1290</ele>
        <time>2016-03-26T09:55:00Z</time>
      </trkpt>
      <trkpt lat="42.96374" lon="0.86405">
        <ele>1290</ele>
        <time>2016-03-26T09:55:01Z</time>
      </trkpt>
      <trkpt lat="42.96373" lon="0.86403">
        <ele>1290</ele>
        <time>2016-03-26T09:55:03Z</time>
      </trkpt>
      <trkpt lat="42.96372" lon="0.86402">
        <ele>1290</ele>
        <time>2016-03-26T09:55:04Z</time>
      </trkpt>
      <trkpt lat="42.9637" lon="0.86401">
        <ele>1290</ele>
        <time>2016-03-26T09:55:07Z</time>
      </trkpt>
      <trkpt lat="42.96369" lon="0.864">
        <ele>1290</ele>
        <time>2016-03-26T09:55:09Z</time>
      </trkpt>
      <trkpt lat="42.96369" lon="0.86399">
        <ele>1290</ele>
        <time>2016-03-26T09:55:10Z</time>
      </trkpt>
      <trkpt lat="42.96367" lon="0.86399">
        <ele>1290</ele>
        <time>2016-03-26T09:55:12Z</time>
      </trkpt>
      <trkpt lat="42.96367" lon="0.86398">
        <ele>1290</ele>
        <time>2016-03-26T09:55:14Z</time>
      </trkpt>
      <trkpt lat="42.96366" lon="0.86397">
        <ele>1291</ele>
        <time>2016-03-26T09:55:16Z</time>
      </trkpt>
      <trkpt lat="42.96365" lon="0.86396">
        <ele>1291</ele>
        <time>2016-03-26T09:55:17Z</time>
      </trkpt>
      <trkpt lat="42.96365" lon="0.86396">
        <ele>1291</ele>
        <time>2016-03-26T09:55:18Z</time>
      </trkpt>
      <trkpt lat="42.96365" lon="0.86394">
        <ele>1291</ele>
        <time>2016-03-26T09:55:20Z</time>
      </trkpt>
      <trkpt lat="42.96365" lon="0.86393">
        <ele>1291</ele>
        <time>2016-03-26T09:55:22Z</time>
      </trkpt>
      <trkpt lat="42.96363" lon="0.86392">
        <ele>1291</ele>
        <time>2016-03-26T09:55:24Z</time>
      </trkpt>
      <trkpt lat="42.96363" lon="0.86391">
        <ele>1291</ele>
        <time>2016-03-26T09:55:26Z</time>
      </trkpt>
      <trkpt lat="42.96361" lon="0.8639">
        <ele>1291</ele>
        <time>2016-03-26T09:55:28Z</time>
      </trkpt>
      <trkpt lat="42.9636" lon="0.86388">
        <ele>1291</ele>
        <time>2016-03-26T09:55:30Z</time>
      </trkpt>
      <trkpt lat="42.96358" lon="0.86387">
        <ele>1291</ele>
        <time>2016-03-26T09:55:32Z</time>
      </trkpt>
      <trkpt lat="42.96357" lon="0.86386">
        <ele>1291</ele>
        <time>2016-03-26T09:55:34Z</time>
      </trkpt>
      <trkpt lat="42.96357" lon="0.86385">
        <ele>1291</ele>
        <time>2016-03-26T09:55:35Z</time>
      </trkpt>
      <trkpt lat="42.96356" lon="0.86384">
        <ele>1292</ele>
        <time>2016-03-26T09:55:37Z</time>
      </trkpt>
      <trkpt lat="42.96355" lon="0.86383">
        <ele>1292</ele>
        <time>2016-03-26T09:55:38Z</time>
      </trkpt>
      <trkpt lat="42.96354" lon="0.86383">
        <ele>1292</ele>
        <time>2016-03-26T09:55:40Z</time>
      </trkpt>
      <trkpt lat="42.96352" lon="0.86382">
        <ele>1292</ele>
        <time>2016-03-26T09:55:42Z</time>
      </trkpt>
      <trkpt lat="42.96352" lon="0.86382">
        <ele>1292</ele>
        <time>2016-03-26T09:55:43Z</time>
      </trkpt>
      <trkpt lat="42.96351" lon="0.86381">
        <ele>1292</ele>
        <time>2016-03-26T09:55:45Z</time>
      </trkpt>
      <trkpt lat="42.96349" lon="0.86381">
        <ele>1292</ele>
        <time>2016-03-26T09:55:46Z</time>
      </trkpt>
      <trkpt lat="42.96348" lon="0.86381">
        <ele>1292</ele>
        <time>2016-03-26T09:55:48Z</time>
      </trkpt>
      <trkpt lat="42.96346" lon="0.86381">
        <ele>1292</ele>
        <time>2016-03-26T09:55:50Z</time>
      </trkpt>
      <trkpt lat="42.96345" lon="0.8638">
        <ele>1292</ele>
        <time>2016-03-26T09:55:52Z</time>
      </trkpt>
      <trkpt lat="42.96344" lon="0.86379">
        <ele>1292</ele>
        <time>2016-03-26T09:55:53Z</time>
      </trkpt>
      <trkpt lat="42.96343" lon="0.86378">
        <ele>1292</ele>
        <time>2016-03-26T09:55:55Z</time>
      </trkpt>
      <trkpt lat="42.96341" lon="0.86377">
        <ele>1292</ele>
        <time>2016-03-26T09:55:57Z</time>
      </trkpt>
      <trkpt lat="42.96341" lon="0.86376">
        <ele>1292</ele>
        <time>2016-03-26T09:55:58Z</time>
      </trkpt>
      <trkpt lat="42.9634" lon="0.86375">
        <ele>1292</ele>
        <time>2016-03-26T09:56:00Z</time>
      </trkpt>
      <trkpt lat="42.9634" lon="0.86374">
        <ele>1292</ele>
        <time>2016-03-26T09:56:01Z</time>
      </trkpt>
      <trkpt lat="42.9634" lon="0.86372">
        <ele>1292</ele>
        <time>2016-03-26T09:56:03Z</time>
      </trkpt>
      <trkpt lat="42.96339" lon="0.8637">
        <ele>1292</ele>
        <time>2016-03-26T09:56:05Z</time>
      </trkpt>
      <trkpt lat="42.96339" lon="0.86368">
        <ele>1292</ele>
        <time>2016-03-26T09:56:07Z</time>
      </trkpt>
      <trkpt lat="42.96339" lon="0.86366">
        <ele>1292</ele>
        <time>2016-03-26T09:56:08Z</time>
      </trkpt>
      <trkpt lat="42.96339" lon="0.86363">
        <ele>1293</ele>
        <time>2016-03-26T09:56:10Z</time>
      </trkpt>
      <trkpt lat="42.96339" lon="0.8636">
        <ele>1293</ele>
        <time>2016-03-26T09:56:12Z</time>
      </trkpt>
      <trkpt lat="42.96339" lon="0.86357">
        <ele>1293</ele>
        <time>2016-03-26T09:56:14Z</time>
      </trkpt>
      <trkpt lat="42.96339" lon="0.86356">
        <ele>1293</ele>
        <time>2016-03-26T09:56:15Z</time>
      </trkpt>
      <trkpt lat="42.96339" lon="0.86354">
        <ele>1293</ele>
        <time>2016-03-26T09:56:17Z</time>
      </trkpt>
      <trkpt lat="42.96339" lon="0.86352">
        <ele>1294</ele>
        <time>2016-03-26T09:56:19Z</time>
      </trkpt>
      <trkpt lat="42.96338" lon="0.86352">
        <ele>1294</ele>
        <time>2016-03-26T09:56:20Z</time>
      </trkpt>
      <trkpt lat="42.96339" lon="0.8635">
        <ele>1294</ele>
        <time>2016-03-26T09:56:22Z</time>
      </trkpt>
      <trkpt lat="42.96339" lon="0.86349">
        <ele>1295</ele>
        <time>2016-03-26T09:56:23Z</time>
      </trkpt>
      <trkpt lat="42.96338" lon="0.86348">
        <ele>1295</ele>
        <time>2016-03-26T09:56:25Z</time>
      </trkpt>
      <trkpt lat="42.96338" lon="0.86345">
        <ele>1295</ele>
        <time>2016-03-26T09:56:27Z</time>
      </trkpt>
      <trkpt lat="42.96337" lon="0.86344">
        <ele>1295</ele>
        <time>2016-03-26T09:56:28Z</time>
      </trkpt>
      <trkpt lat="42.96337" lon="0.86344">
        <ele>1295</ele>
        <time>2016-03-26T09:56:30Z</time>
      </trkpt>
      <trkpt lat="42.96336" lon="0.86343">
        <ele>1295</ele>
        <time>2016-03-26T09:56:31Z</time>
      </trkpt>
      <trkpt lat="42.96335" lon="0.86344">
        <ele>1295</ele>
        <time>2016-03-26T09:56:33Z</time>
      </trkpt>
      <trkpt lat="42.96335" lon="0.86344">
        <ele>1295</ele>
        <time>2016-03-26T09:56:35Z</time>
      </trkpt>
      <trkpt lat="42.96333" lon="0.86344">
        <ele>1296</ele>
        <time>2016-03-26T09:56:37Z</time>
      </trkpt>
      <trkpt lat="42.96331" lon="0.86331">
        <ele>1296</ele>
        <time>2016-03-26T09:56:52Z</time>
      </trkpt>
      <trkpt lat="42.96331" lon="0.8633">
        <ele>1297</ele>
        <time>2016-03-26T09:56:53Z</time>
      </trkpt>
      <trkpt lat="42.96331" lon="0.86329">
        <ele>1298</ele>
        <time>2016-03-26T09:56:55Z</time>
      </trkpt>
      <trkpt lat="42.96331" lon="0.86329">
        <ele>1298</ele>
        <time>2016-03-26T09:57:21Z</time>
      </trkpt>
      <trkpt lat="42.96331" lon="0.86329">
        <ele>1299</ele>
        <time>2016-03-26T09:57:22Z</time>
      </trkpt>
      <trkpt lat="42.96337" lon="0.8633">
        <ele>1299</ele>
        <time>2016-03-26T09:57:38Z</time>
      </trkpt>
      <trkpt lat="42.96336" lon="0.86328">
        <ele>1299</ele>
        <time>2016-03-26T09:57:40Z</time>
      </trkpt>
      <trkpt lat="42.96336" lon="0.86327">
        <ele>1299</ele>
        <time>2016-03-26T09:57:42Z</time>
      </trkpt>
      <trkpt lat="42.96335" lon="0.86326">
        <ele>1299</ele>
        <time>2016-03-26T09:57:44Z</time>
      </trkpt>
      <trkpt lat="42.96334" lon="0.86324">
        <ele>1299</ele>
        <time>2016-03-26T09:57:46Z</time>
      </trkpt>
      <trkpt lat="42.96333" lon="0.86323">
        <ele>1299</ele>
        <time>2016-03-26T09:57:48Z</time>
      </trkpt>
      <trkpt lat="42.96333" lon="0.86322">
        <ele>1299</ele>
        <time>2016-03-26T09:57:49Z</time>
      </trkpt>
      <trkpt lat="42.96333" lon="0.8632">
        <ele>1299</ele>
        <time>2016-03-26T09:57:50Z</time>
      </trkpt>
      <trkpt lat="42.96332" lon="0.86319">
        <ele>1299</ele>
        <time>2016-03-26T09:57:52Z</time>
      </trkpt>
      <trkpt lat="42.96332" lon="0.86317">
        <ele>1299</ele>
        <time>2016-03-26T09:57:54Z</time>
      </trkpt>
      <trkpt lat="42.96332" lon="0.86316">
        <ele>1299</ele>
        <time>2016-03-26T09:57:55Z</time>
      </trkpt>
      <trkpt lat="42.96332" lon="0.86314">
        <ele>1299</ele>
        <time>2016-03-26T09:57:57Z</time>
      </trkpt>
      <trkpt lat="42.96332" lon="0.86314">
        <ele>1299</ele>
        <time>2016-03-26T09:57:58Z</time>
      </trkpt>
      <trkpt lat="42.96331" lon="0.86312">
        <ele>1299</ele>
        <time>2016-03-26T09:58:00Z</time>
      </trkpt>
      <trkpt lat="42.96331" lon="0.86311">
        <ele>1298</ele>
        <time>2016-03-26T09:58:01Z</time>
      </trkpt>
      <trkpt lat="42.9633" lon="0.86309">
        <ele>1298</ele>
        <time>2016-03-26T09:58:03Z</time>
      </trkpt>
      <trkpt lat="42.9633" lon="0.86308">
        <ele>1298</ele>
        <time>2016-03-26T09:58:04Z</time>
      </trkpt>
      <trkpt lat="42.9633" lon="0.86306">
        <ele>1298</ele>
        <time>2016-03-26T09:58:06Z</time>
      </trkpt>
      <trkpt lat="42.9633" lon="0.86305">
        <ele>1298</ele>
        <time>2016-03-26T09:58:07Z</time>
      </trkpt>
      <trkpt lat="42.9633" lon="0.86303">
        <ele>1298</ele>
        <time>2016-03-26T09:58:09Z</time>
      </trkpt>
      <trkpt lat="42.9633" lon="0.86303">
        <ele>1298</ele>
        <time>2016-03-26T09:58:10Z</time>
      </trkpt>
      <trkpt lat="42.9633" lon="0.86301">
        <ele>1298</ele>
        <time>2016-03-26T09:58:12Z</time>
      </trkpt>
      <trkpt lat="42.9633" lon="0.86299">
        <ele>1298</ele>
        <time>2016-03-26T09:58:14Z</time>
      </trkpt>
      <trkpt lat="42.9633" lon="0.86298">
        <ele>1298</ele>
        <time>2016-03-26T09:58:15Z</time>
      </trkpt>
      <trkpt lat="42.9633" lon="0.86297">
        <ele>1298</ele>
        <time>2016-03-26T09:58:17Z</time>
      </trkpt>
      <trkpt lat="42.9633" lon="0.86296">
        <ele>1298</ele>
        <time>2016-03-26T09:58:19Z</time>
      </trkpt>
      <trkpt lat="42.9633" lon="0.86296">
        <ele>1298</ele>
        <time>2016-03-26T09:58:20Z</time>
      </trkpt>
      <trkpt lat="42.96329" lon="0.86295">
        <ele>1298</ele>
        <time>2016-03-26T09:58:22Z</time>
      </trkpt>
      <trkpt lat="42.9633" lon="0.86294">
        <ele>1298</ele>
        <time>2016-03-26T09:58:24Z</time>
      </trkpt>
      <trkpt lat="42.9633" lon="0.86292">
        <ele>1298</ele>
        <time>2016-03-26T09:58:26Z</time>
      </trkpt>
      <trkpt lat="42.9633" lon="0.86291">
        <ele>1298</ele>
        <time>2016-03-26T09:58:27Z</time>
      </trkpt>
      <trkpt lat="42.9633" lon="0.8629">
        <ele>1298</ele>
        <time>2016-03-26T09:58:28Z</time>
      </trkpt>
      <trkpt lat="42.9633" lon="0.86288">
        <ele>1298</ele>
        <time>2016-03-26T09:58:30Z</time>
      </trkpt>
      <trkpt lat="42.9633" lon="0.86286">
        <ele>1298</ele>
        <time>2016-03-26T09:58:32Z</time>
      </trkpt>
      <trkpt lat="42.96331" lon="0.8628">
        <ele>1298</ele>
        <time>2016-03-26T09:58:34Z</time>
      </trkpt>
      <trkpt lat="42.96331" lon="0.86279">
        <ele>1298</ele>
        <time>2016-03-26T09:58:36Z</time>
      </trkpt>
      <trkpt lat="42.96332" lon="0.8628">
        <ele>1298</ele>
        <time>2016-03-26T09:58:38Z</time>
      </trkpt>
      <trkpt lat="42.96332" lon="0.8628">
        <ele>1298</ele>
        <time>2016-03-26T09:58:39Z</time>
      </trkpt>
      <trkpt lat="42.96332" lon="0.8628">
        <ele>1298</ele>
        <time>2016-03-26T09:58:40Z</time>
      </trkpt>
      <trkpt lat="42.96332" lon="0.86282">
        <ele>1298</ele>
        <time>2016-03-26T09:58:42Z</time>
      </trkpt>
      <trkpt lat="42.96332" lon="0.86282">
        <ele>1298</ele>
        <time>2016-03-26T09:59:12Z</time>
      </trkpt>
      <trkpt lat="42.96332" lon="0.86282">
        <ele>1298</ele>
        <time>2016-03-26T09:59:14Z</time>
      </trkpt>
      <trkpt lat="42.96326" lon="0.86291">
        <ele>1297</ele>
        <time>2016-03-26T09:59:22Z</time>
      </trkpt>
      <trkpt lat="42.96326" lon="0.8629">
        <ele>1297</ele>
        <time>2016-03-26T09:59:24Z</time>
      </trkpt>
      <trkpt lat="42.96322" lon="0.86279">
        <ele>1297</ele>
        <time>2016-03-26T09:59:52Z</time>
      </trkpt>
      <trkpt lat="42.96322" lon="0.86278">
        <ele>1296</ele>
        <time>2016-03-26T09:59:56Z</time>
      </trkpt>
      <trkpt lat="42.96322" lon="0.86278">
        <ele>1296</ele>
        <time>2016-03-26T10:00:17Z</time>
      </trkpt>
      <trkpt lat="42.96322" lon="0.86278">
        <ele>1296</ele>
        <time>2016-03-26T10:00:18Z</time>
      </trkpt>
      <trkpt lat="42.9633" lon="0.86287">
        <ele>1295</ele>
        <time>2016-03-26T10:00:39Z</time>
      </trkpt>
      <trkpt lat="42.9633" lon="0.86287">
        <ele>1294</ele>
        <time>2016-03-26T10:00:41Z</time>
      </trkpt>
      <trkpt lat="42.9633" lon="0.86287">
        <ele>1294</ele>
        <time>2016-03-26T10:00:59Z</time>
      </trkpt>
      <trkpt lat="42.9633" lon="0.86287">
        <ele>1294</ele>
        <time>2016-03-26T10:01:01Z</time>
      </trkpt>
      <trkpt lat="42.9633" lon="0.86287">
        <ele>1294</ele>
        <time>2016-03-26T10:01:22Z</time>
      </trkpt>
      <trkpt lat="42.9633" lon="0.86287">
        <ele>1294</ele>
        <time>2016-03-26T10:01:24Z</time>
      </trkpt>
      <trkpt lat="42.9633" lon="0.86287">
        <ele>1294</ele>
        <time>2016-03-26T10:01:41Z</time>
      </trkpt>
      <trkpt lat="42.9633" lon="0.86287">
        <ele>1294</ele>
        <time>2016-03-26T10:01:43Z</time>
      </trkpt>
      <trkpt lat="42.9633" lon="0.86287">
        <ele>1294</ele>
        <time>2016-03-26T10:02:05Z</time>
      </trkpt>
      <trkpt lat="42.96323" lon="0.86278">
        <ele>1294</ele>
        <time>2016-03-26T10:02:07Z</time>
      </trkpt>
      <trkpt lat="42.96322" lon="0.86278">
        <ele>1294</ele>
        <time>2016-03-26T10:02:08Z</time>
      </trkpt>
      <trkpt lat="42.96322" lon="0.86277">
        <ele>1294</ele>
        <time>2016-03-26T10:02:10Z</time>
      </trkpt>
      <trkpt lat="42.96322" lon="0.86277">
        <ele>1294</ele>
        <time>2016-03-26T10:02:25Z</time>
      </trkpt>
      <trkpt lat="42.96322" lon="0.86277">
        <ele>1294</ele>
        <time>2016-03-26T10:02:27Z</time>
      </trkpt>
      <trkpt lat="42.96328" lon="0.86286">
        <ele>1294</ele>
        <time>2016-03-26T10:02:32Z</time>
      </trkpt>
      <trkpt lat="42.96328" lon="0.86286">
        <ele>1295</ele>
        <time>2016-03-26T10:02:48Z</time>
      </trkpt>
      <trkpt lat="42.96328" lon="0.86286">
        <ele>1295</ele>
        <time>2016-03-26T10:02:50Z</time>
      </trkpt>
      <trkpt lat="42.96328" lon="0.86286">
        <ele>1295</ele>
        <time>2016-03-26T10:03:10Z</time>
      </trkpt>
      <trkpt lat="42.96328" lon="0.86286">
        <ele>1295</ele>
        <time>2016-03-26T10:03:12Z</time>
      </trkpt>
      <trkpt lat="42.96328" lon="0.86286">
        <ele>1295</ele>
        <time>2016-03-26T10:03:31Z</time>
      </trkpt>
      <trkpt lat="42.96328" lon="0.86286">
        <ele>1295</ele>
        <time>2016-03-26T10:03:32Z</time>
      </trkpt>
      <trkpt lat="42.96328" lon="0.86286">
        <ele>1295</ele>
        <time>2016-03-26T10:03:53Z</time>
      </trkpt>
      <trkpt lat="42.96328" lon="0.86286">
        <ele>1295</ele>
        <time>2016-03-26T10:03:55Z</time>
      </trkpt>
      <trkpt lat="42.96328" lon="0.86286">
        <ele>1295</ele>
        <time>2016-03-26T10:04:15Z</time>
      </trkpt>
      <trkpt lat="42.96328" lon="0.86286">
        <ele>1295</ele>
        <time>2016-03-26T10:04:17Z</time>
      </trkpt>
      <trkpt lat="42.96337" lon="0.86289">
        <ele>1298</ele>
        <time>2016-03-26T10:05:27Z</time>
      </trkpt>
      <trkpt lat="42.96338" lon="0.86289">
        <ele>1300</ele>
        <time>2016-03-26T10:05:29Z</time>
      </trkpt>
      <trkpt lat="42.96339" lon="0.86289">
        <ele>1302</ele>
        <time>2016-03-26T10:05:30Z</time>
      </trkpt>
      <trkpt lat="42.96329" lon="0.86281">
        <ele>1304</ele>
        <time>2016-03-26T10:05:52Z</time>
      </trkpt>
      <trkpt lat="42.96328" lon="0.86279">
        <ele>1306</ele>
        <time>2016-03-26T10:05:54Z</time>
      </trkpt>
      <trkpt lat="42.96321" lon="0.8627">
        <ele>1305</ele>
        <time>2016-03-26T10:06:06Z</time>
      </trkpt>
      <trkpt lat="42.9632" lon="0.86273">
        <ele>1304</ele>
        <time>2016-03-26T10:06:08Z</time>
      </trkpt>
      <trkpt lat="42.9632" lon="0.86273">
        <ele>1304</ele>
        <time>2016-03-26T10:06:09Z</time>
      </trkpt>
      <trkpt lat="42.9632" lon="0.86273">
        <ele>1304</ele>
        <time>2016-03-26T10:06:24Z</time>
      </trkpt>
      <trkpt lat="42.9632" lon="0.86273">
        <ele>1303</ele>
        <time>2016-03-26T10:06:26Z</time>
      </trkpt>
      <trkpt lat="42.9632" lon="0.86273">
        <ele>1303</ele>
        <time>2016-03-26T10:06:48Z</time>
      </trkpt>
      <trkpt lat="42.9632" lon="0.86273">
        <ele>1303</ele>
        <time>2016-03-26T10:06:49Z</time>
      </trkpt>
      <trkpt lat="42.96328" lon="0.86276">
        <ele>1303</ele>
        <time>2016-03-26T10:07:06Z</time>
      </trkpt>
      <trkpt lat="42.96329" lon="0.86276">
        <ele>1302</ele>
        <time>2016-03-26T10:07:08Z</time>
      </trkpt>
      <trkpt lat="42.96329" lon="0.86277">
        <ele>1301</ele>
        <time>2016-03-26T10:07:10Z</time>
      </trkpt>
      <trkpt lat="42.96329" lon="0.86277">
        <ele>1300</ele>
        <time>2016-03-26T10:07:30Z</time>
      </trkpt>
      <trkpt lat="42.96329" lon="0.86277">
        <ele>1299</ele>
        <time>2016-03-26T10:07:32Z</time>
      </trkpt>
      <trkpt lat="42.9633" lon="0.86286">
        <ele>1298</ele>
        <time>2016-03-26T10:07:36Z</time>
      </trkpt>
      <trkpt lat="42.96331" lon="0.86286">
        <ele>1298</ele>
        <time>2016-03-26T10:07:38Z</time>
      </trkpt>
      <trkpt lat="42.96331" lon="0.86286">
        <ele>1298</ele>
        <time>2016-03-26T10:07:52Z</time>
      </trkpt>
      <trkpt lat="42.96331" lon="0.86289">
        <ele>1298</ele>
        <time>2016-03-26T10:07:54Z</time>
      </trkpt>
      <trkpt lat="42.96331" lon="0.86291">
        <ele>1297</ele>
        <time>2016-03-26T10:07:56Z</time>
      </trkpt>
      <trkpt lat="42.96331" lon="0.86291">
        <ele>1298</ele>
        <time>2016-03-26T10:07:58Z</time>
      </trkpt>
      <trkpt lat="42.96331" lon="0.86291">
        <ele>1298</ele>
        <time>2016-03-26T10:07:59Z</time>
      </trkpt>
      <trkpt lat="42.96332" lon="0.86291">
        <ele>1298</ele>
        <time>2016-03-26T10:08:01Z</time>
      </trkpt>
      <trkpt lat="42.96332" lon="0.86291">
        <ele>1298</ele>
        <time>2016-03-26T10:08:34Z</time>
      </trkpt>
      <trkpt lat="42.96332" lon="0.86291">
        <ele>1298</ele>
        <time>2016-03-26T10:08:35Z</time>
      </trkpt>
      <trkpt lat="42.96332" lon="0.86289">
        <ele>1298</ele>
        <time>2016-03-26T10:08:39Z</time>
      </trkpt>
      <trkpt lat="42.96331" lon="0.86287">
        <ele>1298</ele>
        <time>2016-03-26T10:08:40Z</time>
      </trkpt>
      <trkpt lat="42.96331" lon="0.86284">
        <ele>1297</ele>
        <time>2016-03-26T10:08:42Z</time>
      </trkpt>
      <trkpt lat="42.9633" lon="0.86282">
        <ele>1297</ele>
        <time>2016-03-26T10:08:44Z</time>
      </trkpt>
      <trkpt lat="42.96329" lon="0.86281">
        <ele>1297</ele>
        <time>2016-03-26T10:08:45Z</time>
      </trkpt>
      <trkpt lat="42.96329" lon="0.86279">
        <ele>1297</ele>
        <time>2016-03-26T10:08:46Z</time>
      </trkpt>
      <trkpt lat="42.96328" lon="0.86276">
        <ele>1297</ele>
        <time>2016-03-26T10:08:48Z</time>
      </trkpt>
      <trkpt lat="42.96328" lon="0.86273">
        <ele>1297</ele>
        <time>2016-03-26T10:08:50Z</time>
      </trkpt>
      <trkpt lat="42.96327" lon="0.86272">
        <ele>1297</ele>
        <time>2016-03-26T10:08:51Z</time>
      </trkpt>
      <trkpt lat="42.96327" lon="0.86271">
        <ele>1297</ele>
        <time>2016-03-26T10:08:52Z</time>
      </trkpt>
      <trkpt lat="42.96326" lon="0.86269">
        <ele>1297</ele>
        <time>2016-03-26T10:08:54Z</time>
      </trkpt>
      <trkpt lat="42.96325" lon="0.86268">
        <ele>1297</ele>
        <time>2016-03-26T10:08:56Z</time>
      </trkpt>
      <trkpt lat="42.96325" lon="0.86266">
        <ele>1297</ele>
        <time>2016-03-26T10:08:58Z</time>
      </trkpt>
      <trkpt lat="42.96324" lon="0.86266">
        <ele>1297</ele>
        <time>2016-03-26T10:08:59Z</time>
      </trkpt>
      <trkpt lat="42.96324" lon="0.86264">
        <ele>1296</ele>
        <time>2016-03-26T10:09:01Z</time>
      </trkpt>
      <trkpt lat="42.96323" lon="0.86261">
        <ele>1296</ele>
        <time>2016-03-26T10:09:05Z</time>
      </trkpt>
      <trkpt lat="42.96323" lon="0.86261">
        <ele>1296</ele>
        <time>2016-03-26T10:09:06Z</time>
      </trkpt>
      <trkpt lat="42.96323" lon="0.8626">
        <ele>1296</ele>
        <time>2016-03-26T10:09:08Z</time>
      </trkpt>
      <trkpt lat="42.96323" lon="0.86259">
        <ele>1296</ele>
        <time>2016-03-26T10:09:09Z</time>
      </trkpt>
      <trkpt lat="42.96323" lon="0.86257">
        <ele>1296</ele>
        <time>2016-03-26T10:09:11Z</time>
      </trkpt>
      <trkpt lat="42.96323" lon="0.86256">
        <ele>1296</ele>
        <time>2016-03-26T10:09:13Z</time>
      </trkpt>
      <trkpt lat="42.96322" lon="0.86253">
        <ele>1296</ele>
        <time>2016-03-26T10:09:15Z</time>
      </trkpt>
      <trkpt lat="42.96323" lon="0.86251">
        <ele>1296</ele>
        <time>2016-03-26T10:09:17Z</time>
      </trkpt>
      <trkpt lat="42.96322" lon="0.8625">
        <ele>1296</ele>
        <time>2016-03-26T10:09:18Z</time>
      </trkpt>
      <trkpt lat="42.96322" lon="0.86248">
        <ele>1296</ele>
        <time>2016-03-26T10:09:20Z</time>
      </trkpt>
      <trkpt lat="42.9632" lon="0.86246">
        <ele>1296</ele>
        <time>2016-03-26T10:09:22Z</time>
      </trkpt>
      <trkpt lat="42.9632" lon="0.86245">
        <ele>1296</ele>
        <time>2016-03-26T10:09:23Z</time>
      </trkpt>
      <trkpt lat="42.96318" lon="0.86243">
        <ele>1296</ele>
        <time>2016-03-26T10:09:25Z</time>
      </trkpt>
      <trkpt lat="42.96317" lon="0.86242">
        <ele>1296</ele>
        <time>2016-03-26T10:09:26Z</time>
      </trkpt>
      <trkpt lat="42.96316" lon="0.8624">
        <ele>1296</ele>
        <time>2016-03-26T10:09:28Z</time>
      </trkpt>
      <trkpt lat="42.96316" lon="0.86239">
        <ele>1295</ele>
        <time>2016-03-26T10:09:30Z</time>
      </trkpt>
      <trkpt lat="42.96316" lon="0.86237">
        <ele>1295</ele>
        <time>2016-03-26T10:09:31Z</time>
      </trkpt>
      <trkpt lat="42.96315" lon="0.86235">
        <ele>1295</ele>
        <time>2016-03-26T10:09:33Z</time>
      </trkpt>
      <trkpt lat="42.96314" lon="0.86234">
        <ele>1295</ele>
        <time>2016-03-26T10:09:34Z</time>
      </trkpt>
      <trkpt lat="42.96314" lon="0.86232">
        <ele>1295</ele>
        <time>2016-03-26T10:09:36Z</time>
      </trkpt>
      <trkpt lat="42.96314" lon="0.86231">
        <ele>1295</ele>
        <time>2016-03-26T10:09:37Z</time>
      </trkpt>
      <trkpt lat="42.96313" lon="0.86229">
        <ele>1295</ele>
        <time>2016-03-26T10:09:39Z</time>
      </trkpt>
      <trkpt lat="42.96312" lon="0.86227">
        <ele>1295</ele>
        <time>2016-03-26T10:09:41Z</time>
      </trkpt>
      <trkpt lat="42.96311" lon="0.86226">
        <ele>1295</ele>
        <time>2016-03-26T10:09:43Z</time>
      </trkpt>
      <trkpt lat="42.9631" lon="0.86224">
        <ele>1295</ele>
        <time>2016-03-26T10:09:45Z</time>
      </trkpt>
      <trkpt lat="42.9631" lon="0.86224">
        <ele>1295</ele>
        <time>2016-03-26T10:09:46Z</time>
      </trkpt>
      <trkpt lat="42.96309" lon="0.86223">
        <ele>1295</ele>
        <time>2016-03-26T10:09:47Z</time>
      </trkpt>
      <trkpt lat="42.96307" lon="0.86221">
        <ele>1295</ele>
        <time>2016-03-26T10:09:49Z</time>
      </trkpt>
      <trkpt lat="42.96307" lon="0.8622">
        <ele>1296</ele>
        <time>2016-03-26T10:09:50Z</time>
      </trkpt>
      <trkpt lat="42.96306" lon="0.86218">
        <ele>1296</ele>
        <time>2016-03-26T10:09:52Z</time>
      </trkpt>
      <trkpt lat="42.96306" lon="0.86216">
        <ele>1296</ele>
        <time>2016-03-26T10:09:54Z</time>
      </trkpt>
      <trkpt lat="42.96305" lon="0.86215">
        <ele>1296</ele>
        <time>2016-03-26T10:09:55Z</time>
      </trkpt>
      <trkpt lat="42.96305" lon="0.86213">
        <ele>1296</ele>
        <time>2016-03-26T10:09:57Z</time>
      </trkpt>
      <trkpt lat="42.96304" lon="0.86212">
        <ele>1296</ele>
        <time>2016-03-26T10:09:58Z</time>
      </trkpt>
      <trkpt lat="42.96304" lon="0.86211">
        <ele>1296</ele>
        <time>2016-03-26T10:09:59Z</time>
      </trkpt>
      <trkpt lat="42.96303" lon="0.86209">
        <ele>1296</ele>
        <time>2016-03-26T10:10:01Z</time>
      </trkpt>
      <trkpt lat="42.96302" lon="0.86208">
        <ele>1296</ele>
        <time>2016-03-26T10:10:03Z</time>
      </trkpt>
      <trkpt lat="42.96301" lon="0.86205">
        <ele>1296</ele>
        <time>2016-03-26T10:10:05Z</time>
      </trkpt>
      <trkpt lat="42.963" lon="0.86203">
        <ele>1296</ele>
        <time>2016-03-26T10:10:07Z</time>
      </trkpt>
      <trkpt lat="42.96298" lon="0.86201">
        <ele>1296</ele>
        <time>2016-03-26T10:10:09Z</time>
      </trkpt>
      <trkpt lat="42.96298" lon="0.86198">
        <ele>1296</ele>
        <time>2016-03-26T10:10:11Z</time>
      </trkpt>
      <trkpt lat="42.96296" lon="0.86196">
        <ele>1296</ele>
        <time>2016-03-26T10:10:13Z</time>
      </trkpt>
      <trkpt lat="42.96296" lon="0.86195">
        <ele>1296</ele>
        <time>2016-03-26T10:10:14Z</time>
      </trkpt>
      <trkpt lat="42.96293" lon="0.86193">
        <ele>1296</ele>
        <time>2016-03-26T10:10:16Z</time>
      </trkpt>
      <trkpt lat="42.96292" lon="0.86191">
        <ele>1296</ele>
        <time>2016-03-26T10:10:18Z</time>
      </trkpt>
      <trkpt lat="42.96291" lon="0.8619">
        <ele>1296</ele>
        <time>2016-03-26T10:10:19Z</time>
      </trkpt>
      <trkpt lat="42.96289" lon="0.86188">
        <ele>1296</ele>
        <time>2016-03-26T10:10:21Z</time>
      </trkpt>
      <trkpt lat="42.96289" lon="0.86187">
        <ele>1297</ele>
        <time>2016-03-26T10:10:22Z</time>
      </trkpt>
      <trkpt lat="42.96288" lon="0.86185">
        <ele>1297</ele>
        <time>2016-03-26T10:10:24Z</time>
      </trkpt>
      <trkpt lat="42.96287" lon="0.86182">
        <ele>1297</ele>
        <time>2016-03-26T10:10:26Z</time>
      </trkpt>
      <trkpt lat="42.96287" lon="0.86181">
        <ele>1297</ele>
        <time>2016-03-26T10:10:27Z</time>
      </trkpt>
      <trkpt lat="42.96287" lon="0.86179">
        <ele>1298</ele>
        <time>2016-03-26T10:10:29Z</time>
      </trkpt>
      <trkpt lat="42.96287" lon="0.86176">
        <ele>1298</ele>
        <time>2016-03-26T10:10:31Z</time>
      </trkpt>
      <trkpt lat="42.96288" lon="0.86174">
        <ele>1298</ele>
        <time>2016-03-26T10:10:33Z</time>
      </trkpt>
      <trkpt lat="42.96288" lon="0.86171">
        <ele>1299</ele>
        <time>2016-03-26T10:10:35Z</time>
      </trkpt>
      <trkpt lat="42.96289" lon="0.86169">
        <ele>1299</ele>
        <time>2016-03-26T10:10:37Z</time>
      </trkpt>
      <trkpt lat="42.96289" lon="0.86167">
        <ele>1299</ele>
        <time>2016-03-26T10:10:39Z</time>
      </trkpt>
      <trkpt lat="42.96289" lon="0.86166">
        <ele>1300</ele>
        <time>2016-03-26T10:10:40Z</time>
      </trkpt>
      <trkpt lat="42.96289" lon="0.86163">
        <ele>1300</ele>
        <time>2016-03-26T10:10:42Z</time>
      </trkpt>
      <trkpt lat="42.9629" lon="0.86161">
        <ele>1300</ele>
        <time>2016-03-26T10:10:44Z</time>
      </trkpt>
      <trkpt lat="42.9629" lon="0.8616">
        <ele>1301</ele>
        <time>2016-03-26T10:10:45Z</time>
      </trkpt>
      <trkpt lat="42.9629" lon="0.86158">
        <ele>1301</ele>
        <time>2016-03-26T10:10:46Z</time>
      </trkpt>
      <trkpt lat="42.9629" lon="0.86156">
        <ele>1301</ele>
        <time>2016-03-26T10:10:48Z</time>
      </trkpt>
      <trkpt lat="42.96291" lon="0.86155">
        <ele>1302</ele>
        <time>2016-03-26T10:10:49Z</time>
      </trkpt>
      <trkpt lat="42.9629" lon="0.86153">
        <ele>1302</ele>
        <time>2016-03-26T10:10:51Z</time>
      </trkpt>
      <trkpt lat="42.96291" lon="0.86152">
        <ele>1302</ele>
        <time>2016-03-26T10:10:53Z</time>
      </trkpt>
      <trkpt lat="42.96291" lon="0.86151">
        <ele>1303</ele>
        <time>2016-03-26T10:10:54Z</time>
      </trkpt>
      <trkpt lat="42.96291" lon="0.8615">
        <ele>1303</ele>
        <time>2016-03-26T10:10:56Z</time>
      </trkpt>
      <trkpt lat="42.96291" lon="0.86149">
        <ele>1304</ele>
        <time>2016-03-26T10:10:58Z</time>
      </trkpt>
      <trkpt lat="42.96291" lon="0.86147">
        <ele>1304</ele>
        <time>2016-03-26T10:11:00Z</time>
      </trkpt>
      <trkpt lat="42.96291" lon="0.86146">
        <ele>1304</ele>
        <time>2016-03-26T10:11:01Z</time>
      </trkpt>
      <trkpt lat="42.96292" lon="0.86144">
        <ele>1305</ele>
        <time>2016-03-26T10:11:03Z</time>
      </trkpt>
      <trkpt lat="42.96292" lon="0.86143">
        <ele>1305</ele>
        <time>2016-03-26T10:11:04Z</time>
      </trkpt>
      <trkpt lat="42.96293" lon="0.86142">
        <ele>1306</ele>
        <time>2016-03-26T10:11:06Z</time>
      </trkpt>
      <trkpt lat="42.96293" lon="0.86141">
        <ele>1306</ele>
        <time>2016-03-26T10:11:07Z</time>
      </trkpt>
      <trkpt lat="42.96294" lon="0.8614">
        <ele>1306</ele>
        <time>2016-03-26T10:11:08Z</time>
      </trkpt>
      <trkpt lat="42.96294" lon="0.86139">
        <ele>1306</ele>
        <time>2016-03-26T10:11:10Z</time>
      </trkpt>
      <trkpt lat="42.96296" lon="0.86138">
        <ele>1307</ele>
        <time>2016-03-26T10:11:12Z</time>
      </trkpt>
      <trkpt lat="42.96296" lon="0.86136">
        <ele>1307</ele>
        <time>2016-03-26T10:11:14Z</time>
      </trkpt>
      <trkpt lat="42.96296" lon="0.86135">
        <ele>1308</ele>
        <time>2016-03-26T10:11:15Z</time>
      </trkpt>
      <trkpt lat="42.96297" lon="0.86133">
        <ele>1308</ele>
        <time>2016-03-26T10:11:17Z</time>
      </trkpt>
      <trkpt lat="42.96298" lon="0.86132">
        <ele>1308</ele>
        <time>2016-03-26T10:11:19Z</time>
      </trkpt>
      <trkpt lat="42.96298" lon="0.8613">
        <ele>1309</ele>
        <time>2016-03-26T10:11:21Z</time>
      </trkpt>
      <trkpt lat="42.96298" lon="0.86129">
        <ele>1309</ele>
        <time>2016-03-26T10:11:22Z</time>
      </trkpt>
      <trkpt lat="42.96298" lon="0.86128">
        <ele>1309</ele>
        <time>2016-03-26T10:11:23Z</time>
      </trkpt>
      <trkpt lat="42.96299" lon="0.86126">
        <ele>1310</ele>
        <time>2016-03-26T10:11:25Z</time>
      </trkpt>
      <trkpt lat="42.96299" lon="0.86125">
        <ele>1310</ele>
        <time>2016-03-26T10:11:27Z</time>
      </trkpt>
      <trkpt lat="42.96299" lon="0.86124">
        <ele>1310</ele>
        <time>2016-03-26T10:11:29Z</time>
      </trkpt>
      <trkpt lat="42.96298" lon="0.86122">
        <ele>1311</ele>
        <time>2016-03-26T10:11:31Z</time>
      </trkpt>
      <trkpt lat="42.96298" lon="0.86121">
        <ele>1311</ele>
        <time>2016-03-26T10:11:33Z</time>
      </trkpt>
      <trkpt lat="42.96298" lon="0.8612">
        <ele>1311</ele>
        <time>2016-03-26T10:11:34Z</time>
      </trkpt>
      <trkpt lat="42.96296" lon="0.86119">
        <ele>1312</ele>
        <time>2016-03-26T10:11:36Z</time>
      </trkpt>
      <trkpt lat="42.96296" lon="0.86118">
        <ele>1312</ele>
        <time>2016-03-26T10:11:37Z</time>
      </trkpt>
      <trkpt lat="42.96296" lon="0.86117">
        <ele>1312</ele>
        <time>2016-03-26T10:11:39Z</time>
      </trkpt>
      <trkpt lat="42.96295" lon="0.86116">
        <ele>1313</ele>
        <time>2016-03-26T10:11:41Z</time>
      </trkpt>
      <trkpt lat="42.96295" lon="0.86115">
        <ele>1313</ele>
        <time>2016-03-26T10:11:42Z</time>
      </trkpt>
      <trkpt lat="42.96295" lon="0.86114">
        <ele>1313</ele>
        <time>2016-03-26T10:11:44Z</time>
      </trkpt>
      <trkpt lat="42.96294" lon="0.86113">
        <ele>1313</ele>
        <time>2016-03-26T10:11:46Z</time>
      </trkpt>
      <trkpt lat="42.96294" lon="0.86112">
        <ele>1314</ele>
        <time>2016-03-26T10:11:47Z</time>
      </trkpt>
      <trkpt lat="42.96294" lon="0.8611">
        <ele>1314</ele>
        <time>2016-03-26T10:11:49Z</time>
      </trkpt>
      <trkpt lat="42.96293" lon="0.86108">
        <ele>1314</ele>
        <time>2016-03-26T10:11:51Z</time>
      </trkpt>
      <trkpt lat="42.96293" lon="0.86107">
        <ele>1315</ele>
        <time>2016-03-26T10:11:52Z</time>
      </trkpt>
      <trkpt lat="42.96293" lon="0.86106">
        <ele>1315</ele>
        <time>2016-03-26T10:11:54Z</time>
      </trkpt>
      <trkpt lat="42.96292" lon="0.86105">
        <ele>1315</ele>
        <time>2016-03-26T10:11:55Z</time>
      </trkpt>
      <trkpt lat="42.96291" lon="0.86104">
        <ele>1316</ele>
        <time>2016-03-26T10:11:57Z</time>
      </trkpt>
      <trkpt lat="42.96291" lon="0.86102">
        <ele>1316</ele>
        <time>2016-03-26T10:11:59Z</time>
      </trkpt>
      <trkpt lat="42.9629" lon="0.86101">
        <ele>1316</ele>
        <time>2016-03-26T10:12:01Z</time>
      </trkpt>
      <trkpt lat="42.9629" lon="0.861">
        <ele>1316</ele>
        <time>2016-03-26T10:12:02Z</time>
      </trkpt>
      <trkpt lat="42.96289" lon="0.86099">
        <ele>1317</ele>
        <time>2016-03-26T10:12:04Z</time>
      </trkpt>
      <trkpt lat="42.96288" lon="0.86097">
        <ele>1317</ele>
        <time>2016-03-26T10:12:06Z</time>
      </trkpt>
      <trkpt lat="42.96288" lon="0.86095">
        <ele>1317</ele>
        <time>2016-03-26T10:12:08Z</time>
      </trkpt>
      <trkpt lat="42.96288" lon="0.86094">
        <ele>1318</ele>
        <time>2016-03-26T10:12:09Z</time>
      </trkpt>
      <trkpt lat="42.96287" lon="0.86092">
        <ele>1318</ele>
        <time>2016-03-26T10:12:11Z</time>
      </trkpt>
      <trkpt lat="42.96287" lon="0.86091">
        <ele>1318</ele>
        <time>2016-03-26T10:12:12Z</time>
      </trkpt>
      <trkpt lat="42.96287" lon="0.86089">
        <ele>1319</ele>
        <time>2016-03-26T10:12:14Z</time>
      </trkpt>
      <trkpt lat="42.96286" lon="0.86088">
        <ele>1319</ele>
        <time>2016-03-26T10:12:16Z</time>
      </trkpt>
      <trkpt lat="42.96285" lon="0.86086">
        <ele>1319</ele>
        <time>2016-03-26T10:12:18Z</time>
      </trkpt>
      <trkpt lat="42.96285" lon="0.86084">
        <ele>1319</ele>
        <time>2016-03-26T10:12:20Z</time>
      </trkpt>
      <trkpt lat="42.96284" lon="0.86083">
        <ele>1320</ele>
        <time>2016-03-26T10:12:22Z</time>
      </trkpt>
      <trkpt lat="42.96284" lon="0.86081">
        <ele>1320</ele>
        <time>2016-03-26T10:12:24Z</time>
      </trkpt>
      <trkpt lat="42.96283" lon="0.86079">
        <ele>1320</ele>
        <time>2016-03-26T10:12:26Z</time>
      </trkpt>
      <trkpt lat="42.96283" lon="0.86078">
        <ele>1321</ele>
        <time>2016-03-26T10:12:27Z</time>
      </trkpt>
      <trkpt lat="42.96283" lon="0.86078">
        <ele>1321</ele>
        <time>2016-03-26T10:12:28Z</time>
      </trkpt>
      <trkpt lat="42.96283" lon="0.86075">
        <ele>1321</ele>
        <time>2016-03-26T10:12:30Z</time>
      </trkpt>
      <trkpt lat="42.96283" lon="0.86075">
        <ele>1321</ele>
        <time>2016-03-26T10:12:31Z</time>
      </trkpt>
      <trkpt lat="42.96283" lon="0.86073">
        <ele>1322</ele>
        <time>2016-03-26T10:12:32Z</time>
      </trkpt>
      <trkpt lat="42.96283" lon="0.86072">
        <ele>1322</ele>
        <time>2016-03-26T10:12:34Z</time>
      </trkpt>
      <trkpt lat="42.96283" lon="0.8607">
        <ele>1322</ele>
        <time>2016-03-26T10:12:36Z</time>
      </trkpt>
      <trkpt lat="42.96282" lon="0.86068">
        <ele>1322</ele>
        <time>2016-03-26T10:12:38Z</time>
      </trkpt>
      <trkpt lat="42.9628" lon="0.86065">
        <ele>1323</ele>
        <time>2016-03-26T10:12:40Z</time>
      </trkpt>
      <trkpt lat="42.96279" lon="0.86063">
        <ele>1323</ele>
        <time>2016-03-26T10:12:42Z</time>
      </trkpt>
      <trkpt lat="42.96278" lon="0.86061">
        <ele>1323</ele>
        <time>2016-03-26T10:12:44Z</time>
      </trkpt>
      <trkpt lat="42.96278" lon="0.8606">
        <ele>1323</ele>
        <time>2016-03-26T10:12:45Z</time>
      </trkpt>
      <trkpt lat="42.96277" lon="0.86059">
        <ele>1323</ele>
        <time>2016-03-26T10:12:47Z</time>
      </trkpt>
      <trkpt lat="42.96277" lon="0.86059">
        <ele>1323</ele>
        <time>2016-03-26T10:12:48Z</time>
      </trkpt>
      <trkpt lat="42.96276" lon="0.86057">
        <ele>1324</ele>
        <time>2016-03-26T10:12:50Z</time>
      </trkpt>
      <trkpt lat="42.96275" lon="0.86056">
        <ele>1324</ele>
        <time>2016-03-26T10:12:52Z</time>
      </trkpt>
      <trkpt lat="42.96274" lon="0.86054">
        <ele>1324</ele>
        <time>2016-03-26T10:12:54Z</time>
      </trkpt>
      <trkpt lat="42.96274" lon="0.86052">
        <ele>1324</ele>
        <time>2016-03-26T10:12:56Z</time>
      </trkpt>
      <trkpt lat="42.96274" lon="0.86051">
        <ele>1324</ele>
        <time>2016-03-26T10:12:57Z</time>
      </trkpt>
      <trkpt lat="42.96273" lon="0.86049">
        <ele>1325</ele>
        <time>2016-03-26T10:12:59Z</time>
      </trkpt>
      <trkpt lat="42.96273" lon="0.86047">
        <ele>1325</ele>
        <time>2016-03-26T10:13:00Z</time>
      </trkpt>
      <trkpt lat="42.96273" lon="0.86046">
        <ele>1325</ele>
        <time>2016-03-26T10:13:01Z</time>
      </trkpt>
      <trkpt lat="42.96273" lon="0.86045">
        <ele>1325</ele>
        <time>2016-03-26T10:13:03Z</time>
      </trkpt>
      <trkpt lat="42.96272" lon="0.86044">
        <ele>1325</ele>
        <time>2016-03-26T10:13:04Z</time>
      </trkpt>
      <trkpt lat="42.96271" lon="0.86042">
        <ele>1325</ele>
        <time>2016-03-26T10:13:06Z</time>
      </trkpt>
      <trkpt lat="42.9627" lon="0.86041">
        <ele>1325</ele>
        <time>2016-03-26T10:13:08Z</time>
      </trkpt>
      <trkpt lat="42.9627" lon="0.8604">
        <ele>1325</ele>
        <time>2016-03-26T10:13:09Z</time>
      </trkpt>
      <trkpt lat="42.96269" lon="0.86039">
        <ele>1325</ele>
        <time>2016-03-26T10:13:11Z</time>
      </trkpt>
      <trkpt lat="42.96268" lon="0.86038">
        <ele>1325</ele>
        <time>2016-03-26T10:13:13Z</time>
      </trkpt>
      <trkpt lat="42.96267" lon="0.86037">
        <ele>1326</ele>
        <time>2016-03-26T10:13:15Z</time>
      </trkpt>
      <trkpt lat="42.96267" lon="0.86036">
        <ele>1326</ele>
        <time>2016-03-26T10:13:17Z</time>
      </trkpt>
      <trkpt lat="42.96266" lon="0.86035">
        <ele>1326</ele>
        <time>2016-03-26T10:13:19Z</time>
      </trkpt>
      <trkpt lat="42.96265" lon="0.86034">
        <ele>1326</ele>
        <time>2016-03-26T10:13:21Z</time>
      </trkpt>
      <trkpt lat="42.96264" lon="0.86034">
        <ele>1326</ele>
        <time>2016-03-26T10:13:22Z</time>
      </trkpt>
      <trkpt lat="42.96264" lon="0.86034">
        <ele>1326</ele>
        <time>2016-03-26T10:13:24Z</time>
      </trkpt>
      <trkpt lat="42.96263" lon="0.86032">
        <ele>1327</ele>
        <time>2016-03-26T10:13:26Z</time>
      </trkpt>
      <trkpt lat="42.96262" lon="0.86032">
        <ele>1327</ele>
        <time>2016-03-26T10:13:27Z</time>
      </trkpt>
      <trkpt lat="42.96261" lon="0.86031">
        <ele>1327</ele>
        <time>2016-03-26T10:13:29Z</time>
      </trkpt>
      <trkpt lat="42.96261" lon="0.8603">
        <ele>1327</ele>
        <time>2016-03-26T10:13:31Z</time>
      </trkpt>
      <trkpt lat="42.96259" lon="0.86031">
        <ele>1328</ele>
        <time>2016-03-26T10:13:33Z</time>
      </trkpt>
      <trkpt lat="42.96259" lon="0.86031">
        <ele>1328</ele>
        <time>2016-03-26T10:13:34Z</time>
      </trkpt>
      <trkpt lat="42.96257" lon="0.86031">
        <ele>1328</ele>
        <time>2016-03-26T10:13:36Z</time>
      </trkpt>
      <trkpt lat="42.96256" lon="0.8603">
        <ele>1328</ele>
        <time>2016-03-26T10:13:38Z</time>
      </trkpt>
      <trkpt lat="42.96256" lon="0.86027">
        <ele>1328</ele>
        <time>2016-03-26T10:13:40Z</time>
      </trkpt>
      <trkpt lat="42.96254" lon="0.86025">
        <ele>1328</ele>
        <time>2016-03-26T10:13:42Z</time>
      </trkpt>
      <trkpt lat="42.96254" lon="0.86023">
        <ele>1328</ele>
        <time>2016-03-26T10:13:43Z</time>
      </trkpt>
      <trkpt lat="42.96253" lon="0.86022">
        <ele>1328</ele>
        <time>2016-03-26T10:13:44Z</time>
      </trkpt>
      <trkpt lat="42.96253" lon="0.8602">
        <ele>1328</ele>
        <time>2016-03-26T10:13:46Z</time>
      </trkpt>
      <trkpt lat="42.96252" lon="0.86017">
        <ele>1328</ele>
        <time>2016-03-26T10:13:48Z</time>
      </trkpt>
      <trkpt lat="42.96251" lon="0.86015">
        <ele>1328</ele>
        <time>2016-03-26T10:13:50Z</time>
      </trkpt>
      <trkpt lat="42.9625" lon="0.86015">
        <ele>1329</ele>
        <time>2016-03-26T10:13:51Z</time>
      </trkpt>
      <trkpt lat="42.96249" lon="0.86014">
        <ele>1329</ele>
        <time>2016-03-26T10:13:53Z</time>
      </trkpt>
      <trkpt lat="42.96248" lon="0.86012">
        <ele>1329</ele>
        <time>2016-03-26T10:13:55Z</time>
      </trkpt>
      <trkpt lat="42.96248" lon="0.8601">
        <ele>1329</ele>
        <time>2016-03-26T10:13:57Z</time>
      </trkpt>
      <trkpt lat="42.96248" lon="0.86009">
        <ele>1329</ele>
        <time>2016-03-26T10:13:58Z</time>
      </trkpt>
      <trkpt lat="42.96248" lon="0.86007">
        <ele>1329</ele>
        <time>2016-03-26T10:14:00Z</time>
      </trkpt>
      <trkpt lat="42.96248" lon="0.86006">
        <ele>1329</ele>
        <time>2016-03-26T10:14:01Z</time>
      </trkpt>
      <trkpt lat="42.96248" lon="0.86004">
        <ele>1330</ele>
        <time>2016-03-26T10:14:03Z</time>
      </trkpt>
      <trkpt lat="42.96248" lon="0.86004">
        <ele>1330</ele>
        <time>2016-03-26T10:14:04Z</time>
      </trkpt>
      <trkpt lat="42.96246" lon="0.86002">
        <ele>1330</ele>
        <time>2016-03-26T10:14:06Z</time>
      </trkpt>
      <trkpt lat="42.96246" lon="0.86002">
        <ele>1330</ele>
        <time>2016-03-26T10:14:07Z</time>
      </trkpt>
      <trkpt lat="42.96245" lon="0.86002">
        <ele>1330</ele>
        <time>2016-03-26T10:14:08Z</time>
      </trkpt>
      <trkpt lat="42.96245" lon="0.86002">
        <ele>1330</ele>
        <time>2016-03-26T10:14:09Z</time>
      </trkpt>
      <trkpt lat="42.96244" lon="0.86002">
        <ele>1330</ele>
        <time>2016-03-26T10:14:11Z</time>
      </trkpt>
      <trkpt lat="42.96244" lon="0.86002">
        <ele>1330</ele>
        <time>2016-03-26T10:14:12Z</time>
      </trkpt>
      <trkpt lat="42.96243" lon="0.86001">
        <ele>1330</ele>
        <time>2016-03-26T10:14:16Z</time>
      </trkpt>
      <trkpt lat="42.96243" lon="0.86">
        <ele>1330</ele>
        <time>2016-03-26T10:14:17Z</time>
      </trkpt>
      <trkpt lat="42.96243" lon="0.85998">
        <ele>1330</ele>
        <time>2016-03-26T10:14:19Z</time>
      </trkpt>
      <trkpt lat="42.96243" lon="0.85997">
        <ele>1330</ele>
        <time>2016-03-26T10:14:20Z</time>
      </trkpt>
      <trkpt lat="42.96242" lon="0.85996">
        <ele>1330</ele>
        <time>2016-03-26T10:14:22Z</time>
      </trkpt>
      <trkpt lat="42.96242" lon="0.85995">
        <ele>1330</ele>
        <time>2016-03-26T10:14:23Z</time>
      </trkpt>
      <trkpt lat="42.96241" lon="0.85994">
        <ele>1330</ele>
        <time>2016-03-26T10:14:25Z</time>
      </trkpt>
      <trkpt lat="42.9624" lon="0.85993">
        <ele>1330</ele>
        <time>2016-03-26T10:14:27Z</time>
      </trkpt>
      <trkpt lat="42.9624" lon="0.85993">
        <ele>1330</ele>
        <time>2016-03-26T10:14:28Z</time>
      </trkpt>
      <trkpt lat="42.9624" lon="0.85992">
        <ele>1330</ele>
        <time>2016-03-26T10:14:29Z</time>
      </trkpt>
      <trkpt lat="42.96239" lon="0.85991">
        <ele>1330</ele>
        <time>2016-03-26T10:14:31Z</time>
      </trkpt>
      <trkpt lat="42.96238" lon="0.8599">
        <ele>1330</ele>
        <time>2016-03-26T10:14:33Z</time>
      </trkpt>
      <trkpt lat="42.96236" lon="0.85988">
        <ele>1330</ele>
        <time>2016-03-26T10:14:35Z</time>
      </trkpt>
      <trkpt lat="42.96236" lon="0.85987">
        <ele>1330</ele>
        <time>2016-03-26T10:14:36Z</time>
      </trkpt>
      <trkpt lat="42.96235" lon="0.85986">
        <ele>1330</ele>
        <time>2016-03-26T10:14:38Z</time>
      </trkpt>
      <trkpt lat="42.96233" lon="0.85987">
        <ele>1331</ele>
        <time>2016-03-26T10:14:40Z</time>
      </trkpt>
      <trkpt lat="42.96232" lon="0.85987">
        <ele>1331</ele>
        <time>2016-03-26T10:14:41Z</time>
      </trkpt>
      <trkpt lat="42.9623" lon="0.85986">
        <ele>1331</ele>
        <time>2016-03-26T10:14:43Z</time>
      </trkpt>
      <trkpt lat="42.96229" lon="0.85986">
        <ele>1331</ele>
        <time>2016-03-26T10:14:45Z</time>
      </trkpt>
      <trkpt lat="42.96228" lon="0.85985">
        <ele>1331</ele>
        <time>2016-03-26T10:14:46Z</time>
      </trkpt>
      <trkpt lat="42.96227" lon="0.85984">
        <ele>1331</ele>
        <time>2016-03-26T10:14:48Z</time>
      </trkpt>
      <trkpt lat="42.96227" lon="0.85984">
        <ele>1331</ele>
        <time>2016-03-26T10:14:49Z</time>
      </trkpt>
      <trkpt lat="42.96225" lon="0.85982">
        <ele>1331</ele>
        <time>2016-03-26T10:14:51Z</time>
      </trkpt>
      <trkpt lat="42.96224" lon="0.8598">
        <ele>1331</ele>
        <time>2016-03-26T10:14:53Z</time>
      </trkpt>
      <trkpt lat="42.96223" lon="0.85979">
        <ele>1331</ele>
        <time>2016-03-26T10:14:55Z</time>
      </trkpt>
      <trkpt lat="42.96222" lon="0.85978">
        <ele>1331</ele>
        <time>2016-03-26T10:14:56Z</time>
      </trkpt>
      <trkpt lat="42.96221" lon="0.85976">
        <ele>1331</ele>
        <time>2016-03-26T10:14:58Z</time>
      </trkpt>
      <trkpt lat="42.9622" lon="0.85975">
        <ele>1331</ele>
        <time>2016-03-26T10:15:00Z</time>
      </trkpt>
      <trkpt lat="42.96219" lon="0.85974">
        <ele>1331</ele>
        <time>2016-03-26T10:15:01Z</time>
      </trkpt>
      <trkpt lat="42.96219" lon="0.85972">
        <ele>1331</ele>
        <time>2016-03-26T10:15:03Z</time>
      </trkpt>
      <trkpt lat="42.96218" lon="0.8597">
        <ele>1331</ele>
        <time>2016-03-26T10:15:05Z</time>
      </trkpt>
      <trkpt lat="42.96217" lon="0.85967">
        <ele>1331</ele>
        <time>2016-03-26T10:15:07Z</time>
      </trkpt>
      <trkpt lat="42.96216" lon="0.85966">
        <ele>1331</ele>
        <time>2016-03-26T10:15:08Z</time>
      </trkpt>
      <trkpt lat="42.96215" lon="0.85964">
        <ele>1331</ele>
        <time>2016-03-26T10:15:10Z</time>
      </trkpt>
      <trkpt lat="42.96215" lon="0.85961">
        <ele>1331</ele>
        <time>2016-03-26T10:15:12Z</time>
      </trkpt>
      <trkpt lat="42.96215" lon="0.8596">
        <ele>1331</ele>
        <time>2016-03-26T10:15:13Z</time>
      </trkpt>
      <trkpt lat="42.96215" lon="0.85959">
        <ele>1331</ele>
        <time>2016-03-26T10:15:15Z</time>
      </trkpt>
      <trkpt lat="42.96214" lon="0.85957">
        <ele>1331</ele>
        <time>2016-03-26T10:15:17Z</time>
      </trkpt>
      <trkpt lat="42.96213" lon="0.85956">
        <ele>1331</ele>
        <time>2016-03-26T10:15:18Z</time>
      </trkpt>
      <trkpt lat="42.96212" lon="0.85955">
        <ele>1331</ele>
        <time>2016-03-26T10:15:20Z</time>
      </trkpt>
      <trkpt lat="42.9621" lon="0.85953">
        <ele>1331</ele>
        <time>2016-03-26T10:15:22Z</time>
      </trkpt>
      <trkpt lat="42.96209" lon="0.85952">
        <ele>1331</ele>
        <time>2016-03-26T10:15:23Z</time>
      </trkpt>
      <trkpt lat="42.96208" lon="0.85949">
        <ele>1331</ele>
        <time>2016-03-26T10:15:25Z</time>
      </trkpt>
      <trkpt lat="42.96207" lon="0.85947">
        <ele>1331</ele>
        <time>2016-03-26T10:15:27Z</time>
      </trkpt>
      <trkpt lat="42.96206" lon="0.85946">
        <ele>1331</ele>
        <time>2016-03-26T10:15:28Z</time>
      </trkpt>
      <trkpt lat="42.96206" lon="0.85944">
        <ele>1331</ele>
        <time>2016-03-26T10:15:30Z</time>
      </trkpt>
      <trkpt lat="42.96205" lon="0.85943">
        <ele>1331</ele>
        <time>2016-03-26T10:15:31Z</time>
      </trkpt>
      <trkpt lat="42.96204" lon="0.85941">
        <ele>1331</ele>
        <time>2016-03-26T10:15:33Z</time>
      </trkpt>
      <trkpt lat="42.96203" lon="0.8594">
        <ele>1331</ele>
        <time>2016-03-26T10:15:34Z</time>
      </trkpt>
      <trkpt lat="42.96202" lon="0.85938">
        <ele>1332</ele>
        <time>2016-03-26T10:15:36Z</time>
      </trkpt>
      <trkpt lat="42.962" lon="0.85936">
        <ele>1332</ele>
        <time>2016-03-26T10:15:38Z</time>
      </trkpt>
      <trkpt lat="42.96199" lon="0.85933">
        <ele>1332</ele>
        <time>2016-03-26T10:15:40Z</time>
      </trkpt>
      <trkpt lat="42.96198" lon="0.85929">
        <ele>1332</ele>
        <time>2016-03-26T10:15:42Z</time>
      </trkpt>
      <trkpt lat="42.96198" lon="0.85926">
        <ele>1332</ele>
        <time>2016-03-26T10:15:44Z</time>
      </trkpt>
      <trkpt lat="42.96198" lon="0.85923">
        <ele>1332</ele>
        <time>2016-03-26T10:15:46Z</time>
      </trkpt>
      <trkpt lat="42.96196" lon="0.85921">
        <ele>1331</ele>
        <time>2016-03-26T10:15:48Z</time>
      </trkpt>
      <trkpt lat="42.96195" lon="0.85919">
        <ele>1331</ele>
        <time>2016-03-26T10:15:50Z</time>
      </trkpt>
      <trkpt lat="42.96193" lon="0.85916">
        <ele>1331</ele>
        <time>2016-03-26T10:15:52Z</time>
      </trkpt>
      <trkpt lat="42.96192" lon="0.85915">
        <ele>1331</ele>
        <time>2016-03-26T10:15:54Z</time>
      </trkpt>
      <trkpt lat="42.96191" lon="0.85913">
        <ele>1331</ele>
        <time>2016-03-26T10:15:56Z</time>
      </trkpt>
      <trkpt lat="42.9619" lon="0.85912">
        <ele>1331</ele>
        <time>2016-03-26T10:15:58Z</time>
      </trkpt>
      <trkpt lat="42.96187" lon="0.8591">
        <ele>1331</ele>
        <time>2016-03-26T10:16:00Z</time>
      </trkpt>
      <trkpt lat="42.96187" lon="0.85908">
        <ele>1331</ele>
        <time>2016-03-26T10:16:01Z</time>
      </trkpt>
      <trkpt lat="42.96186" lon="0.85906">
        <ele>1330</ele>
        <time>2016-03-26T10:16:03Z</time>
      </trkpt>
      <trkpt lat="42.96184" lon="0.85904">
        <ele>1330</ele>
        <time>2016-03-26T10:16:05Z</time>
      </trkpt>
      <trkpt lat="42.96183" lon="0.85901">
        <ele>1330</ele>
        <time>2016-03-26T10:16:07Z</time>
      </trkpt>
      <trkpt lat="42.96182" lon="0.859">
        <ele>1330</ele>
        <time>2016-03-26T10:16:08Z</time>
      </trkpt>
      <trkpt lat="42.96182" lon="0.85897">
        <ele>1330</ele>
        <time>2016-03-26T10:16:10Z</time>
      </trkpt>
      <trkpt lat="42.96182" lon="0.85895">
        <ele>1330</ele>
        <time>2016-03-26T10:16:12Z</time>
      </trkpt>
      <trkpt lat="42.96181" lon="0.85892">
        <ele>1330</ele>
        <time>2016-03-26T10:16:14Z</time>
      </trkpt>
      <trkpt lat="42.9618" lon="0.85891">
        <ele>1330</ele>
        <time>2016-03-26T10:16:15Z</time>
      </trkpt>
      <trkpt lat="42.9618" lon="0.8589">
        <ele>1330</ele>
        <time>2016-03-26T10:16:16Z</time>
      </trkpt>
      <trkpt lat="42.9618" lon="0.85887">
        <ele>1330</ele>
        <time>2016-03-26T10:16:18Z</time>
      </trkpt>
      <trkpt lat="42.96179" lon="0.85886">
        <ele>1330</ele>
        <time>2016-03-26T10:16:20Z</time>
      </trkpt>
      <trkpt lat="42.96178" lon="0.85884">
        <ele>1330</ele>
        <time>2016-03-26T10:16:22Z</time>
      </trkpt>
      <trkpt lat="42.96177" lon="0.85884">
        <ele>1330</ele>
        <time>2016-03-26T10:16:23Z</time>
      </trkpt>
      <trkpt lat="42.96177" lon="0.85881">
        <ele>1330</ele>
        <time>2016-03-26T10:16:25Z</time>
      </trkpt>
      <trkpt lat="42.96177" lon="0.85878">
        <ele>1330</ele>
        <time>2016-03-26T10:16:27Z</time>
      </trkpt>
      <trkpt lat="42.96177" lon="0.85877">
        <ele>1331</ele>
        <time>2016-03-26T10:16:28Z</time>
      </trkpt>
      <trkpt lat="42.96176" lon="0.85874">
        <ele>1331</ele>
        <time>2016-03-26T10:16:30Z</time>
      </trkpt>
      <trkpt lat="42.96176" lon="0.85872">
        <ele>1331</ele>
        <time>2016-03-26T10:16:31Z</time>
      </trkpt>
      <trkpt lat="42.96175" lon="0.8587">
        <ele>1331</ele>
        <time>2016-03-26T10:16:33Z</time>
      </trkpt>
      <trkpt lat="42.96175" lon="0.85868">
        <ele>1331</ele>
        <time>2016-03-26T10:16:34Z</time>
      </trkpt>
      <trkpt lat="42.96174" lon="0.85866">
        <ele>1332</ele>
        <time>2016-03-26T10:16:36Z</time>
      </trkpt>
      <trkpt lat="42.96173" lon="0.85865">
        <ele>1332</ele>
        <time>2016-03-26T10:16:38Z</time>
      </trkpt>
      <trkpt lat="42.96173" lon="0.85864">
        <ele>1332</ele>
        <time>2016-03-26T10:16:39Z</time>
      </trkpt>
      <trkpt lat="42.96172" lon="0.85864">
        <ele>1332</ele>
        <time>2016-03-26T10:16:41Z</time>
      </trkpt>
      <trkpt lat="42.96171" lon="0.85863">
        <ele>1333</ele>
        <time>2016-03-26T10:16:42Z</time>
      </trkpt>
      <trkpt lat="42.96171" lon="0.8586">
        <ele>1333</ele>
        <time>2016-03-26T10:16:44Z</time>
      </trkpt>
      <trkpt lat="42.96171" lon="0.85859">
        <ele>1333</ele>
        <time>2016-03-26T10:16:45Z</time>
      </trkpt>
      <trkpt lat="42.96171" lon="0.85859">
        <ele>1332</ele>
        <time>2016-03-26T10:16:46Z</time>
      </trkpt>
      <trkpt lat="42.9617" lon="0.85857">
        <ele>1332</ele>
        <time>2016-03-26T10:16:48Z</time>
      </trkpt>
      <trkpt lat="42.9617" lon="0.85854">
        <ele>1332</ele>
        <time>2016-03-26T10:16:50Z</time>
      </trkpt>
      <trkpt lat="42.9617" lon="0.85853">
        <ele>1332</ele>
        <time>2016-03-26T10:16:51Z</time>
      </trkpt>
      <trkpt lat="42.96169" lon="0.8585">
        <ele>1332</ele>
        <time>2016-03-26T10:16:53Z</time>
      </trkpt>
      <trkpt lat="42.96166" lon="0.85849">
        <ele>1332</ele>
        <time>2016-03-26T10:16:55Z</time>
      </trkpt>
      <trkpt lat="42.96166" lon="0.85847">
        <ele>1332</ele>
        <time>2016-03-26T10:16:56Z</time>
      </trkpt>
      <trkpt lat="42.96165" lon="0.85846">
        <ele>1332</ele>
        <time>2016-03-26T10:16:58Z</time>
      </trkpt>
      <trkpt lat="42.96165" lon="0.85845">
        <ele>1332</ele>
        <time>2016-03-26T10:17:00Z</time>
      </trkpt>
      <trkpt lat="42.96165" lon="0.85844">
        <ele>1332</ele>
        <time>2016-03-26T10:17:01Z</time>
      </trkpt>
      <trkpt lat="42.96164" lon="0.85841">
        <ele>1332</ele>
        <time>2016-03-26T10:17:03Z</time>
      </trkpt>
      <trkpt lat="42.96164" lon="0.85839">
        <ele>1332</ele>
        <time>2016-03-26T10:17:05Z</time>
      </trkpt>
      <trkpt lat="42.96163" lon="0.85838">
        <ele>1332</ele>
        <time>2016-03-26T10:17:06Z</time>
      </trkpt>
      <trkpt lat="42.96164" lon="0.85835">
        <ele>1332</ele>
        <time>2016-03-26T10:17:08Z</time>
      </trkpt>
      <trkpt lat="42.96164" lon="0.85832">
        <ele>1332</ele>
        <time>2016-03-26T10:17:10Z</time>
      </trkpt>
      <trkpt lat="42.96164" lon="0.85829">
        <ele>1332</ele>
        <time>2016-03-26T10:17:12Z</time>
      </trkpt>
      <trkpt lat="42.96164" lon="0.85828">
        <ele>1333</ele>
        <time>2016-03-26T10:17:13Z</time>
      </trkpt>
      <trkpt lat="42.96164" lon="0.85825">
        <ele>1333</ele>
        <time>2016-03-26T10:17:15Z</time>
      </trkpt>
      <trkpt lat="42.96164" lon="0.85823">
        <ele>1333</ele>
        <time>2016-03-26T10:17:17Z</time>
      </trkpt>
      <trkpt lat="42.96162" lon="0.8582">
        <ele>1333</ele>
        <time>2016-03-26T10:17:21Z</time>
      </trkpt>
      <trkpt lat="42.96161" lon="0.85818">
        <ele>1333</ele>
        <time>2016-03-26T10:17:23Z</time>
      </trkpt>
      <trkpt lat="42.96161" lon="0.85816">
        <ele>1333</ele>
        <time>2016-03-26T10:17:24Z</time>
      </trkpt>
      <trkpt lat="42.96161" lon="0.85813">
        <ele>1334</ele>
        <time>2016-03-26T10:17:26Z</time>
      </trkpt>
      <trkpt lat="42.96161" lon="0.85812">
        <ele>1334</ele>
        <time>2016-03-26T10:17:27Z</time>
      </trkpt>
      <trkpt lat="42.9616" lon="0.8581">
        <ele>1334</ele>
        <time>2016-03-26T10:17:29Z</time>
      </trkpt>
      <trkpt lat="42.96158" lon="0.85808">
        <ele>1334</ele>
        <time>2016-03-26T10:17:31Z</time>
      </trkpt>
      <trkpt lat="42.96158" lon="0.85805">
        <ele>1335</ele>
        <time>2016-03-26T10:17:33Z</time>
      </trkpt>
      <trkpt lat="42.96158" lon="0.85803">
        <ele>1335</ele>
        <time>2016-03-26T10:17:34Z</time>
      </trkpt>
      <trkpt lat="42.96158" lon="0.858">
        <ele>1335</ele>
        <time>2016-03-26T10:17:36Z</time>
      </trkpt>
      <trkpt lat="42.96159" lon="0.85797">
        <ele>1335</ele>
        <time>2016-03-26T10:17:38Z</time>
      </trkpt>
      <trkpt lat="42.96159" lon="0.85796">
        <ele>1335</ele>
        <time>2016-03-26T10:17:39Z</time>
      </trkpt>
      <trkpt lat="42.96159" lon="0.85795">
        <ele>1336</ele>
        <time>2016-03-26T10:17:40Z</time>
      </trkpt>
      <trkpt lat="42.96158" lon="0.85792">
        <ele>1336</ele>
        <time>2016-03-26T10:17:42Z</time>
      </trkpt>
      <trkpt lat="42.96159" lon="0.85789">
        <ele>1336</ele>
        <time>2016-03-26T10:17:44Z</time>
      </trkpt>
      <trkpt lat="42.96159" lon="0.85786">
        <ele>1336</ele>
        <time>2016-03-26T10:17:46Z</time>
      </trkpt>
      <trkpt lat="42.9616" lon="0.85784">
        <ele>1336</ele>
        <time>2016-03-26T10:17:48Z</time>
      </trkpt>
      <trkpt lat="42.96161" lon="0.85782">
        <ele>1337</ele>
        <time>2016-03-26T10:17:50Z</time>
      </trkpt>
      <trkpt lat="42.96162" lon="0.85779">
        <ele>1337</ele>
        <time>2016-03-26T10:17:52Z</time>
      </trkpt>
      <trkpt lat="42.96164" lon="0.85777">
        <ele>1337</ele>
        <time>2016-03-26T10:17:54Z</time>
      </trkpt>
      <trkpt lat="42.96166" lon="0.85776">
        <ele>1337</ele>
        <time>2016-03-26T10:17:56Z</time>
      </trkpt>
      <trkpt lat="42.96166" lon="0.85774">
        <ele>1337</ele>
        <time>2016-03-26T10:17:58Z</time>
      </trkpt>
      <trkpt lat="42.96167" lon="0.85772">
        <ele>1337</ele>
        <time>2016-03-26T10:18:00Z</time>
      </trkpt>
      <trkpt lat="42.96168" lon="0.85771">
        <ele>1337</ele>
        <time>2016-03-26T10:18:01Z</time>
      </trkpt>
      <trkpt lat="42.96168" lon="0.85769">
        <ele>1337</ele>
        <time>2016-03-26T10:18:03Z</time>
      </trkpt>
      <trkpt lat="42.96169" lon="0.85768">
        <ele>1337</ele>
        <time>2016-03-26T10:18:04Z</time>
      </trkpt>
      <trkpt lat="42.96169" lon="0.85767">
        <ele>1337</ele>
        <time>2016-03-26T10:18:05Z</time>
      </trkpt>
      <trkpt lat="42.9617" lon="0.85765">
        <ele>1337</ele>
        <time>2016-03-26T10:18:07Z</time>
      </trkpt>
      <trkpt lat="42.96171" lon="0.85764">
        <ele>1337</ele>
        <time>2016-03-26T10:18:08Z</time>
      </trkpt>
      <trkpt lat="42.96172" lon="0.85763">
        <ele>1338</ele>
        <time>2016-03-26T10:18:10Z</time>
      </trkpt>
      <trkpt lat="42.96174" lon="0.85761">
        <ele>1338</ele>
        <time>2016-03-26T10:18:12Z</time>
      </trkpt>
      <trkpt lat="42.96174" lon="0.85758">
        <ele>1338</ele>
        <time>2016-03-26T10:18:15Z</time>
      </trkpt>
      <trkpt lat="42.96174" lon="0.85756">
        <ele>1338</ele>
        <time>2016-03-26T10:18:17Z</time>
      </trkpt>
      <trkpt lat="42.96174" lon="0.85755">
        <ele>1338</ele>
        <time>2016-03-26T10:18:19Z</time>
      </trkpt>
      <trkpt lat="42.96174" lon="0.85754">
        <ele>1339</ele>
        <time>2016-03-26T10:18:20Z</time>
      </trkpt>
      <trkpt lat="42.96172" lon="0.85753">
        <ele>1339</ele>
        <time>2016-03-26T10:18:22Z</time>
      </trkpt>
      <trkpt lat="42.96172" lon="0.85752">
        <ele>1339</ele>
        <time>2016-03-26T10:18:24Z</time>
      </trkpt>
      <trkpt lat="42.9617" lon="0.85751">
        <ele>1339</ele>
        <time>2016-03-26T10:18:26Z</time>
      </trkpt>
      <trkpt lat="42.96168" lon="0.85749">
        <ele>1339</ele>
        <time>2016-03-26T10:18:28Z</time>
      </trkpt>
      <trkpt lat="42.96166" lon="0.85747">
        <ele>1339</ele>
        <time>2016-03-26T10:18:30Z</time>
      </trkpt>
      <trkpt lat="42.96164" lon="0.85745">
        <ele>1339</ele>
        <time>2016-03-26T10:18:32Z</time>
      </trkpt>
      <trkpt lat="42.96162" lon="0.85743">
        <ele>1339</ele>
        <time>2016-03-26T10:18:34Z</time>
      </trkpt>
      <trkpt lat="42.9616" lon="0.85742">
        <ele>1339</ele>
        <time>2016-03-26T10:18:36Z</time>
      </trkpt>
      <trkpt lat="42.96159" lon="0.8574">
        <ele>1339</ele>
        <time>2016-03-26T10:18:37Z</time>
      </trkpt>
      <trkpt lat="42.96157" lon="0.85738">
        <ele>1339</ele>
        <time>2016-03-26T10:18:39Z</time>
      </trkpt>
      <trkpt lat="42.96156" lon="0.85736">
        <ele>1339</ele>
        <time>2016-03-26T10:18:40Z</time>
      </trkpt>
      <trkpt lat="42.96155" lon="0.85734">
        <ele>1339</ele>
        <time>2016-03-26T10:18:42Z</time>
      </trkpt>
      <trkpt lat="42.96154" lon="0.85732">
        <ele>1339</ele>
        <time>2016-03-26T10:18:44Z</time>
      </trkpt>
      <trkpt lat="42.96152" lon="0.85729">
        <ele>1339</ele>
        <time>2016-03-26T10:18:46Z</time>
      </trkpt>
      <trkpt lat="42.96152" lon="0.85727">
        <ele>1339</ele>
        <time>2016-03-26T10:18:48Z</time>
      </trkpt>
      <trkpt lat="42.96151" lon="0.85726">
        <ele>1338</ele>
        <time>2016-03-26T10:18:50Z</time>
      </trkpt>
      <trkpt lat="42.96151" lon="0.85724">
        <ele>1338</ele>
        <time>2016-03-26T10:18:52Z</time>
      </trkpt>
      <trkpt lat="42.96151" lon="0.85722">
        <ele>1338</ele>
        <time>2016-03-26T10:18:54Z</time>
      </trkpt>
      <trkpt lat="42.96149" lon="0.85722">
        <ele>1338</ele>
        <time>2016-03-26T10:18:56Z</time>
      </trkpt>
      <trkpt lat="42.96148" lon="0.8572">
        <ele>1338</ele>
        <time>2016-03-26T10:18:58Z</time>
      </trkpt>
      <trkpt lat="42.96147" lon="0.85718">
        <ele>1338</ele>
        <time>2016-03-26T10:19:00Z</time>
      </trkpt>
      <trkpt lat="42.96147" lon="0.85717">
        <ele>1338</ele>
        <time>2016-03-26T10:19:01Z</time>
      </trkpt>
      <trkpt lat="42.96146" lon="0.85715">
        <ele>1338</ele>
        <time>2016-03-26T10:19:03Z</time>
      </trkpt>
      <trkpt lat="42.96145" lon="0.85713">
        <ele>1338</ele>
        <time>2016-03-26T10:19:05Z</time>
      </trkpt>
      <trkpt lat="42.96144" lon="0.8571">
        <ele>1338</ele>
        <time>2016-03-26T10:19:07Z</time>
      </trkpt>
      <trkpt lat="42.96144" lon="0.85708">
        <ele>1338</ele>
        <time>2016-03-26T10:19:08Z</time>
      </trkpt>
      <trkpt lat="42.96144" lon="0.85704">
        <ele>1338</ele>
        <time>2016-03-26T10:19:10Z</time>
      </trkpt>
      <trkpt lat="42.96144" lon="0.85703">
        <ele>1338</ele>
        <time>2016-03-26T10:19:11Z</time>
      </trkpt>
      <trkpt lat="42.96145" lon="0.857">
        <ele>1338</ele>
        <time>2016-03-26T10:19:13Z</time>
      </trkpt>
      <trkpt lat="42.96145" lon="0.85699">
        <ele>1338</ele>
        <time>2016-03-26T10:19:14Z</time>
      </trkpt>
      <trkpt lat="42.96145" lon="0.85698">
        <ele>1338</ele>
        <time>2016-03-26T10:19:16Z</time>
      </trkpt>
      <trkpt lat="42.96145" lon="0.85695">
        <ele>1338</ele>
        <time>2016-03-26T10:19:18Z</time>
      </trkpt>
      <trkpt lat="42.96146" lon="0.85694">
        <ele>1338</ele>
        <time>2016-03-26T10:19:19Z</time>
      </trkpt>
      <trkpt lat="42.96146" lon="0.85692">
        <ele>1338</ele>
        <time>2016-03-26T10:19:21Z</time>
      </trkpt>
      <trkpt lat="42.96148" lon="0.8569">
        <ele>1338</ele>
        <time>2016-03-26T10:19:22Z</time>
      </trkpt>
      <trkpt lat="42.96149" lon="0.85688">
        <ele>1338</ele>
        <time>2016-03-26T10:19:24Z</time>
      </trkpt>
      <trkpt lat="42.96149" lon="0.85688">
        <ele>1338</ele>
        <time>2016-03-26T10:19:25Z</time>
      </trkpt>
      <trkpt lat="42.96151" lon="0.85686">
        <ele>1338</ele>
        <time>2016-03-26T10:19:27Z</time>
      </trkpt>
      <trkpt lat="42.96151" lon="0.85686">
        <ele>1338</ele>
        <time>2016-03-26T10:19:28Z</time>
      </trkpt>
      <trkpt lat="42.96153" lon="0.85685">
        <ele>1339</ele>
        <time>2016-03-26T10:19:30Z</time>
      </trkpt>
      <trkpt lat="42.96154" lon="0.85684">
        <ele>1339</ele>
        <time>2016-03-26T10:19:31Z</time>
      </trkpt>
      <trkpt lat="42.96156" lon="0.85684">
        <ele>1339</ele>
        <time>2016-03-26T10:19:33Z</time>
      </trkpt>
      <trkpt lat="42.96156" lon="0.85684">
        <ele>1339</ele>
        <time>2016-03-26T10:19:34Z</time>
      </trkpt>
      <trkpt lat="42.96157" lon="0.85683">
        <ele>1339</ele>
        <time>2016-03-26T10:19:35Z</time>
      </trkpt>
      <trkpt lat="42.96158" lon="0.85683">
        <ele>1339</ele>
        <time>2016-03-26T10:19:37Z</time>
      </trkpt>
      <trkpt lat="42.96158" lon="0.85683">
        <ele>1339</ele>
        <time>2016-03-26T10:19:38Z</time>
      </trkpt>
      <trkpt lat="42.96159" lon="0.85682">
        <ele>1339</ele>
        <time>2016-03-26T10:19:40Z</time>
      </trkpt>
      <trkpt lat="42.96161" lon="0.8568">
        <ele>1339</ele>
        <time>2016-03-26T10:19:49Z</time>
      </trkpt>
      <trkpt lat="42.96161" lon="0.85682">
        <ele>1339</ele>
        <time>2016-03-26T10:19:51Z</time>
      </trkpt>
      <trkpt lat="42.96162" lon="0.85683">
        <ele>1339</ele>
        <time>2016-03-26T10:19:53Z</time>
      </trkpt>
      <trkpt lat="42.96163" lon="0.85683">
        <ele>1339</ele>
        <time>2016-03-26T10:19:55Z</time>
      </trkpt>
      <trkpt lat="42.96164" lon="0.85683">
        <ele>1339</ele>
        <time>2016-03-26T10:19:57Z</time>
      </trkpt>
      <trkpt lat="42.96164" lon="0.85683">
        <ele>1340</ele>
        <time>2016-03-26T10:19:58Z</time>
      </trkpt>
      <trkpt lat="42.96166" lon="0.85682">
        <ele>1340</ele>
        <time>2016-03-26T10:20:00Z</time>
      </trkpt>
      <trkpt lat="42.96166" lon="0.85681">
        <ele>1339</ele>
        <time>2016-03-26T10:20:01Z</time>
      </trkpt>
      <trkpt lat="42.96167" lon="0.85681">
        <ele>1339</ele>
        <time>2016-03-26T10:20:03Z</time>
      </trkpt>
      <trkpt lat="42.96167" lon="0.8568">
        <ele>1339</ele>
        <time>2016-03-26T10:20:05Z</time>
      </trkpt>
      <trkpt lat="42.96167" lon="0.8568">
        <ele>1339</ele>
        <time>2016-03-26T10:20:06Z</time>
      </trkpt>
      <trkpt lat="42.96168" lon="0.85679">
        <ele>1339</ele>
        <time>2016-03-26T10:20:08Z</time>
      </trkpt>
      <trkpt lat="42.96168" lon="0.85677">
        <ele>1339</ele>
        <time>2016-03-26T10:20:13Z</time>
      </trkpt>
      <trkpt lat="42.96168" lon="0.85676">
        <ele>1339</ele>
        <time>2016-03-26T10:20:15Z</time>
      </trkpt>
      <trkpt lat="42.96168" lon="0.85675">
        <ele>1340</ele>
        <time>2016-03-26T10:20:17Z</time>
      </trkpt>
      <trkpt lat="42.96168" lon="0.85673">
        <ele>1340</ele>
        <time>2016-03-26T10:20:19Z</time>
      </trkpt>
      <trkpt lat="42.96168" lon="0.85671">
        <ele>1340</ele>
        <time>2016-03-26T10:20:21Z</time>
      </trkpt>
      <trkpt lat="42.96167" lon="0.85671">
        <ele>1340</ele>
        <time>2016-03-26T10:20:23Z</time>
      </trkpt>
      <trkpt lat="42.96167" lon="0.85671">
        <ele>1340</ele>
        <time>2016-03-26T10:20:25Z</time>
      </trkpt>
      <trkpt lat="42.96165" lon="0.85669">
        <ele>1341</ele>
        <time>2016-03-26T10:20:34Z</time>
      </trkpt>
      <trkpt lat="42.96164" lon="0.85667">
        <ele>1341</ele>
        <time>2016-03-26T10:20:36Z</time>
      </trkpt>
      <trkpt lat="42.96164" lon="0.85667">
        <ele>1341</ele>
        <time>2016-03-26T10:20:38Z</time>
      </trkpt>
      <trkpt lat="42.96165" lon="0.85667">
        <ele>1341</ele>
        <time>2016-03-26T10:20:39Z</time>
      </trkpt>
      <trkpt lat="42.96165" lon="0.85667">
        <ele>1342</ele>
        <time>2016-03-26T10:21:05Z</time>
      </trkpt>
      <trkpt lat="42.96165" lon="0.85667">
        <ele>1342</ele>
        <time>2016-03-26T10:21:07Z</time>
      </trkpt>
      <trkpt lat="42.96164" lon="0.85669">
        <ele>1342</ele>
        <time>2016-03-26T10:21:18Z</time>
      </trkpt>
      <trkpt lat="42.96163" lon="0.85668">
        <ele>1342</ele>
        <time>2016-03-26T10:21:19Z</time>
      </trkpt>
      <trkpt lat="42.96162" lon="0.85668">
        <ele>1342</ele>
        <time>2016-03-26T10:21:21Z</time>
      </trkpt>
      <trkpt lat="42.96163" lon="0.85668">
        <ele>1342</ele>
        <time>2016-03-26T10:21:23Z</time>
      </trkpt>
      <trkpt lat="42.96163" lon="0.85668">
        <ele>1343</ele>
        <time>2016-03-26T10:21:24Z</time>
      </trkpt>
      <trkpt lat="42.96164" lon="0.85669">
        <ele>1343</ele>
        <time>2016-03-26T10:21:26Z</time>
      </trkpt>
      <trkpt lat="42.96164" lon="0.85669">
        <ele>1343</ele>
        <time>2016-03-26T10:21:50Z</time>
      </trkpt>
      <trkpt lat="42.96164" lon="0.85669">
        <ele>1343</ele>
        <time>2016-03-26T10:21:52Z</time>
      </trkpt>
      <trkpt lat="42.96164" lon="0.85669">
        <ele>1343</ele>
        <time>2016-03-26T10:22:12Z</time>
      </trkpt>
      <trkpt lat="42.96164" lon="0.85669">
        <ele>1342</ele>
        <time>2016-03-26T10:22:13Z</time>
      </trkpt>
      <trkpt lat="42.96164" lon="0.85669">
        <ele>1342</ele>
        <time>2016-03-26T10:22:35Z</time>
      </trkpt>
      <trkpt lat="42.96164" lon="0.85669">
        <ele>1342</ele>
        <time>2016-03-26T10:22:36Z</time>
      </trkpt>
      <trkpt lat="42.96164" lon="0.85669">
        <ele>1342</ele>
        <time>2016-03-26T10:22:57Z</time>
      </trkpt>
      <trkpt lat="42.96164" lon="0.85669">
        <ele>1342</ele>
        <time>2016-03-26T10:22:58Z</time>
      </trkpt>
      <trkpt lat="42.96164" lon="0.85669">
        <ele>1342</ele>
        <time>2016-03-26T10:23:17Z</time>
      </trkpt>
      <trkpt lat="42.96164" lon="0.85669">
        <ele>1342</ele>
        <time>2016-03-26T10:23:19Z</time>
      </trkpt>
      <trkpt lat="42.96157" lon="0.85677">
        <ele>1342</ele>
        <time>2016-03-26T10:25:01Z</time>
      </trkpt>
      <trkpt lat="42.96157" lon="0.85676">
        <ele>1342</ele>
        <time>2016-03-26T10:25:03Z</time>
      </trkpt>
      <trkpt lat="42.96157" lon="0.85676">
        <ele>1342</ele>
        <time>2016-03-26T10:25:29Z</time>
      </trkpt>
      <trkpt lat="42.96157" lon="0.85676">
        <ele>1341</ele>
        <time>2016-03-26T10:25:30Z</time>
      </trkpt>
      <trkpt lat="42.96157" lon="0.85676">
        <ele>1341</ele>
        <time>2016-03-26T10:25:49Z</time>
      </trkpt>
      <trkpt lat="42.96157" lon="0.85676">
        <ele>1341</ele>
        <time>2016-03-26T10:25:51Z</time>
      </trkpt>
      <trkpt lat="42.96157" lon="0.85676">
        <ele>1341</ele>
        <time>2016-03-26T10:26:10Z</time>
      </trkpt>
      <trkpt lat="42.96157" lon="0.85676">
        <ele>1341</ele>
        <time>2016-03-26T10:26:12Z</time>
      </trkpt>
      <trkpt lat="42.96157" lon="0.85676">
        <ele>1341</ele>
        <time>2016-03-26T10:26:33Z</time>
      </trkpt>
      <trkpt lat="42.96157" lon="0.85676">
        <ele>1341</ele>
        <time>2016-03-26T10:26:34Z</time>
      </trkpt>
      <trkpt lat="42.96157" lon="0.85676">
        <ele>1341</ele>
        <time>2016-03-26T10:26:56Z</time>
      </trkpt>
      <trkpt lat="42.96157" lon="0.85676">
        <ele>1341</ele>
        <time>2016-03-26T10:26:57Z</time>
      </trkpt>
      <trkpt lat="42.96166" lon="0.8567">
        <ele>1342</ele>
        <time>2016-03-26T10:28:25Z</time>
      </trkpt>
      <trkpt lat="42.96167" lon="0.85669">
        <ele>1343</ele>
        <time>2016-03-26T10:28:27Z</time>
      </trkpt>
      <trkpt lat="42.96168" lon="0.8567">
        <ele>1345</ele>
        <time>2016-03-26T10:28:29Z</time>
      </trkpt>
      <trkpt lat="42.96168" lon="0.8567">
        <ele>1346</ele>
        <time>2016-03-26T10:28:45Z</time>
      </trkpt>
      <trkpt lat="42.96168" lon="0.8567">
        <ele>1347</ele>
        <time>2016-03-26T10:28:46Z</time>
      </trkpt>
      <trkpt lat="42.96168" lon="0.8567">
        <ele>1347</ele>
        <time>2016-03-26T10:29:05Z</time>
      </trkpt>
      <trkpt lat="42.96168" lon="0.8567">
        <ele>1347</ele>
        <time>2016-03-26T10:29:07Z</time>
      </trkpt>
      <trkpt lat="42.96161" lon="0.8567">
        <ele>1347</ele>
        <time>2016-03-26T10:29:12Z</time>
      </trkpt>
      <trkpt lat="42.96159" lon="0.85671">
        <ele>1346</ele>
        <time>2016-03-26T10:29:13Z</time>
      </trkpt>
      <trkpt lat="42.96158" lon="0.85673">
        <ele>1346</ele>
        <time>2016-03-26T10:29:15Z</time>
      </trkpt>
      <trkpt lat="42.96157" lon="0.85675">
        <ele>1346</ele>
        <time>2016-03-26T10:29:16Z</time>
      </trkpt>
      <trkpt lat="42.96158" lon="0.85676">
        <ele>1346</ele>
        <time>2016-03-26T10:29:18Z</time>
      </trkpt>
      <trkpt lat="42.96159" lon="0.85677">
        <ele>1346</ele>
        <time>2016-03-26T10:29:19Z</time>
      </trkpt>
      <trkpt lat="42.96159" lon="0.85676">
        <ele>1346</ele>
        <time>2016-03-26T10:29:21Z</time>
      </trkpt>
      <trkpt lat="42.96159" lon="0.85676">
        <ele>1346</ele>
        <time>2016-03-26T10:29:48Z</time>
      </trkpt>
      <trkpt lat="42.96159" lon="0.85676">
        <ele>1346</ele>
        <time>2016-03-26T10:29:50Z</time>
      </trkpt>
      <trkpt lat="42.96159" lon="0.85676">
        <ele>1346</ele>
        <time>2016-03-26T10:30:12Z</time>
      </trkpt>
      <trkpt lat="42.96159" lon="0.85676">
        <ele>1346</ele>
        <time>2016-03-26T10:30:13Z</time>
      </trkpt>
      <trkpt lat="42.96159" lon="0.85676">
        <ele>1346</ele>
        <time>2016-03-26T10:30:33Z</time>
      </trkpt>
      <trkpt lat="42.96167" lon="0.85672">
        <ele>1346</ele>
        <time>2016-03-26T10:30:35Z</time>
      </trkpt>
      <trkpt lat="42.96168" lon="0.85673">
        <ele>1346</ele>
        <time>2016-03-26T10:30:37Z</time>
      </trkpt>
      <trkpt lat="42.96168" lon="0.85673">
        <ele>1345</ele>
        <time>2016-03-26T10:30:57Z</time>
      </trkpt>
      <trkpt lat="42.96168" lon="0.85673">
        <ele>1345</ele>
        <time>2016-03-26T10:30:58Z</time>
      </trkpt>
      <trkpt lat="42.96168" lon="0.85673">
        <ele>1345</ele>
        <time>2016-03-26T10:31:19Z</time>
      </trkpt>
      <trkpt lat="42.96168" lon="0.85673">
        <ele>1345</ele>
        <time>2016-03-26T10:31:21Z</time>
      </trkpt>
      <trkpt lat="42.96159" lon="0.85665">
        <ele>1345</ele>
        <time>2016-03-26T10:31:41Z</time>
      </trkpt>
      <trkpt lat="42.96159" lon="0.85664">
        <ele>1345</ele>
        <time>2016-03-26T10:31:43Z</time>
      </trkpt>
      <trkpt lat="42.96159" lon="0.85664">
        <ele>1346</ele>
        <time>2016-03-26T10:32:04Z</time>
      </trkpt>
      <trkpt lat="42.96159" lon="0.85664">
        <ele>1346</ele>
        <time>2016-03-26T10:32:06Z</time>
      </trkpt>
      <trkpt lat="42.96169" lon="0.85673">
        <ele>1347</ele>
        <time>2016-03-26T10:32:12Z</time>
      </trkpt>
      <trkpt lat="42.9617" lon="0.85674">
        <ele>1347</ele>
        <time>2016-03-26T10:32:13Z</time>
      </trkpt>
      <trkpt lat="42.9617" lon="0.85674">
        <ele>1347</ele>
        <time>2016-03-26T10:32:14Z</time>
      </trkpt>
      <trkpt lat="42.96169" lon="0.85674">
        <ele>1347</ele>
        <time>2016-03-26T10:32:16Z</time>
      </trkpt>
      <trkpt lat="42.96169" lon="0.85674">
        <ele>1347</ele>
        <time>2016-03-26T10:32:48Z</time>
      </trkpt>
      <trkpt lat="42.96169" lon="0.85674">
        <ele>1347</ele>
        <time>2016-03-26T10:32:49Z</time>
      </trkpt>
      <trkpt lat="42.96169" lon="0.85674">
        <ele>1347</ele>
        <time>2016-03-26T10:33:11Z</time>
      </trkpt>
      <trkpt lat="42.96169" lon="0.85674">
        <ele>1347</ele>
        <time>2016-03-26T10:33:14Z</time>
      </trkpt>
      <trkpt lat="42.96169" lon="0.85674">
        <ele>1347</ele>
        <time>2016-03-26T10:33:29Z</time>
      </trkpt>
      <trkpt lat="42.96169" lon="0.85674">
        <ele>1347</ele>
        <time>2016-03-26T10:33:31Z</time>
      </trkpt>
      <trkpt lat="42.96169" lon="0.85674">
        <ele>1347</ele>
        <time>2016-03-26T10:33:51Z</time>
      </trkpt>
      <trkpt lat="42.96169" lon="0.85674">
        <ele>1347</ele>
        <time>2016-03-26T10:33:53Z</time>
      </trkpt>
      <trkpt lat="42.9616" lon="0.85673">
        <ele>1346</ele>
        <time>2016-03-26T10:34:22Z</time>
      </trkpt>
      <trkpt lat="42.96159" lon="0.85673">
        <ele>1346</ele>
        <time>2016-03-26T10:34:24Z</time>
      </trkpt>
      <trkpt lat="42.9617" lon="0.85673">
        <ele>1346</ele>
        <time>2016-03-26T10:34:33Z</time>
      </trkpt>
      <trkpt lat="42.96169" lon="0.85673">
        <ele>1346</ele>
        <time>2016-03-26T10:34:36Z</time>
      </trkpt>
      <trkpt lat="42.96169" lon="0.85673">
        <ele>1346</ele>
        <time>2016-03-26T10:34:57Z</time>
      </trkpt>
      <trkpt lat="42.96169" lon="0.85673">
        <ele>1346</ele>
        <time>2016-03-26T10:34:58Z</time>
      </trkpt>
      <trkpt lat="42.96162" lon="0.8567">
        <ele>1346</ele>
        <time>2016-03-26T10:35:11Z</time>
      </trkpt>
      <trkpt lat="42.96163" lon="0.8567">
        <ele>1346</ele>
        <time>2016-03-26T10:35:13Z</time>
      </trkpt>
      <trkpt lat="42.96164" lon="0.85671">
        <ele>1347</ele>
        <time>2016-03-26T10:35:15Z</time>
      </trkpt>
      <trkpt lat="42.96165" lon="0.85671">
        <ele>1347</ele>
        <time>2016-03-26T10:35:17Z</time>
      </trkpt>
      <trkpt lat="42.96165" lon="0.85672">
        <ele>1347</ele>
        <time>2016-03-26T10:35:18Z</time>
      </trkpt>
      <trkpt lat="42.96166" lon="0.85672">
        <ele>1347</ele>
        <time>2016-03-26T10:35:22Z</time>
      </trkpt>
      <trkpt lat="42.96167" lon="0.85672">
        <ele>1347</ele>
        <time>2016-03-26T10:35:23Z</time>
      </trkpt>
      <trkpt lat="42.96159" lon="0.85667">
        <ele>1347</ele>
        <time>2016-03-26T10:35:39Z</time>
      </trkpt>
      <trkpt lat="42.96159" lon="0.85667">
        <ele>1347</ele>
        <time>2016-03-26T10:35:40Z</time>
      </trkpt>
      <trkpt lat="42.96158" lon="0.85667">
        <ele>1347</ele>
        <time>2016-03-26T10:35:42Z</time>
      </trkpt>
      <trkpt lat="42.96157" lon="0.85669">
        <ele>1347</ele>
        <time>2016-03-26T10:35:43Z</time>
      </trkpt>
      <trkpt lat="42.96158" lon="0.8567">
        <ele>1347</ele>
        <time>2016-03-26T10:35:45Z</time>
      </trkpt>
      <trkpt lat="42.96157" lon="0.8567">
        <ele>1347</ele>
        <time>2016-03-26T10:35:46Z</time>
      </trkpt>
      <trkpt lat="42.96157" lon="0.8567">
        <ele>1347</ele>
        <time>2016-03-26T10:36:04Z</time>
      </trkpt>
      <trkpt lat="42.96157" lon="0.8567">
        <ele>1347</ele>
        <time>2016-03-26T10:36:05Z</time>
      </trkpt>
      <trkpt lat="42.96157" lon="0.8567">
        <ele>1347</ele>
        <time>2016-03-26T10:36:27Z</time>
      </trkpt>
      <trkpt lat="42.96157" lon="0.8567">
        <ele>1347</ele>
        <time>2016-03-26T10:36:28Z</time>
      </trkpt>
      <trkpt lat="42.96157" lon="0.8567">
        <ele>1347</ele>
        <time>2016-03-26T10:36:47Z</time>
      </trkpt>
      <trkpt lat="42.96157" lon="0.8567">
        <ele>1347</ele>
        <time>2016-03-26T10:36:49Z</time>
      </trkpt>
      <trkpt lat="42.96157" lon="0.8567">
        <ele>1347</ele>
        <time>2016-03-26T10:37:10Z</time>
      </trkpt>
      <trkpt lat="42.96157" lon="0.8567">
        <ele>1347</ele>
        <time>2016-03-26T10:37:12Z</time>
      </trkpt>
      <trkpt lat="42.96157" lon="0.8567">
        <ele>1347</ele>
        <time>2016-03-26T10:37:32Z</time>
      </trkpt>
      <trkpt lat="42.96157" lon="0.8567">
        <ele>1347</ele>
        <time>2016-03-26T10:37:33Z</time>
      </trkpt>
      <trkpt lat="42.96154" lon="0.85666">
        <ele>1346</ele>
        <time>2016-03-26T10:39:24Z</time>
      </trkpt>
      <trkpt lat="42.96159" lon="0.85667">
        <ele>1346</ele>
        <time>2016-03-26T10:39:27Z</time>
      </trkpt>
      <trkpt lat="42.96156" lon="0.85667">
        <ele>1345</ele>
        <time>2016-03-26T10:39:29Z</time>
      </trkpt>
      <trkpt lat="42.96155" lon="0.85666">
        <ele>1345</ele>
        <time>2016-03-26T10:39:30Z</time>
      </trkpt>
      <trkpt lat="42.96155" lon="0.85666">
        <ele>1344</ele>
        <time>2016-03-26T10:40:01Z</time>
      </trkpt>
      <trkpt lat="42.96155" lon="0.85666">
        <ele>1345</ele>
        <time>2016-03-26T10:40:02Z</time>
      </trkpt>
      <trkpt lat="42.96155" lon="0.85666">
        <ele>1345</ele>
        <time>2016-03-26T10:40:24Z</time>
      </trkpt>
      <trkpt lat="42.96155" lon="0.85666">
        <ele>1345</ele>
        <time>2016-03-26T10:40:25Z</time>
      </trkpt>
      <trkpt lat="42.96155" lon="0.85666">
        <ele>1345</ele>
        <time>2016-03-26T10:40:44Z</time>
      </trkpt>
      <trkpt lat="42.96155" lon="0.85666">
        <ele>1345</ele>
        <time>2016-03-26T10:40:45Z</time>
      </trkpt>
      <trkpt lat="42.96155" lon="0.85666">
        <ele>1345</ele>
        <time>2016-03-26T10:41:06Z</time>
      </trkpt>
      <trkpt lat="42.96155" lon="0.85666">
        <ele>1345</ele>
        <time>2016-03-26T10:41:08Z</time>
      </trkpt>
      <trkpt lat="42.96166" lon="0.85667">
        <ele>1346</ele>
        <time>2016-03-26T10:42:34Z</time>
      </trkpt>
      <trkpt lat="42.96168" lon="0.85668">
        <ele>1347</ele>
        <time>2016-03-26T10:42:40Z</time>
      </trkpt>
      <trkpt lat="42.96159" lon="0.85667">
        <ele>1348</ele>
        <time>2016-03-26T10:42:57Z</time>
      </trkpt>
      <trkpt lat="42.96158" lon="0.85667">
        <ele>1349</ele>
        <time>2016-03-26T10:42:59Z</time>
      </trkpt>
      <trkpt lat="42.96158" lon="0.85667">
        <ele>1351</ele>
        <time>2016-03-26T10:43:20Z</time>
      </trkpt>
      <trkpt lat="42.96158" lon="0.85667">
        <ele>1351</ele>
        <time>2016-03-26T10:43:22Z</time>
      </trkpt>
      <trkpt lat="42.96158" lon="0.85667">
        <ele>1351</ele>
        <time>2016-03-26T10:43:43Z</time>
      </trkpt>
      <trkpt lat="42.96158" lon="0.85667">
        <ele>1351</ele>
        <time>2016-03-26T10:43:45Z</time>
      </trkpt>
      <trkpt lat="42.96159" lon="0.85662">
        <ele>1351</ele>
        <time>2016-03-26T10:43:55Z</time>
      </trkpt>
      <trkpt lat="42.96158" lon="0.85658">
        <ele>1351</ele>
        <time>2016-03-26T10:44:02Z</time>
      </trkpt>
      <trkpt lat="42.96158" lon="0.85657">
        <ele>1351</ele>
        <time>2016-03-26T10:44:05Z</time>
      </trkpt>
      <trkpt lat="42.96158" lon="0.85656">
        <ele>1351</ele>
        <time>2016-03-26T10:44:28Z</time>
      </trkpt>
      <trkpt lat="42.96158" lon="0.85656">
        <ele>1351</ele>
        <time>2016-03-26T10:44:30Z</time>
      </trkpt>
      <trkpt lat="42.96154" lon="0.85663">
        <ele>1351</ele>
        <time>2016-03-26T10:44:33Z</time>
      </trkpt>
      <trkpt lat="42.96154" lon="0.85667">
        <ele>1351</ele>
        <time>2016-03-26T10:44:37Z</time>
      </trkpt>
      <trkpt lat="42.96149" lon="0.8567">
        <ele>1351</ele>
        <time>2016-03-26T10:44:45Z</time>
      </trkpt>
      <trkpt lat="42.96148" lon="0.85671">
        <ele>1351</ele>
        <time>2016-03-26T10:44:47Z</time>
      </trkpt>
      <trkpt lat="42.96147" lon="0.85672">
        <ele>1351</ele>
        <time>2016-03-26T10:44:49Z</time>
      </trkpt>
      <trkpt lat="42.96146" lon="0.85673">
        <ele>1350</ele>
        <time>2016-03-26T10:44:52Z</time>
      </trkpt>
      <trkpt lat="42.96143" lon="0.85673">
        <ele>1350</ele>
        <time>2016-03-26T10:44:54Z</time>
      </trkpt>
      <trkpt lat="42.96143" lon="0.85674">
        <ele>1350</ele>
        <time>2016-03-26T10:44:55Z</time>
      </trkpt>
      <trkpt lat="42.96138" lon="0.85672">
        <ele>1349</ele>
        <time>2016-03-26T10:45:00Z</time>
      </trkpt>
      <trkpt lat="42.96133" lon="0.85673">
        <ele>1348</ele>
        <time>2016-03-26T10:45:06Z</time>
      </trkpt>
      <trkpt lat="42.96132" lon="0.85674">
        <ele>1348</ele>
        <time>2016-03-26T10:45:08Z</time>
      </trkpt>
      <trkpt lat="42.96127" lon="0.85678">
        <ele>1347</ele>
        <time>2016-03-26T10:45:12Z</time>
      </trkpt>
      <trkpt lat="42.96125" lon="0.85681">
        <ele>1346</ele>
        <time>2016-03-26T10:45:16Z</time>
      </trkpt>
      <trkpt lat="42.96123" lon="0.85681">
        <ele>1346</ele>
        <time>2016-03-26T10:45:18Z</time>
      </trkpt>
      <trkpt lat="42.96122" lon="0.85681">
        <ele>1346</ele>
        <time>2016-03-26T10:45:19Z</time>
      </trkpt>
      <trkpt lat="42.9612" lon="0.85681">
        <ele>1345</ele>
        <time>2016-03-26T10:45:21Z</time>
      </trkpt>
      <trkpt lat="42.9612" lon="0.85682">
        <ele>1345</ele>
        <time>2016-03-26T10:45:23Z</time>
      </trkpt>
      <trkpt lat="42.9612" lon="0.85682">
        <ele>1345</ele>
        <time>2016-03-26T10:45:24Z</time>
      </trkpt>
      <trkpt lat="42.96119" lon="0.85682">
        <ele>1344</ele>
        <time>2016-03-26T10:45:26Z</time>
      </trkpt>
      <trkpt lat="42.96117" lon="0.85683">
        <ele>1344</ele>
        <time>2016-03-26T10:45:30Z</time>
      </trkpt>
      <trkpt lat="42.96116" lon="0.85683">
        <ele>1344</ele>
        <time>2016-03-26T10:45:32Z</time>
      </trkpt>
      <trkpt lat="42.96116" lon="0.85683">
        <ele>1343</ele>
        <time>2016-03-26T10:45:34Z</time>
      </trkpt>
      <trkpt lat="42.96112" lon="0.85681">
        <ele>1342</ele>
        <time>2016-03-26T10:45:39Z</time>
      </trkpt>
      <trkpt lat="42.96111" lon="0.85679">
        <ele>1342</ele>
        <time>2016-03-26T10:45:42Z</time>
      </trkpt>
      <trkpt lat="42.9611" lon="0.85678">
        <ele>1341</ele>
        <time>2016-03-26T10:45:45Z</time>
      </trkpt>
      <trkpt lat="42.96109" lon="0.85677">
        <ele>1340</ele>
        <time>2016-03-26T10:45:48Z</time>
      </trkpt>
      <trkpt lat="42.96108" lon="0.85681">
        <ele>1340</ele>
        <time>2016-03-26T10:45:55Z</time>
      </trkpt>
      <trkpt lat="42.96108" lon="0.85683">
        <ele>1339</ele>
        <time>2016-03-26T10:45:58Z</time>
      </trkpt>
      <trkpt lat="42.96108" lon="0.85689">
        <ele>1339</ele>
        <time>2016-03-26T10:46:07Z</time>
      </trkpt>
      <trkpt lat="42.96108" lon="0.85691">
        <ele>1340</ele>
        <time>2016-03-26T10:46:10Z</time>
      </trkpt>
      <trkpt lat="42.96106" lon="0.85692">
        <ele>1340</ele>
        <time>2016-03-26T10:46:12Z</time>
      </trkpt>
      <trkpt lat="42.96106" lon="0.85693">
        <ele>1340</ele>
        <time>2016-03-26T10:46:14Z</time>
      </trkpt>
      <trkpt lat="42.96106" lon="0.85697">
        <ele>1340</ele>
        <time>2016-03-26T10:46:20Z</time>
      </trkpt>
      <trkpt lat="42.96105" lon="0.85698">
        <ele>1341</ele>
        <time>2016-03-26T10:46:22Z</time>
      </trkpt>
      <trkpt lat="42.96106" lon="0.85704">
        <ele>1341</ele>
        <time>2016-03-26T10:46:33Z</time>
      </trkpt>
      <trkpt lat="42.96108" lon="0.85706">
        <ele>1341</ele>
        <time>2016-03-26T10:46:37Z</time>
      </trkpt>
      <trkpt lat="42.96109" lon="0.85708">
        <ele>1341</ele>
        <time>2016-03-26T10:46:39Z</time>
      </trkpt>
      <trkpt lat="42.96109" lon="0.85708">
        <ele>1342</ele>
        <time>2016-03-26T10:46:40Z</time>
      </trkpt>
      <trkpt lat="42.96109" lon="0.8571">
        <ele>1342</ele>
        <time>2016-03-26T10:46:42Z</time>
      </trkpt>
      <trkpt lat="42.9611" lon="0.85711">
        <ele>1342</ele>
        <time>2016-03-26T10:46:43Z</time>
      </trkpt>
      <trkpt lat="42.9611" lon="0.85713">
        <ele>1342</ele>
        <time>2016-03-26T10:46:45Z</time>
      </trkpt>
      <trkpt lat="42.96111" lon="0.85715">
        <ele>1342</ele>
        <time>2016-03-26T10:46:48Z</time>
      </trkpt>
      <trkpt lat="42.96111" lon="0.85715">
        <ele>1342</ele>
        <time>2016-03-26T10:46:49Z</time>
      </trkpt>
      <trkpt lat="42.9611" lon="0.85717">
        <ele>1342</ele>
        <time>2016-03-26T10:46:51Z</time>
      </trkpt>
      <trkpt lat="42.96108" lon="0.85718">
        <ele>1342</ele>
        <time>2016-03-26T10:46:53Z</time>
      </trkpt>
      <trkpt lat="42.96106" lon="0.85719">
        <ele>1342</ele>
        <time>2016-03-26T10:46:55Z</time>
      </trkpt>
      <trkpt lat="42.96106" lon="0.8572">
        <ele>1342</ele>
        <time>2016-03-26T10:46:56Z</time>
      </trkpt>
      <trkpt lat="42.96105" lon="0.85724">
        <ele>1342</ele>
        <time>2016-03-26T10:47:00Z</time>
      </trkpt>
      <trkpt lat="42.96105" lon="0.85726">
        <ele>1342</ele>
        <time>2016-03-26T10:47:02Z</time>
      </trkpt>
      <trkpt lat="42.96104" lon="0.85728">
        <ele>1342</ele>
        <time>2016-03-26T10:47:04Z</time>
      </trkpt>
      <trkpt lat="42.96103" lon="0.85729">
        <ele>1342</ele>
        <time>2016-03-26T10:47:05Z</time>
      </trkpt>
      <trkpt lat="42.96101" lon="0.8573">
        <ele>1342</ele>
        <time>2016-03-26T10:47:08Z</time>
      </trkpt>
      <trkpt lat="42.961" lon="0.85731">
        <ele>1342</ele>
        <time>2016-03-26T10:47:10Z</time>
      </trkpt>
      <trkpt lat="42.96099" lon="0.85731">
        <ele>1343</ele>
        <time>2016-03-26T10:47:12Z</time>
      </trkpt>
      <trkpt lat="42.96098" lon="0.85731">
        <ele>1343</ele>
        <time>2016-03-26T10:47:13Z</time>
      </trkpt>
      <trkpt lat="42.96098" lon="0.85731">
        <ele>1343</ele>
        <time>2016-03-26T10:47:14Z</time>
      </trkpt>
      <trkpt lat="42.96096" lon="0.85731">
        <ele>1343</ele>
        <time>2016-03-26T10:47:16Z</time>
      </trkpt>
      <trkpt lat="42.96095" lon="0.85731">
        <ele>1343</ele>
        <time>2016-03-26T10:47:18Z</time>
      </trkpt>
      <trkpt lat="42.96094" lon="0.85731">
        <ele>1343</ele>
        <time>2016-03-26T10:47:19Z</time>
      </trkpt>
      <trkpt lat="42.96093" lon="0.85731">
        <ele>1344</ele>
        <time>2016-03-26T10:47:21Z</time>
      </trkpt>
      <trkpt lat="42.96092" lon="0.85732">
        <ele>1344</ele>
        <time>2016-03-26T10:47:22Z</time>
      </trkpt>
      <trkpt lat="42.96091" lon="0.85733">
        <ele>1344</ele>
        <time>2016-03-26T10:47:24Z</time>
      </trkpt>
      <trkpt lat="42.96089" lon="0.85733">
        <ele>1344</ele>
        <time>2016-03-26T10:47:26Z</time>
      </trkpt>
      <trkpt lat="42.96089" lon="0.85733">
        <ele>1344</ele>
        <time>2016-03-26T10:47:27Z</time>
      </trkpt>
      <trkpt lat="42.96085" lon="0.85734">
        <ele>1345</ele>
        <time>2016-03-26T10:47:33Z</time>
      </trkpt>
      <trkpt lat="42.96085" lon="0.85734">
        <ele>1345</ele>
        <time>2016-03-26T10:47:35Z</time>
      </trkpt>
      <trkpt lat="42.96083" lon="0.85735">
        <ele>1345</ele>
        <time>2016-03-26T10:47:37Z</time>
      </trkpt>
      <trkpt lat="42.96081" lon="0.85735">
        <ele>1345</ele>
        <time>2016-03-26T10:47:39Z</time>
      </trkpt>
      <trkpt lat="42.9608" lon="0.85735">
        <ele>1345</ele>
        <time>2016-03-26T10:47:40Z</time>
      </trkpt>
      <trkpt lat="42.96079" lon="0.85735">
        <ele>1345</ele>
        <time>2016-03-26T10:47:42Z</time>
      </trkpt>
      <trkpt lat="42.96078" lon="0.85735">
        <ele>1346</ele>
        <time>2016-03-26T10:47:44Z</time>
      </trkpt>
      <trkpt lat="42.96075" lon="0.85736">
        <ele>1346</ele>
        <time>2016-03-26T10:47:48Z</time>
      </trkpt>
      <trkpt lat="42.96074" lon="0.85737">
        <ele>1346</ele>
        <time>2016-03-26T10:47:49Z</time>
      </trkpt>
      <trkpt lat="42.96074" lon="0.85737">
        <ele>1347</ele>
        <time>2016-03-26T10:47:50Z</time>
      </trkpt>
      <trkpt lat="42.96073" lon="0.85737">
        <ele>1347</ele>
        <time>2016-03-26T10:47:52Z</time>
      </trkpt>
      <trkpt lat="42.96072" lon="0.85737">
        <ele>1347</ele>
        <time>2016-03-26T10:47:54Z</time>
      </trkpt>
      <trkpt lat="42.9607" lon="0.85736">
        <ele>1348</ele>
        <time>2016-03-26T10:47:59Z</time>
      </trkpt>
      <trkpt lat="42.96068" lon="0.85737">
        <ele>1348</ele>
        <time>2016-03-26T10:48:02Z</time>
      </trkpt>
      <trkpt lat="42.96068" lon="0.85737">
        <ele>1348</ele>
        <time>2016-03-26T10:48:04Z</time>
      </trkpt>
      <trkpt lat="42.96067" lon="0.85738">
        <ele>1349</ele>
        <time>2016-03-26T10:48:06Z</time>
      </trkpt>
      <trkpt lat="42.96065" lon="0.85738">
        <ele>1350</ele>
        <time>2016-03-26T10:48:11Z</time>
      </trkpt>
      <trkpt lat="42.96065" lon="0.85738">
        <ele>1350</ele>
        <time>2016-03-26T10:48:12Z</time>
      </trkpt>
      <trkpt lat="42.96064" lon="0.85739">
        <ele>1351</ele>
        <time>2016-03-26T10:48:16Z</time>
      </trkpt>
      <trkpt lat="42.96063" lon="0.8574">
        <ele>1351</ele>
        <time>2016-03-26T10:48:18Z</time>
      </trkpt>
      <trkpt lat="42.96062" lon="0.85741">
        <ele>1352</ele>
        <time>2016-03-26T10:48:20Z</time>
      </trkpt>
      <trkpt lat="42.96059" lon="0.85742">
        <ele>1352</ele>
        <time>2016-03-26T10:48:23Z</time>
      </trkpt>
      <trkpt lat="42.96057" lon="0.85744">
        <ele>1353</ele>
        <time>2016-03-26T10:48:28Z</time>
      </trkpt>
      <trkpt lat="42.96056" lon="0.85744">
        <ele>1353</ele>
        <time>2016-03-26T10:48:29Z</time>
      </trkpt>
      <trkpt lat="42.96056" lon="0.85745">
        <ele>1353</ele>
        <time>2016-03-26T10:48:31Z</time>
      </trkpt>
      <trkpt lat="42.96055" lon="0.85746">
        <ele>1353</ele>
        <time>2016-03-26T10:48:33Z</time>
      </trkpt>
      <trkpt lat="42.96053" lon="0.85747">
        <ele>1354</ele>
        <time>2016-03-26T10:48:35Z</time>
      </trkpt>
      <trkpt lat="42.96053" lon="0.85748">
        <ele>1354</ele>
        <time>2016-03-26T10:48:37Z</time>
      </trkpt>
      <trkpt lat="42.96053" lon="0.85749">
        <ele>1355</ele>
        <time>2016-03-26T10:48:39Z</time>
      </trkpt>
      <trkpt lat="42.96053" lon="0.8575">
        <ele>1355</ele>
        <time>2016-03-26T10:48:41Z</time>
      </trkpt>
      <trkpt lat="42.96052" lon="0.8575">
        <ele>1355</ele>
        <time>2016-03-26T10:48:45Z</time>
      </trkpt>
      <trkpt lat="42.96048" lon="0.85752">
        <ele>1356</ele>
        <time>2016-03-26T10:48:53Z</time>
      </trkpt>
      <trkpt lat="42.96048" lon="0.85753">
        <ele>1356</ele>
        <time>2016-03-26T10:48:56Z</time>
      </trkpt>
      <trkpt lat="42.96047" lon="0.85752">
        <ele>1357</ele>
        <time>2016-03-26T10:48:58Z</time>
      </trkpt>
      <trkpt lat="42.96046" lon="0.85752">
        <ele>1357</ele>
        <time>2016-03-26T10:48:59Z</time>
      </trkpt>
      <trkpt lat="42.96043" lon="0.85751">
        <ele>1357</ele>
        <time>2016-03-26T10:49:10Z</time>
      </trkpt>
      <trkpt lat="42.96042" lon="0.85751">
        <ele>1358</ele>
        <time>2016-03-26T10:49:13Z</time>
      </trkpt>
      <trkpt lat="42.96041" lon="0.85752">
        <ele>1358</ele>
        <time>2016-03-26T10:49:15Z</time>
      </trkpt>
      <trkpt lat="42.9604" lon="0.85752">
        <ele>1358</ele>
        <time>2016-03-26T10:49:16Z</time>
      </trkpt>
      <trkpt lat="42.96039" lon="0.85753">
        <ele>1359</ele>
        <time>2016-03-26T10:49:18Z</time>
      </trkpt>
      <trkpt lat="42.96038" lon="0.85753">
        <ele>1359</ele>
        <time>2016-03-26T10:49:20Z</time>
      </trkpt>
      <trkpt lat="42.96037" lon="0.85754">
        <ele>1359</ele>
        <time>2016-03-26T10:49:21Z</time>
      </trkpt>
      <trkpt lat="42.96037" lon="0.85754">
        <ele>1360</ele>
        <time>2016-03-26T10:49:23Z</time>
      </trkpt>
      <trkpt lat="42.96036" lon="0.85755">
        <ele>1360</ele>
        <time>2016-03-26T10:49:25Z</time>
      </trkpt>
      <trkpt lat="42.96036" lon="0.85755">
        <ele>1360</ele>
        <time>2016-03-26T10:49:26Z</time>
      </trkpt>
      <trkpt lat="42.96035" lon="0.85757">
        <ele>1361</ele>
        <time>2016-03-26T10:49:30Z</time>
      </trkpt>
      <trkpt lat="42.96035" lon="0.85757">
        <ele>1361</ele>
        <time>2016-03-26T10:49:32Z</time>
      </trkpt>
      <trkpt lat="42.96035" lon="0.85758">
        <ele>1362</ele>
        <time>2016-03-26T10:49:38Z</time>
      </trkpt>
      <trkpt lat="42.96031" lon="0.85758">
        <ele>1362</ele>
        <time>2016-03-26T10:50:00Z</time>
      </trkpt>
      <trkpt lat="42.9603" lon="0.85758">
        <ele>1363</ele>
        <time>2016-03-26T10:50:01Z</time>
      </trkpt>
      <trkpt lat="42.9603" lon="0.85759">
        <ele>1364</ele>
        <time>2016-03-26T10:50:02Z</time>
      </trkpt>
      <trkpt lat="42.96029" lon="0.8576">
        <ele>1364</ele>
        <time>2016-03-26T10:50:04Z</time>
      </trkpt>
      <trkpt lat="42.96029" lon="0.8576">
        <ele>1365</ele>
        <time>2016-03-26T10:50:05Z</time>
      </trkpt>
      <trkpt lat="42.96029" lon="0.85761">
        <ele>1365</ele>
        <time>2016-03-26T10:50:07Z</time>
      </trkpt>
      <trkpt lat="42.96028" lon="0.85762">
        <ele>1365</ele>
        <time>2016-03-26T10:50:09Z</time>
      </trkpt>
      <trkpt lat="42.96028" lon="0.85763">
        <ele>1365</ele>
        <time>2016-03-26T10:50:11Z</time>
      </trkpt>
      <trkpt lat="42.96027" lon="0.85764">
        <ele>1366</ele>
        <time>2016-03-26T10:50:14Z</time>
      </trkpt>
      <trkpt lat="42.96025" lon="0.85764">
        <ele>1366</ele>
        <time>2016-03-26T10:50:19Z</time>
      </trkpt>
      <trkpt lat="42.96024" lon="0.85765">
        <ele>1367</ele>
        <time>2016-03-26T10:50:20Z</time>
      </trkpt>
      <trkpt lat="42.96024" lon="0.85765">
        <ele>1367</ele>
        <time>2016-03-26T10:50:22Z</time>
      </trkpt>
      <trkpt lat="42.96023" lon="0.85766">
        <ele>1367</ele>
        <time>2016-03-26T10:50:25Z</time>
      </trkpt>
      <trkpt lat="42.96022" lon="0.85767">
        <ele>1368</ele>
        <time>2016-03-26T10:50:27Z</time>
      </trkpt>
      <trkpt lat="42.96021" lon="0.85768">
        <ele>1368</ele>
        <time>2016-03-26T10:50:29Z</time>
      </trkpt>
      <trkpt lat="42.96021" lon="0.85768">
        <ele>1369</ele>
        <time>2016-03-26T10:50:31Z</time>
      </trkpt>
      <trkpt lat="42.9602" lon="0.85768">
        <ele>1369</ele>
        <time>2016-03-26T10:50:33Z</time>
      </trkpt>
      <trkpt lat="42.96019" lon="0.85769">
        <ele>1369</ele>
        <time>2016-03-26T10:50:35Z</time>
      </trkpt>
      <trkpt lat="42.96018" lon="0.85769">
        <ele>1370</ele>
        <time>2016-03-26T10:50:37Z</time>
      </trkpt>
      <trkpt lat="42.96017" lon="0.85769">
        <ele>1370</ele>
        <time>2016-03-26T10:50:39Z</time>
      </trkpt>
      <trkpt lat="42.96017" lon="0.8577">
        <ele>1370</ele>
        <time>2016-03-26T10:50:40Z</time>
      </trkpt>
      <trkpt lat="42.96017" lon="0.85771">
        <ele>1370</ele>
        <time>2016-03-26T10:50:42Z</time>
      </trkpt>
      <trkpt lat="42.96017" lon="0.85771">
        <ele>1371</ele>
        <time>2016-03-26T10:50:44Z</time>
      </trkpt>
      <trkpt lat="42.96016" lon="0.85772">
        <ele>1371</ele>
        <time>2016-03-26T10:50:46Z</time>
      </trkpt>
      <trkpt lat="42.96016" lon="0.85773">
        <ele>1371</ele>
        <time>2016-03-26T10:50:48Z</time>
      </trkpt>
      <trkpt lat="42.96015" lon="0.85773">
        <ele>1372</ele>
        <time>2016-03-26T10:50:50Z</time>
      </trkpt>
      <trkpt lat="42.96014" lon="0.85774">
        <ele>1372</ele>
        <time>2016-03-26T10:50:52Z</time>
      </trkpt>
      <trkpt lat="42.96014" lon="0.85774">
        <ele>1372</ele>
        <time>2016-03-26T10:50:53Z</time>
      </trkpt>
      <trkpt lat="42.96014" lon="0.85777">
        <ele>1373</ele>
        <time>2016-03-26T10:50:59Z</time>
      </trkpt>
      <trkpt lat="42.96013" lon="0.85777">
        <ele>1373</ele>
        <time>2016-03-26T10:51:01Z</time>
      </trkpt>
      <trkpt lat="42.96013" lon="0.85777">
        <ele>1373</ele>
        <time>2016-03-26T10:51:02Z</time>
      </trkpt>
      <trkpt lat="42.96012" lon="0.85777">
        <ele>1374</ele>
        <time>2016-03-26T10:51:04Z</time>
      </trkpt>
      <trkpt lat="42.96011" lon="0.85778">
        <ele>1374</ele>
        <time>2016-03-26T10:51:05Z</time>
      </trkpt>
      <trkpt lat="42.96011" lon="0.85778">
        <ele>1374</ele>
        <time>2016-03-26T10:51:07Z</time>
      </trkpt>
      <trkpt lat="42.96009" lon="0.8578">
        <ele>1374</ele>
        <time>2016-03-26T10:51:09Z</time>
      </trkpt>
      <trkpt lat="42.96009" lon="0.8578">
        <ele>1375</ele>
        <time>2016-03-26T10:51:11Z</time>
      </trkpt>
      <trkpt lat="42.96007" lon="0.85781">
        <ele>1375</ele>
        <time>2016-03-26T10:51:13Z</time>
      </trkpt>
      <trkpt lat="42.96006" lon="0.85782">
        <ele>1375</ele>
        <time>2016-03-26T10:51:15Z</time>
      </trkpt>
      <trkpt lat="42.96006" lon="0.85782">
        <ele>1375</ele>
        <time>2016-03-26T10:51:16Z</time>
      </trkpt>
      <trkpt lat="42.96004" lon="0.85783">
        <ele>1376</ele>
        <time>2016-03-26T10:51:18Z</time>
      </trkpt>
      <trkpt lat="42.96003" lon="0.85783">
        <ele>1376</ele>
        <time>2016-03-26T10:51:20Z</time>
      </trkpt>
      <trkpt lat="42.96001" lon="0.85784">
        <ele>1376</ele>
        <time>2016-03-26T10:51:22Z</time>
      </trkpt>
      <trkpt lat="42.96001" lon="0.85786">
        <ele>1377</ele>
        <time>2016-03-26T10:51:24Z</time>
      </trkpt>
      <trkpt lat="42.96001" lon="0.85786">
        <ele>1377</ele>
        <time>2016-03-26T10:51:26Z</time>
      </trkpt>
      <trkpt lat="42.96" lon="0.85786">
        <ele>1377</ele>
        <time>2016-03-26T10:51:28Z</time>
      </trkpt>
      <trkpt lat="42.95999" lon="0.85785">
        <ele>1378</ele>
        <time>2016-03-26T10:51:30Z</time>
      </trkpt>
      <trkpt lat="42.95998" lon="0.85784">
        <ele>1378</ele>
        <time>2016-03-26T10:51:32Z</time>
      </trkpt>
      <trkpt lat="42.95997" lon="0.85784">
        <ele>1378</ele>
        <time>2016-03-26T10:51:34Z</time>
      </trkpt>
      <trkpt lat="42.95997" lon="0.85784">
        <ele>1378</ele>
        <time>2016-03-26T10:51:35Z</time>
      </trkpt>
      <trkpt lat="42.95996" lon="0.85785">
        <ele>1379</ele>
        <time>2016-03-26T10:51:37Z</time>
      </trkpt>
      <trkpt lat="42.95995" lon="0.85785">
        <ele>1379</ele>
        <time>2016-03-26T10:51:38Z</time>
      </trkpt>
      <trkpt lat="42.95995" lon="0.85785">
        <ele>1379</ele>
        <time>2016-03-26T10:51:39Z</time>
      </trkpt>
      <trkpt lat="42.95994" lon="0.85786">
        <ele>1380</ele>
        <time>2016-03-26T10:51:41Z</time>
      </trkpt>
      <trkpt lat="42.95994" lon="0.85787">
        <ele>1380</ele>
        <time>2016-03-26T10:51:43Z</time>
      </trkpt>
      <trkpt lat="42.95994" lon="0.85788">
        <ele>1381</ele>
        <time>2016-03-26T10:51:45Z</time>
      </trkpt>
      <trkpt lat="42.95994" lon="0.85789">
        <ele>1381</ele>
        <time>2016-03-26T10:51:47Z</time>
      </trkpt>
      <trkpt lat="42.95993" lon="0.8579">
        <ele>1381</ele>
        <time>2016-03-26T10:51:49Z</time>
      </trkpt>
      <trkpt lat="42.95993" lon="0.85791">
        <ele>1382</ele>
        <time>2016-03-26T10:51:50Z</time>
      </trkpt>
      <trkpt lat="42.95993" lon="0.85791">
        <ele>1382</ele>
        <time>2016-03-26T10:51:52Z</time>
      </trkpt>
      <trkpt lat="42.95993" lon="0.85791">
        <ele>1383</ele>
        <time>2016-03-26T10:52:14Z</time>
      </trkpt>
      <trkpt lat="42.95993" lon="0.85791">
        <ele>1383</ele>
        <time>2016-03-26T10:52:16Z</time>
      </trkpt>
      <trkpt lat="42.95993" lon="0.85791">
        <ele>1383</ele>
        <time>2016-03-26T10:52:36Z</time>
      </trkpt>
      <trkpt lat="42.95993" lon="0.85791">
        <ele>1383</ele>
        <time>2016-03-26T10:52:37Z</time>
      </trkpt>
      <trkpt lat="42.95993" lon="0.85791">
        <ele>1383</ele>
        <time>2016-03-26T10:52:56Z</time>
      </trkpt>
      <trkpt lat="42.95993" lon="0.85791">
        <ele>1383</ele>
        <time>2016-03-26T10:52:58Z</time>
      </trkpt>
      <trkpt lat="42.95995" lon="0.85791">
        <ele>1383</ele>
        <time>2016-03-26T10:53:01Z</time>
      </trkpt>
      <trkpt lat="42.95995" lon="0.85792">
        <ele>1382</ele>
        <time>2016-03-26T10:53:02Z</time>
      </trkpt>
      <trkpt lat="42.95994" lon="0.85792">
        <ele>1382</ele>
        <time>2016-03-26T10:53:04Z</time>
      </trkpt>
      <trkpt lat="42.95992" lon="0.85792">
        <ele>1382</ele>
        <time>2016-03-26T10:53:06Z</time>
      </trkpt>
      <trkpt lat="42.95992" lon="0.85793">
        <ele>1382</ele>
        <time>2016-03-26T10:53:08Z</time>
      </trkpt>
      <trkpt lat="42.95991" lon="0.85793">
        <ele>1382</ele>
        <time>2016-03-26T10:53:10Z</time>
      </trkpt>
      <trkpt lat="42.9599" lon="0.85793">
        <ele>1382</ele>
        <time>2016-03-26T10:53:11Z</time>
      </trkpt>
      <trkpt lat="42.95989" lon="0.85793">
        <ele>1382</ele>
        <time>2016-03-26T10:53:13Z</time>
      </trkpt>
      <trkpt lat="42.95989" lon="0.85793">
        <ele>1382</ele>
        <time>2016-03-26T10:53:15Z</time>
      </trkpt>
      <trkpt lat="42.95988" lon="0.85792">
        <ele>1382</ele>
        <time>2016-03-26T10:53:16Z</time>
      </trkpt>
      <trkpt lat="42.95988" lon="0.85791">
        <ele>1383</ele>
        <time>2016-03-26T10:53:18Z</time>
      </trkpt>
      <trkpt lat="42.95988" lon="0.85789">
        <ele>1383</ele>
        <time>2016-03-26T10:53:20Z</time>
      </trkpt>
      <trkpt lat="42.95987" lon="0.85788">
        <ele>1383</ele>
        <time>2016-03-26T10:53:22Z</time>
      </trkpt>
      <trkpt lat="42.95987" lon="0.85786">
        <ele>1383</ele>
        <time>2016-03-26T10:53:24Z</time>
      </trkpt>
      <trkpt lat="42.95986" lon="0.85785">
        <ele>1383</ele>
        <time>2016-03-26T10:53:26Z</time>
      </trkpt>
      <trkpt lat="42.95985" lon="0.85784">
        <ele>1384</ele>
        <time>2016-03-26T10:53:28Z</time>
      </trkpt>
      <trkpt lat="42.95985" lon="0.85783">
        <ele>1384</ele>
        <time>2016-03-26T10:53:30Z</time>
      </trkpt>
      <trkpt lat="42.95984" lon="0.85782">
        <ele>1384</ele>
        <time>2016-03-26T10:53:31Z</time>
      </trkpt>
      <trkpt lat="42.95984" lon="0.85781">
        <ele>1384</ele>
        <time>2016-03-26T10:53:33Z</time>
      </trkpt>
      <trkpt lat="42.95983" lon="0.85781">
        <ele>1384</ele>
        <time>2016-03-26T10:53:34Z</time>
      </trkpt>
      <trkpt lat="42.95982" lon="0.85779">
        <ele>1384</ele>
        <time>2016-03-26T10:53:36Z</time>
      </trkpt>
      <trkpt lat="42.95981" lon="0.85778">
        <ele>1384</ele>
        <time>2016-03-26T10:53:38Z</time>
      </trkpt>
      <trkpt lat="42.95981" lon="0.85778">
        <ele>1385</ele>
        <time>2016-03-26T10:53:39Z</time>
      </trkpt>
      <trkpt lat="42.95981" lon="0.85777">
        <ele>1385</ele>
        <time>2016-03-26T10:53:40Z</time>
      </trkpt>
      <trkpt lat="42.9598" lon="0.85776">
        <ele>1385</ele>
        <time>2016-03-26T10:53:42Z</time>
      </trkpt>
      <trkpt lat="42.95979" lon="0.85775">
        <ele>1385</ele>
        <time>2016-03-26T10:53:44Z</time>
      </trkpt>
      <trkpt lat="42.95978" lon="0.85773">
        <ele>1385</ele>
        <time>2016-03-26T10:53:46Z</time>
      </trkpt>
      <trkpt lat="42.95977" lon="0.85772">
        <ele>1385</ele>
        <time>2016-03-26T10:53:48Z</time>
      </trkpt>
      <trkpt lat="42.95976" lon="0.85771">
        <ele>1385</ele>
        <time>2016-03-26T10:53:49Z</time>
      </trkpt>
      <trkpt lat="42.95976" lon="0.8577">
        <ele>1385</ele>
        <time>2016-03-26T10:53:51Z</time>
      </trkpt>
      <trkpt lat="42.95975" lon="0.85769">
        <ele>1385</ele>
        <time>2016-03-26T10:53:53Z</time>
      </trkpt>
      <trkpt lat="42.95974" lon="0.85767">
        <ele>1385</ele>
        <time>2016-03-26T10:53:55Z</time>
      </trkpt>
      <trkpt lat="42.95973" lon="0.85767">
        <ele>1385</ele>
        <time>2016-03-26T10:53:57Z</time>
      </trkpt>
      <trkpt lat="42.95972" lon="0.85766">
        <ele>1386</ele>
        <time>2016-03-26T10:53:58Z</time>
      </trkpt>
      <trkpt lat="42.95972" lon="0.85765">
        <ele>1386</ele>
        <time>2016-03-26T10:53:59Z</time>
      </trkpt>
      <trkpt lat="42.95971" lon="0.85764">
        <ele>1386</ele>
        <time>2016-03-26T10:54:02Z</time>
      </trkpt>
      <trkpt lat="42.9597" lon="0.85764">
        <ele>1386</ele>
        <time>2016-03-26T10:54:04Z</time>
      </trkpt>
      <trkpt lat="42.95969" lon="0.85762">
        <ele>1386</ele>
        <time>2016-03-26T10:54:06Z</time>
      </trkpt>
      <trkpt lat="42.95969" lon="0.85761">
        <ele>1386</ele>
        <time>2016-03-26T10:54:08Z</time>
      </trkpt>
      <trkpt lat="42.95968" lon="0.8576">
        <ele>1386</ele>
        <time>2016-03-26T10:54:10Z</time>
      </trkpt>
      <trkpt lat="42.95967" lon="0.85759">
        <ele>1386</ele>
        <time>2016-03-26T10:54:12Z</time>
      </trkpt>
      <trkpt lat="42.95967" lon="0.85759">
        <ele>1386</ele>
        <time>2016-03-26T10:54:13Z</time>
      </trkpt>
      <trkpt lat="42.95966" lon="0.85758">
        <ele>1386</ele>
        <time>2016-03-26T10:54:15Z</time>
      </trkpt>
      <trkpt lat="42.95966" lon="0.85757">
        <ele>1387</ele>
        <time>2016-03-26T10:54:16Z</time>
      </trkpt>
      <trkpt lat="42.95965" lon="0.85756">
        <ele>1387</ele>
        <time>2016-03-26T10:54:20Z</time>
      </trkpt>
      <trkpt lat="42.95964" lon="0.85755">
        <ele>1387</ele>
        <time>2016-03-26T10:54:22Z</time>
      </trkpt>
      <trkpt lat="42.95964" lon="0.85755">
        <ele>1387</ele>
        <time>2016-03-26T10:54:23Z</time>
      </trkpt>
      <trkpt lat="42.95963" lon="0.85754">
        <ele>1387</ele>
        <time>2016-03-26T10:54:25Z</time>
      </trkpt>
      <trkpt lat="42.95962" lon="0.85754">
        <ele>1387</ele>
        <time>2016-03-26T10:54:27Z</time>
      </trkpt>
      <trkpt lat="42.95961" lon="0.85754">
        <ele>1387</ele>
        <time>2016-03-26T10:54:28Z</time>
      </trkpt>
      <trkpt lat="42.9596" lon="0.85754">
        <ele>1387</ele>
        <time>2016-03-26T10:54:30Z</time>
      </trkpt>
      <trkpt lat="42.9596" lon="0.85754">
        <ele>1387</ele>
        <time>2016-03-26T10:54:31Z</time>
      </trkpt>
      <trkpt lat="42.95959" lon="0.85754">
        <ele>1387</ele>
        <time>2016-03-26T10:54:33Z</time>
      </trkpt>
      <trkpt lat="42.95958" lon="0.85753">
        <ele>1387</ele>
        <time>2016-03-26T10:54:34Z</time>
      </trkpt>
      <trkpt lat="42.95958" lon="0.85753">
        <ele>1387</ele>
        <time>2016-03-26T10:54:35Z</time>
      </trkpt>
      <trkpt lat="42.95957" lon="0.85753">
        <ele>1387</ele>
        <time>2016-03-26T10:54:37Z</time>
      </trkpt>
      <trkpt lat="42.95957" lon="0.85753">
        <ele>1387</ele>
        <time>2016-03-26T10:54:38Z</time>
      </trkpt>
      <trkpt lat="42.95956" lon="0.85752">
        <ele>1388</ele>
        <time>2016-03-26T10:54:40Z</time>
      </trkpt>
      <trkpt lat="42.95956" lon="0.85752">
        <ele>1388</ele>
        <time>2016-03-26T10:55:07Z</time>
      </trkpt>
      <trkpt lat="42.95954" lon="0.85752">
        <ele>1388</ele>
        <time>2016-03-26T10:55:09Z</time>
      </trkpt>
      <trkpt lat="42.95954" lon="0.85752">
        <ele>1388</ele>
        <time>2016-03-26T10:55:10Z</time>
      </trkpt>
      <trkpt lat="42.95953" lon="0.85752">
        <ele>1388</ele>
        <time>2016-03-26T10:55:12Z</time>
      </trkpt>
      <trkpt lat="42.95952" lon="0.85751">
        <ele>1388</ele>
        <time>2016-03-26T10:55:13Z</time>
      </trkpt>
      <trkpt lat="42.95952" lon="0.8575">
        <ele>1388</ele>
        <time>2016-03-26T10:55:15Z</time>
      </trkpt>
      <trkpt lat="42.9595" lon="0.85749">
        <ele>1388</ele>
        <time>2016-03-26T10:55:17Z</time>
      </trkpt>
      <trkpt lat="42.9595" lon="0.85748">
        <ele>1388</ele>
        <time>2016-03-26T10:55:19Z</time>
      </trkpt>
      <trkpt lat="42.95949" lon="0.85747">
        <ele>1388</ele>
        <time>2016-03-26T10:55:21Z</time>
      </trkpt>
      <trkpt lat="42.95948" lon="0.85747">
        <ele>1389</ele>
        <time>2016-03-26T10:55:22Z</time>
      </trkpt>
      <trkpt lat="42.95948" lon="0.85746">
        <ele>1389</ele>
        <time>2016-03-26T10:55:23Z</time>
      </trkpt>
      <trkpt lat="42.95947" lon="0.85745">
        <ele>1389</ele>
        <time>2016-03-26T10:55:25Z</time>
      </trkpt>
      <trkpt lat="42.95947" lon="0.85745">
        <ele>1389</ele>
        <time>2016-03-26T10:55:26Z</time>
      </trkpt>
      <trkpt lat="42.95946" lon="0.85744">
        <ele>1389</ele>
        <time>2016-03-26T10:55:27Z</time>
      </trkpt>
      <trkpt lat="42.95945" lon="0.85743">
        <ele>1390</ele>
        <time>2016-03-26T10:55:29Z</time>
      </trkpt>
      <trkpt lat="42.95945" lon="0.85743">
        <ele>1390</ele>
        <time>2016-03-26T10:55:31Z</time>
      </trkpt>
      <trkpt lat="42.95944" lon="0.85742">
        <ele>1390</ele>
        <time>2016-03-26T10:55:33Z</time>
      </trkpt>
      <trkpt lat="42.95944" lon="0.85742">
        <ele>1390</ele>
        <time>2016-03-26T10:55:34Z</time>
      </trkpt>
      <trkpt lat="42.95943" lon="0.85742">
        <ele>1390</ele>
        <time>2016-03-26T10:55:36Z</time>
      </trkpt>
      <trkpt lat="42.95942" lon="0.85741">
        <ele>1390</ele>
        <time>2016-03-26T10:55:38Z</time>
      </trkpt>
      <trkpt lat="42.95941" lon="0.8574">
        <ele>1391</ele>
        <time>2016-03-26T10:55:40Z</time>
      </trkpt>
      <trkpt lat="42.9594" lon="0.8574">
        <ele>1391</ele>
        <time>2016-03-26T10:55:42Z</time>
      </trkpt>
      <trkpt lat="42.95939" lon="0.85739">
        <ele>1391</ele>
        <time>2016-03-26T10:55:43Z</time>
      </trkpt>
      <trkpt lat="42.95938" lon="0.85739">
        <ele>1391</ele>
        <time>2016-03-26T10:55:45Z</time>
      </trkpt>
      <trkpt lat="42.95937" lon="0.85738">
        <ele>1391</ele>
        <time>2016-03-26T10:55:46Z</time>
      </trkpt>
      <trkpt lat="42.95936" lon="0.85738">
        <ele>1391</ele>
        <time>2016-03-26T10:55:48Z</time>
      </trkpt>
      <trkpt lat="42.95935" lon="0.85737">
        <ele>1391</ele>
        <time>2016-03-26T10:55:50Z</time>
      </trkpt>
      <trkpt lat="42.95935" lon="0.85737">
        <ele>1391</ele>
        <time>2016-03-26T10:55:51Z</time>
      </trkpt>
      <trkpt lat="42.95934" lon="0.85736">
        <ele>1391</ele>
        <time>2016-03-26T10:55:53Z</time>
      </trkpt>
      <trkpt lat="42.95932" lon="0.85736">
        <ele>1391</ele>
        <time>2016-03-26T10:55:55Z</time>
      </trkpt>
      <trkpt lat="42.95932" lon="0.85736">
        <ele>1391</ele>
        <time>2016-03-26T10:55:56Z</time>
      </trkpt>
      <trkpt lat="42.95931" lon="0.85735">
        <ele>1391</ele>
        <time>2016-03-26T10:55:58Z</time>
      </trkpt>
      <trkpt lat="42.9593" lon="0.85735">
        <ele>1392</ele>
        <time>2016-03-26T10:56:00Z</time>
      </trkpt>
      <trkpt lat="42.95929" lon="0.85734">
        <ele>1392</ele>
        <time>2016-03-26T10:56:02Z</time>
      </trkpt>
      <trkpt lat="42.95927" lon="0.85734">
        <ele>1392</ele>
        <time>2016-03-26T10:56:04Z</time>
      </trkpt>
      <trkpt lat="42.95926" lon="0.85734">
        <ele>1392</ele>
        <time>2016-03-26T10:56:06Z</time>
      </trkpt>
      <trkpt lat="42.95925" lon="0.85734">
        <ele>1392</ele>
        <time>2016-03-26T10:56:08Z</time>
      </trkpt>
      <trkpt lat="42.95924" lon="0.85733">
        <ele>1392</ele>
        <time>2016-03-26T10:56:10Z</time>
      </trkpt>
      <trkpt lat="42.95923" lon="0.85732">
        <ele>1392</ele>
        <time>2016-03-26T10:56:12Z</time>
      </trkpt>
      <trkpt lat="42.95923" lon="0.85732">
        <ele>1393</ele>
        <time>2016-03-26T10:56:14Z</time>
      </trkpt>
      <trkpt lat="42.95922" lon="0.85732">
        <ele>1393</ele>
        <time>2016-03-26T10:56:16Z</time>
      </trkpt>
      <trkpt lat="42.95921" lon="0.85732">
        <ele>1393</ele>
        <time>2016-03-26T10:56:18Z</time>
      </trkpt>
      <trkpt lat="42.95919" lon="0.85731">
        <ele>1393</ele>
        <time>2016-03-26T10:56:20Z</time>
      </trkpt>
      <trkpt lat="42.95918" lon="0.85731">
        <ele>1393</ele>
        <time>2016-03-26T10:56:22Z</time>
      </trkpt>
      <trkpt lat="42.95917" lon="0.8573">
        <ele>1394</ele>
        <time>2016-03-26T10:56:24Z</time>
      </trkpt>
      <trkpt lat="42.95916" lon="0.8573">
        <ele>1394</ele>
        <time>2016-03-26T10:56:26Z</time>
      </trkpt>
      <trkpt lat="42.95915" lon="0.85729">
        <ele>1394</ele>
        <time>2016-03-26T10:56:28Z</time>
      </trkpt>
      <trkpt lat="42.95914" lon="0.85729">
        <ele>1394</ele>
        <time>2016-03-26T10:56:30Z</time>
      </trkpt>
      <trkpt lat="42.95913" lon="0.85728">
        <ele>1394</ele>
        <time>2016-03-26T10:56:31Z</time>
      </trkpt>
      <trkpt lat="42.95912" lon="0.85728">
        <ele>1394</ele>
        <time>2016-03-26T10:56:33Z</time>
      </trkpt>
      <trkpt lat="42.95912" lon="0.85728">
        <ele>1395</ele>
        <time>2016-03-26T10:56:34Z</time>
      </trkpt>
      <trkpt lat="42.95911" lon="0.85728">
        <ele>1395</ele>
        <time>2016-03-26T10:56:36Z</time>
      </trkpt>
      <trkpt lat="42.9591" lon="0.85727">
        <ele>1395</ele>
        <time>2016-03-26T10:56:39Z</time>
      </trkpt>
      <trkpt lat="42.9591" lon="0.85726">
        <ele>1395</ele>
        <time>2016-03-26T10:56:41Z</time>
      </trkpt>
      <trkpt lat="42.95909" lon="0.85726">
        <ele>1395</ele>
        <time>2016-03-26T10:56:42Z</time>
      </trkpt>
      <trkpt lat="42.95908" lon="0.85725">
        <ele>1395</ele>
        <time>2016-03-26T10:56:44Z</time>
      </trkpt>
      <trkpt lat="42.95907" lon="0.85724">
        <ele>1395</ele>
        <time>2016-03-26T10:56:46Z</time>
      </trkpt>
      <trkpt lat="42.95907" lon="0.85723">
        <ele>1395</ele>
        <time>2016-03-26T10:56:48Z</time>
      </trkpt>
      <trkpt lat="42.95906" lon="0.85723">
        <ele>1396</ele>
        <time>2016-03-26T10:56:49Z</time>
      </trkpt>
      <trkpt lat="42.95906" lon="0.85722">
        <ele>1396</ele>
        <time>2016-03-26T10:56:50Z</time>
      </trkpt>
      <trkpt lat="42.95905" lon="0.85722">
        <ele>1396</ele>
        <time>2016-03-26T10:56:52Z</time>
      </trkpt>
      <trkpt lat="42.95905" lon="0.85721">
        <ele>1396</ele>
        <time>2016-03-26T10:56:54Z</time>
      </trkpt>
      <trkpt lat="42.95904" lon="0.8572">
        <ele>1396</ele>
        <time>2016-03-26T10:56:56Z</time>
      </trkpt>
      <trkpt lat="42.95903" lon="0.8572">
        <ele>1396</ele>
        <time>2016-03-26T10:56:57Z</time>
      </trkpt>
      <trkpt lat="42.95902" lon="0.85719">
        <ele>1396</ele>
        <time>2016-03-26T10:56:59Z</time>
      </trkpt>
      <trkpt lat="42.95901" lon="0.85719">
        <ele>1396</ele>
        <time>2016-03-26T10:57:01Z</time>
      </trkpt>
      <trkpt lat="42.95901" lon="0.85718">
        <ele>1396</ele>
        <time>2016-03-26T10:57:02Z</time>
      </trkpt>
      <trkpt lat="42.959" lon="0.85718">
        <ele>1397</ele>
        <time>2016-03-26T10:57:05Z</time>
      </trkpt>
      <trkpt lat="42.95898" lon="0.85717">
        <ele>1397</ele>
        <time>2016-03-26T10:57:08Z</time>
      </trkpt>
      <trkpt lat="42.95897" lon="0.85717">
        <ele>1397</ele>
        <time>2016-03-26T10:57:10Z</time>
      </trkpt>
      <trkpt lat="42.95897" lon="0.85717">
        <ele>1398</ele>
        <time>2016-03-26T10:57:11Z</time>
      </trkpt>
      <trkpt lat="42.95895" lon="0.85716">
        <ele>1398</ele>
        <time>2016-03-26T10:57:13Z</time>
      </trkpt>
      <trkpt lat="42.95895" lon="0.85716">
        <ele>1398</ele>
        <time>2016-03-26T10:57:14Z</time>
      </trkpt>
      <trkpt lat="42.95894" lon="0.85715">
        <ele>1398</ele>
        <time>2016-03-26T10:57:16Z</time>
      </trkpt>
      <trkpt lat="42.95892" lon="0.85715">
        <ele>1399</ele>
        <time>2016-03-26T10:57:18Z</time>
      </trkpt>
      <trkpt lat="42.95892" lon="0.85715">
        <ele>1399</ele>
        <time>2016-03-26T10:57:19Z</time>
      </trkpt>
      <trkpt lat="42.9589" lon="0.85714">
        <ele>1399</ele>
        <time>2016-03-26T10:57:21Z</time>
      </trkpt>
      <trkpt lat="42.9589" lon="0.85714">
        <ele>1399</ele>
        <time>2016-03-26T10:57:22Z</time>
      </trkpt>
      <trkpt lat="42.95889" lon="0.85714">
        <ele>1399</ele>
        <time>2016-03-26T10:57:24Z</time>
      </trkpt>
      <trkpt lat="42.95888" lon="0.85713">
        <ele>1399</ele>
        <time>2016-03-26T10:57:26Z</time>
      </trkpt>
      <trkpt lat="42.95887" lon="0.85713">
        <ele>1400</ele>
        <time>2016-03-26T10:57:28Z</time>
      </trkpt>
      <trkpt lat="42.95886" lon="0.85713">
        <ele>1400</ele>
        <time>2016-03-26T10:57:30Z</time>
      </trkpt>
      <trkpt lat="42.95886" lon="0.85712">
        <ele>1400</ele>
        <time>2016-03-26T10:57:31Z</time>
      </trkpt>
      <trkpt lat="42.95884" lon="0.85712">
        <ele>1400</ele>
        <time>2016-03-26T10:57:33Z</time>
      </trkpt>
      <trkpt lat="42.95884" lon="0.85712">
        <ele>1400</ele>
        <time>2016-03-26T10:57:34Z</time>
      </trkpt>
      <trkpt lat="42.95884" lon="0.85712">
        <ele>1401</ele>
        <time>2016-03-26T10:57:35Z</time>
      </trkpt>
      <trkpt lat="42.95883" lon="0.85712">
        <ele>1401</ele>
        <time>2016-03-26T10:57:37Z</time>
      </trkpt>
      <trkpt lat="42.95882" lon="0.85711">
        <ele>1401</ele>
        <time>2016-03-26T10:57:39Z</time>
      </trkpt>
      <trkpt lat="42.95881" lon="0.85711">
        <ele>1401</ele>
        <time>2016-03-26T10:57:41Z</time>
      </trkpt>
      <trkpt lat="42.95879" lon="0.85711">
        <ele>1402</ele>
        <time>2016-03-26T10:57:43Z</time>
      </trkpt>
      <trkpt lat="42.95878" lon="0.85711">
        <ele>1402</ele>
        <time>2016-03-26T10:57:45Z</time>
      </trkpt>
      <trkpt lat="42.95877" lon="0.8571">
        <ele>1402</ele>
        <time>2016-03-26T10:57:47Z</time>
      </trkpt>
      <trkpt lat="42.95876" lon="0.8571">
        <ele>1402</ele>
        <time>2016-03-26T10:57:49Z</time>
      </trkpt>
      <trkpt lat="42.95875" lon="0.8571">
        <ele>1403</ele>
        <time>2016-03-26T10:57:51Z</time>
      </trkpt>
      <trkpt lat="42.95874" lon="0.8571">
        <ele>1403</ele>
        <time>2016-03-26T10:57:52Z</time>
      </trkpt>
      <trkpt lat="42.95873" lon="0.85709">
        <ele>1403</ele>
        <time>2016-03-26T10:57:54Z</time>
      </trkpt>
      <trkpt lat="42.95873" lon="0.85709">
        <ele>1404</ele>
        <time>2016-03-26T10:57:55Z</time>
      </trkpt>
      <trkpt lat="42.95873" lon="0.85709">
        <ele>1404</ele>
        <time>2016-03-26T10:57:56Z</time>
      </trkpt>
      <trkpt lat="42.95871" lon="0.85708">
        <ele>1404</ele>
        <time>2016-03-26T10:57:58Z</time>
      </trkpt>
      <trkpt lat="42.95871" lon="0.85708">
        <ele>1404</ele>
        <time>2016-03-26T10:57:59Z</time>
      </trkpt>
      <trkpt lat="42.95869" lon="0.85708">
        <ele>1404</ele>
        <time>2016-03-26T10:58:01Z</time>
      </trkpt>
      <trkpt lat="42.95869" lon="0.85708">
        <ele>1405</ele>
        <time>2016-03-26T10:58:02Z</time>
      </trkpt>
      <trkpt lat="42.95867" lon="0.85707">
        <ele>1405</ele>
        <time>2016-03-26T10:58:04Z</time>
      </trkpt>
      <trkpt lat="42.95866" lon="0.85707">
        <ele>1405</ele>
        <time>2016-03-26T10:58:06Z</time>
      </trkpt>
      <trkpt lat="42.95865" lon="0.85707">
        <ele>1405</ele>
        <time>2016-03-26T10:58:08Z</time>
      </trkpt>
      <trkpt lat="42.95864" lon="0.85707">
        <ele>1405</ele>
        <time>2016-03-26T10:58:10Z</time>
      </trkpt>
      <trkpt lat="42.95863" lon="0.85706">
        <ele>1405</ele>
        <time>2016-03-26T10:58:12Z</time>
      </trkpt>
      <trkpt lat="42.95862" lon="0.85706">
        <ele>1405</ele>
        <time>2016-03-26T10:58:13Z</time>
      </trkpt>
      <trkpt lat="42.95861" lon="0.85706">
        <ele>1405</ele>
        <time>2016-03-26T10:58:14Z</time>
      </trkpt>
      <trkpt lat="42.95861" lon="0.85706">
        <ele>1406</ele>
        <time>2016-03-26T10:58:15Z</time>
      </trkpt>
      <trkpt lat="42.9586" lon="0.85706">
        <ele>1406</ele>
        <time>2016-03-26T10:58:17Z</time>
      </trkpt>
      <trkpt lat="42.95858" lon="0.85706">
        <ele>1406</ele>
        <time>2016-03-26T10:58:19Z</time>
      </trkpt>
      <trkpt lat="42.95857" lon="0.85706">
        <ele>1406</ele>
        <time>2016-03-26T10:58:20Z</time>
      </trkpt>
      <trkpt lat="42.95856" lon="0.85706">
        <ele>1406</ele>
        <time>2016-03-26T10:58:22Z</time>
      </trkpt>
      <trkpt lat="42.95854" lon="0.85706">
        <ele>1406</ele>
        <time>2016-03-26T10:58:24Z</time>
      </trkpt>
      <trkpt lat="42.95854" lon="0.85706">
        <ele>1406</ele>
        <time>2016-03-26T10:58:25Z</time>
      </trkpt>
      <trkpt lat="42.95853" lon="0.85706">
        <ele>1406</ele>
        <time>2016-03-26T10:58:27Z</time>
      </trkpt>
      <trkpt lat="42.95852" lon="0.85706">
        <ele>1406</ele>
        <time>2016-03-26T10:58:28Z</time>
      </trkpt>
      <trkpt lat="42.95851" lon="0.85706">
        <ele>1406</ele>
        <time>2016-03-26T10:58:30Z</time>
      </trkpt>
      <trkpt lat="42.9585" lon="0.85705">
        <ele>1406</ele>
        <time>2016-03-26T10:58:31Z</time>
      </trkpt>
      <trkpt lat="42.9585" lon="0.85705">
        <ele>1406</ele>
        <time>2016-03-26T10:58:32Z</time>
      </trkpt>
      <trkpt lat="42.95849" lon="0.85705">
        <ele>1407</ele>
        <time>2016-03-26T10:58:34Z</time>
      </trkpt>
      <trkpt lat="42.95847" lon="0.85705">
        <ele>1407</ele>
        <time>2016-03-26T10:58:36Z</time>
      </trkpt>
      <trkpt lat="42.95846" lon="0.85705">
        <ele>1407</ele>
        <time>2016-03-26T10:58:38Z</time>
      </trkpt>
      <trkpt lat="42.95845" lon="0.85705">
        <ele>1407</ele>
        <time>2016-03-26T10:58:40Z</time>
      </trkpt>
      <trkpt lat="42.95844" lon="0.85705">
        <ele>1407</ele>
        <time>2016-03-26T10:58:42Z</time>
      </trkpt>
      <trkpt lat="42.95843" lon="0.85705">
        <ele>1407</ele>
        <time>2016-03-26T10:58:43Z</time>
      </trkpt>
      <trkpt lat="42.95842" lon="0.85705">
        <ele>1407</ele>
        <time>2016-03-26T10:58:45Z</time>
      </trkpt>
      <trkpt lat="42.95842" lon="0.85705">
        <ele>1407</ele>
        <time>2016-03-26T10:58:46Z</time>
      </trkpt>
      <trkpt lat="42.95841" lon="0.85705">
        <ele>1407</ele>
        <time>2016-03-26T10:58:48Z</time>
      </trkpt>
      <trkpt lat="42.95839" lon="0.85704">
        <ele>1407</ele>
        <time>2016-03-26T10:58:50Z</time>
      </trkpt>
      <trkpt lat="42.95838" lon="0.85704">
        <ele>1407</ele>
        <time>2016-03-26T10:58:52Z</time>
      </trkpt>
      <trkpt lat="42.95837" lon="0.85704">
        <ele>1407</ele>
        <time>2016-03-26T10:58:54Z</time>
      </trkpt>
      <trkpt lat="42.95835" lon="0.85704">
        <ele>1408</ele>
        <time>2016-03-26T10:58:56Z</time>
      </trkpt>
      <trkpt lat="42.95834" lon="0.85704">
        <ele>1408</ele>
        <time>2016-03-26T10:58:58Z</time>
      </trkpt>
      <trkpt lat="42.95833" lon="0.85704">
        <ele>1408</ele>
        <time>2016-03-26T10:59:00Z</time>
      </trkpt>
      <trkpt lat="42.95832" lon="0.85704">
        <ele>1408</ele>
        <time>2016-03-26T10:59:01Z</time>
      </trkpt>
      <trkpt lat="42.95832" lon="0.85704">
        <ele>1408</ele>
        <time>2016-03-26T10:59:02Z</time>
      </trkpt>
      <trkpt lat="42.95831" lon="0.85704">
        <ele>1408</ele>
        <time>2016-03-26T10:59:04Z</time>
      </trkpt>
      <trkpt lat="42.95829" lon="0.85704">
        <ele>1408</ele>
        <time>2016-03-26T10:59:06Z</time>
      </trkpt>
      <trkpt lat="42.95829" lon="0.85704">
        <ele>1409</ele>
        <time>2016-03-26T10:59:07Z</time>
      </trkpt>
      <trkpt lat="42.95828" lon="0.85704">
        <ele>1409</ele>
        <time>2016-03-26T10:59:09Z</time>
      </trkpt>
      <trkpt lat="42.95827" lon="0.85704">
        <ele>1409</ele>
        <time>2016-03-26T10:59:10Z</time>
      </trkpt>
      <trkpt lat="42.95826" lon="0.85703">
        <ele>1409</ele>
        <time>2016-03-26T10:59:12Z</time>
      </trkpt>
      <trkpt lat="42.95825" lon="0.85703">
        <ele>1409</ele>
        <time>2016-03-26T10:59:14Z</time>
      </trkpt>
      <trkpt lat="42.95823" lon="0.85703">
        <ele>1409</ele>
        <time>2016-03-26T10:59:16Z</time>
      </trkpt>
      <trkpt lat="42.95822" lon="0.85703">
        <ele>1409</ele>
        <time>2016-03-26T10:59:18Z</time>
      </trkpt>
      <trkpt lat="42.9582" lon="0.85703">
        <ele>1409</ele>
        <time>2016-03-26T10:59:20Z</time>
      </trkpt>
      <trkpt lat="42.95819" lon="0.85702">
        <ele>1409</ele>
        <time>2016-03-26T10:59:22Z</time>
      </trkpt>
      <trkpt lat="42.95818" lon="0.85702">
        <ele>1409</ele>
        <time>2016-03-26T10:59:24Z</time>
      </trkpt>
      <trkpt lat="42.95817" lon="0.85702">
        <ele>1409</ele>
        <time>2016-03-26T10:59:25Z</time>
      </trkpt>
      <trkpt lat="42.95816" lon="0.85702">
        <ele>1410</ele>
        <time>2016-03-26T10:59:26Z</time>
      </trkpt>
      <trkpt lat="42.95815" lon="0.85701">
        <ele>1410</ele>
        <time>2016-03-26T10:59:28Z</time>
      </trkpt>
      <trkpt lat="42.95815" lon="0.85701">
        <ele>1410</ele>
        <time>2016-03-26T10:59:29Z</time>
      </trkpt>
      <trkpt lat="42.95813" lon="0.85701">
        <ele>1410</ele>
        <time>2016-03-26T10:59:31Z</time>
      </trkpt>
      <trkpt lat="42.95813" lon="0.85701">
        <ele>1410</ele>
        <time>2016-03-26T10:59:32Z</time>
      </trkpt>
      <trkpt lat="42.95812" lon="0.85701">
        <ele>1410</ele>
        <time>2016-03-26T10:59:34Z</time>
      </trkpt>
      <trkpt lat="42.9581" lon="0.85701">
        <ele>1410</ele>
        <time>2016-03-26T10:59:36Z</time>
      </trkpt>
      <trkpt lat="42.9581" lon="0.85701">
        <ele>1410</ele>
        <time>2016-03-26T10:59:37Z</time>
      </trkpt>
      <trkpt lat="42.95808" lon="0.857">
        <ele>1410</ele>
        <time>2016-03-26T10:59:39Z</time>
      </trkpt>
      <trkpt lat="42.95808" lon="0.857">
        <ele>1410</ele>
        <time>2016-03-26T10:59:40Z</time>
      </trkpt>
      <trkpt lat="42.95807" lon="0.857">
        <ele>1410</ele>
        <time>2016-03-26T10:59:42Z</time>
      </trkpt>
      <trkpt lat="42.95805" lon="0.857">
        <ele>1410</ele>
        <time>2016-03-26T10:59:44Z</time>
      </trkpt>
      <trkpt lat="42.95804" lon="0.857">
        <ele>1410</ele>
        <time>2016-03-26T10:59:46Z</time>
      </trkpt>
      <trkpt lat="42.95802" lon="0.857">
        <ele>1411</ele>
        <time>2016-03-26T10:59:48Z</time>
      </trkpt>
      <trkpt lat="42.95802" lon="0.85699">
        <ele>1411</ele>
        <time>2016-03-26T10:59:49Z</time>
      </trkpt>
      <trkpt lat="42.95801" lon="0.85699">
        <ele>1411</ele>
        <time>2016-03-26T10:59:50Z</time>
      </trkpt>
      <trkpt lat="42.958" lon="0.85699">
        <ele>1411</ele>
        <time>2016-03-26T10:59:52Z</time>
      </trkpt>
      <trkpt lat="42.95799" lon="0.85699">
        <ele>1411</ele>
        <time>2016-03-26T10:59:54Z</time>
      </trkpt>
      <trkpt lat="42.95797" lon="0.85698">
        <ele>1411</ele>
        <time>2016-03-26T10:59:56Z</time>
      </trkpt>
      <trkpt lat="42.95796" lon="0.85698">
        <ele>1411</ele>
        <time>2016-03-26T10:59:57Z</time>
      </trkpt>
      <trkpt lat="42.95796" lon="0.85698">
        <ele>1411</ele>
        <time>2016-03-26T10:59:58Z</time>
      </trkpt>
      <trkpt lat="42.95794" lon="0.85697">
        <ele>1411</ele>
        <time>2016-03-26T11:00:00Z</time>
      </trkpt>
      <trkpt lat="42.95794" lon="0.85697">
        <ele>1411</ele>
        <time>2016-03-26T11:00:01Z</time>
      </trkpt>
      <trkpt lat="42.95792" lon="0.85696">
        <ele>1411</ele>
        <time>2016-03-26T11:00:03Z</time>
      </trkpt>
      <trkpt lat="42.95792" lon="0.85696">
        <ele>1411</ele>
        <time>2016-03-26T11:00:04Z</time>
      </trkpt>
      <trkpt lat="42.95791" lon="0.85696">
        <ele>1412</ele>
        <time>2016-03-26T11:00:06Z</time>
      </trkpt>
      <trkpt lat="42.9579" lon="0.85696">
        <ele>1412</ele>
        <time>2016-03-26T11:00:08Z</time>
      </trkpt>
      <trkpt lat="42.95789" lon="0.85695">
        <ele>1412</ele>
        <time>2016-03-26T11:00:10Z</time>
      </trkpt>
      <trkpt lat="42.95789" lon="0.85695">
        <ele>1412</ele>
        <time>2016-03-26T11:00:11Z</time>
      </trkpt>
      <trkpt lat="42.95788" lon="0.85695">
        <ele>1412</ele>
        <time>2016-03-26T11:00:13Z</time>
      </trkpt>
      <trkpt lat="42.95786" lon="0.85694">
        <ele>1412</ele>
        <time>2016-03-26T11:00:15Z</time>
      </trkpt>
      <trkpt lat="42.95786" lon="0.85694">
        <ele>1412</ele>
        <time>2016-03-26T11:00:16Z</time>
      </trkpt>
      <trkpt lat="42.95784" lon="0.85694">
        <ele>1412</ele>
        <time>2016-03-26T11:00:18Z</time>
      </trkpt>
      <trkpt lat="42.95783" lon="0.85693">
        <ele>1412</ele>
        <time>2016-03-26T11:00:20Z</time>
      </trkpt>
      <trkpt lat="42.95782" lon="0.85693">
        <ele>1412</ele>
        <time>2016-03-26T11:00:21Z</time>
      </trkpt>
      <trkpt lat="42.95781" lon="0.85693">
        <ele>1412</ele>
        <time>2016-03-26T11:00:23Z</time>
      </trkpt>
      <trkpt lat="42.9578" lon="0.85692">
        <ele>1412</ele>
        <time>2016-03-26T11:00:25Z</time>
      </trkpt>
      <trkpt lat="42.95779" lon="0.85692">
        <ele>1412</ele>
        <time>2016-03-26T11:00:27Z</time>
      </trkpt>
      <trkpt lat="42.95779" lon="0.85692">
        <ele>1413</ele>
        <time>2016-03-26T11:00:28Z</time>
      </trkpt>
      <trkpt lat="42.95778" lon="0.85691">
        <ele>1413</ele>
        <time>2016-03-26T11:00:30Z</time>
      </trkpt>
      <trkpt lat="42.95776" lon="0.8569">
        <ele>1413</ele>
        <time>2016-03-26T11:00:32Z</time>
      </trkpt>
      <trkpt lat="42.95775" lon="0.8569">
        <ele>1413</ele>
        <time>2016-03-26T11:00:34Z</time>
      </trkpt>
      <trkpt lat="42.95774" lon="0.85689">
        <ele>1413</ele>
        <time>2016-03-26T11:00:36Z</time>
      </trkpt>
      <trkpt lat="42.95773" lon="0.85688">
        <ele>1413</ele>
        <time>2016-03-26T11:00:38Z</time>
      </trkpt>
      <trkpt lat="42.95771" lon="0.85687">
        <ele>1413</ele>
        <time>2016-03-26T11:00:40Z</time>
      </trkpt>
      <trkpt lat="42.95771" lon="0.85686">
        <ele>1413</ele>
        <time>2016-03-26T11:00:42Z</time>
      </trkpt>
      <trkpt lat="42.9577" lon="0.85686">
        <ele>1413</ele>
        <time>2016-03-26T11:00:43Z</time>
      </trkpt>
      <trkpt lat="42.9577" lon="0.85685">
        <ele>1414</ele>
        <time>2016-03-26T11:00:45Z</time>
      </trkpt>
      <trkpt lat="42.95768" lon="0.85684">
        <ele>1414</ele>
        <time>2016-03-26T11:00:47Z</time>
      </trkpt>
      <trkpt lat="42.95767" lon="0.85683">
        <ele>1414</ele>
        <time>2016-03-26T11:00:49Z</time>
      </trkpt>
      <trkpt lat="42.95766" lon="0.85681">
        <ele>1414</ele>
        <time>2016-03-26T11:00:51Z</time>
      </trkpt>
      <trkpt lat="42.95765" lon="0.8568">
        <ele>1414</ele>
        <time>2016-03-26T11:00:53Z</time>
      </trkpt>
      <trkpt lat="42.95765" lon="0.85679">
        <ele>1414</ele>
        <time>2016-03-26T11:00:54Z</time>
      </trkpt>
      <trkpt lat="42.95763" lon="0.85678">
        <ele>1415</ele>
        <time>2016-03-26T11:00:56Z</time>
      </trkpt>
      <trkpt lat="42.95763" lon="0.85678">
        <ele>1415</ele>
        <time>2016-03-26T11:00:58Z</time>
      </trkpt>
      <trkpt lat="42.95761" lon="0.85677">
        <ele>1415</ele>
        <time>2016-03-26T11:01:00Z</time>
      </trkpt>
      <trkpt lat="42.9576" lon="0.85676">
        <ele>1415</ele>
        <time>2016-03-26T11:01:02Z</time>
      </trkpt>
      <trkpt lat="42.9576" lon="0.85675">
        <ele>1415</ele>
        <time>2016-03-26T11:01:04Z</time>
      </trkpt>
      <trkpt lat="42.95758" lon="0.85675">
        <ele>1415</ele>
        <time>2016-03-26T11:01:06Z</time>
      </trkpt>
      <trkpt lat="42.95757" lon="0.85675">
        <ele>1416</ele>
        <time>2016-03-26T11:01:08Z</time>
      </trkpt>
      <trkpt lat="42.95756" lon="0.85674">
        <ele>1416</ele>
        <time>2016-03-26T11:01:10Z</time>
      </trkpt>
      <trkpt lat="42.95755" lon="0.85674">
        <ele>1416</ele>
        <time>2016-03-26T11:01:12Z</time>
      </trkpt>
      <trkpt lat="42.95754" lon="0.85674">
        <ele>1416</ele>
        <time>2016-03-26T11:01:14Z</time>
      </trkpt>
      <trkpt lat="42.95753" lon="0.85674">
        <ele>1417</ele>
        <time>2016-03-26T11:01:16Z</time>
      </trkpt>
      <trkpt lat="42.95752" lon="0.85674">
        <ele>1417</ele>
        <time>2016-03-26T11:01:18Z</time>
      </trkpt>
      <trkpt lat="42.95751" lon="0.85674">
        <ele>1417</ele>
        <time>2016-03-26T11:01:20Z</time>
      </trkpt>
      <trkpt lat="42.9575" lon="0.85676">
        <ele>1417</ele>
        <time>2016-03-26T11:01:22Z</time>
      </trkpt>
      <trkpt lat="42.9575" lon="0.85676">
        <ele>1418</ele>
        <time>2016-03-26T11:01:24Z</time>
      </trkpt>
      <trkpt lat="42.9575" lon="0.85677">
        <ele>1418</ele>
        <time>2016-03-26T11:01:26Z</time>
      </trkpt>
      <trkpt lat="42.95749" lon="0.85678">
        <ele>1418</ele>
        <time>2016-03-26T11:01:28Z</time>
      </trkpt>
      <trkpt lat="42.95748" lon="0.8568">
        <ele>1418</ele>
        <time>2016-03-26T11:01:31Z</time>
      </trkpt>
      <trkpt lat="42.95748" lon="0.85682">
        <ele>1418</ele>
        <time>2016-03-26T11:01:33Z</time>
      </trkpt>
      <trkpt lat="42.95747" lon="0.85682">
        <ele>1418</ele>
        <time>2016-03-26T11:01:34Z</time>
      </trkpt>
      <trkpt lat="42.95747" lon="0.85683">
        <ele>1419</ele>
        <time>2016-03-26T11:01:36Z</time>
      </trkpt>
      <trkpt lat="42.95747" lon="0.85682">
        <ele>1419</ele>
        <time>2016-03-26T11:01:38Z</time>
      </trkpt>
      <trkpt lat="42.95747" lon="0.85683">
        <ele>1419</ele>
        <time>2016-03-26T11:01:42Z</time>
      </trkpt>
      <trkpt lat="42.95746" lon="0.85683">
        <ele>1419</ele>
        <time>2016-03-26T11:01:44Z</time>
      </trkpt>
      <trkpt lat="42.95745" lon="0.85683">
        <ele>1419</ele>
        <time>2016-03-26T11:01:45Z</time>
      </trkpt>
      <trkpt lat="42.95744" lon="0.85683">
        <ele>1420</ele>
        <time>2016-03-26T11:01:46Z</time>
      </trkpt>
      <trkpt lat="42.95743" lon="0.85682">
        <ele>1420</ele>
        <time>2016-03-26T11:01:48Z</time>
      </trkpt>
      <trkpt lat="42.95742" lon="0.85681">
        <ele>1420</ele>
        <time>2016-03-26T11:01:50Z</time>
      </trkpt>
      <trkpt lat="42.95741" lon="0.8568">
        <ele>1420</ele>
        <time>2016-03-26T11:01:52Z</time>
      </trkpt>
      <trkpt lat="42.95741" lon="0.85679">
        <ele>1420</ele>
        <time>2016-03-26T11:01:54Z</time>
      </trkpt>
      <trkpt lat="42.95739" lon="0.85679">
        <ele>1420</ele>
        <time>2016-03-26T11:01:56Z</time>
      </trkpt>
      <trkpt lat="42.95739" lon="0.85678">
        <ele>1420</ele>
        <time>2016-03-26T11:01:58Z</time>
      </trkpt>
      <trkpt lat="42.95738" lon="0.85677">
        <ele>1420</ele>
        <time>2016-03-26T11:02:00Z</time>
      </trkpt>
      <trkpt lat="42.95737" lon="0.85676">
        <ele>1420</ele>
        <time>2016-03-26T11:02:02Z</time>
      </trkpt>
      <trkpt lat="42.95736" lon="0.85675">
        <ele>1421</ele>
        <time>2016-03-26T11:02:04Z</time>
      </trkpt>
      <trkpt lat="42.95735" lon="0.85674">
        <ele>1421</ele>
        <time>2016-03-26T11:02:06Z</time>
      </trkpt>
      <trkpt lat="42.95734" lon="0.85674">
        <ele>1421</ele>
        <time>2016-03-26T11:02:08Z</time>
      </trkpt>
      <trkpt lat="42.95734" lon="0.85675">
        <ele>1421</ele>
        <time>2016-03-26T11:02:09Z</time>
      </trkpt>
      <trkpt lat="42.95733" lon="0.85676">
        <ele>1422</ele>
        <time>2016-03-26T11:02:11Z</time>
      </trkpt>
      <trkpt lat="42.95733" lon="0.85677">
        <ele>1422</ele>
        <time>2016-03-26T11:02:13Z</time>
      </trkpt>
      <trkpt lat="42.95734" lon="0.85677">
        <ele>1422</ele>
        <time>2016-03-26T11:02:15Z</time>
      </trkpt>
      <trkpt lat="42.95733" lon="0.85678">
        <ele>1423</ele>
        <time>2016-03-26T11:02:16Z</time>
      </trkpt>
      <trkpt lat="42.95733" lon="0.85679">
        <ele>1423</ele>
        <time>2016-03-26T11:02:17Z</time>
      </trkpt>
      <trkpt lat="42.95733" lon="0.8568">
        <ele>1423</ele>
        <time>2016-03-26T11:02:19Z</time>
      </trkpt>
      <trkpt lat="42.95732" lon="0.85681">
        <ele>1423</ele>
        <time>2016-03-26T11:02:21Z</time>
      </trkpt>
      <trkpt lat="42.95731" lon="0.85682">
        <ele>1423</ele>
        <time>2016-03-26T11:02:23Z</time>
      </trkpt>
      <trkpt lat="42.95731" lon="0.85684">
        <ele>1424</ele>
        <time>2016-03-26T11:02:25Z</time>
      </trkpt>
      <trkpt lat="42.95731" lon="0.85684">
        <ele>1424</ele>
        <time>2016-03-26T11:02:26Z</time>
      </trkpt>
      <trkpt lat="42.9573" lon="0.85686">
        <ele>1424</ele>
        <time>2016-03-26T11:02:28Z</time>
      </trkpt>
      <trkpt lat="42.9573" lon="0.85686">
        <ele>1425</ele>
        <time>2016-03-26T11:02:29Z</time>
      </trkpt>
      <trkpt lat="42.95728" lon="0.85685">
        <ele>1425</ele>
        <time>2016-03-26T11:02:33Z</time>
      </trkpt>
      <trkpt lat="42.95728" lon="0.85685">
        <ele>1425</ele>
        <time>2016-03-26T11:02:34Z</time>
      </trkpt>
      <trkpt lat="42.95727" lon="0.85684">
        <ele>1425</ele>
        <time>2016-03-26T11:02:36Z</time>
      </trkpt>
      <trkpt lat="42.95726" lon="0.85683">
        <ele>1426</ele>
        <time>2016-03-26T11:02:38Z</time>
      </trkpt>
      <trkpt lat="42.95725" lon="0.85683">
        <ele>1426</ele>
        <time>2016-03-26T11:02:40Z</time>
      </trkpt>
      <trkpt lat="42.95725" lon="0.85681">
        <ele>1426</ele>
        <time>2016-03-26T11:02:42Z</time>
      </trkpt>
      <trkpt lat="42.95723" lon="0.85681">
        <ele>1426</ele>
        <time>2016-03-26T11:02:44Z</time>
      </trkpt>
      <trkpt lat="42.95722" lon="0.85679">
        <ele>1426</ele>
        <time>2016-03-26T11:02:46Z</time>
      </trkpt>
      <trkpt lat="42.95721" lon="0.85678">
        <ele>1427</ele>
        <time>2016-03-26T11:02:48Z</time>
      </trkpt>
      <trkpt lat="42.95721" lon="0.85678">
        <ele>1427</ele>
        <time>2016-03-26T11:02:49Z</time>
      </trkpt>
      <trkpt lat="42.9572" lon="0.85677">
        <ele>1427</ele>
        <time>2016-03-26T11:02:51Z</time>
      </trkpt>
      <trkpt lat="42.95719" lon="0.85677">
        <ele>1427</ele>
        <time>2016-03-26T11:02:53Z</time>
      </trkpt>
      <trkpt lat="42.95718" lon="0.85676">
        <ele>1427</ele>
        <time>2016-03-26T11:02:55Z</time>
      </trkpt>
      <trkpt lat="42.95717" lon="0.85677">
        <ele>1427</ele>
        <time>2016-03-26T11:02:57Z</time>
      </trkpt>
      <trkpt lat="42.95716" lon="0.85678">
        <ele>1427</ele>
        <time>2016-03-26T11:02:58Z</time>
      </trkpt>
      <trkpt lat="42.95715" lon="0.85678">
        <ele>1428</ele>
        <time>2016-03-26T11:03:00Z</time>
      </trkpt>
      <trkpt lat="42.95715" lon="0.85678">
        <ele>1428</ele>
        <time>2016-03-26T11:03:01Z</time>
      </trkpt>
      <trkpt lat="42.95714" lon="0.85678">
        <ele>1428</ele>
        <time>2016-03-26T11:03:02Z</time>
      </trkpt>
      <trkpt lat="42.95713" lon="0.85677">
        <ele>1428</ele>
        <time>2016-03-26T11:03:04Z</time>
      </trkpt>
      <trkpt lat="42.95712" lon="0.85677">
        <ele>1428</ele>
        <time>2016-03-26T11:03:06Z</time>
      </trkpt>
      <trkpt lat="42.95712" lon="0.85676">
        <ele>1428</ele>
        <time>2016-03-26T11:03:08Z</time>
      </trkpt>
      <trkpt lat="42.95711" lon="0.85676">
        <ele>1428</ele>
        <time>2016-03-26T11:03:09Z</time>
      </trkpt>
      <trkpt lat="42.9571" lon="0.85676">
        <ele>1428</ele>
        <time>2016-03-26T11:03:11Z</time>
      </trkpt>
      <trkpt lat="42.95709" lon="0.85676">
        <ele>1428</ele>
        <time>2016-03-26T11:03:13Z</time>
      </trkpt>
      <trkpt lat="42.95708" lon="0.85675">
        <ele>1429</ele>
        <time>2016-03-26T11:03:15Z</time>
      </trkpt>
      <trkpt lat="42.95708" lon="0.85675">
        <ele>1429</ele>
        <time>2016-03-26T11:03:16Z</time>
      </trkpt>
      <trkpt lat="42.95707" lon="0.85675">
        <ele>1429</ele>
        <time>2016-03-26T11:03:17Z</time>
      </trkpt>
      <trkpt lat="42.95706" lon="0.85675">
        <ele>1429</ele>
        <time>2016-03-26T11:03:19Z</time>
      </trkpt>
      <trkpt lat="42.95705" lon="0.85675">
        <ele>1429</ele>
        <time>2016-03-26T11:03:20Z</time>
      </trkpt>
      <trkpt lat="42.95704" lon="0.85674">
        <ele>1429</ele>
        <time>2016-03-26T11:03:22Z</time>
      </trkpt>
      <trkpt lat="42.95704" lon="0.85674">
        <ele>1429</ele>
        <time>2016-03-26T11:03:23Z</time>
      </trkpt>
      <trkpt lat="42.95703" lon="0.85674">
        <ele>1430</ele>
        <time>2016-03-26T11:03:25Z</time>
      </trkpt>
      <trkpt lat="42.95702" lon="0.85674">
        <ele>1430</ele>
        <time>2016-03-26T11:03:27Z</time>
      </trkpt>
      <trkpt lat="42.95702" lon="0.85674">
        <ele>1430</ele>
        <time>2016-03-26T11:03:28Z</time>
      </trkpt>
      <trkpt lat="42.95701" lon="0.85674">
        <ele>1430</ele>
        <time>2016-03-26T11:03:30Z</time>
      </trkpt>
      <trkpt lat="42.95699" lon="0.85673">
        <ele>1430</ele>
        <time>2016-03-26T11:03:32Z</time>
      </trkpt>
      <trkpt lat="42.95699" lon="0.85673">
        <ele>1430</ele>
        <time>2016-03-26T11:03:33Z</time>
      </trkpt>
      <trkpt lat="42.95698" lon="0.85673">
        <ele>1431</ele>
        <time>2016-03-26T11:03:35Z</time>
      </trkpt>
      <trkpt lat="42.95697" lon="0.85673">
        <ele>1431</ele>
        <time>2016-03-26T11:03:37Z</time>
      </trkpt>
      <trkpt lat="42.95697" lon="0.85672">
        <ele>1431</ele>
        <time>2016-03-26T11:03:38Z</time>
      </trkpt>
      <trkpt lat="42.95696" lon="0.85672">
        <ele>1431</ele>
        <time>2016-03-26T11:03:39Z</time>
      </trkpt>
      <trkpt lat="42.95696" lon="0.85672">
        <ele>1431</ele>
        <time>2016-03-26T11:03:40Z</time>
      </trkpt>
      <trkpt lat="42.95695" lon="0.85672">
        <ele>1431</ele>
        <time>2016-03-26T11:03:41Z</time>
      </trkpt>
      <trkpt lat="42.95694" lon="0.85672">
        <ele>1432</ele>
        <time>2016-03-26T11:03:43Z</time>
      </trkpt>
      <trkpt lat="42.95693" lon="0.85672">
        <ele>1432</ele>
        <time>2016-03-26T11:03:45Z</time>
      </trkpt>
      <trkpt lat="42.95692" lon="0.85672">
        <ele>1432</ele>
        <time>2016-03-26T11:03:46Z</time>
      </trkpt>
      <trkpt lat="42.95692" lon="0.85672">
        <ele>1432</ele>
        <time>2016-03-26T11:03:47Z</time>
      </trkpt>
      <trkpt lat="42.95691" lon="0.85671">
        <ele>1432</ele>
        <time>2016-03-26T11:03:49Z</time>
      </trkpt>
      <trkpt lat="42.9569" lon="0.8567">
        <ele>1433</ele>
        <time>2016-03-26T11:03:51Z</time>
      </trkpt>
      <trkpt lat="42.9569" lon="0.8567">
        <ele>1433</ele>
        <time>2016-03-26T11:03:52Z</time>
      </trkpt>
      <trkpt lat="42.95689" lon="0.8567">
        <ele>1433</ele>
        <time>2016-03-26T11:03:53Z</time>
      </trkpt>
      <trkpt lat="42.95688" lon="0.8567">
        <ele>1433</ele>
        <time>2016-03-26T11:03:55Z</time>
      </trkpt>
      <trkpt lat="42.95688" lon="0.85671">
        <ele>1434</ele>
        <time>2016-03-26T11:03:56Z</time>
      </trkpt>
      <trkpt lat="42.95688" lon="0.85671">
        <ele>1434</ele>
        <time>2016-03-26T11:03:57Z</time>
      </trkpt>
      <trkpt lat="42.95686" lon="0.85671">
        <ele>1434</ele>
        <time>2016-03-26T11:03:59Z</time>
      </trkpt>
      <trkpt lat="42.95686" lon="0.85671">
        <ele>1435</ele>
        <time>2016-03-26T11:04:00Z</time>
      </trkpt>
      <trkpt lat="42.95685" lon="0.85673">
        <ele>1435</ele>
        <time>2016-03-26T11:04:02Z</time>
      </trkpt>
      <trkpt lat="42.95684" lon="0.85673">
        <ele>1435</ele>
        <time>2016-03-26T11:04:04Z</time>
      </trkpt>
      <trkpt lat="42.95684" lon="0.85673">
        <ele>1436</ele>
        <time>2016-03-26T11:04:05Z</time>
      </trkpt>
      <trkpt lat="42.95684" lon="0.85673">
        <ele>1436</ele>
        <time>2016-03-26T11:04:07Z</time>
      </trkpt>
      <trkpt lat="42.95684" lon="0.85673">
        <ele>1436</ele>
        <time>2016-03-26T11:04:08Z</time>
      </trkpt>
      <trkpt lat="42.95682" lon="0.85674">
        <ele>1437</ele>
        <time>2016-03-26T11:04:10Z</time>
      </trkpt>
      <trkpt lat="42.95682" lon="0.85675">
        <ele>1437</ele>
        <time>2016-03-26T11:04:11Z</time>
      </trkpt>
      <trkpt lat="42.95681" lon="0.85676">
        <ele>1437</ele>
        <time>2016-03-26T11:04:13Z</time>
      </trkpt>
      <trkpt lat="42.9568" lon="0.85676">
        <ele>1438</ele>
        <time>2016-03-26T11:04:15Z</time>
      </trkpt>
      <trkpt lat="42.9568" lon="0.85677">
        <ele>1438</ele>
        <time>2016-03-26T11:04:16Z</time>
      </trkpt>
      <trkpt lat="42.9568" lon="0.85678">
        <ele>1438</ele>
        <time>2016-03-26T11:04:18Z</time>
      </trkpt>
      <trkpt lat="42.95679" lon="0.85679">
        <ele>1439</ele>
        <time>2016-03-26T11:04:19Z</time>
      </trkpt>
      <trkpt lat="42.95679" lon="0.8568">
        <ele>1439</ele>
        <time>2016-03-26T11:04:21Z</time>
      </trkpt>
      <trkpt lat="42.95678" lon="0.85682">
        <ele>1439</ele>
        <time>2016-03-26T11:04:23Z</time>
      </trkpt>
      <trkpt lat="42.95677" lon="0.85683">
        <ele>1440</ele>
        <time>2016-03-26T11:04:25Z</time>
      </trkpt>
      <trkpt lat="42.95676" lon="0.85683">
        <ele>1440</ele>
        <time>2016-03-26T11:04:26Z</time>
      </trkpt>
      <trkpt lat="42.95676" lon="0.85684">
        <ele>1440</ele>
        <time>2016-03-26T11:04:28Z</time>
      </trkpt>
      <trkpt lat="42.95675" lon="0.85684">
        <ele>1441</ele>
        <time>2016-03-26T11:04:30Z</time>
      </trkpt>
      <trkpt lat="42.95673" lon="0.85684">
        <ele>1441</ele>
        <time>2016-03-26T11:04:32Z</time>
      </trkpt>
      <trkpt lat="42.95673" lon="0.85684">
        <ele>1441</ele>
        <time>2016-03-26T11:04:33Z</time>
      </trkpt>
      <trkpt lat="42.95671" lon="0.85683">
        <ele>1442</ele>
        <time>2016-03-26T11:04:36Z</time>
      </trkpt>
      <trkpt lat="42.9567" lon="0.85683">
        <ele>1442</ele>
        <time>2016-03-26T11:04:38Z</time>
      </trkpt>
      <trkpt lat="42.95669" lon="0.85683">
        <ele>1442</ele>
        <time>2016-03-26T11:04:40Z</time>
      </trkpt>
      <trkpt lat="42.95668" lon="0.85684">
        <ele>1442</ele>
        <time>2016-03-26T11:04:42Z</time>
      </trkpt>
      <trkpt lat="42.95668" lon="0.85685">
        <ele>1442</ele>
        <time>2016-03-26T11:04:44Z</time>
      </trkpt>
      <trkpt lat="42.95667" lon="0.85686">
        <ele>1442</ele>
        <time>2016-03-26T11:04:46Z</time>
      </trkpt>
      <trkpt lat="42.95666" lon="0.85687">
        <ele>1442</ele>
        <time>2016-03-26T11:04:48Z</time>
      </trkpt>
      <trkpt lat="42.95665" lon="0.85687">
        <ele>1442</ele>
        <time>2016-03-26T11:04:49Z</time>
      </trkpt>
      <trkpt lat="42.95664" lon="0.85688">
        <ele>1442</ele>
        <time>2016-03-26T11:04:51Z</time>
      </trkpt>
      <trkpt lat="42.95664" lon="0.85688">
        <ele>1442</ele>
        <time>2016-03-26T11:04:52Z</time>
      </trkpt>
      <trkpt lat="42.95662" lon="0.85689">
        <ele>1442</ele>
        <time>2016-03-26T11:04:55Z</time>
      </trkpt>
      <trkpt lat="42.95661" lon="0.8569">
        <ele>1442</ele>
        <time>2016-03-26T11:04:57Z</time>
      </trkpt>
      <trkpt lat="42.9566" lon="0.8569">
        <ele>1442</ele>
        <time>2016-03-26T11:04:58Z</time>
      </trkpt>
      <trkpt lat="42.95659" lon="0.8569">
        <ele>1442</ele>
        <time>2016-03-26T11:04:59Z</time>
      </trkpt>
      <trkpt lat="42.95659" lon="0.85691">
        <ele>1442</ele>
        <time>2016-03-26T11:05:00Z</time>
      </trkpt>
      <trkpt lat="42.95658" lon="0.85691">
        <ele>1442</ele>
        <time>2016-03-26T11:05:02Z</time>
      </trkpt>
      <trkpt lat="42.95657" lon="0.85691">
        <ele>1442</ele>
        <time>2016-03-26T11:05:04Z</time>
      </trkpt>
      <trkpt lat="42.95656" lon="0.85691">
        <ele>1442</ele>
        <time>2016-03-26T11:05:05Z</time>
      </trkpt>
      <trkpt lat="42.95655" lon="0.85692">
        <ele>1442</ele>
        <time>2016-03-26T11:05:07Z</time>
      </trkpt>
      <trkpt lat="42.95655" lon="0.85693">
        <ele>1442</ele>
        <time>2016-03-26T11:05:08Z</time>
      </trkpt>
      <trkpt lat="42.95654" lon="0.85694">
        <ele>1442</ele>
        <time>2016-03-26T11:05:10Z</time>
      </trkpt>
      <trkpt lat="42.95652" lon="0.85695">
        <ele>1443</ele>
        <time>2016-03-26T11:05:12Z</time>
      </trkpt>
      <trkpt lat="42.95652" lon="0.85695">
        <ele>1443</ele>
        <time>2016-03-26T11:05:13Z</time>
      </trkpt>
      <trkpt lat="42.95651" lon="0.85696">
        <ele>1443</ele>
        <time>2016-03-26T11:05:15Z</time>
      </trkpt>
      <trkpt lat="42.9565" lon="0.85696">
        <ele>1443</ele>
        <time>2016-03-26T11:05:16Z</time>
      </trkpt>
      <trkpt lat="42.95649" lon="0.85698">
        <ele>1443</ele>
        <time>2016-03-26T11:05:18Z</time>
      </trkpt>
      <trkpt lat="42.95649" lon="0.85699">
        <ele>1443</ele>
        <time>2016-03-26T11:05:20Z</time>
      </trkpt>
      <trkpt lat="42.95648" lon="0.857">
        <ele>1444</ele>
        <time>2016-03-26T11:05:22Z</time>
      </trkpt>
      <trkpt lat="42.95647" lon="0.85701">
        <ele>1444</ele>
        <time>2016-03-26T11:05:24Z</time>
      </trkpt>
      <trkpt lat="42.95646" lon="0.85702">
        <ele>1444</ele>
        <time>2016-03-26T11:05:26Z</time>
      </trkpt>
      <trkpt lat="42.95646" lon="0.85703">
        <ele>1445</ele>
        <time>2016-03-26T11:05:27Z</time>
      </trkpt>
      <trkpt lat="42.95645" lon="0.85704">
        <ele>1445</ele>
        <time>2016-03-26T11:05:29Z</time>
      </trkpt>
      <trkpt lat="42.95645" lon="0.85704">
        <ele>1445</ele>
        <time>2016-03-26T11:05:30Z</time>
      </trkpt>
      <trkpt lat="42.95644" lon="0.85705">
        <ele>1445</ele>
        <time>2016-03-26T11:05:32Z</time>
      </trkpt>
      <trkpt lat="42.95644" lon="0.85706">
        <ele>1445</ele>
        <time>2016-03-26T11:05:33Z</time>
      </trkpt>
      <trkpt lat="42.95643" lon="0.85708">
        <ele>1445</ele>
        <time>2016-03-26T11:05:37Z</time>
      </trkpt>
      <trkpt lat="42.95642" lon="0.85709">
        <ele>1445</ele>
        <time>2016-03-26T11:05:39Z</time>
      </trkpt>
      <trkpt lat="42.95641" lon="0.85709">
        <ele>1445</ele>
        <time>2016-03-26T11:05:58Z</time>
      </trkpt>
      <trkpt lat="42.9564" lon="0.8571">
        <ele>1445</ele>
        <time>2016-03-26T11:06:00Z</time>
      </trkpt>
      <trkpt lat="42.9564" lon="0.85711">
        <ele>1445</ele>
        <time>2016-03-26T11:06:01Z</time>
      </trkpt>
      <trkpt lat="42.95639" lon="0.85711">
        <ele>1445</ele>
        <time>2016-03-26T11:06:02Z</time>
      </trkpt>
      <trkpt lat="42.95639" lon="0.85711">
        <ele>1445</ele>
        <time>2016-03-26T11:06:04Z</time>
      </trkpt>
      <trkpt lat="42.95638" lon="0.85713">
        <ele>1445</ele>
        <time>2016-03-26T11:06:06Z</time>
      </trkpt>
      <trkpt lat="42.95638" lon="0.85713">
        <ele>1445</ele>
        <time>2016-03-26T11:06:07Z</time>
      </trkpt>
      <trkpt lat="42.95638" lon="0.85714">
        <ele>1445</ele>
        <time>2016-03-26T11:06:08Z</time>
      </trkpt>
      <trkpt lat="42.95638" lon="0.85714">
        <ele>1445</ele>
        <time>2016-03-26T11:06:10Z</time>
      </trkpt>
      <trkpt lat="42.95638" lon="0.85714">
        <ele>1445</ele>
        <time>2016-03-26T11:06:12Z</time>
      </trkpt>
      <trkpt lat="42.95638" lon="0.85714">
        <ele>1445</ele>
        <time>2016-03-26T11:06:26Z</time>
      </trkpt>
      <trkpt lat="42.95638" lon="0.85714">
        <ele>1445</ele>
        <time>2016-03-26T11:06:28Z</time>
      </trkpt>
      <trkpt lat="42.95639" lon="0.85714">
        <ele>1445</ele>
        <time>2016-03-26T11:06:33Z</time>
      </trkpt>
      <trkpt lat="42.95639" lon="0.85712">
        <ele>1445</ele>
        <time>2016-03-26T11:06:35Z</time>
      </trkpt>
      <trkpt lat="42.95639" lon="0.85712">
        <ele>1445</ele>
        <time>2016-03-26T11:06:36Z</time>
      </trkpt>
      <trkpt lat="42.95641" lon="0.85711">
        <ele>1445</ele>
        <time>2016-03-26T11:06:38Z</time>
      </trkpt>
      <trkpt lat="42.95641" lon="0.85711">
        <ele>1445</ele>
        <time>2016-03-26T11:06:39Z</time>
      </trkpt>
      <trkpt lat="42.95641" lon="0.85711">
        <ele>1445</ele>
        <time>2016-03-26T11:06:41Z</time>
      </trkpt>
      <trkpt lat="42.9564" lon="0.8571">
        <ele>1445</ele>
        <time>2016-03-26T11:06:46Z</time>
      </trkpt>
      <trkpt lat="42.95639" lon="0.8571">
        <ele>1445</ele>
        <time>2016-03-26T11:06:48Z</time>
      </trkpt>
      <trkpt lat="42.95638" lon="0.8571">
        <ele>1445</ele>
        <time>2016-03-26T11:06:50Z</time>
      </trkpt>
      <trkpt lat="42.95637" lon="0.8571">
        <ele>1445</ele>
        <time>2016-03-26T11:06:52Z</time>
      </trkpt>
      <trkpt lat="42.95636" lon="0.8571">
        <ele>1445</ele>
        <time>2016-03-26T11:06:54Z</time>
      </trkpt>
      <trkpt lat="42.95636" lon="0.8571">
        <ele>1445</ele>
        <time>2016-03-26T11:06:56Z</time>
      </trkpt>
      <trkpt lat="42.95635" lon="0.8571">
        <ele>1445</ele>
        <time>2016-03-26T11:06:59Z</time>
      </trkpt>
      <trkpt lat="42.95634" lon="0.85709">
        <ele>1445</ele>
        <time>2016-03-26T11:07:16Z</time>
      </trkpt>
      <trkpt lat="42.95633" lon="0.85709">
        <ele>1444</ele>
        <time>2016-03-26T11:07:17Z</time>
      </trkpt>
      <trkpt lat="42.95632" lon="0.85709">
        <ele>1444</ele>
        <time>2016-03-26T11:07:19Z</time>
      </trkpt>
      <trkpt lat="42.9563" lon="0.85709">
        <ele>1444</ele>
        <time>2016-03-26T11:07:21Z</time>
      </trkpt>
      <trkpt lat="42.9563" lon="0.85709">
        <ele>1444</ele>
        <time>2016-03-26T11:07:22Z</time>
      </trkpt>
      <trkpt lat="42.95627" lon="0.85709">
        <ele>1444</ele>
        <time>2016-03-26T11:07:24Z</time>
      </trkpt>
      <trkpt lat="42.95627" lon="0.85709">
        <ele>1444</ele>
        <time>2016-03-26T11:07:25Z</time>
      </trkpt>
      <trkpt lat="42.95625" lon="0.85709">
        <ele>1444</ele>
        <time>2016-03-26T11:07:27Z</time>
      </trkpt>
      <trkpt lat="42.95624" lon="0.85708">
        <ele>1444</ele>
        <time>2016-03-26T11:07:29Z</time>
      </trkpt>
      <trkpt lat="42.95623" lon="0.85708">
        <ele>1444</ele>
        <time>2016-03-26T11:07:31Z</time>
      </trkpt>
      <trkpt lat="42.95622" lon="0.85707">
        <ele>1443</ele>
        <time>2016-03-26T11:07:33Z</time>
      </trkpt>
      <trkpt lat="42.95622" lon="0.85705">
        <ele>1443</ele>
        <time>2016-03-26T11:07:35Z</time>
      </trkpt>
      <trkpt lat="42.95622" lon="0.85704">
        <ele>1443</ele>
        <time>2016-03-26T11:07:37Z</time>
      </trkpt>
      <trkpt lat="42.95621" lon="0.85704">
        <ele>1443</ele>
        <time>2016-03-26T11:07:39Z</time>
      </trkpt>
      <trkpt lat="42.95621" lon="0.85704">
        <ele>1443</ele>
        <time>2016-03-26T11:07:40Z</time>
      </trkpt>
      <trkpt lat="42.9562" lon="0.85704">
        <ele>1443</ele>
        <time>2016-03-26T11:07:42Z</time>
      </trkpt>
      <trkpt lat="42.9562" lon="0.85704">
        <ele>1443</ele>
        <time>2016-03-26T11:08:16Z</time>
      </trkpt>
      <trkpt lat="42.9562" lon="0.85704">
        <ele>1443</ele>
        <time>2016-03-26T11:08:18Z</time>
      </trkpt>
      <trkpt lat="42.9562" lon="0.85704">
        <ele>1443</ele>
        <time>2016-03-26T11:08:38Z</time>
      </trkpt>
      <trkpt lat="42.9562" lon="0.85704">
        <ele>1443</ele>
        <time>2016-03-26T11:08:40Z</time>
      </trkpt>
      <trkpt lat="42.9562" lon="0.85704">
        <ele>1443</ele>
        <time>2016-03-26T11:09:00Z</time>
      </trkpt>
      <trkpt lat="42.9562" lon="0.85704">
        <ele>1443</ele>
        <time>2016-03-26T11:09:01Z</time>
      </trkpt>
      <trkpt lat="42.95623" lon="0.85704">
        <ele>1443</ele>
        <time>2016-03-26T11:09:16Z</time>
      </trkpt>
      <trkpt lat="42.95624" lon="0.85705">
        <ele>1443</ele>
        <time>2016-03-26T11:09:18Z</time>
      </trkpt>
      <trkpt lat="42.95624" lon="0.85705">
        <ele>1442</ele>
        <time>2016-03-26T11:09:19Z</time>
      </trkpt>
      <trkpt lat="42.95626" lon="0.85705">
        <ele>1442</ele>
        <time>2016-03-26T11:09:21Z</time>
      </trkpt>
      <trkpt lat="42.95626" lon="0.85705">
        <ele>1442</ele>
        <time>2016-03-26T11:09:22Z</time>
      </trkpt>
      <trkpt lat="42.95628" lon="0.85705">
        <ele>1442</ele>
        <time>2016-03-26T11:09:24Z</time>
      </trkpt>
      <trkpt lat="42.95629" lon="0.85705">
        <ele>1442</ele>
        <time>2016-03-26T11:09:26Z</time>
      </trkpt>
      <trkpt lat="42.9563" lon="0.85705">
        <ele>1442</ele>
        <time>2016-03-26T11:09:28Z</time>
      </trkpt>
      <trkpt lat="42.95631" lon="0.85705">
        <ele>1442</ele>
        <time>2016-03-26T11:09:30Z</time>
      </trkpt>
      <trkpt lat="42.95633" lon="0.85705">
        <ele>1443</ele>
        <time>2016-03-26T11:09:32Z</time>
      </trkpt>
      <trkpt lat="42.95634" lon="0.85705">
        <ele>1443</ele>
        <time>2016-03-26T11:09:34Z</time>
      </trkpt>
      <trkpt lat="42.95635" lon="0.85705">
        <ele>1443</ele>
        <time>2016-03-26T11:09:36Z</time>
      </trkpt>
      <trkpt lat="42.95636" lon="0.85705">
        <ele>1443</ele>
        <time>2016-03-26T11:09:38Z</time>
      </trkpt>
      <trkpt lat="42.95637" lon="0.85705">
        <ele>1443</ele>
        <time>2016-03-26T11:09:39Z</time>
      </trkpt>
      <trkpt lat="42.95637" lon="0.85705">
        <ele>1442</ele>
        <time>2016-03-26T11:09:40Z</time>
      </trkpt>
      <trkpt lat="42.95638" lon="0.85705">
        <ele>1442</ele>
        <time>2016-03-26T11:09:42Z</time>
      </trkpt>
      <trkpt lat="42.95639" lon="0.85705">
        <ele>1442</ele>
        <time>2016-03-26T11:09:44Z</time>
      </trkpt>
      <trkpt lat="42.95639" lon="0.85705">
        <ele>1442</ele>
        <time>2016-03-26T11:09:47Z</time>
      </trkpt>
      <trkpt lat="42.95639" lon="0.85705">
        <ele>1442</ele>
        <time>2016-03-26T11:10:06Z</time>
      </trkpt>
      <trkpt lat="42.95639" lon="0.85705">
        <ele>1442</ele>
        <time>2016-03-26T11:10:08Z</time>
      </trkpt>
      <trkpt lat="42.95639" lon="0.85705">
        <ele>1442</ele>
        <time>2016-03-26T11:10:29Z</time>
      </trkpt>
      <trkpt lat="42.95639" lon="0.85705">
        <ele>1442</ele>
        <time>2016-03-26T11:10:30Z</time>
      </trkpt>
      <trkpt lat="42.95639" lon="0.85705">
        <ele>1442</ele>
        <time>2016-03-26T11:10:52Z</time>
      </trkpt>
      <trkpt lat="42.95639" lon="0.85705">
        <ele>1442</ele>
        <time>2016-03-26T11:10:54Z</time>
      </trkpt>
      <trkpt lat="42.95639" lon="0.85705">
        <ele>1442</ele>
        <time>2016-03-26T11:11:13Z</time>
      </trkpt>
      <trkpt lat="42.95639" lon="0.85705">
        <ele>1442</ele>
        <time>2016-03-26T11:11:15Z</time>
      </trkpt>
      <trkpt lat="42.95639" lon="0.85705">
        <ele>1442</ele>
        <time>2016-03-26T11:11:35Z</time>
      </trkpt>
      <trkpt lat="42.95639" lon="0.85705">
        <ele>1442</ele>
        <time>2016-03-26T11:11:36Z</time>
      </trkpt>
      <trkpt lat="42.95645" lon="0.85704">
        <ele>1443</ele>
        <time>2016-03-26T11:13:04Z</time>
      </trkpt>
      <trkpt lat="42.95646" lon="0.85704">
        <ele>1443</ele>
        <time>2016-03-26T11:13:06Z</time>
      </trkpt>
      <trkpt lat="42.95646" lon="0.85703">
        <ele>1443</ele>
        <time>2016-03-26T11:13:09Z</time>
      </trkpt>
      <trkpt lat="42.95646" lon="0.85703">
        <ele>1443</ele>
        <time>2016-03-26T11:13:25Z</time>
      </trkpt>
      <trkpt lat="42.95646" lon="0.85703">
        <ele>1443</ele>
        <time>2016-03-26T11:13:26Z</time>
      </trkpt>
      <trkpt lat="42.95646" lon="0.85703">
        <ele>1443</ele>
        <time>2016-03-26T11:13:48Z</time>
      </trkpt>
      <trkpt lat="42.95646" lon="0.85703">
        <ele>1443</ele>
        <time>2016-03-26T11:13:49Z</time>
      </trkpt>
      <trkpt lat="42.95646" lon="0.85703">
        <ele>1443</ele>
        <time>2016-03-26T11:14:10Z</time>
      </trkpt>
      <trkpt lat="42.95646" lon="0.85703">
        <ele>1443</ele>
        <time>2016-03-26T11:14:12Z</time>
      </trkpt>
      <trkpt lat="42.95646" lon="0.85703">
        <ele>1443</ele>
        <time>2016-03-26T11:14:34Z</time>
      </trkpt>
      <trkpt lat="42.95646" lon="0.85703">
        <ele>1443</ele>
        <time>2016-03-26T11:14:35Z</time>
      </trkpt>
      <trkpt lat="42.95646" lon="0.85703">
        <ele>1443</ele>
        <time>2016-03-26T11:14:56Z</time>
      </trkpt>
      <trkpt lat="42.95646" lon="0.85703">
        <ele>1443</ele>
        <time>2016-03-26T11:14:58Z</time>
      </trkpt>
      <trkpt lat="42.95648" lon="0.85707">
        <ele>1444</ele>
        <time>2016-03-26T11:15:46Z</time>
      </trkpt>
      <trkpt lat="42.95649" lon="0.85708">
        <ele>1445</ele>
        <time>2016-03-26T11:15:48Z</time>
      </trkpt>
      <trkpt lat="42.95649" lon="0.85708">
        <ele>1445</ele>
        <time>2016-03-26T11:15:50Z</time>
      </trkpt>
      <trkpt lat="42.95651" lon="0.85709">
        <ele>1446</ele>
        <time>2016-03-26T11:15:52Z</time>
      </trkpt>
      <trkpt lat="42.95651" lon="0.8571">
        <ele>1447</ele>
        <time>2016-03-26T11:15:54Z</time>
      </trkpt>
      <trkpt lat="42.95652" lon="0.85711">
        <ele>1447</ele>
        <time>2016-03-26T11:15:55Z</time>
      </trkpt>
      <trkpt lat="42.95652" lon="0.85711">
        <ele>1447</ele>
        <time>2016-03-26T11:15:57Z</time>
      </trkpt>
      <trkpt lat="42.95653" lon="0.85713">
        <ele>1448</ele>
        <time>2016-03-26T11:15:59Z</time>
      </trkpt>
      <trkpt lat="42.95654" lon="0.85715">
        <ele>1448</ele>
        <time>2016-03-26T11:16:00Z</time>
      </trkpt>
      <trkpt lat="42.95656" lon="0.85716">
        <ele>1448</ele>
        <time>2016-03-26T11:16:02Z</time>
      </trkpt>
      <trkpt lat="42.95657" lon="0.85717">
        <ele>1448</ele>
        <time>2016-03-26T11:16:04Z</time>
      </trkpt>
      <trkpt lat="42.95658" lon="0.85719">
        <ele>1448</ele>
        <time>2016-03-26T11:16:06Z</time>
      </trkpt>
      <trkpt lat="42.95659" lon="0.8572">
        <ele>1448</ele>
        <time>2016-03-26T11:16:08Z</time>
      </trkpt>
      <trkpt lat="42.9566" lon="0.85721">
        <ele>1449</ele>
        <time>2016-03-26T11:16:10Z</time>
      </trkpt>
      <trkpt lat="42.95662" lon="0.85722">
        <ele>1449</ele>
        <time>2016-03-26T11:16:12Z</time>
      </trkpt>
      <trkpt lat="42.95664" lon="0.85724">
        <ele>1449</ele>
        <time>2016-03-26T11:16:14Z</time>
      </trkpt>
      <trkpt lat="42.95664" lon="0.85725">
        <ele>1449</ele>
        <time>2016-03-26T11:16:16Z</time>
      </trkpt>
      <trkpt lat="42.95665" lon="0.85725">
        <ele>1450</ele>
        <time>2016-03-26T11:16:18Z</time>
      </trkpt>
      <trkpt lat="42.95665" lon="0.85727">
        <ele>1450</ele>
        <time>2016-03-26T11:16:20Z</time>
      </trkpt>
      <trkpt lat="42.95665" lon="0.85727">
        <ele>1451</ele>
        <time>2016-03-26T11:16:21Z</time>
      </trkpt>
      <trkpt lat="42.95665" lon="0.85728">
        <ele>1451</ele>
        <time>2016-03-26T11:16:22Z</time>
      </trkpt>
      <trkpt lat="42.95666" lon="0.85729">
        <ele>1451</ele>
        <time>2016-03-26T11:16:23Z</time>
      </trkpt>
      <trkpt lat="42.95665" lon="0.8573">
        <ele>1452</ele>
        <time>2016-03-26T11:16:25Z</time>
      </trkpt>
      <trkpt lat="42.95665" lon="0.85731">
        <ele>1452</ele>
        <time>2016-03-26T11:16:26Z</time>
      </trkpt>
      <trkpt lat="42.95666" lon="0.85732">
        <ele>1452</ele>
        <time>2016-03-26T11:16:28Z</time>
      </trkpt>
      <trkpt lat="42.95667" lon="0.85733">
        <ele>1453</ele>
        <time>2016-03-26T11:16:30Z</time>
      </trkpt>
      <trkpt lat="42.95667" lon="0.85735">
        <ele>1453</ele>
        <time>2016-03-26T11:16:32Z</time>
      </trkpt>
      <trkpt lat="42.95668" lon="0.85736">
        <ele>1453</ele>
        <time>2016-03-26T11:16:33Z</time>
      </trkpt>
      <trkpt lat="42.95668" lon="0.85738">
        <ele>1453</ele>
        <time>2016-03-26T11:16:35Z</time>
      </trkpt>
      <trkpt lat="42.95669" lon="0.85739">
        <ele>1454</ele>
        <time>2016-03-26T11:16:37Z</time>
      </trkpt>
      <trkpt lat="42.9567" lon="0.8574">
        <ele>1454</ele>
        <time>2016-03-26T11:16:38Z</time>
      </trkpt>
      <trkpt lat="42.9567" lon="0.85742">
        <ele>1454</ele>
        <time>2016-03-26T11:16:40Z</time>
      </trkpt>
      <trkpt lat="42.95671" lon="0.85743">
        <ele>1455</ele>
        <time>2016-03-26T11:16:41Z</time>
      </trkpt>
      <trkpt lat="42.95672" lon="0.85744">
        <ele>1455</ele>
        <time>2016-03-26T11:16:43Z</time>
      </trkpt>
      <trkpt lat="42.95673" lon="0.85745">
        <ele>1455</ele>
        <time>2016-03-26T11:16:45Z</time>
      </trkpt>
      <trkpt lat="42.95673" lon="0.85746">
        <ele>1456</ele>
        <time>2016-03-26T11:16:46Z</time>
      </trkpt>
      <trkpt lat="42.95674" lon="0.85747">
        <ele>1456</ele>
        <time>2016-03-26T11:16:48Z</time>
      </trkpt>
      <trkpt lat="42.95675" lon="0.85748">
        <ele>1456</ele>
        <time>2016-03-26T11:16:49Z</time>
      </trkpt>
      <trkpt lat="42.95676" lon="0.85751">
        <ele>1457</ele>
        <time>2016-03-26T11:16:52Z</time>
      </trkpt>
      <trkpt lat="42.95677" lon="0.85753">
        <ele>1457</ele>
        <time>2016-03-26T11:16:54Z</time>
      </trkpt>
      <trkpt lat="42.95678" lon="0.85754">
        <ele>1457</ele>
        <time>2016-03-26T11:16:56Z</time>
      </trkpt>
      <trkpt lat="42.95679" lon="0.85755">
        <ele>1457</ele>
        <time>2016-03-26T11:16:57Z</time>
      </trkpt>
      <trkpt lat="42.95681" lon="0.85758">
        <ele>1457</ele>
        <time>2016-03-26T11:17:01Z</time>
      </trkpt>
      <trkpt lat="42.95683" lon="0.85761">
        <ele>1458</ele>
        <time>2016-03-26T11:17:04Z</time>
      </trkpt>
      <trkpt lat="42.95683" lon="0.85763">
        <ele>1458</ele>
        <time>2016-03-26T11:17:06Z</time>
      </trkpt>
      <trkpt lat="42.95683" lon="0.85765">
        <ele>1458</ele>
        <time>2016-03-26T11:17:08Z</time>
      </trkpt>
      <trkpt lat="42.95684" lon="0.85767">
        <ele>1459</ele>
        <time>2016-03-26T11:17:10Z</time>
      </trkpt>
      <trkpt lat="42.95684" lon="0.85769">
        <ele>1459</ele>
        <time>2016-03-26T11:17:12Z</time>
      </trkpt>
      <trkpt lat="42.95685" lon="0.85772">
        <ele>1459</ele>
        <time>2016-03-26T11:17:14Z</time>
      </trkpt>
      <trkpt lat="42.95685" lon="0.85774">
        <ele>1459</ele>
        <time>2016-03-26T11:17:16Z</time>
      </trkpt>
      <trkpt lat="42.95685" lon="0.85776">
        <ele>1460</ele>
        <time>2016-03-26T11:17:18Z</time>
      </trkpt>
      <trkpt lat="42.95686" lon="0.85778">
        <ele>1460</ele>
        <time>2016-03-26T11:17:20Z</time>
      </trkpt>
      <trkpt lat="42.95686" lon="0.8578">
        <ele>1460</ele>
        <time>2016-03-26T11:17:22Z</time>
      </trkpt>
      <trkpt lat="42.95687" lon="0.85781">
        <ele>1461</ele>
        <time>2016-03-26T11:17:24Z</time>
      </trkpt>
      <trkpt lat="42.95687" lon="0.85782">
        <ele>1461</ele>
        <time>2016-03-26T11:17:25Z</time>
      </trkpt>
      <trkpt lat="42.95688" lon="0.85783">
        <ele>1461</ele>
        <time>2016-03-26T11:17:26Z</time>
      </trkpt>
      <trkpt lat="42.95688" lon="0.85785">
        <ele>1461</ele>
        <time>2016-03-26T11:17:28Z</time>
      </trkpt>
      <trkpt lat="42.95689" lon="0.85787">
        <ele>1461</ele>
        <time>2016-03-26T11:17:30Z</time>
      </trkpt>
      <trkpt lat="42.95689" lon="0.85788">
        <ele>1461</ele>
        <time>2016-03-26T11:17:31Z</time>
      </trkpt>
      <trkpt lat="42.95691" lon="0.8579">
        <ele>1461</ele>
        <time>2016-03-26T11:17:33Z</time>
      </trkpt>
      <trkpt lat="42.95691" lon="0.85791">
        <ele>1462</ele>
        <time>2016-03-26T11:17:34Z</time>
      </trkpt>
      <trkpt lat="42.95691" lon="0.85791">
        <ele>1462</ele>
        <time>2016-03-26T11:17:36Z</time>
      </trkpt>
      <trkpt lat="42.95691" lon="0.85791">
        <ele>1462</ele>
        <time>2016-03-26T11:17:37Z</time>
      </trkpt>
      <trkpt lat="42.95691" lon="0.85792">
        <ele>1462</ele>
        <time>2016-03-26T11:17:42Z</time>
      </trkpt>
      <trkpt lat="42.95691" lon="0.85792">
        <ele>1463</ele>
        <time>2016-03-26T11:17:44Z</time>
      </trkpt>
      <trkpt lat="42.95692" lon="0.85793">
        <ele>1463</ele>
        <time>2016-03-26T11:17:50Z</time>
      </trkpt>
      <trkpt lat="42.95693" lon="0.85796">
        <ele>1463</ele>
        <time>2016-03-26T11:17:52Z</time>
      </trkpt>
      <trkpt lat="42.95693" lon="0.85798">
        <ele>1463</ele>
        <time>2016-03-26T11:17:54Z</time>
      </trkpt>
      <trkpt lat="42.95694" lon="0.858">
        <ele>1463</ele>
        <time>2016-03-26T11:17:56Z</time>
      </trkpt>
      <trkpt lat="42.95694" lon="0.85801">
        <ele>1464</ele>
        <time>2016-03-26T11:17:57Z</time>
      </trkpt>
      <trkpt lat="42.95696" lon="0.85802">
        <ele>1464</ele>
        <time>2016-03-26T11:17:59Z</time>
      </trkpt>
      <trkpt lat="42.95696" lon="0.85803">
        <ele>1464</ele>
        <time>2016-03-26T11:18:00Z</time>
      </trkpt>
      <trkpt lat="42.95697" lon="0.85805">
        <ele>1464</ele>
        <time>2016-03-26T11:18:02Z</time>
      </trkpt>
      <trkpt lat="42.95698" lon="0.85807">
        <ele>1464</ele>
        <time>2016-03-26T11:18:04Z</time>
      </trkpt>
      <trkpt lat="42.95698" lon="0.85808">
        <ele>1465</ele>
        <time>2016-03-26T11:18:05Z</time>
      </trkpt>
      <trkpt lat="42.95699" lon="0.85809">
        <ele>1465</ele>
        <time>2016-03-26T11:18:07Z</time>
      </trkpt>
      <trkpt lat="42.95699" lon="0.85811">
        <ele>1465</ele>
        <time>2016-03-26T11:18:09Z</time>
      </trkpt>
      <trkpt lat="42.957" lon="0.85812">
        <ele>1465</ele>
        <time>2016-03-26T11:18:10Z</time>
      </trkpt>
      <trkpt lat="42.95701" lon="0.85814">
        <ele>1465</ele>
        <time>2016-03-26T11:18:12Z</time>
      </trkpt>
      <trkpt lat="42.95702" lon="0.85816">
        <ele>1466</ele>
        <time>2016-03-26T11:18:14Z</time>
      </trkpt>
      <trkpt lat="42.95702" lon="0.85818">
        <ele>1466</ele>
        <time>2016-03-26T11:18:16Z</time>
      </trkpt>
      <trkpt lat="42.95703" lon="0.8582">
        <ele>1466</ele>
        <time>2016-03-26T11:18:18Z</time>
      </trkpt>
      <trkpt lat="42.95703" lon="0.85821">
        <ele>1467</ele>
        <time>2016-03-26T11:18:19Z</time>
      </trkpt>
      <trkpt lat="42.95702" lon="0.85822">
        <ele>1467</ele>
        <time>2016-03-26T11:18:21Z</time>
      </trkpt>
      <trkpt lat="42.95701" lon="0.85823">
        <ele>1467</ele>
        <time>2016-03-26T11:18:23Z</time>
      </trkpt>
      <trkpt lat="42.95701" lon="0.85824">
        <ele>1468</ele>
        <time>2016-03-26T11:18:24Z</time>
      </trkpt>
      <trkpt lat="42.95701" lon="0.85826">
        <ele>1468</ele>
        <time>2016-03-26T11:18:26Z</time>
      </trkpt>
      <trkpt lat="42.95701" lon="0.85827">
        <ele>1468</ele>
        <time>2016-03-26T11:18:27Z</time>
      </trkpt>
      <trkpt lat="42.95701" lon="0.85829">
        <ele>1468</ele>
        <time>2016-03-26T11:18:29Z</time>
      </trkpt>
      <trkpt lat="42.95701" lon="0.8583">
        <ele>1468</ele>
        <time>2016-03-26T11:18:30Z</time>
      </trkpt>
      <trkpt lat="42.95702" lon="0.85831">
        <ele>1469</ele>
        <time>2016-03-26T11:18:31Z</time>
      </trkpt>
      <trkpt lat="42.95703" lon="0.85832">
        <ele>1469</ele>
        <time>2016-03-26T11:18:33Z</time>
      </trkpt>
      <trkpt lat="42.95703" lon="0.85833">
        <ele>1469</ele>
        <time>2016-03-26T11:18:34Z</time>
      </trkpt>
      <trkpt lat="42.95703" lon="0.85835">
        <ele>1470</ele>
        <time>2016-03-26T11:18:36Z</time>
      </trkpt>
      <trkpt lat="42.95703" lon="0.85837">
        <ele>1470</ele>
        <time>2016-03-26T11:18:38Z</time>
      </trkpt>
      <trkpt lat="42.95704" lon="0.85838">
        <ele>1470</ele>
        <time>2016-03-26T11:18:39Z</time>
      </trkpt>
      <trkpt lat="42.95704" lon="0.85839">
        <ele>1471</ele>
        <time>2016-03-26T11:18:40Z</time>
      </trkpt>
      <trkpt lat="42.95704" lon="0.8584">
        <ele>1471</ele>
        <time>2016-03-26T11:18:42Z</time>
      </trkpt>
      <trkpt lat="42.95705" lon="0.85842">
        <ele>1471</ele>
        <time>2016-03-26T11:18:44Z</time>
      </trkpt>
      <trkpt lat="42.95705" lon="0.85843">
        <ele>1471</ele>
        <time>2016-03-26T11:18:45Z</time>
      </trkpt>
      <trkpt lat="42.95705" lon="0.85844">
        <ele>1471</ele>
        <time>2016-03-26T11:18:47Z</time>
      </trkpt>
      <trkpt lat="42.95707" lon="0.85846">
        <ele>1472</ele>
        <time>2016-03-26T11:18:49Z</time>
      </trkpt>
      <trkpt lat="42.95707" lon="0.85847">
        <ele>1472</ele>
        <time>2016-03-26T11:18:51Z</time>
      </trkpt>
      <trkpt lat="42.95707" lon="0.85848">
        <ele>1472</ele>
        <time>2016-03-26T11:18:52Z</time>
      </trkpt>
      <trkpt lat="42.95708" lon="0.8585">
        <ele>1472</ele>
        <time>2016-03-26T11:18:54Z</time>
      </trkpt>
      <trkpt lat="42.95709" lon="0.85851">
        <ele>1473</ele>
        <time>2016-03-26T11:18:56Z</time>
      </trkpt>
      <trkpt lat="42.95709" lon="0.85852">
        <ele>1473</ele>
        <time>2016-03-26T11:18:58Z</time>
      </trkpt>
      <trkpt lat="42.9571" lon="0.85854">
        <ele>1473</ele>
        <time>2016-03-26T11:19:00Z</time>
      </trkpt>
      <trkpt lat="42.95711" lon="0.85855">
        <ele>1474</ele>
        <time>2016-03-26T11:19:02Z</time>
      </trkpt>
      <trkpt lat="42.95712" lon="0.85857">
        <ele>1474</ele>
        <time>2016-03-26T11:19:04Z</time>
      </trkpt>
      <trkpt lat="42.95712" lon="0.85858">
        <ele>1475</ele>
        <time>2016-03-26T11:19:06Z</time>
      </trkpt>
      <trkpt lat="42.95713" lon="0.8586">
        <ele>1475</ele>
        <time>2016-03-26T11:19:08Z</time>
      </trkpt>
      <trkpt lat="42.95713" lon="0.85861">
        <ele>1475</ele>
        <time>2016-03-26T11:19:09Z</time>
      </trkpt>
      <trkpt lat="42.95713" lon="0.85862">
        <ele>1475</ele>
        <time>2016-03-26T11:19:10Z</time>
      </trkpt>
      <trkpt lat="42.95713" lon="0.85864">
        <ele>1476</ele>
        <time>2016-03-26T11:19:12Z</time>
      </trkpt>
      <trkpt lat="42.95715" lon="0.85865">
        <ele>1476</ele>
        <time>2016-03-26T11:19:14Z</time>
      </trkpt>
      <trkpt lat="42.95716" lon="0.85866">
        <ele>1476</ele>
        <time>2016-03-26T11:19:16Z</time>
      </trkpt>
      <trkpt lat="42.95717" lon="0.85867">
        <ele>1476</ele>
        <time>2016-03-26T11:19:18Z</time>
      </trkpt>
      <trkpt lat="42.95718" lon="0.85869">
        <ele>1476</ele>
        <time>2016-03-26T11:19:20Z</time>
      </trkpt>
      <trkpt lat="42.9572" lon="0.85871">
        <ele>1477</ele>
        <time>2016-03-26T11:19:22Z</time>
      </trkpt>
      <trkpt lat="42.9572" lon="0.85872">
        <ele>1477</ele>
        <time>2016-03-26T11:19:24Z</time>
      </trkpt>
      <trkpt lat="42.95721" lon="0.85872">
        <ele>1477</ele>
        <time>2016-03-26T11:19:25Z</time>
      </trkpt>
      <trkpt lat="42.95722" lon="0.85872">
        <ele>1478</ele>
        <time>2016-03-26T11:19:27Z</time>
      </trkpt>
      <trkpt lat="42.95723" lon="0.85873">
        <ele>1478</ele>
        <time>2016-03-26T11:19:28Z</time>
      </trkpt>
      <trkpt lat="42.95723" lon="0.85874">
        <ele>1478</ele>
        <time>2016-03-26T11:19:30Z</time>
      </trkpt>
      <trkpt lat="42.95724" lon="0.85875">
        <ele>1478</ele>
        <time>2016-03-26T11:19:32Z</time>
      </trkpt>
      <trkpt lat="42.95724" lon="0.85875">
        <ele>1478</ele>
        <time>2016-03-26T11:19:33Z</time>
      </trkpt>
      <trkpt lat="42.95725" lon="0.85876">
        <ele>1479</ele>
        <time>2016-03-26T11:19:35Z</time>
      </trkpt>
      <trkpt lat="42.95725" lon="0.85876">
        <ele>1479</ele>
        <time>2016-03-26T11:19:36Z</time>
      </trkpt>
      <trkpt lat="42.95726" lon="0.85877">
        <ele>1479</ele>
        <time>2016-03-26T11:19:38Z</time>
      </trkpt>
      <trkpt lat="42.95726" lon="0.85878">
        <ele>1480</ele>
        <time>2016-03-26T11:19:40Z</time>
      </trkpt>
      <trkpt lat="42.95726" lon="0.8588">
        <ele>1480</ele>
        <time>2016-03-26T11:19:42Z</time>
      </trkpt>
      <trkpt lat="42.95726" lon="0.85881">
        <ele>1481</ele>
        <time>2016-03-26T11:19:44Z</time>
      </trkpt>
      <trkpt lat="42.95726" lon="0.85882">
        <ele>1481</ele>
        <time>2016-03-26T11:19:46Z</time>
      </trkpt>
      <trkpt lat="42.95726" lon="0.85883">
        <ele>1482</ele>
        <time>2016-03-26T11:19:48Z</time>
      </trkpt>
      <trkpt lat="42.95726" lon="0.85884">
        <ele>1482</ele>
        <time>2016-03-26T11:19:50Z</time>
      </trkpt>
      <trkpt lat="42.95727" lon="0.85884">
        <ele>1482</ele>
        <time>2016-03-26T11:19:51Z</time>
      </trkpt>
      <trkpt lat="42.95727" lon="0.85885">
        <ele>1483</ele>
        <time>2016-03-26T11:19:52Z</time>
      </trkpt>
      <trkpt lat="42.95727" lon="0.85886">
        <ele>1483</ele>
        <time>2016-03-26T11:19:54Z</time>
      </trkpt>
      <trkpt lat="42.95727" lon="0.85887">
        <ele>1483</ele>
        <time>2016-03-26T11:19:55Z</time>
      </trkpt>
      <trkpt lat="42.95727" lon="0.85887">
        <ele>1483</ele>
        <time>2016-03-26T11:19:56Z</time>
      </trkpt>
      <trkpt lat="42.95727" lon="0.85888">
        <ele>1483</ele>
        <time>2016-03-26T11:19:58Z</time>
      </trkpt>
      <trkpt lat="42.95727" lon="0.85889">
        <ele>1483</ele>
        <time>2016-03-26T11:20:08Z</time>
      </trkpt>
      <trkpt lat="42.95728" lon="0.85891">
        <ele>1483</ele>
        <time>2016-03-26T11:20:10Z</time>
      </trkpt>
      <trkpt lat="42.95728" lon="0.85892">
        <ele>1483</ele>
        <time>2016-03-26T11:20:12Z</time>
      </trkpt>
      <trkpt lat="42.95729" lon="0.85892">
        <ele>1483</ele>
        <time>2016-03-26T11:20:13Z</time>
      </trkpt>
      <trkpt lat="42.95729" lon="0.85893">
        <ele>1483</ele>
        <time>2016-03-26T11:20:14Z</time>
      </trkpt>
      <trkpt lat="42.95729" lon="0.85894">
        <ele>1484</ele>
        <time>2016-03-26T11:20:16Z</time>
      </trkpt>
      <trkpt lat="42.9573" lon="0.85896">
        <ele>1484</ele>
        <time>2016-03-26T11:20:18Z</time>
      </trkpt>
      <trkpt lat="42.9573" lon="0.85897">
        <ele>1484</ele>
        <time>2016-03-26T11:20:20Z</time>
      </trkpt>
      <trkpt lat="42.95731" lon="0.85898">
        <ele>1485</ele>
        <time>2016-03-26T11:20:22Z</time>
      </trkpt>
      <trkpt lat="42.95732" lon="0.85898">
        <ele>1485</ele>
        <time>2016-03-26T11:20:24Z</time>
      </trkpt>
      <trkpt lat="42.95733" lon="0.85899">
        <ele>1485</ele>
        <time>2016-03-26T11:20:25Z</time>
      </trkpt>
      <trkpt lat="42.95733" lon="0.859">
        <ele>1486</ele>
        <time>2016-03-26T11:20:27Z</time>
      </trkpt>
      <trkpt lat="42.95733" lon="0.85901">
        <ele>1486</ele>
        <time>2016-03-26T11:20:28Z</time>
      </trkpt>
      <trkpt lat="42.95734" lon="0.85903">
        <ele>1486</ele>
        <time>2016-03-26T11:20:30Z</time>
      </trkpt>
      <trkpt lat="42.95735" lon="0.85904">
        <ele>1487</ele>
        <time>2016-03-26T11:20:32Z</time>
      </trkpt>
      <trkpt lat="42.95736" lon="0.85906">
        <ele>1487</ele>
        <time>2016-03-26T11:20:34Z</time>
      </trkpt>
      <trkpt lat="42.95736" lon="0.85906">
        <ele>1487</ele>
        <time>2016-03-26T11:20:35Z</time>
      </trkpt>
      <trkpt lat="42.95738" lon="0.85907">
        <ele>1488</ele>
        <time>2016-03-26T11:20:37Z</time>
      </trkpt>
      <trkpt lat="42.95739" lon="0.85908">
        <ele>1488</ele>
        <time>2016-03-26T11:20:38Z</time>
      </trkpt>
      <trkpt lat="42.9574" lon="0.85909">
        <ele>1488</ele>
        <time>2016-03-26T11:20:40Z</time>
      </trkpt>
      <trkpt lat="42.95741" lon="0.85909">
        <ele>1489</ele>
        <time>2016-03-26T11:20:42Z</time>
      </trkpt>
      <trkpt lat="42.95742" lon="0.85911">
        <ele>1489</ele>
        <time>2016-03-26T11:20:44Z</time>
      </trkpt>
      <trkpt lat="42.95742" lon="0.85912">
        <ele>1489</ele>
        <time>2016-03-26T11:20:46Z</time>
      </trkpt>
      <trkpt lat="42.95742" lon="0.85915">
        <ele>1489</ele>
        <time>2016-03-26T11:20:52Z</time>
      </trkpt>
      <trkpt lat="42.95742" lon="0.85917">
        <ele>1490</ele>
        <time>2016-03-26T11:20:54Z</time>
      </trkpt>
      <trkpt lat="42.95742" lon="0.85919">
        <ele>1490</ele>
        <time>2016-03-26T11:20:56Z</time>
      </trkpt>
      <trkpt lat="42.95742" lon="0.85919">
        <ele>1490</ele>
        <time>2016-03-26T11:20:57Z</time>
      </trkpt>
      <trkpt lat="42.95742" lon="0.85919">
        <ele>1490</ele>
        <time>2016-03-26T11:21:00Z</time>
      </trkpt>
      <trkpt lat="42.95742" lon="0.85921">
        <ele>1490</ele>
        <time>2016-03-26T11:21:12Z</time>
      </trkpt>
      <trkpt lat="42.95742" lon="0.85922">
        <ele>1490</ele>
        <time>2016-03-26T11:21:13Z</time>
      </trkpt>
      <trkpt lat="42.95742" lon="0.85924">
        <ele>1491</ele>
        <time>2016-03-26T11:21:15Z</time>
      </trkpt>
      <trkpt lat="42.95741" lon="0.85926">
        <ele>1491</ele>
        <time>2016-03-26T11:21:17Z</time>
      </trkpt>
      <trkpt lat="42.9574" lon="0.85927">
        <ele>1491</ele>
        <time>2016-03-26T11:21:19Z</time>
      </trkpt>
      <trkpt lat="42.9574" lon="0.85929">
        <ele>1491</ele>
        <time>2016-03-26T11:21:21Z</time>
      </trkpt>
      <trkpt lat="42.9574" lon="0.8593">
        <ele>1491</ele>
        <time>2016-03-26T11:21:22Z</time>
      </trkpt>
      <trkpt lat="42.95741" lon="0.85931">
        <ele>1491</ele>
        <time>2016-03-26T11:21:24Z</time>
      </trkpt>
      <trkpt lat="42.95741" lon="0.85932">
        <ele>1492</ele>
        <time>2016-03-26T11:21:25Z</time>
      </trkpt>
      <trkpt lat="42.9574" lon="0.85934">
        <ele>1492</ele>
        <time>2016-03-26T11:21:27Z</time>
      </trkpt>
      <trkpt lat="42.9574" lon="0.85936">
        <ele>1492</ele>
        <time>2016-03-26T11:21:29Z</time>
      </trkpt>
      <trkpt lat="42.9574" lon="0.85937">
        <ele>1492</ele>
        <time>2016-03-26T11:21:31Z</time>
      </trkpt>
      <trkpt lat="42.9574" lon="0.85938">
        <ele>1492</ele>
        <time>2016-03-26T11:21:32Z</time>
      </trkpt>
      <trkpt lat="42.9574" lon="0.8594">
        <ele>1492</ele>
        <time>2016-03-26T11:21:34Z</time>
      </trkpt>
      <trkpt lat="42.9574" lon="0.8594">
        <ele>1492</ele>
        <time>2016-03-26T11:21:35Z</time>
      </trkpt>
      <trkpt lat="42.95741" lon="0.85941">
        <ele>1492</ele>
        <time>2016-03-26T11:21:37Z</time>
      </trkpt>
      <trkpt lat="42.95741" lon="0.85942">
        <ele>1493</ele>
        <time>2016-03-26T11:21:38Z</time>
      </trkpt>
      <trkpt lat="42.95741" lon="0.85943">
        <ele>1493</ele>
        <time>2016-03-26T11:21:39Z</time>
      </trkpt>
      <trkpt lat="42.95742" lon="0.85943">
        <ele>1493</ele>
        <time>2016-03-26T11:21:40Z</time>
      </trkpt>
      <trkpt lat="42.95742" lon="0.85945">
        <ele>1493</ele>
        <time>2016-03-26T11:21:42Z</time>
      </trkpt>
      <trkpt lat="42.95742" lon="0.85945">
        <ele>1493</ele>
        <time>2016-03-26T11:21:43Z</time>
      </trkpt>
      <trkpt lat="42.95743" lon="0.85947">
        <ele>1494</ele>
        <time>2016-03-26T11:21:45Z</time>
      </trkpt>
      <trkpt lat="42.95744" lon="0.85947">
        <ele>1494</ele>
        <time>2016-03-26T11:21:46Z</time>
      </trkpt>
      <trkpt lat="42.95744" lon="0.85948">
        <ele>1494</ele>
        <time>2016-03-26T11:21:48Z</time>
      </trkpt>
      <trkpt lat="42.95745" lon="0.85949">
        <ele>1495</ele>
        <time>2016-03-26T11:21:50Z</time>
      </trkpt>
      <trkpt lat="42.95745" lon="0.8595">
        <ele>1495</ele>
        <time>2016-03-26T11:21:52Z</time>
      </trkpt>
      <trkpt lat="42.95746" lon="0.85951">
        <ele>1495</ele>
        <time>2016-03-26T11:21:54Z</time>
      </trkpt>
      <trkpt lat="42.95746" lon="0.85952">
        <ele>1495</ele>
        <time>2016-03-26T11:21:56Z</time>
      </trkpt>
      <trkpt lat="42.95747" lon="0.85953">
        <ele>1496</ele>
        <time>2016-03-26T11:21:58Z</time>
      </trkpt>
      <trkpt lat="42.95747" lon="0.85954">
        <ele>1496</ele>
        <time>2016-03-26T11:22:00Z</time>
      </trkpt>
      <trkpt lat="42.95747" lon="0.85955">
        <ele>1496</ele>
        <time>2016-03-26T11:22:01Z</time>
      </trkpt>
      <trkpt lat="42.95747" lon="0.85956">
        <ele>1497</ele>
        <time>2016-03-26T11:22:02Z</time>
      </trkpt>
      <trkpt lat="42.95748" lon="0.85957">
        <ele>1497</ele>
        <time>2016-03-26T11:22:04Z</time>
      </trkpt>
      <trkpt lat="42.95748" lon="0.85959">
        <ele>1497</ele>
        <time>2016-03-26T11:22:06Z</time>
      </trkpt>
      <trkpt lat="42.95749" lon="0.8596">
        <ele>1497</ele>
        <time>2016-03-26T11:22:08Z</time>
      </trkpt>
      <trkpt lat="42.95749" lon="0.8596">
        <ele>1497</ele>
        <time>2016-03-26T11:22:09Z</time>
      </trkpt>
      <trkpt lat="42.9575" lon="0.85961">
        <ele>1498</ele>
        <time>2016-03-26T11:22:10Z</time>
      </trkpt>
      <trkpt lat="42.95751" lon="0.85961">
        <ele>1498</ele>
        <time>2016-03-26T11:22:12Z</time>
      </trkpt>
      <trkpt lat="42.95752" lon="0.85962">
        <ele>1498</ele>
        <time>2016-03-26T11:22:14Z</time>
      </trkpt>
      <trkpt lat="42.95752" lon="0.85963">
        <ele>1499</ele>
        <time>2016-03-26T11:22:16Z</time>
      </trkpt>
      <trkpt lat="42.95753" lon="0.85965">
        <ele>1499</ele>
        <time>2016-03-26T11:22:18Z</time>
      </trkpt>
      <trkpt lat="42.95754" lon="0.85966">
        <ele>1499</ele>
        <time>2016-03-26T11:22:20Z</time>
      </trkpt>
      <trkpt lat="42.95754" lon="0.85966">
        <ele>1500</ele>
        <time>2016-03-26T11:22:22Z</time>
      </trkpt>
      <trkpt lat="42.95755" lon="0.85968">
        <ele>1500</ele>
        <time>2016-03-26T11:22:24Z</time>
      </trkpt>
      <trkpt lat="42.95755" lon="0.85969">
        <ele>1501</ele>
        <time>2016-03-26T11:22:26Z</time>
      </trkpt>
      <trkpt lat="42.95756" lon="0.8597">
        <ele>1501</ele>
        <time>2016-03-26T11:22:28Z</time>
      </trkpt>
      <trkpt lat="42.95757" lon="0.8597">
        <ele>1501</ele>
        <time>2016-03-26T11:22:30Z</time>
      </trkpt>
      <trkpt lat="42.95758" lon="0.8597">
        <ele>1502</ele>
        <time>2016-03-26T11:22:31Z</time>
      </trkpt>
      <trkpt lat="42.95758" lon="0.85969">
        <ele>1502</ele>
        <time>2016-03-26T11:22:33Z</time>
      </trkpt>
      <trkpt lat="42.95759" lon="0.85969">
        <ele>1502</ele>
        <time>2016-03-26T11:22:34Z</time>
      </trkpt>
      <trkpt lat="42.9576" lon="0.85969">
        <ele>1503</ele>
        <time>2016-03-26T11:22:36Z</time>
      </trkpt>
      <trkpt lat="42.9576" lon="0.8597">
        <ele>1503</ele>
        <time>2016-03-26T11:22:37Z</time>
      </trkpt>
      <trkpt lat="42.95761" lon="0.8597">
        <ele>1503</ele>
        <time>2016-03-26T11:22:39Z</time>
      </trkpt>
      <trkpt lat="42.95762" lon="0.85972">
        <ele>1503</ele>
        <time>2016-03-26T11:22:41Z</time>
      </trkpt>
      <trkpt lat="42.95762" lon="0.85972">
        <ele>1504</ele>
        <time>2016-03-26T11:22:42Z</time>
      </trkpt>
      <trkpt lat="42.95762" lon="0.85974">
        <ele>1504</ele>
        <time>2016-03-26T11:22:44Z</time>
      </trkpt>
      <trkpt lat="42.95763" lon="0.85976">
        <ele>1504</ele>
        <time>2016-03-26T11:22:46Z</time>
      </trkpt>
      <trkpt lat="42.95763" lon="0.85977">
        <ele>1504</ele>
        <time>2016-03-26T11:22:47Z</time>
      </trkpt>
      <trkpt lat="42.95764" lon="0.85978">
        <ele>1505</ele>
        <time>2016-03-26T11:22:49Z</time>
      </trkpt>
      <trkpt lat="42.95765" lon="0.85979">
        <ele>1505</ele>
        <time>2016-03-26T11:22:51Z</time>
      </trkpt>
      <trkpt lat="42.95765" lon="0.85979">
        <ele>1505</ele>
        <time>2016-03-26T11:22:52Z</time>
      </trkpt>
      <trkpt lat="42.95766" lon="0.85981">
        <ele>1506</ele>
        <time>2016-03-26T11:22:55Z</time>
      </trkpt>
      <trkpt lat="42.95767" lon="0.85981">
        <ele>1506</ele>
        <time>2016-03-26T11:22:57Z</time>
      </trkpt>
      <trkpt lat="42.95767" lon="0.85981">
        <ele>1506</ele>
        <time>2016-03-26T11:22:58Z</time>
      </trkpt>
      <trkpt lat="42.95767" lon="0.85981">
        <ele>1506</ele>
        <time>2016-03-26T11:23:24Z</time>
      </trkpt>
      <trkpt lat="42.95767" lon="0.85981">
        <ele>1507</ele>
        <time>2016-03-26T11:23:26Z</time>
      </trkpt>
      <trkpt lat="42.95766" lon="0.85981">
        <ele>1507</ele>
        <time>2016-03-26T11:23:38Z</time>
      </trkpt>
      <trkpt lat="42.95766" lon="0.85983">
        <ele>1507</ele>
        <time>2016-03-26T11:23:40Z</time>
      </trkpt>
      <trkpt lat="42.95766" lon="0.85984">
        <ele>1506</ele>
        <time>2016-03-26T11:23:42Z</time>
      </trkpt>
      <trkpt lat="42.95766" lon="0.85985">
        <ele>1506</ele>
        <time>2016-03-26T11:23:43Z</time>
      </trkpt>
      <trkpt lat="42.95766" lon="0.85987">
        <ele>1506</ele>
        <time>2016-03-26T11:23:46Z</time>
      </trkpt>
      <trkpt lat="42.95767" lon="0.85989">
        <ele>1506</ele>
        <time>2016-03-26T11:23:48Z</time>
      </trkpt>
      <trkpt lat="42.95768" lon="0.8599">
        <ele>1506</ele>
        <time>2016-03-26T11:23:50Z</time>
      </trkpt>
      <trkpt lat="42.95768" lon="0.85991">
        <ele>1506</ele>
        <time>2016-03-26T11:23:52Z</time>
      </trkpt>
      <trkpt lat="42.95768" lon="0.85992">
        <ele>1506</ele>
        <time>2016-03-26T11:23:53Z</time>
      </trkpt>
      <trkpt lat="42.95769" lon="0.85994">
        <ele>1506</ele>
        <time>2016-03-26T11:23:55Z</time>
      </trkpt>
      <trkpt lat="42.9577" lon="0.85995">
        <ele>1506</ele>
        <time>2016-03-26T11:23:57Z</time>
      </trkpt>
      <trkpt lat="42.9577" lon="0.85996">
        <ele>1506</ele>
        <time>2016-03-26T11:23:59Z</time>
      </trkpt>
      <trkpt lat="42.9577" lon="0.85997">
        <ele>1507</ele>
        <time>2016-03-26T11:24:00Z</time>
      </trkpt>
      <trkpt lat="42.9577" lon="0.85999">
        <ele>1507</ele>
        <time>2016-03-26T11:24:02Z</time>
      </trkpt>
      <trkpt lat="42.9577" lon="0.86001">
        <ele>1507</ele>
        <time>2016-03-26T11:24:04Z</time>
      </trkpt>
      <trkpt lat="42.95771" lon="0.86002">
        <ele>1507</ele>
        <time>2016-03-26T11:24:06Z</time>
      </trkpt>
      <trkpt lat="42.95771" lon="0.86002">
        <ele>1508</ele>
        <time>2016-03-26T11:24:07Z</time>
      </trkpt>
      <trkpt lat="42.95772" lon="0.86003">
        <ele>1508</ele>
        <time>2016-03-26T11:24:08Z</time>
      </trkpt>
      <trkpt lat="42.95773" lon="0.86004">
        <ele>1509</ele>
        <time>2016-03-26T11:24:10Z</time>
      </trkpt>
      <trkpt lat="42.95773" lon="0.86006">
        <ele>1509</ele>
        <time>2016-03-26T11:24:12Z</time>
      </trkpt>
      <trkpt lat="42.95773" lon="0.86007">
        <ele>1509</ele>
        <time>2016-03-26T11:24:13Z</time>
      </trkpt>
      <trkpt lat="42.95773" lon="0.86008">
        <ele>1510</ele>
        <time>2016-03-26T11:24:15Z</time>
      </trkpt>
      <trkpt lat="42.95774" lon="0.86009">
        <ele>1510</ele>
        <time>2016-03-26T11:24:16Z</time>
      </trkpt>
      <trkpt lat="42.95774" lon="0.86011">
        <ele>1510</ele>
        <time>2016-03-26T11:24:18Z</time>
      </trkpt>
      <trkpt lat="42.95775" lon="0.86013">
        <ele>1510</ele>
        <time>2016-03-26T11:24:20Z</time>
      </trkpt>
      <trkpt lat="42.95775" lon="0.86013">
        <ele>1511</ele>
        <time>2016-03-26T11:24:21Z</time>
      </trkpt>
      <trkpt lat="42.95775" lon="0.86014">
        <ele>1511</ele>
        <time>2016-03-26T11:24:22Z</time>
      </trkpt>
      <trkpt lat="42.95775" lon="0.86016">
        <ele>1511</ele>
        <time>2016-03-26T11:24:24Z</time>
      </trkpt>
      <trkpt lat="42.95776" lon="0.86018">
        <ele>1511</ele>
        <time>2016-03-26T11:24:26Z</time>
      </trkpt>
      <trkpt lat="42.95776" lon="0.86019">
        <ele>1512</ele>
        <time>2016-03-26T11:24:28Z</time>
      </trkpt>
      <trkpt lat="42.95777" lon="0.86021">
        <ele>1512</ele>
        <time>2016-03-26T11:24:30Z</time>
      </trkpt>
      <trkpt lat="42.95777" lon="0.86022">
        <ele>1512</ele>
        <time>2016-03-26T11:24:31Z</time>
      </trkpt>
      <trkpt lat="42.95778" lon="0.86024">
        <ele>1513</ele>
        <time>2016-03-26T11:24:33Z</time>
      </trkpt>
      <trkpt lat="42.95778" lon="0.86025">
        <ele>1513</ele>
        <time>2016-03-26T11:24:34Z</time>
      </trkpt>
      <trkpt lat="42.95778" lon="0.86027">
        <ele>1513</ele>
        <time>2016-03-26T11:24:36Z</time>
      </trkpt>
      <trkpt lat="42.95778" lon="0.86029">
        <ele>1513</ele>
        <time>2016-03-26T11:24:38Z</time>
      </trkpt>
      <trkpt lat="42.95779" lon="0.8603">
        <ele>1514</ele>
        <time>2016-03-26T11:24:39Z</time>
      </trkpt>
      <trkpt lat="42.95779" lon="0.86032">
        <ele>1514</ele>
        <time>2016-03-26T11:24:41Z</time>
      </trkpt>
      <trkpt lat="42.9578" lon="0.86035">
        <ele>1514</ele>
        <time>2016-03-26T11:24:44Z</time>
      </trkpt>
      <trkpt lat="42.9578" lon="0.86037">
        <ele>1514</ele>
        <time>2016-03-26T11:24:46Z</time>
      </trkpt>
      <trkpt lat="42.95781" lon="0.86039">
        <ele>1515</ele>
        <time>2016-03-26T11:24:48Z</time>
      </trkpt>
      <trkpt lat="42.95781" lon="0.86042">
        <ele>1515</ele>
        <time>2016-03-26T11:24:50Z</time>
      </trkpt>
      <trkpt lat="42.95781" lon="0.86044">
        <ele>1515</ele>
        <time>2016-03-26T11:24:51Z</time>
      </trkpt>
      <trkpt lat="42.95781" lon="0.86046">
        <ele>1515</ele>
        <time>2016-03-26T11:24:53Z</time>
      </trkpt>
      <trkpt lat="42.95781" lon="0.86048">
        <ele>1516</ele>
        <time>2016-03-26T11:24:54Z</time>
      </trkpt>
      <trkpt lat="42.95782" lon="0.86051">
        <ele>1516</ele>
        <time>2016-03-26T11:24:56Z</time>
      </trkpt>
      <trkpt lat="42.95783" lon="0.86052">
        <ele>1516</ele>
        <time>2016-03-26T11:24:57Z</time>
      </trkpt>
      <trkpt lat="42.95783" lon="0.86054">
        <ele>1516</ele>
        <time>2016-03-26T11:24:58Z</time>
      </trkpt>
      <trkpt lat="42.95784" lon="0.86056">
        <ele>1517</ele>
        <time>2016-03-26T11:25:00Z</time>
      </trkpt>
      <trkpt lat="42.95785" lon="0.86059">
        <ele>1517</ele>
        <time>2016-03-26T11:25:02Z</time>
      </trkpt>
      <trkpt lat="42.95786" lon="0.86062">
        <ele>1517</ele>
        <time>2016-03-26T11:25:04Z</time>
      </trkpt>
      <trkpt lat="42.95788" lon="0.86064">
        <ele>1517</ele>
        <time>2016-03-26T11:25:06Z</time>
      </trkpt>
      <trkpt lat="42.95789" lon="0.86067">
        <ele>1517</ele>
        <time>2016-03-26T11:25:08Z</time>
      </trkpt>
      <trkpt lat="42.95789" lon="0.8607">
        <ele>1518</ele>
        <time>2016-03-26T11:25:10Z</time>
      </trkpt>
      <trkpt lat="42.95789" lon="0.86072">
        <ele>1518</ele>
        <time>2016-03-26T11:25:12Z</time>
      </trkpt>
      <trkpt lat="42.95789" lon="0.86074">
        <ele>1518</ele>
        <time>2016-03-26T11:25:13Z</time>
      </trkpt>
      <trkpt lat="42.9579" lon="0.86077">
        <ele>1518</ele>
        <time>2016-03-26T11:25:15Z</time>
      </trkpt>
      <trkpt lat="42.9579" lon="0.86079">
        <ele>1518</ele>
        <time>2016-03-26T11:25:16Z</time>
      </trkpt>
      <trkpt lat="42.95791" lon="0.86081">
        <ele>1519</ele>
        <time>2016-03-26T11:25:18Z</time>
      </trkpt>
      <trkpt lat="42.95792" lon="0.86084">
        <ele>1518</ele>
        <time>2016-03-26T11:25:20Z</time>
      </trkpt>
      <trkpt lat="42.95792" lon="0.86084">
        <ele>1518</ele>
        <time>2016-03-26T11:25:21Z</time>
      </trkpt>
      <trkpt lat="42.95792" lon="0.86084">
        <ele>1518</ele>
        <time>2016-03-26T11:25:23Z</time>
      </trkpt>
      <trkpt lat="42.95792" lon="0.86085">
        <ele>1518</ele>
        <time>2016-03-26T11:25:33Z</time>
      </trkpt>
      <trkpt lat="42.95791" lon="0.86087">
        <ele>1518</ele>
        <time>2016-03-26T11:25:35Z</time>
      </trkpt>
      <trkpt lat="42.95791" lon="0.8609">
        <ele>1518</ele>
        <time>2016-03-26T11:25:37Z</time>
      </trkpt>
      <trkpt lat="42.95792" lon="0.86093">
        <ele>1517</ele>
        <time>2016-03-26T11:25:39Z</time>
      </trkpt>
      <trkpt lat="42.95792" lon="0.86094">
        <ele>1517</ele>
        <time>2016-03-26T11:25:40Z</time>
      </trkpt>
      <trkpt lat="42.95792" lon="0.86097">
        <ele>1517</ele>
        <time>2016-03-26T11:25:42Z</time>
      </trkpt>
      <trkpt lat="42.95792" lon="0.86099">
        <ele>1517</ele>
        <time>2016-03-26T11:25:43Z</time>
      </trkpt>
      <trkpt lat="42.95792" lon="0.86102">
        <ele>1518</ele>
        <time>2016-03-26T11:25:45Z</time>
      </trkpt>
      <trkpt lat="42.95792" lon="0.86106">
        <ele>1518</ele>
        <time>2016-03-26T11:25:47Z</time>
      </trkpt>
      <trkpt lat="42.95792" lon="0.86109">
        <ele>1517</ele>
        <time>2016-03-26T11:25:49Z</time>
      </trkpt>
      <trkpt lat="42.95793" lon="0.86111">
        <ele>1517</ele>
        <time>2016-03-26T11:25:51Z</time>
      </trkpt>
      <trkpt lat="42.95793" lon="0.86114">
        <ele>1517</ele>
        <time>2016-03-26T11:25:53Z</time>
      </trkpt>
      <trkpt lat="42.95794" lon="0.86117">
        <ele>1517</ele>
        <time>2016-03-26T11:25:55Z</time>
      </trkpt>
      <trkpt lat="42.95795" lon="0.8612">
        <ele>1516</ele>
        <time>2016-03-26T11:25:57Z</time>
      </trkpt>
      <trkpt lat="42.95796" lon="0.86122">
        <ele>1516</ele>
        <time>2016-03-26T11:25:59Z</time>
      </trkpt>
      <trkpt lat="42.95796" lon="0.86124">
        <ele>1516</ele>
        <time>2016-03-26T11:26:00Z</time>
      </trkpt>
      <trkpt lat="42.95796" lon="0.86126">
        <ele>1516</ele>
        <time>2016-03-26T11:26:01Z</time>
      </trkpt>
      <trkpt lat="42.95797" lon="0.86128">
        <ele>1516</ele>
        <time>2016-03-26T11:26:02Z</time>
      </trkpt>
      <trkpt lat="42.95798" lon="0.86131">
        <ele>1516</ele>
        <time>2016-03-26T11:26:04Z</time>
      </trkpt>
      <trkpt lat="42.95799" lon="0.86134">
        <ele>1516</ele>
        <time>2016-03-26T11:26:06Z</time>
      </trkpt>
      <trkpt lat="42.95799" lon="0.86135">
        <ele>1516</ele>
        <time>2016-03-26T11:26:07Z</time>
      </trkpt>
      <trkpt lat="42.958" lon="0.86138">
        <ele>1517</ele>
        <time>2016-03-26T11:26:09Z</time>
      </trkpt>
      <trkpt lat="42.95799" lon="0.8614">
        <ele>1517</ele>
        <time>2016-03-26T11:26:11Z</time>
      </trkpt>
      <trkpt lat="42.958" lon="0.86142">
        <ele>1516</ele>
        <time>2016-03-26T11:26:14Z</time>
      </trkpt>
      <trkpt lat="42.95801" lon="0.86143">
        <ele>1516</ele>
        <time>2016-03-26T11:26:16Z</time>
      </trkpt>
      <trkpt lat="42.95802" lon="0.86145">
        <ele>1516</ele>
        <time>2016-03-26T11:26:18Z</time>
      </trkpt>
      <trkpt lat="42.95803" lon="0.86147">
        <ele>1516</ele>
        <time>2016-03-26T11:26:20Z</time>
      </trkpt>
      <trkpt lat="42.95803" lon="0.86149">
        <ele>1516</ele>
        <time>2016-03-26T11:26:22Z</time>
      </trkpt>
      <trkpt lat="42.95803" lon="0.86151">
        <ele>1516</ele>
        <time>2016-03-26T11:26:24Z</time>
      </trkpt>
      <trkpt lat="42.95804" lon="0.86153">
        <ele>1516</ele>
        <time>2016-03-26T11:26:26Z</time>
      </trkpt>
      <trkpt lat="42.95805" lon="0.86155">
        <ele>1516</ele>
        <time>2016-03-26T11:26:28Z</time>
      </trkpt>
      <trkpt lat="42.95806" lon="0.86157">
        <ele>1516</ele>
        <time>2016-03-26T11:26:30Z</time>
      </trkpt>
      <trkpt lat="42.95806" lon="0.86158">
        <ele>1516</ele>
        <time>2016-03-26T11:26:32Z</time>
      </trkpt>
      <trkpt lat="42.95806" lon="0.86158">
        <ele>1516</ele>
        <time>2016-03-26T11:27:06Z</time>
      </trkpt>
      <trkpt lat="42.95806" lon="0.86158">
        <ele>1516</ele>
        <time>2016-03-26T11:27:08Z</time>
      </trkpt>
      <trkpt lat="42.95806" lon="0.86158">
        <ele>1516</ele>
        <time>2016-03-26T11:27:30Z</time>
      </trkpt>
      <trkpt lat="42.95806" lon="0.86158">
        <ele>1516</ele>
        <time>2016-03-26T11:27:31Z</time>
      </trkpt>
      <trkpt lat="42.95806" lon="0.86158">
        <ele>1516</ele>
        <time>2016-03-26T11:27:50Z</time>
      </trkpt>
      <trkpt lat="42.95806" lon="0.86158">
        <ele>1516</ele>
        <time>2016-03-26T11:27:52Z</time>
      </trkpt>
      <trkpt lat="42.95806" lon="0.86158">
        <ele>1516</ele>
        <time>2016-03-26T11:28:12Z</time>
      </trkpt>
      <trkpt lat="42.95806" lon="0.86158">
        <ele>1516</ele>
        <time>2016-03-26T11:28:14Z</time>
      </trkpt>
      <trkpt lat="42.95804" lon="0.8617">
        <ele>1517</ele>
        <time>2016-03-26T11:28:58Z</time>
      </trkpt>
      <trkpt lat="42.95804" lon="0.86174">
        <ele>1517</ele>
        <time>2016-03-26T11:29:00Z</time>
      </trkpt>
      <trkpt lat="42.95804" lon="0.86178">
        <ele>1516</ele>
        <time>2016-03-26T11:29:02Z</time>
      </trkpt>
      <trkpt lat="42.95804" lon="0.86181">
        <ele>1516</ele>
        <time>2016-03-26T11:29:04Z</time>
      </trkpt>
      <trkpt lat="42.95804" lon="0.86183">
        <ele>1515</ele>
        <time>2016-03-26T11:29:05Z</time>
      </trkpt>
      <trkpt lat="42.95804" lon="0.86185">
        <ele>1515</ele>
        <time>2016-03-26T11:29:06Z</time>
      </trkpt>
      <trkpt lat="42.95804" lon="0.86188">
        <ele>1514</ele>
        <time>2016-03-26T11:29:08Z</time>
      </trkpt>
      <trkpt lat="42.95804" lon="0.86192">
        <ele>1514</ele>
        <time>2016-03-26T11:29:10Z</time>
      </trkpt>
      <trkpt lat="42.95806" lon="0.86195">
        <ele>1513</ele>
        <time>2016-03-26T11:29:12Z</time>
      </trkpt>
      <trkpt lat="42.95807" lon="0.86198">
        <ele>1513</ele>
        <time>2016-03-26T11:29:14Z</time>
      </trkpt>
      <trkpt lat="42.95807" lon="0.86201">
        <ele>1513</ele>
        <time>2016-03-26T11:29:16Z</time>
      </trkpt>
      <trkpt lat="42.95808" lon="0.86205">
        <ele>1513</ele>
        <time>2016-03-26T11:29:18Z</time>
      </trkpt>
      <trkpt lat="42.9581" lon="0.86207">
        <ele>1513</ele>
        <time>2016-03-26T11:29:20Z</time>
      </trkpt>
      <trkpt lat="42.9581" lon="0.8621">
        <ele>1514</ele>
        <time>2016-03-26T11:29:22Z</time>
      </trkpt>
      <trkpt lat="42.95811" lon="0.86213">
        <ele>1514</ele>
        <time>2016-03-26T11:29:24Z</time>
      </trkpt>
      <trkpt lat="42.95812" lon="0.86216">
        <ele>1515</ele>
        <time>2016-03-26T11:29:26Z</time>
      </trkpt>
      <trkpt lat="42.95812" lon="0.86218">
        <ele>1515</ele>
        <time>2016-03-26T11:29:28Z</time>
      </trkpt>
      <trkpt lat="42.95812" lon="0.86222">
        <ele>1516</ele>
        <time>2016-03-26T11:29:30Z</time>
      </trkpt>
      <trkpt lat="42.95813" lon="0.86226">
        <ele>1517</ele>
        <time>2016-03-26T11:29:32Z</time>
      </trkpt>
      <trkpt lat="42.95813" lon="0.86229">
        <ele>1517</ele>
        <time>2016-03-26T11:29:34Z</time>
      </trkpt>
      <trkpt lat="42.95813" lon="0.86231">
        <ele>1517</ele>
        <time>2016-03-26T11:29:35Z</time>
      </trkpt>
      <trkpt lat="42.95813" lon="0.86233">
        <ele>1518</ele>
        <time>2016-03-26T11:29:36Z</time>
      </trkpt>
      <trkpt lat="42.95813" lon="0.86235">
        <ele>1518</ele>
        <time>2016-03-26T11:29:37Z</time>
      </trkpt>
      <trkpt lat="42.95812" lon="0.86237">
        <ele>1518</ele>
        <time>2016-03-26T11:29:38Z</time>
      </trkpt>
      <trkpt lat="42.95812" lon="0.8624">
        <ele>1518</ele>
        <time>2016-03-26T11:29:40Z</time>
      </trkpt>
      <trkpt lat="42.95811" lon="0.86244">
        <ele>1518</ele>
        <time>2016-03-26T11:29:42Z</time>
      </trkpt>
      <trkpt lat="42.9581" lon="0.86245">
        <ele>1518</ele>
        <time>2016-03-26T11:29:43Z</time>
      </trkpt>
      <trkpt lat="42.9581" lon="0.86249">
        <ele>1518</ele>
        <time>2016-03-26T11:29:45Z</time>
      </trkpt>
      <trkpt lat="42.9581" lon="0.86251">
        <ele>1518</ele>
        <time>2016-03-26T11:29:46Z</time>
      </trkpt>
      <trkpt lat="42.95809" lon="0.86256">
        <ele>1518</ele>
        <time>2016-03-26T11:29:49Z</time>
      </trkpt>
      <trkpt lat="42.95808" lon="0.8626">
        <ele>1518</ele>
        <time>2016-03-26T11:29:51Z</time>
      </trkpt>
      <trkpt lat="42.95808" lon="0.86262">
        <ele>1517</ele>
        <time>2016-03-26T11:29:52Z</time>
      </trkpt>
      <trkpt lat="42.95808" lon="0.86266">
        <ele>1517</ele>
        <time>2016-03-26T11:29:54Z</time>
      </trkpt>
      <trkpt lat="42.9581" lon="0.86269">
        <ele>1517</ele>
        <time>2016-03-26T11:29:56Z</time>
      </trkpt>
      <trkpt lat="42.9581" lon="0.86273">
        <ele>1517</ele>
        <time>2016-03-26T11:29:58Z</time>
      </trkpt>
      <trkpt lat="42.9581" lon="0.86277">
        <ele>1517</ele>
        <time>2016-03-26T11:30:00Z</time>
      </trkpt>
      <trkpt lat="42.95811" lon="0.8628">
        <ele>1517</ele>
        <time>2016-03-26T11:30:02Z</time>
      </trkpt>
      <trkpt lat="42.95812" lon="0.86283">
        <ele>1518</ele>
        <time>2016-03-26T11:30:04Z</time>
      </trkpt>
      <trkpt lat="42.95813" lon="0.86286">
        <ele>1518</ele>
        <time>2016-03-26T11:30:06Z</time>
      </trkpt>
      <trkpt lat="42.95813" lon="0.86288">
        <ele>1518</ele>
        <time>2016-03-26T11:30:08Z</time>
      </trkpt>
      <trkpt lat="42.95814" lon="0.86292">
        <ele>1518</ele>
        <time>2016-03-26T11:30:10Z</time>
      </trkpt>
      <trkpt lat="42.95815" lon="0.86295">
        <ele>1518</ele>
        <time>2016-03-26T11:30:12Z</time>
      </trkpt>
      <trkpt lat="42.95815" lon="0.86297">
        <ele>1517</ele>
        <time>2016-03-26T11:30:13Z</time>
      </trkpt>
      <trkpt lat="42.95816" lon="0.863">
        <ele>1517</ele>
        <time>2016-03-26T11:30:15Z</time>
      </trkpt>
      <trkpt lat="42.95816" lon="0.86302">
        <ele>1517</ele>
        <time>2016-03-26T11:30:16Z</time>
      </trkpt>
      <trkpt lat="42.95816" lon="0.86306">
        <ele>1517</ele>
        <time>2016-03-26T11:30:18Z</time>
      </trkpt>
      <trkpt lat="42.95817" lon="0.86308">
        <ele>1517</ele>
        <time>2016-03-26T11:30:19Z</time>
      </trkpt>
      <trkpt lat="42.95818" lon="0.86309">
        <ele>1517</ele>
        <time>2016-03-26T11:30:20Z</time>
      </trkpt>
      <trkpt lat="42.95818" lon="0.8631">
        <ele>1517</ele>
        <time>2016-03-26T11:30:21Z</time>
      </trkpt>
      <trkpt lat="42.9582" lon="0.86313">
        <ele>1517</ele>
        <time>2016-03-26T11:30:23Z</time>
      </trkpt>
      <trkpt lat="42.95821" lon="0.86316">
        <ele>1517</ele>
        <time>2016-03-26T11:30:25Z</time>
      </trkpt>
      <trkpt lat="42.95821" lon="0.86318">
        <ele>1517</ele>
        <time>2016-03-26T11:30:26Z</time>
      </trkpt>
      <trkpt lat="42.95822" lon="0.86322">
        <ele>1517</ele>
        <time>2016-03-26T11:30:28Z</time>
      </trkpt>
      <trkpt lat="42.95821" lon="0.86325">
        <ele>1517</ele>
        <time>2016-03-26T11:30:30Z</time>
      </trkpt>
      <trkpt lat="42.95822" lon="0.86327">
        <ele>1517</ele>
        <time>2016-03-26T11:30:31Z</time>
      </trkpt>
      <trkpt lat="42.95823" lon="0.86331">
        <ele>1517</ele>
        <time>2016-03-26T11:30:33Z</time>
      </trkpt>
      <trkpt lat="42.95823" lon="0.86332">
        <ele>1517</ele>
        <time>2016-03-26T11:30:34Z</time>
      </trkpt>
      <trkpt lat="42.95824" lon="0.86336">
        <ele>1517</ele>
        <time>2016-03-26T11:30:36Z</time>
      </trkpt>
      <trkpt lat="42.95826" lon="0.8634">
        <ele>1517</ele>
        <time>2016-03-26T11:30:38Z</time>
      </trkpt>
      <trkpt lat="42.95826" lon="0.86343">
        <ele>1517</ele>
        <time>2016-03-26T11:30:40Z</time>
      </trkpt>
      <trkpt lat="42.95827" lon="0.86347">
        <ele>1518</ele>
        <time>2016-03-26T11:30:42Z</time>
      </trkpt>
      <trkpt lat="42.95827" lon="0.86351">
        <ele>1518</ele>
        <time>2016-03-26T11:30:44Z</time>
      </trkpt>
      <trkpt lat="42.95828" lon="0.86354">
        <ele>1518</ele>
        <time>2016-03-26T11:30:46Z</time>
      </trkpt>
      <trkpt lat="42.95828" lon="0.86357">
        <ele>1519</ele>
        <time>2016-03-26T11:30:48Z</time>
      </trkpt>
      <trkpt lat="42.95828" lon="0.86359">
        <ele>1519</ele>
        <time>2016-03-26T11:30:49Z</time>
      </trkpt>
      <trkpt lat="42.95828" lon="0.8636">
        <ele>1519</ele>
        <time>2016-03-26T11:30:50Z</time>
      </trkpt>
      <trkpt lat="42.95829" lon="0.86363">
        <ele>1520</ele>
        <time>2016-03-26T11:30:52Z</time>
      </trkpt>
      <trkpt lat="42.95829" lon="0.86367">
        <ele>1520</ele>
        <time>2016-03-26T11:30:54Z</time>
      </trkpt>
      <trkpt lat="42.95829" lon="0.86368">
        <ele>1520</ele>
        <time>2016-03-26T11:30:55Z</time>
      </trkpt>
      <trkpt lat="42.95829" lon="0.86372">
        <ele>1520</ele>
        <time>2016-03-26T11:30:57Z</time>
      </trkpt>
      <trkpt lat="42.95829" lon="0.86373">
        <ele>1520</ele>
        <time>2016-03-26T11:30:58Z</time>
      </trkpt>
      <trkpt lat="42.95829" lon="0.86377">
        <ele>1520</ele>
        <time>2016-03-26T11:31:00Z</time>
      </trkpt>
      <trkpt lat="42.95829" lon="0.86378">
        <ele>1520</ele>
        <time>2016-03-26T11:31:01Z</time>
      </trkpt>
      <trkpt lat="42.95829" lon="0.8638">
        <ele>1521</ele>
        <time>2016-03-26T11:31:02Z</time>
      </trkpt>
      <trkpt lat="42.95829" lon="0.86384">
        <ele>1521</ele>
        <time>2016-03-26T11:31:04Z</time>
      </trkpt>
      <trkpt lat="42.95829" lon="0.86387">
        <ele>1521</ele>
        <time>2016-03-26T11:31:06Z</time>
      </trkpt>
      <trkpt lat="42.9583" lon="0.8639">
        <ele>1521</ele>
        <time>2016-03-26T11:31:08Z</time>
      </trkpt>
      <trkpt lat="42.95831" lon="0.86394">
        <ele>1521</ele>
        <time>2016-03-26T11:31:10Z</time>
      </trkpt>
      <trkpt lat="42.95833" lon="0.86399">
        <ele>1521</ele>
        <time>2016-03-26T11:31:13Z</time>
      </trkpt>
      <trkpt lat="42.95834" lon="0.86402">
        <ele>1521</ele>
        <time>2016-03-26T11:31:15Z</time>
      </trkpt>
      <trkpt lat="42.95834" lon="0.86403">
        <ele>1521</ele>
        <time>2016-03-26T11:31:16Z</time>
      </trkpt>
      <trkpt lat="42.95835" lon="0.86406">
        <ele>1522</ele>
        <time>2016-03-26T11:31:18Z</time>
      </trkpt>
      <trkpt lat="42.95836" lon="0.8641">
        <ele>1522</ele>
        <time>2016-03-26T11:31:20Z</time>
      </trkpt>
      <trkpt lat="42.95836" lon="0.86413">
        <ele>1522</ele>
        <time>2016-03-26T11:31:22Z</time>
      </trkpt>
      <trkpt lat="42.95836" lon="0.86417">
        <ele>1522</ele>
        <time>2016-03-26T11:31:24Z</time>
      </trkpt>
      <trkpt lat="42.95836" lon="0.8642">
        <ele>1522</ele>
        <time>2016-03-26T11:31:26Z</time>
      </trkpt>
      <trkpt lat="42.95835" lon="0.86423">
        <ele>1523</ele>
        <time>2016-03-26T11:31:28Z</time>
      </trkpt>
      <trkpt lat="42.95835" lon="0.86427">
        <ele>1523</ele>
        <time>2016-03-26T11:31:30Z</time>
      </trkpt>
      <trkpt lat="42.95836" lon="0.8643">
        <ele>1522</ele>
        <time>2016-03-26T11:31:32Z</time>
      </trkpt>
      <trkpt lat="42.95836" lon="0.86432">
        <ele>1522</ele>
        <time>2016-03-26T11:31:33Z</time>
      </trkpt>
      <trkpt lat="42.95836" lon="0.86435">
        <ele>1522</ele>
        <time>2016-03-26T11:31:35Z</time>
      </trkpt>
      <trkpt lat="42.95837" lon="0.86438">
        <ele>1522</ele>
        <time>2016-03-26T11:31:37Z</time>
      </trkpt>
      <trkpt lat="42.95837" lon="0.86441">
        <ele>1522</ele>
        <time>2016-03-26T11:31:39Z</time>
      </trkpt>
      <trkpt lat="42.95837" lon="0.86443">
        <ele>1522</ele>
        <time>2016-03-26T11:31:41Z</time>
      </trkpt>
      <trkpt lat="42.95838" lon="0.86445">
        <ele>1522</ele>
        <time>2016-03-26T11:31:43Z</time>
      </trkpt>
      <trkpt lat="42.95838" lon="0.86448">
        <ele>1522</ele>
        <time>2016-03-26T11:31:45Z</time>
      </trkpt>
      <trkpt lat="42.95838" lon="0.86449">
        <ele>1522</ele>
        <time>2016-03-26T11:31:46Z</time>
      </trkpt>
      <trkpt lat="42.95838" lon="0.86451">
        <ele>1522</ele>
        <time>2016-03-26T11:31:48Z</time>
      </trkpt>
      <trkpt lat="42.95839" lon="0.86454">
        <ele>1522</ele>
        <time>2016-03-26T11:31:50Z</time>
      </trkpt>
      <trkpt lat="42.95839" lon="0.86457">
        <ele>1522</ele>
        <time>2016-03-26T11:31:52Z</time>
      </trkpt>
      <trkpt lat="42.95839" lon="0.8646">
        <ele>1522</ele>
        <time>2016-03-26T11:31:54Z</time>
      </trkpt>
      <trkpt lat="42.95839" lon="0.86461">
        <ele>1521</ele>
        <time>2016-03-26T11:31:55Z</time>
      </trkpt>
      <trkpt lat="42.95839" lon="0.86462">
        <ele>1521</ele>
        <time>2016-03-26T11:31:57Z</time>
      </trkpt>
      <trkpt lat="42.95839" lon="0.86463">
        <ele>1521</ele>
        <time>2016-03-26T11:31:58Z</time>
      </trkpt>
      <trkpt lat="42.9584" lon="0.86466">
        <ele>1521</ele>
        <time>2016-03-26T11:32:00Z</time>
      </trkpt>
      <trkpt lat="42.95841" lon="0.86469">
        <ele>1521</ele>
        <time>2016-03-26T11:32:02Z</time>
      </trkpt>
      <trkpt lat="42.95841" lon="0.86471">
        <ele>1521</ele>
        <time>2016-03-26T11:32:04Z</time>
      </trkpt>
      <trkpt lat="42.95842" lon="0.86474">
        <ele>1521</ele>
        <time>2016-03-26T11:32:06Z</time>
      </trkpt>
      <trkpt lat="42.95844" lon="0.86476">
        <ele>1521</ele>
        <time>2016-03-26T11:32:08Z</time>
      </trkpt>
      <trkpt lat="42.95844" lon="0.86478">
        <ele>1521</ele>
        <time>2016-03-26T11:32:09Z</time>
      </trkpt>
      <trkpt lat="42.95844" lon="0.86479">
        <ele>1521</ele>
        <time>2016-03-26T11:32:10Z</time>
      </trkpt>
      <trkpt lat="42.95844" lon="0.86481">
        <ele>1521</ele>
        <time>2016-03-26T11:32:12Z</time>
      </trkpt>
      <trkpt lat="42.95845" lon="0.86484">
        <ele>1521</ele>
        <time>2016-03-26T11:32:14Z</time>
      </trkpt>
      <trkpt lat="42.95845" lon="0.86485">
        <ele>1521</ele>
        <time>2016-03-26T11:32:15Z</time>
      </trkpt>
      <trkpt lat="42.95845" lon="0.86485">
        <ele>1521</ele>
        <time>2016-03-26T11:32:16Z</time>
      </trkpt>
      <trkpt lat="42.95845" lon="0.86487">
        <ele>1521</ele>
        <time>2016-03-26T11:32:18Z</time>
      </trkpt>
      <trkpt lat="42.95846" lon="0.8649">
        <ele>1521</ele>
        <time>2016-03-26T11:32:20Z</time>
      </trkpt>
      <trkpt lat="42.95847" lon="0.86492">
        <ele>1521</ele>
        <time>2016-03-26T11:32:22Z</time>
      </trkpt>
      <trkpt lat="42.95848" lon="0.86494">
        <ele>1521</ele>
        <time>2016-03-26T11:32:24Z</time>
      </trkpt>
      <trkpt lat="42.95849" lon="0.86496">
        <ele>1521</ele>
        <time>2016-03-26T11:32:26Z</time>
      </trkpt>
      <trkpt lat="42.95849" lon="0.86499">
        <ele>1521</ele>
        <time>2016-03-26T11:32:28Z</time>
      </trkpt>
      <trkpt lat="42.9585" lon="0.86501">
        <ele>1521</ele>
        <time>2016-03-26T11:32:30Z</time>
      </trkpt>
      <trkpt lat="42.95851" lon="0.86503">
        <ele>1522</ele>
        <time>2016-03-26T11:32:32Z</time>
      </trkpt>
      <trkpt lat="42.95851" lon="0.86504">
        <ele>1522</ele>
        <time>2016-03-26T11:32:33Z</time>
      </trkpt>
      <trkpt lat="42.95851" lon="0.86505">
        <ele>1522</ele>
        <time>2016-03-26T11:32:34Z</time>
      </trkpt>
      <trkpt lat="42.95852" lon="0.86507">
        <ele>1522</ele>
        <time>2016-03-26T11:32:36Z</time>
      </trkpt>
      <trkpt lat="42.95852" lon="0.8651">
        <ele>1522</ele>
        <time>2016-03-26T11:32:38Z</time>
      </trkpt>
      <trkpt lat="42.95852" lon="0.86511">
        <ele>1521</ele>
        <time>2016-03-26T11:32:39Z</time>
      </trkpt>
      <trkpt lat="42.95853" lon="0.86512">
        <ele>1521</ele>
        <time>2016-03-26T11:32:40Z</time>
      </trkpt>
      <trkpt lat="42.95853" lon="0.86515">
        <ele>1521</ele>
        <time>2016-03-26T11:32:42Z</time>
      </trkpt>
      <trkpt lat="42.95853" lon="0.86518">
        <ele>1521</ele>
        <time>2016-03-26T11:32:44Z</time>
      </trkpt>
      <trkpt lat="42.95853" lon="0.8652">
        <ele>1521</ele>
        <time>2016-03-26T11:32:46Z</time>
      </trkpt>
      <trkpt lat="42.95854" lon="0.86521">
        <ele>1521</ele>
        <time>2016-03-26T11:32:47Z</time>
      </trkpt>
      <trkpt lat="42.95854" lon="0.86523">
        <ele>1521</ele>
        <time>2016-03-26T11:32:48Z</time>
      </trkpt>
      <trkpt lat="42.95855" lon="0.86526">
        <ele>1521</ele>
        <time>2016-03-26T11:32:50Z</time>
      </trkpt>
      <trkpt lat="42.95855" lon="0.86528">
        <ele>1520</ele>
        <time>2016-03-26T11:32:52Z</time>
      </trkpt>
      <trkpt lat="42.95856" lon="0.86531">
        <ele>1520</ele>
        <time>2016-03-26T11:32:54Z</time>
      </trkpt>
      <trkpt lat="42.95857" lon="0.86533">
        <ele>1520</ele>
        <time>2016-03-26T11:32:56Z</time>
      </trkpt>
      <trkpt lat="42.95857" lon="0.86536">
        <ele>1520</ele>
        <time>2016-03-26T11:32:58Z</time>
      </trkpt>
      <trkpt lat="42.95858" lon="0.86538">
        <ele>1520</ele>
        <time>2016-03-26T11:33:00Z</time>
      </trkpt>
      <trkpt lat="42.95859" lon="0.8654">
        <ele>1520</ele>
        <time>2016-03-26T11:33:02Z</time>
      </trkpt>
      <trkpt lat="42.9586" lon="0.86542">
        <ele>1520</ele>
        <time>2016-03-26T11:33:04Z</time>
      </trkpt>
      <trkpt lat="42.95859" lon="0.86546">
        <ele>1520</ele>
        <time>2016-03-26T11:33:06Z</time>
      </trkpt>
      <trkpt lat="42.95859" lon="0.86547">
        <ele>1520</ele>
        <time>2016-03-26T11:33:07Z</time>
      </trkpt>
      <trkpt lat="42.9586" lon="0.86548">
        <ele>1520</ele>
        <time>2016-03-26T11:33:08Z</time>
      </trkpt>
      <trkpt lat="42.9586" lon="0.8655">
        <ele>1520</ele>
        <time>2016-03-26T11:33:10Z</time>
      </trkpt>
      <trkpt lat="42.9586" lon="0.8655">
        <ele>1520</ele>
        <time>2016-03-26T11:33:12Z</time>
      </trkpt>
      <trkpt lat="42.95859" lon="0.8655">
        <ele>1520</ele>
        <time>2016-03-26T11:33:14Z</time>
      </trkpt>
      <trkpt lat="42.95859" lon="0.86551">
        <ele>1520</ele>
        <time>2016-03-26T11:33:32Z</time>
      </trkpt>
      <trkpt lat="42.9586" lon="0.86551">
        <ele>1520</ele>
        <time>2016-03-26T11:33:33Z</time>
      </trkpt>
      <trkpt lat="42.9586" lon="0.86551">
        <ele>1520</ele>
        <time>2016-03-26T11:33:34Z</time>
      </trkpt>
      <trkpt lat="42.9586" lon="0.86552">
        <ele>1520</ele>
        <time>2016-03-26T11:33:36Z</time>
      </trkpt>
      <trkpt lat="42.95861" lon="0.86552">
        <ele>1520</ele>
        <time>2016-03-26T11:33:37Z</time>
      </trkpt>
      <trkpt lat="42.95861" lon="0.86553">
        <ele>1520</ele>
        <time>2016-03-26T11:33:39Z</time>
      </trkpt>
      <trkpt lat="42.95862" lon="0.86552">
        <ele>1520</ele>
        <time>2016-03-26T11:33:50Z</time>
      </trkpt>
      <trkpt lat="42.95863" lon="0.86551">
        <ele>1520</ele>
        <time>2016-03-26T11:33:52Z</time>
      </trkpt>
      <trkpt lat="42.95862" lon="0.86551">
        <ele>1520</ele>
        <time>2016-03-26T11:33:54Z</time>
      </trkpt>
      <trkpt lat="42.95862" lon="0.86549">
        <ele>1520</ele>
        <time>2016-03-26T11:34:02Z</time>
      </trkpt>
      <trkpt lat="42.95861" lon="0.86548">
        <ele>1520</ele>
        <time>2016-03-26T11:34:03Z</time>
      </trkpt>
      <trkpt lat="42.9586" lon="0.86548">
        <ele>1520</ele>
        <time>2016-03-26T11:34:05Z</time>
      </trkpt>
      <trkpt lat="42.95858" lon="0.86548">
        <ele>1520</ele>
        <time>2016-03-26T11:34:07Z</time>
      </trkpt>
      <trkpt lat="42.95858" lon="0.86549">
        <ele>1521</ele>
        <time>2016-03-26T11:34:09Z</time>
      </trkpt>
      <trkpt lat="42.95858" lon="0.8655">
        <ele>1521</ele>
        <time>2016-03-26T11:34:10Z</time>
      </trkpt>
      <trkpt lat="42.95858" lon="0.8655">
        <ele>1521</ele>
        <time>2016-03-26T11:34:32Z</time>
      </trkpt>
      <trkpt lat="42.95858" lon="0.8655">
        <ele>1521</ele>
        <time>2016-03-26T11:34:34Z</time>
      </trkpt>
      <trkpt lat="42.95858" lon="0.8655">
        <ele>1521</ele>
        <time>2016-03-26T11:34:55Z</time>
      </trkpt>
      <trkpt lat="42.95858" lon="0.8655">
        <ele>1521</ele>
        <time>2016-03-26T11:34:57Z</time>
      </trkpt>
      <trkpt lat="42.95858" lon="0.8655">
        <ele>1521</ele>
        <time>2016-03-26T11:35:18Z</time>
      </trkpt>
      <trkpt lat="42.95858" lon="0.8655">
        <ele>1521</ele>
        <time>2016-03-26T11:35:20Z</time>
      </trkpt>
      <trkpt lat="42.95858" lon="0.8655">
        <ele>1521</ele>
        <time>2016-03-26T11:35:40Z</time>
      </trkpt>
      <trkpt lat="42.95858" lon="0.8655">
        <ele>1521</ele>
        <time>2016-03-26T11:35:42Z</time>
      </trkpt>
      <trkpt lat="42.95858" lon="0.8655">
        <ele>1521</ele>
        <time>2016-03-26T11:36:00Z</time>
      </trkpt>
      <trkpt lat="42.95858" lon="0.8655">
        <ele>1521</ele>
        <time>2016-03-26T11:36:02Z</time>
      </trkpt>
      <trkpt lat="42.95861" lon="0.86552">
        <ele>1520</ele>
        <time>2016-03-26T11:40:02Z</time>
      </trkpt>
      <trkpt lat="42.95861" lon="0.86552">
        <ele>1520</ele>
        <time>2016-03-26T11:40:20Z</time>
      </trkpt>
      <trkpt lat="42.95861" lon="0.86552">
        <ele>1520</ele>
        <time>2016-03-26T11:40:22Z</time>
      </trkpt>
      <trkpt lat="42.95861" lon="0.86552">
        <ele>1520</ele>
        <time>2016-03-26T11:40:42Z</time>
      </trkpt>
      <trkpt lat="42.95861" lon="0.86552">
        <ele>1520</ele>
        <time>2016-03-26T11:40:44Z</time>
      </trkpt>
      <trkpt lat="42.95861" lon="0.86551">
        <ele>1520</ele>
        <time>2016-03-26T11:40:54Z</time>
      </trkpt>
      <trkpt lat="42.95861" lon="0.86551">
        <ele>1520</ele>
        <time>2016-03-26T11:40:56Z</time>
      </trkpt>
      <trkpt lat="42.95861" lon="0.86551">
        <ele>1520</ele>
        <time>2016-03-26T11:41:28Z</time>
      </trkpt>
      <trkpt lat="42.95861" lon="0.86551">
        <ele>1520</ele>
        <time>2016-03-26T11:41:29Z</time>
      </trkpt>
      <trkpt lat="42.95861" lon="0.8655">
        <ele>1520</ele>
        <time>2016-03-26T11:41:31Z</time>
      </trkpt>
      <trkpt lat="42.95861" lon="0.8655">
        <ele>1519</ele>
        <time>2016-03-26T11:41:32Z</time>
      </trkpt>
      <trkpt lat="42.9586" lon="0.86549">
        <ele>1519</ele>
        <time>2016-03-26T11:41:34Z</time>
      </trkpt>
      <trkpt lat="42.95859" lon="0.8655">
        <ele>1519</ele>
        <time>2016-03-26T11:41:36Z</time>
      </trkpt>
      <trkpt lat="42.95859" lon="0.8655">
        <ele>1519</ele>
        <time>2016-03-26T11:41:37Z</time>
      </trkpt>
      <trkpt lat="42.95858" lon="0.86548">
        <ele>1519</ele>
        <time>2016-03-26T11:42:04Z</time>
      </trkpt>
      <trkpt lat="42.95858" lon="0.86547">
        <ele>1518</ele>
        <time>2016-03-26T11:42:06Z</time>
      </trkpt>
      <trkpt lat="42.95858" lon="0.86547">
        <ele>1518</ele>
        <time>2016-03-26T11:42:07Z</time>
      </trkpt>
      <trkpt lat="42.95857" lon="0.86545">
        <ele>1518</ele>
        <time>2016-03-26T11:42:09Z</time>
      </trkpt>
      <trkpt lat="42.95857" lon="0.86544">
        <ele>1518</ele>
        <time>2016-03-26T11:42:10Z</time>
      </trkpt>
      <trkpt lat="42.95857" lon="0.86542">
        <ele>1518</ele>
        <time>2016-03-26T11:42:12Z</time>
      </trkpt>
      <trkpt lat="42.95857" lon="0.86541">
        <ele>1518</ele>
        <time>2016-03-26T11:42:13Z</time>
      </trkpt>
      <trkpt lat="42.95857" lon="0.8654">
        <ele>1518</ele>
        <time>2016-03-26T11:42:14Z</time>
      </trkpt>
      <trkpt lat="42.95856" lon="0.86537">
        <ele>1518</ele>
        <time>2016-03-26T11:42:16Z</time>
      </trkpt>
      <trkpt lat="42.95855" lon="0.86535">
        <ele>1518</ele>
        <time>2016-03-26T11:42:18Z</time>
      </trkpt>
      <trkpt lat="42.95854" lon="0.86534">
        <ele>1518</ele>
        <time>2016-03-26T11:42:19Z</time>
      </trkpt>
      <trkpt lat="42.95854" lon="0.86533">
        <ele>1518</ele>
        <time>2016-03-26T11:42:20Z</time>
      </trkpt>
      <trkpt lat="42.95853" lon="0.8653">
        <ele>1518</ele>
        <time>2016-03-26T11:42:23Z</time>
      </trkpt>
      <trkpt lat="42.95852" lon="0.86528">
        <ele>1518</ele>
        <time>2016-03-26T11:42:25Z</time>
      </trkpt>
      <trkpt lat="42.95851" lon="0.86526">
        <ele>1518</ele>
        <time>2016-03-26T11:42:27Z</time>
      </trkpt>
      <trkpt lat="42.95851" lon="0.86525">
        <ele>1518</ele>
        <time>2016-03-26T11:42:28Z</time>
      </trkpt>
      <trkpt lat="42.95851" lon="0.86523">
        <ele>1518</ele>
        <time>2016-03-26T11:42:30Z</time>
      </trkpt>
      <trkpt lat="42.9585" lon="0.86521">
        <ele>1518</ele>
        <time>2016-03-26T11:42:32Z</time>
      </trkpt>
      <trkpt lat="42.9585" lon="0.86519">
        <ele>1518</ele>
        <time>2016-03-26T11:42:34Z</time>
      </trkpt>
      <trkpt lat="42.9585" lon="0.86516">
        <ele>1518</ele>
        <time>2016-03-26T11:42:36Z</time>
      </trkpt>
      <trkpt lat="42.95849" lon="0.86514">
        <ele>1518</ele>
        <time>2016-03-26T11:42:38Z</time>
      </trkpt>
      <trkpt lat="42.95849" lon="0.86511">
        <ele>1519</ele>
        <time>2016-03-26T11:42:40Z</time>
      </trkpt>
      <trkpt lat="42.95849" lon="0.86508">
        <ele>1519</ele>
        <time>2016-03-26T11:42:42Z</time>
      </trkpt>
      <trkpt lat="42.95848" lon="0.86505">
        <ele>1519</ele>
        <time>2016-03-26T11:42:44Z</time>
      </trkpt>
      <trkpt lat="42.95848" lon="0.86503">
        <ele>1519</ele>
        <time>2016-03-26T11:42:46Z</time>
      </trkpt>
      <trkpt lat="42.95848" lon="0.865">
        <ele>1519</ele>
        <time>2016-03-26T11:42:48Z</time>
      </trkpt>
      <trkpt lat="42.95847" lon="0.86499">
        <ele>1519</ele>
        <time>2016-03-26T11:42:49Z</time>
      </trkpt>
      <trkpt lat="42.95847" lon="0.86496">
        <ele>1519</ele>
        <time>2016-03-26T11:42:51Z</time>
      </trkpt>
      <trkpt lat="42.95846" lon="0.86495">
        <ele>1519</ele>
        <time>2016-03-26T11:42:52Z</time>
      </trkpt>
      <trkpt lat="42.95846" lon="0.86494">
        <ele>1519</ele>
        <time>2016-03-26T11:42:53Z</time>
      </trkpt>
      <trkpt lat="42.95846" lon="0.86492">
        <ele>1519</ele>
        <time>2016-03-26T11:42:55Z</time>
      </trkpt>
      <trkpt lat="42.95846" lon="0.86491">
        <ele>1519</ele>
        <time>2016-03-26T11:42:56Z</time>
      </trkpt>
      <trkpt lat="42.95846" lon="0.8649">
        <ele>1519</ele>
        <time>2016-03-26T11:42:57Z</time>
      </trkpt>
      <trkpt lat="42.95845" lon="0.86488">
        <ele>1519</ele>
        <time>2016-03-26T11:42:58Z</time>
      </trkpt>
      <trkpt lat="42.95845" lon="0.86486">
        <ele>1519</ele>
        <time>2016-03-26T11:43:00Z</time>
      </trkpt>
      <trkpt lat="42.95846" lon="0.86484">
        <ele>1519</ele>
        <time>2016-03-26T11:43:02Z</time>
      </trkpt>
      <trkpt lat="42.95846" lon="0.86481">
        <ele>1519</ele>
        <time>2016-03-26T11:43:04Z</time>
      </trkpt>
      <trkpt lat="42.95845" lon="0.86478">
        <ele>1519</ele>
        <time>2016-03-26T11:43:06Z</time>
      </trkpt>
      <trkpt lat="42.95845" lon="0.86476">
        <ele>1519</ele>
        <time>2016-03-26T11:43:08Z</time>
      </trkpt>
      <trkpt lat="42.95845" lon="0.86474">
        <ele>1519</ele>
        <time>2016-03-26T11:43:10Z</time>
      </trkpt>
      <trkpt lat="42.95845" lon="0.86473">
        <ele>1519</ele>
        <time>2016-03-26T11:43:11Z</time>
      </trkpt>
      <trkpt lat="42.95844" lon="0.8647">
        <ele>1519</ele>
        <time>2016-03-26T11:43:13Z</time>
      </trkpt>
      <trkpt lat="42.95844" lon="0.86469">
        <ele>1519</ele>
        <time>2016-03-26T11:43:14Z</time>
      </trkpt>
      <trkpt lat="42.95844" lon="0.86466">
        <ele>1519</ele>
        <time>2016-03-26T11:43:16Z</time>
      </trkpt>
      <trkpt lat="42.95843" lon="0.86463">
        <ele>1519</ele>
        <time>2016-03-26T11:43:18Z</time>
      </trkpt>
      <trkpt lat="42.95843" lon="0.86461">
        <ele>1519</ele>
        <time>2016-03-26T11:43:20Z</time>
      </trkpt>
      <trkpt lat="42.95842" lon="0.86459">
        <ele>1519</ele>
        <time>2016-03-26T11:43:21Z</time>
      </trkpt>
      <trkpt lat="42.95842" lon="0.86457">
        <ele>1519</ele>
        <time>2016-03-26T11:43:23Z</time>
      </trkpt>
      <trkpt lat="42.95841" lon="0.86455">
        <ele>1519</ele>
        <time>2016-03-26T11:43:25Z</time>
      </trkpt>
      <trkpt lat="42.95841" lon="0.86452">
        <ele>1518</ele>
        <time>2016-03-26T11:43:27Z</time>
      </trkpt>
      <trkpt lat="42.95841" lon="0.86451">
        <ele>1518</ele>
        <time>2016-03-26T11:43:28Z</time>
      </trkpt>
      <trkpt lat="42.95841" lon="0.8645">
        <ele>1518</ele>
        <time>2016-03-26T11:43:29Z</time>
      </trkpt>
      <trkpt lat="42.9584" lon="0.86448">
        <ele>1518</ele>
        <time>2016-03-26T11:43:31Z</time>
      </trkpt>
      <trkpt lat="42.95839" lon="0.86446">
        <ele>1518</ele>
        <time>2016-03-26T11:43:33Z</time>
      </trkpt>
      <trkpt lat="42.95839" lon="0.86444">
        <ele>1518</ele>
        <time>2016-03-26T11:43:35Z</time>
      </trkpt>
      <trkpt lat="42.95838" lon="0.86442">
        <ele>1519</ele>
        <time>2016-03-26T11:43:36Z</time>
      </trkpt>
      <trkpt lat="42.95838" lon="0.8644">
        <ele>1519</ele>
        <time>2016-03-26T11:43:38Z</time>
      </trkpt>
      <trkpt lat="42.95838" lon="0.86439">
        <ele>1519</ele>
        <time>2016-03-26T11:43:39Z</time>
      </trkpt>
      <trkpt lat="42.95837" lon="0.86438">
        <ele>1519</ele>
        <time>2016-03-26T11:43:40Z</time>
      </trkpt>
      <trkpt lat="42.95837" lon="0.86437">
        <ele>1519</ele>
        <time>2016-03-26T11:43:41Z</time>
      </trkpt>
      <trkpt lat="42.95837" lon="0.86434">
        <ele>1518</ele>
        <time>2016-03-26T11:43:43Z</time>
      </trkpt>
      <trkpt lat="42.95837" lon="0.86433">
        <ele>1518</ele>
        <time>2016-03-26T11:43:44Z</time>
      </trkpt>
      <trkpt lat="42.95836" lon="0.8643">
        <ele>1518</ele>
        <time>2016-03-26T11:43:46Z</time>
      </trkpt>
      <trkpt lat="42.95836" lon="0.86428">
        <ele>1518</ele>
        <time>2016-03-26T11:43:48Z</time>
      </trkpt>
      <trkpt lat="42.95836" lon="0.86426">
        <ele>1518</ele>
        <time>2016-03-26T11:43:50Z</time>
      </trkpt>
      <trkpt lat="42.95835" lon="0.86423">
        <ele>1518</ele>
        <time>2016-03-26T11:43:52Z</time>
      </trkpt>
      <trkpt lat="42.95834" lon="0.86421">
        <ele>1518</ele>
        <time>2016-03-26T11:43:54Z</time>
      </trkpt>
      <trkpt lat="42.95834" lon="0.86419">
        <ele>1518</ele>
        <time>2016-03-26T11:43:56Z</time>
      </trkpt>
      <trkpt lat="42.95833" lon="0.86417">
        <ele>1519</ele>
        <time>2016-03-26T11:43:58Z</time>
      </trkpt>
      <trkpt lat="42.95832" lon="0.86415">
        <ele>1519</ele>
        <time>2016-03-26T11:44:00Z</time>
      </trkpt>
      <trkpt lat="42.95832" lon="0.86413">
        <ele>1519</ele>
        <time>2016-03-26T11:44:02Z</time>
      </trkpt>
      <trkpt lat="42.95831" lon="0.86411">
        <ele>1519</ele>
        <time>2016-03-26T11:44:04Z</time>
      </trkpt>
      <trkpt lat="42.9583" lon="0.8641">
        <ele>1519</ele>
        <time>2016-03-26T11:44:06Z</time>
      </trkpt>
      <trkpt lat="42.9583" lon="0.86408">
        <ele>1519</ele>
        <time>2016-03-26T11:44:08Z</time>
      </trkpt>
      <trkpt lat="42.95829" lon="0.86406">
        <ele>1519</ele>
        <time>2016-03-26T11:44:10Z</time>
      </trkpt>
      <trkpt lat="42.95829" lon="0.86403">
        <ele>1519</ele>
        <time>2016-03-26T11:44:12Z</time>
      </trkpt>
      <trkpt lat="42.95829" lon="0.86402">
        <ele>1519</ele>
        <time>2016-03-26T11:44:13Z</time>
      </trkpt>
      <trkpt lat="42.95828" lon="0.864">
        <ele>1519</ele>
        <time>2016-03-26T11:44:15Z</time>
      </trkpt>
      <trkpt lat="42.95828" lon="0.86399">
        <ele>1519</ele>
        <time>2016-03-26T11:44:16Z</time>
      </trkpt>
      <trkpt lat="42.95827" lon="0.86396">
        <ele>1519</ele>
        <time>2016-03-26T11:44:18Z</time>
      </trkpt>
      <trkpt lat="42.95827" lon="0.86395">
        <ele>1519</ele>
        <time>2016-03-26T11:44:19Z</time>
      </trkpt>
      <trkpt lat="42.95826" lon="0.86393">
        <ele>1518</ele>
        <time>2016-03-26T11:44:21Z</time>
      </trkpt>
      <trkpt lat="42.95826" lon="0.8639">
        <ele>1518</ele>
        <time>2016-03-26T11:44:23Z</time>
      </trkpt>
      <trkpt lat="42.95826" lon="0.86388">
        <ele>1518</ele>
        <time>2016-03-26T11:44:25Z</time>
      </trkpt>
      <trkpt lat="42.95825" lon="0.86386">
        <ele>1518</ele>
        <time>2016-03-26T11:44:27Z</time>
      </trkpt>
      <trkpt lat="42.95824" lon="0.86385">
        <ele>1518</ele>
        <time>2016-03-26T11:44:28Z</time>
      </trkpt>
      <trkpt lat="42.95824" lon="0.86382">
        <ele>1518</ele>
        <time>2016-03-26T11:44:30Z</time>
      </trkpt>
      <trkpt lat="42.95824" lon="0.8638">
        <ele>1517</ele>
        <time>2016-03-26T11:44:31Z</time>
      </trkpt>
      <trkpt lat="42.95824" lon="0.86377">
        <ele>1517</ele>
        <time>2016-03-26T11:44:33Z</time>
      </trkpt>
      <trkpt lat="42.95824" lon="0.86376">
        <ele>1517</ele>
        <time>2016-03-26T11:44:34Z</time>
      </trkpt>
      <trkpt lat="42.95824" lon="0.86373">
        <ele>1517</ele>
        <time>2016-03-26T11:44:36Z</time>
      </trkpt>
      <trkpt lat="42.95823" lon="0.86371">
        <ele>1517</ele>
        <time>2016-03-26T11:44:38Z</time>
      </trkpt>
      <trkpt lat="42.95824" lon="0.86369">
        <ele>1517</ele>
        <time>2016-03-26T11:44:40Z</time>
      </trkpt>
      <trkpt lat="42.95823" lon="0.86366">
        <ele>1517</ele>
        <time>2016-03-26T11:44:42Z</time>
      </trkpt>
      <trkpt lat="42.95823" lon="0.86364">
        <ele>1517</ele>
        <time>2016-03-26T11:44:44Z</time>
      </trkpt>
      <trkpt lat="42.95823" lon="0.86361">
        <ele>1517</ele>
        <time>2016-03-26T11:44:46Z</time>
      </trkpt>
      <trkpt lat="42.95822" lon="0.86359">
        <ele>1517</ele>
        <time>2016-03-26T11:44:48Z</time>
      </trkpt>
      <trkpt lat="42.95822" lon="0.86358">
        <ele>1517</ele>
        <time>2016-03-26T11:44:49Z</time>
      </trkpt>
      <trkpt lat="42.95822" lon="0.86355">
        <ele>1517</ele>
        <time>2016-03-26T11:44:51Z</time>
      </trkpt>
      <trkpt lat="42.95822" lon="0.86354">
        <ele>1517</ele>
        <time>2016-03-26T11:44:52Z</time>
      </trkpt>
      <trkpt lat="42.95822" lon="0.86352">
        <ele>1516</ele>
        <time>2016-03-26T11:44:54Z</time>
      </trkpt>
      <trkpt lat="42.95822" lon="0.86351">
        <ele>1516</ele>
        <time>2016-03-26T11:44:55Z</time>
      </trkpt>
      <trkpt lat="42.95822" lon="0.86348">
        <ele>1516</ele>
        <time>2016-03-26T11:44:57Z</time>
      </trkpt>
      <trkpt lat="42.95822" lon="0.86347">
        <ele>1516</ele>
        <time>2016-03-26T11:44:58Z</time>
      </trkpt>
      <trkpt lat="42.95822" lon="0.86345">
        <ele>1516</ele>
        <time>2016-03-26T11:45:00Z</time>
      </trkpt>
      <trkpt lat="42.95821" lon="0.86342">
        <ele>1516</ele>
        <time>2016-03-26T11:45:02Z</time>
      </trkpt>
      <trkpt lat="42.95821" lon="0.8634">
        <ele>1515</ele>
        <time>2016-03-26T11:45:04Z</time>
      </trkpt>
      <trkpt lat="42.95821" lon="0.86337">
        <ele>1515</ele>
        <time>2016-03-26T11:45:06Z</time>
      </trkpt>
      <trkpt lat="42.9582" lon="0.86336">
        <ele>1515</ele>
        <time>2016-03-26T11:45:07Z</time>
      </trkpt>
      <trkpt lat="42.9582" lon="0.86333">
        <ele>1515</ele>
        <time>2016-03-26T11:45:09Z</time>
      </trkpt>
      <trkpt lat="42.9582" lon="0.86332">
        <ele>1515</ele>
        <time>2016-03-26T11:45:10Z</time>
      </trkpt>
      <trkpt lat="42.95819" lon="0.86329">
        <ele>1515</ele>
        <time>2016-03-26T11:45:12Z</time>
      </trkpt>
      <trkpt lat="42.95818" lon="0.86327">
        <ele>1515</ele>
        <time>2016-03-26T11:45:14Z</time>
      </trkpt>
      <trkpt lat="42.95818" lon="0.86324">
        <ele>1514</ele>
        <time>2016-03-26T11:45:16Z</time>
      </trkpt>
      <trkpt lat="42.95818" lon="0.86323">
        <ele>1514</ele>
        <time>2016-03-26T11:45:17Z</time>
      </trkpt>
      <trkpt lat="42.95818" lon="0.86322">
        <ele>1514</ele>
        <time>2016-03-26T11:45:18Z</time>
      </trkpt>
      <trkpt lat="42.95817" lon="0.86319">
        <ele>1514</ele>
        <time>2016-03-26T11:45:20Z</time>
      </trkpt>
      <trkpt lat="42.95817" lon="0.86316">
        <ele>1514</ele>
        <time>2016-03-26T11:45:22Z</time>
      </trkpt>
      <trkpt lat="42.95817" lon="0.86315">
        <ele>1514</ele>
        <time>2016-03-26T11:45:23Z</time>
      </trkpt>
      <trkpt lat="42.95816" lon="0.86313">
        <ele>1514</ele>
        <time>2016-03-26T11:45:25Z</time>
      </trkpt>
      <trkpt lat="42.95816" lon="0.86311">
        <ele>1514</ele>
        <time>2016-03-26T11:45:27Z</time>
      </trkpt>
      <trkpt lat="42.95815" lon="0.8631">
        <ele>1514</ele>
        <time>2016-03-26T11:45:28Z</time>
      </trkpt>
      <trkpt lat="42.95815" lon="0.86308">
        <ele>1514</ele>
        <time>2016-03-26T11:45:30Z</time>
      </trkpt>
      <trkpt lat="42.95815" lon="0.86307">
        <ele>1514</ele>
        <time>2016-03-26T11:45:31Z</time>
      </trkpt>
      <trkpt lat="42.95815" lon="0.86304">
        <ele>1514</ele>
        <time>2016-03-26T11:45:33Z</time>
      </trkpt>
      <trkpt lat="42.95815" lon="0.86301">
        <ele>1515</ele>
        <time>2016-03-26T11:45:35Z</time>
      </trkpt>
      <trkpt lat="42.95815" lon="0.863">
        <ele>1515</ele>
        <time>2016-03-26T11:45:36Z</time>
      </trkpt>
      <trkpt lat="42.95814" lon="0.86298">
        <ele>1515</ele>
        <time>2016-03-26T11:45:38Z</time>
      </trkpt>
      <trkpt lat="42.95814" lon="0.86297">
        <ele>1515</ele>
        <time>2016-03-26T11:45:39Z</time>
      </trkpt>
      <trkpt lat="42.95813" lon="0.86295">
        <ele>1515</ele>
        <time>2016-03-26T11:45:41Z</time>
      </trkpt>
      <trkpt lat="42.95813" lon="0.86294">
        <ele>1515</ele>
        <time>2016-03-26T11:45:42Z</time>
      </trkpt>
      <trkpt lat="42.95813" lon="0.86291">
        <ele>1515</ele>
        <time>2016-03-26T11:45:44Z</time>
      </trkpt>
      <trkpt lat="42.95812" lon="0.8629">
        <ele>1515</ele>
        <time>2016-03-26T11:45:46Z</time>
      </trkpt>
      <trkpt lat="42.95812" lon="0.86289">
        <ele>1515</ele>
        <time>2016-03-26T11:45:47Z</time>
      </trkpt>
      <trkpt lat="42.9581" lon="0.86288">
        <ele>1516</ele>
        <time>2016-03-26T11:45:49Z</time>
      </trkpt>
      <trkpt lat="42.9581" lon="0.86285">
        <ele>1516</ele>
        <time>2016-03-26T11:45:51Z</time>
      </trkpt>
      <trkpt lat="42.95809" lon="0.86284">
        <ele>1516</ele>
        <time>2016-03-26T11:45:52Z</time>
      </trkpt>
      <trkpt lat="42.95809" lon="0.86283">
        <ele>1516</ele>
        <time>2016-03-26T11:45:53Z</time>
      </trkpt>
      <trkpt lat="42.95808" lon="0.86282">
        <ele>1516</ele>
        <time>2016-03-26T11:45:55Z</time>
      </trkpt>
      <trkpt lat="42.95807" lon="0.8628">
        <ele>1516</ele>
        <time>2016-03-26T11:45:57Z</time>
      </trkpt>
      <trkpt lat="42.95807" lon="0.86277">
        <ele>1517</ele>
        <time>2016-03-26T11:45:59Z</time>
      </trkpt>
      <trkpt lat="42.95806" lon="0.86276">
        <ele>1517</ele>
        <time>2016-03-26T11:46:01Z</time>
      </trkpt>
      <trkpt lat="42.95805" lon="0.86275">
        <ele>1517</ele>
        <time>2016-03-26T11:46:02Z</time>
      </trkpt>
      <trkpt lat="42.95805" lon="0.86274">
        <ele>1517</ele>
        <time>2016-03-26T11:46:04Z</time>
      </trkpt>
      <trkpt lat="42.95805" lon="0.86274">
        <ele>1517</ele>
        <time>2016-03-26T11:46:05Z</time>
      </trkpt>
      <trkpt lat="42.95806" lon="0.86274">
        <ele>1517</ele>
        <time>2016-03-26T11:46:07Z</time>
      </trkpt>
      <trkpt lat="42.95806" lon="0.86274">
        <ele>1517</ele>
        <time>2016-03-26T11:46:34Z</time>
      </trkpt>
      <trkpt lat="42.95806" lon="0.86273">
        <ele>1518</ele>
        <time>2016-03-26T11:46:36Z</time>
      </trkpt>
      <trkpt lat="42.95807" lon="0.8627">
        <ele>1517</ele>
        <time>2016-03-26T11:46:38Z</time>
      </trkpt>
      <trkpt lat="42.95807" lon="0.86267">
        <ele>1517</ele>
        <time>2016-03-26T11:46:40Z</time>
      </trkpt>
      <trkpt lat="42.95806" lon="0.86264">
        <ele>1517</ele>
        <time>2016-03-26T11:46:42Z</time>
      </trkpt>
      <trkpt lat="42.95805" lon="0.8626">
        <ele>1517</ele>
        <time>2016-03-26T11:46:44Z</time>
      </trkpt>
      <trkpt lat="42.95805" lon="0.86257">
        <ele>1517</ele>
        <time>2016-03-26T11:46:46Z</time>
      </trkpt>
      <trkpt lat="42.95805" lon="0.86254">
        <ele>1517</ele>
        <time>2016-03-26T11:46:48Z</time>
      </trkpt>
      <trkpt lat="42.95806" lon="0.86253">
        <ele>1517</ele>
        <time>2016-03-26T11:46:49Z</time>
      </trkpt>
      <trkpt lat="42.95806" lon="0.86251">
        <ele>1517</ele>
        <time>2016-03-26T11:46:50Z</time>
      </trkpt>
      <trkpt lat="42.95806" lon="0.8625">
        <ele>1517</ele>
        <time>2016-03-26T11:46:51Z</time>
      </trkpt>
      <trkpt lat="42.95806" lon="0.86249">
        <ele>1517</ele>
        <time>2016-03-26T11:46:52Z</time>
      </trkpt>
      <trkpt lat="42.95807" lon="0.86246">
        <ele>1518</ele>
        <time>2016-03-26T11:46:54Z</time>
      </trkpt>
      <trkpt lat="42.95807" lon="0.86244">
        <ele>1518</ele>
        <time>2016-03-26T11:46:55Z</time>
      </trkpt>
      <trkpt lat="42.95808" lon="0.86243">
        <ele>1518</ele>
        <time>2016-03-26T11:46:56Z</time>
      </trkpt>
      <trkpt lat="42.95808" lon="0.8624">
        <ele>1518</ele>
        <time>2016-03-26T11:46:58Z</time>
      </trkpt>
      <trkpt lat="42.95808" lon="0.86237">
        <ele>1518</ele>
        <time>2016-03-26T11:47:00Z</time>
      </trkpt>
      <trkpt lat="42.9581" lon="0.86234">
        <ele>1518</ele>
        <time>2016-03-26T11:47:02Z</time>
      </trkpt>
      <trkpt lat="42.9581" lon="0.86232">
        <ele>1518</ele>
        <time>2016-03-26T11:47:04Z</time>
      </trkpt>
      <trkpt lat="42.9581" lon="0.86229">
        <ele>1519</ele>
        <time>2016-03-26T11:47:06Z</time>
      </trkpt>
      <trkpt lat="42.95811" lon="0.86226">
        <ele>1519</ele>
        <time>2016-03-26T11:47:08Z</time>
      </trkpt>
      <trkpt lat="42.95812" lon="0.86223">
        <ele>1519</ele>
        <time>2016-03-26T11:47:10Z</time>
      </trkpt>
      <trkpt lat="42.95812" lon="0.8622">
        <ele>1520</ele>
        <time>2016-03-26T11:47:12Z</time>
      </trkpt>
      <trkpt lat="42.95812" lon="0.86217">
        <ele>1520</ele>
        <time>2016-03-26T11:47:14Z</time>
      </trkpt>
      <trkpt lat="42.95812" lon="0.86215">
        <ele>1520</ele>
        <time>2016-03-26T11:47:16Z</time>
      </trkpt>
      <trkpt lat="42.95811" lon="0.86213">
        <ele>1520</ele>
        <time>2016-03-26T11:47:18Z</time>
      </trkpt>
      <trkpt lat="42.95812" lon="0.8621">
        <ele>1520</ele>
        <time>2016-03-26T11:47:20Z</time>
      </trkpt>
      <trkpt lat="42.95812" lon="0.86207">
        <ele>1520</ele>
        <time>2016-03-26T11:47:22Z</time>
      </trkpt>
      <trkpt lat="42.95812" lon="0.86205">
        <ele>1520</ele>
        <time>2016-03-26T11:47:23Z</time>
      </trkpt>
      <trkpt lat="42.95812" lon="0.86202">
        <ele>1520</ele>
        <time>2016-03-26T11:47:25Z</time>
      </trkpt>
      <trkpt lat="42.95811" lon="0.862">
        <ele>1520</ele>
        <time>2016-03-26T11:47:26Z</time>
      </trkpt>
      <trkpt lat="42.9581" lon="0.86197">
        <ele>1520</ele>
        <time>2016-03-26T11:47:28Z</time>
      </trkpt>
      <trkpt lat="42.9581" lon="0.86194">
        <ele>1519</ele>
        <time>2016-03-26T11:47:30Z</time>
      </trkpt>
      <trkpt lat="42.95811" lon="0.86192">
        <ele>1519</ele>
        <time>2016-03-26T11:47:31Z</time>
      </trkpt>
      <trkpt lat="42.95812" lon="0.86189">
        <ele>1518</ele>
        <time>2016-03-26T11:47:33Z</time>
      </trkpt>
      <trkpt lat="42.95812" lon="0.86188">
        <ele>1518</ele>
        <time>2016-03-26T11:47:34Z</time>
      </trkpt>
      <trkpt lat="42.95813" lon="0.86186">
        <ele>1517</ele>
        <time>2016-03-26T11:47:35Z</time>
      </trkpt>
      <trkpt lat="42.95812" lon="0.86183">
        <ele>1517</ele>
        <time>2016-03-26T11:47:36Z</time>
      </trkpt>
      <trkpt lat="42.95811" lon="0.86178">
        <ele>1516</ele>
        <time>2016-03-26T11:47:38Z</time>
      </trkpt>
      <trkpt lat="42.95811" lon="0.86175">
        <ele>1516</ele>
        <time>2016-03-26T11:47:40Z</time>
      </trkpt>
      <trkpt lat="42.95811" lon="0.86173">
        <ele>1515</ele>
        <time>2016-03-26T11:47:42Z</time>
      </trkpt>
      <trkpt lat="42.9581" lon="0.86172">
        <ele>1515</ele>
        <time>2016-03-26T11:47:43Z</time>
      </trkpt>
      <trkpt lat="42.9581" lon="0.86171">
        <ele>1515</ele>
        <time>2016-03-26T11:47:45Z</time>
      </trkpt>
      <trkpt lat="42.95809" lon="0.8617">
        <ele>1516</ele>
        <time>2016-03-26T11:47:46Z</time>
      </trkpt>
      <trkpt lat="42.95808" lon="0.86168">
        <ele>1516</ele>
        <time>2016-03-26T11:47:48Z</time>
      </trkpt>
      <trkpt lat="42.95808" lon="0.86166">
        <ele>1517</ele>
        <time>2016-03-26T11:47:50Z</time>
      </trkpt>
      <trkpt lat="42.95807" lon="0.86163">
        <ele>1517</ele>
        <time>2016-03-26T11:47:52Z</time>
      </trkpt>
      <trkpt lat="42.95807" lon="0.86162">
        <ele>1517</ele>
        <time>2016-03-26T11:47:53Z</time>
      </trkpt>
      <trkpt lat="42.95806" lon="0.86158">
        <ele>1517</ele>
        <time>2016-03-26T11:47:55Z</time>
      </trkpt>
      <trkpt lat="42.95805" lon="0.86157">
        <ele>1517</ele>
        <time>2016-03-26T11:47:56Z</time>
      </trkpt>
      <trkpt lat="42.95805" lon="0.86153">
        <ele>1517</ele>
        <time>2016-03-26T11:47:58Z</time>
      </trkpt>
      <trkpt lat="42.95806" lon="0.86151">
        <ele>1517</ele>
        <time>2016-03-26T11:48:00Z</time>
      </trkpt>
      <trkpt lat="42.95806" lon="0.8615">
        <ele>1517</ele>
        <time>2016-03-26T11:48:01Z</time>
      </trkpt>
      <trkpt lat="42.95806" lon="0.86148">
        <ele>1517</ele>
        <time>2016-03-26T11:48:02Z</time>
      </trkpt>
      <trkpt lat="42.95807" lon="0.86146">
        <ele>1516</ele>
        <time>2016-03-26T11:48:04Z</time>
      </trkpt>
      <trkpt lat="42.95806" lon="0.86143">
        <ele>1517</ele>
        <time>2016-03-26T11:48:06Z</time>
      </trkpt>
      <trkpt lat="42.95805" lon="0.8614">
        <ele>1517</ele>
        <time>2016-03-26T11:48:08Z</time>
      </trkpt>
      <trkpt lat="42.95804" lon="0.86136">
        <ele>1517</ele>
        <time>2016-03-26T11:48:10Z</time>
      </trkpt>
      <trkpt lat="42.95803" lon="0.86133">
        <ele>1517</ele>
        <time>2016-03-26T11:48:12Z</time>
      </trkpt>
      <trkpt lat="42.95803" lon="0.86131">
        <ele>1517</ele>
        <time>2016-03-26T11:48:14Z</time>
      </trkpt>
      <trkpt lat="42.95801" lon="0.86129">
        <ele>1517</ele>
        <time>2016-03-26T11:48:16Z</time>
      </trkpt>
      <trkpt lat="42.958" lon="0.86127">
        <ele>1517</ele>
        <time>2016-03-26T11:48:17Z</time>
      </trkpt>
      <trkpt lat="42.95799" lon="0.86123">
        <ele>1517</ele>
        <time>2016-03-26T11:48:19Z</time>
      </trkpt>
      <trkpt lat="42.95797" lon="0.8612">
        <ele>1517</ele>
        <time>2016-03-26T11:48:21Z</time>
      </trkpt>
      <trkpt lat="42.95797" lon="0.86118">
        <ele>1517</ele>
        <time>2016-03-26T11:48:22Z</time>
      </trkpt>
      <trkpt lat="42.95797" lon="0.86117">
        <ele>1517</ele>
        <time>2016-03-26T11:48:23Z</time>
      </trkpt>
      <trkpt lat="42.95795" lon="0.86114">
        <ele>1517</ele>
        <time>2016-03-26T11:48:25Z</time>
      </trkpt>
      <trkpt lat="42.95795" lon="0.86112">
        <ele>1516</ele>
        <time>2016-03-26T11:48:26Z</time>
      </trkpt>
      <trkpt lat="42.95794" lon="0.86109">
        <ele>1516</ele>
        <time>2016-03-26T11:48:28Z</time>
      </trkpt>
      <trkpt lat="42.95794" lon="0.86108">
        <ele>1516</ele>
        <time>2016-03-26T11:48:29Z</time>
      </trkpt>
      <trkpt lat="42.95792" lon="0.86105">
        <ele>1516</ele>
        <time>2016-03-26T11:48:31Z</time>
      </trkpt>
      <trkpt lat="42.95792" lon="0.86104">
        <ele>1516</ele>
        <time>2016-03-26T11:48:32Z</time>
      </trkpt>
      <trkpt lat="42.95791" lon="0.86102">
        <ele>1516</ele>
        <time>2016-03-26T11:48:34Z</time>
      </trkpt>
      <trkpt lat="42.95791" lon="0.86101">
        <ele>1516</ele>
        <time>2016-03-26T11:48:36Z</time>
      </trkpt>
      <trkpt lat="42.9579" lon="0.86099">
        <ele>1516</ele>
        <time>2016-03-26T11:48:38Z</time>
      </trkpt>
      <trkpt lat="42.95789" lon="0.86096">
        <ele>1516</ele>
        <time>2016-03-26T11:48:40Z</time>
      </trkpt>
      <trkpt lat="42.95789" lon="0.86097">
        <ele>1516</ele>
        <time>2016-03-26T11:48:42Z</time>
      </trkpt>
      <trkpt lat="42.95789" lon="0.86097">
        <ele>1516</ele>
        <time>2016-03-26T11:49:02Z</time>
      </trkpt>
      <trkpt lat="42.95789" lon="0.86097">
        <ele>1516</ele>
        <time>2016-03-26T11:49:04Z</time>
      </trkpt>
      <trkpt lat="42.95789" lon="0.86097">
        <ele>1516</ele>
        <time>2016-03-26T11:49:24Z</time>
      </trkpt>
      <trkpt lat="42.95787" lon="0.86091">
        <ele>1516</ele>
        <time>2016-03-26T11:49:31Z</time>
      </trkpt>
      <trkpt lat="42.95789" lon="0.86092">
        <ele>1517</ele>
        <time>2016-03-26T11:49:33Z</time>
      </trkpt>
      <trkpt lat="42.95789" lon="0.86091">
        <ele>1517</ele>
        <time>2016-03-26T11:49:34Z</time>
      </trkpt>
      <trkpt lat="42.95789" lon="0.86089">
        <ele>1517</ele>
        <time>2016-03-26T11:49:36Z</time>
      </trkpt>
      <trkpt lat="42.95789" lon="0.86086">
        <ele>1517</ele>
        <time>2016-03-26T11:49:38Z</time>
      </trkpt>
      <trkpt lat="42.95789" lon="0.86084">
        <ele>1517</ele>
        <time>2016-03-26T11:49:40Z</time>
      </trkpt>
      <trkpt lat="42.95791" lon="0.86082">
        <ele>1517</ele>
        <time>2016-03-26T11:49:42Z</time>
      </trkpt>
      <trkpt lat="42.9579" lon="0.86079">
        <ele>1517</ele>
        <time>2016-03-26T11:49:44Z</time>
      </trkpt>
      <trkpt lat="42.95789" lon="0.86078">
        <ele>1517</ele>
        <time>2016-03-26T11:49:46Z</time>
      </trkpt>
      <trkpt lat="42.95788" lon="0.86076">
        <ele>1517</ele>
        <time>2016-03-26T11:49:48Z</time>
      </trkpt>
      <trkpt lat="42.95787" lon="0.86075">
        <ele>1517</ele>
        <time>2016-03-26T11:49:49Z</time>
      </trkpt>
      <trkpt lat="42.95787" lon="0.86074">
        <ele>1517</ele>
        <time>2016-03-26T11:49:50Z</time>
      </trkpt>
      <trkpt lat="42.95787" lon="0.86072">
        <ele>1517</ele>
        <time>2016-03-26T11:49:52Z</time>
      </trkpt>
      <trkpt lat="42.95787" lon="0.86071">
        <ele>1517</ele>
        <time>2016-03-26T11:49:53Z</time>
      </trkpt>
      <trkpt lat="42.95786" lon="0.86069">
        <ele>1517</ele>
        <time>2016-03-26T11:49:55Z</time>
      </trkpt>
      <trkpt lat="42.95786" lon="0.86068">
        <ele>1517</ele>
        <time>2016-03-26T11:49:56Z</time>
      </trkpt>
      <trkpt lat="42.95786" lon="0.86066">
        <ele>1517</ele>
        <time>2016-03-26T11:49:58Z</time>
      </trkpt>
      <trkpt lat="42.95786" lon="0.86063">
        <ele>1517</ele>
        <time>2016-03-26T11:50:00Z</time>
      </trkpt>
      <trkpt lat="42.95785" lon="0.86062">
        <ele>1516</ele>
        <time>2016-03-26T11:50:01Z</time>
      </trkpt>
      <trkpt lat="42.95785" lon="0.86061">
        <ele>1516</ele>
        <time>2016-03-26T11:50:02Z</time>
      </trkpt>
      <trkpt lat="42.95784" lon="0.86059">
        <ele>1516</ele>
        <time>2016-03-26T11:50:04Z</time>
      </trkpt>
      <trkpt lat="42.95784" lon="0.86058">
        <ele>1516</ele>
        <time>2016-03-26T11:50:05Z</time>
      </trkpt>
      <trkpt lat="42.95784" lon="0.86057">
        <ele>1516</ele>
        <time>2016-03-26T11:50:06Z</time>
      </trkpt>
      <trkpt lat="42.95783" lon="0.86054">
        <ele>1516</ele>
        <time>2016-03-26T11:50:08Z</time>
      </trkpt>
      <trkpt lat="42.95783" lon="0.86053">
        <ele>1516</ele>
        <time>2016-03-26T11:50:09Z</time>
      </trkpt>
      <trkpt lat="42.95783" lon="0.86052">
        <ele>1515</ele>
        <time>2016-03-26T11:50:10Z</time>
      </trkpt>
      <trkpt lat="42.95782" lon="0.8605">
        <ele>1515</ele>
        <time>2016-03-26T11:50:12Z</time>
      </trkpt>
      <trkpt lat="42.95782" lon="0.86048">
        <ele>1515</ele>
        <time>2016-03-26T11:50:14Z</time>
      </trkpt>
      <trkpt lat="42.95781" lon="0.86046">
        <ele>1515</ele>
        <time>2016-03-26T11:50:16Z</time>
      </trkpt>
      <trkpt lat="42.95781" lon="0.86044">
        <ele>1515</ele>
        <time>2016-03-26T11:50:18Z</time>
      </trkpt>
      <trkpt lat="42.95781" lon="0.86043">
        <ele>1515</ele>
        <time>2016-03-26T11:50:20Z</time>
      </trkpt>
      <trkpt lat="42.95781" lon="0.86042">
        <ele>1514</ele>
        <time>2016-03-26T11:50:21Z</time>
      </trkpt>
      <trkpt lat="42.95781" lon="0.86041">
        <ele>1514</ele>
        <time>2016-03-26T11:50:23Z</time>
      </trkpt>
      <trkpt lat="42.95781" lon="0.86041">
        <ele>1514</ele>
        <time>2016-03-26T11:50:53Z</time>
      </trkpt>
      <trkpt lat="42.95781" lon="0.86041">
        <ele>1514</ele>
        <time>2016-03-26T11:50:54Z</time>
      </trkpt>
      <trkpt lat="42.95783" lon="0.86042">
        <ele>1514</ele>
        <time>2016-03-26T11:51:09Z</time>
      </trkpt>
      <trkpt lat="42.95784" lon="0.86041">
        <ele>1514</ele>
        <time>2016-03-26T11:51:11Z</time>
      </trkpt>
      <trkpt lat="42.95785" lon="0.8604">
        <ele>1514</ele>
        <time>2016-03-26T11:51:13Z</time>
      </trkpt>
      <trkpt lat="42.95787" lon="0.8604">
        <ele>1514</ele>
        <time>2016-03-26T11:51:15Z</time>
      </trkpt>
      <trkpt lat="42.95787" lon="0.8604">
        <ele>1514</ele>
        <time>2016-03-26T11:51:16Z</time>
      </trkpt>
      <trkpt lat="42.95788" lon="0.8604">
        <ele>1514</ele>
        <time>2016-03-26T11:51:17Z</time>
      </trkpt>
      <trkpt lat="42.95789" lon="0.86038">
        <ele>1514</ele>
        <time>2016-03-26T11:51:19Z</time>
      </trkpt>
      <trkpt lat="42.95791" lon="0.86038">
        <ele>1514</ele>
        <time>2016-03-26T11:51:21Z</time>
      </trkpt>
      <trkpt lat="42.95792" lon="0.86037">
        <ele>1514</ele>
        <time>2016-03-26T11:51:22Z</time>
      </trkpt>
      <trkpt lat="42.95793" lon="0.86034">
        <ele>1514</ele>
        <time>2016-03-26T11:51:24Z</time>
      </trkpt>
      <trkpt lat="42.95793" lon="0.86034">
        <ele>1514</ele>
        <time>2016-03-26T11:51:25Z</time>
      </trkpt>
      <trkpt lat="42.95794" lon="0.86033">
        <ele>1514</ele>
        <time>2016-03-26T11:51:27Z</time>
      </trkpt>
      <trkpt lat="42.95795" lon="0.86032">
        <ele>1514</ele>
        <time>2016-03-26T11:51:29Z</time>
      </trkpt>
      <trkpt lat="42.95796" lon="0.86031">
        <ele>1514</ele>
        <time>2016-03-26T11:51:31Z</time>
      </trkpt>
      <trkpt lat="42.95796" lon="0.8603">
        <ele>1514</ele>
        <time>2016-03-26T11:51:32Z</time>
      </trkpt>
      <trkpt lat="42.95797" lon="0.86029">
        <ele>1514</ele>
        <time>2016-03-26T11:51:34Z</time>
      </trkpt>
      <trkpt lat="42.95798" lon="0.86029">
        <ele>1513</ele>
        <time>2016-03-26T11:51:36Z</time>
      </trkpt>
      <trkpt lat="42.95798" lon="0.86029">
        <ele>1513</ele>
        <time>2016-03-26T11:51:37Z</time>
      </trkpt>
      <trkpt lat="42.95799" lon="0.86027">
        <ele>1513</ele>
        <time>2016-03-26T11:51:39Z</time>
      </trkpt>
      <trkpt lat="42.958" lon="0.86026">
        <ele>1513</ele>
        <time>2016-03-26T11:51:41Z</time>
      </trkpt>
      <trkpt lat="42.958" lon="0.86025">
        <ele>1513</ele>
        <time>2016-03-26T11:51:43Z</time>
      </trkpt>
      <trkpt lat="42.958" lon="0.86025">
        <ele>1513</ele>
        <time>2016-03-26T11:51:45Z</time>
      </trkpt>
      <trkpt lat="42.95802" lon="0.86022">
        <ele>1513</ele>
        <time>2016-03-26T11:51:52Z</time>
      </trkpt>
      <trkpt lat="42.95804" lon="0.8602">
        <ele>1513</ele>
        <time>2016-03-26T11:51:54Z</time>
      </trkpt>
      <trkpt lat="42.95805" lon="0.8602">
        <ele>1512</ele>
        <time>2016-03-26T11:51:56Z</time>
      </trkpt>
      <trkpt lat="42.95806" lon="0.8602">
        <ele>1512</ele>
        <time>2016-03-26T11:51:58Z</time>
      </trkpt>
      <trkpt lat="42.95808" lon="0.86019">
        <ele>1512</ele>
        <time>2016-03-26T11:52:00Z</time>
      </trkpt>
      <trkpt lat="42.95808" lon="0.86019">
        <ele>1512</ele>
        <time>2016-03-26T11:52:01Z</time>
      </trkpt>
      <trkpt lat="42.9581" lon="0.86018">
        <ele>1512</ele>
        <time>2016-03-26T11:52:03Z</time>
      </trkpt>
      <trkpt lat="42.9581" lon="0.86017">
        <ele>1511</ele>
        <time>2016-03-26T11:52:05Z</time>
      </trkpt>
      <trkpt lat="42.95812" lon="0.86017">
        <ele>1511</ele>
        <time>2016-03-26T11:52:07Z</time>
      </trkpt>
      <trkpt lat="42.95813" lon="0.86016">
        <ele>1511</ele>
        <time>2016-03-26T11:52:09Z</time>
      </trkpt>
      <trkpt lat="42.95813" lon="0.86016">
        <ele>1511</ele>
        <time>2016-03-26T11:52:10Z</time>
      </trkpt>
      <trkpt lat="42.95815" lon="0.86015">
        <ele>1510</ele>
        <time>2016-03-26T11:52:12Z</time>
      </trkpt>
      <trkpt lat="42.95816" lon="0.86014">
        <ele>1510</ele>
        <time>2016-03-26T11:52:14Z</time>
      </trkpt>
      <trkpt lat="42.95816" lon="0.86014">
        <ele>1510</ele>
        <time>2016-03-26T11:52:16Z</time>
      </trkpt>
      <trkpt lat="42.95818" lon="0.86014">
        <ele>1509</ele>
        <time>2016-03-26T11:52:18Z</time>
      </trkpt>
      <trkpt lat="42.95818" lon="0.86013">
        <ele>1509</ele>
        <time>2016-03-26T11:52:19Z</time>
      </trkpt>
      <trkpt lat="42.95819" lon="0.86013">
        <ele>1509</ele>
        <time>2016-03-26T11:52:21Z</time>
      </trkpt>
      <trkpt lat="42.95819" lon="0.86013">
        <ele>1509</ele>
        <time>2016-03-26T11:52:22Z</time>
      </trkpt>
      <trkpt lat="42.9582" lon="0.86013">
        <ele>1508</ele>
        <time>2016-03-26T11:52:24Z</time>
      </trkpt>
      <trkpt lat="42.95821" lon="0.86012">
        <ele>1508</ele>
        <time>2016-03-26T11:52:25Z</time>
      </trkpt>
      <trkpt lat="42.95821" lon="0.86012">
        <ele>1508</ele>
        <time>2016-03-26T11:52:27Z</time>
      </trkpt>
      <trkpt lat="42.95822" lon="0.86012">
        <ele>1508</ele>
        <time>2016-03-26T11:52:28Z</time>
      </trkpt>
      <trkpt lat="42.95823" lon="0.86012">
        <ele>1507</ele>
        <time>2016-03-26T11:52:30Z</time>
      </trkpt>
      <trkpt lat="42.95824" lon="0.86011">
        <ele>1507</ele>
        <time>2016-03-26T11:52:32Z</time>
      </trkpt>
      <trkpt lat="42.95824" lon="0.8601">
        <ele>1506</ele>
        <time>2016-03-26T11:52:34Z</time>
      </trkpt>
      <trkpt lat="42.95824" lon="0.86009">
        <ele>1506</ele>
        <time>2016-03-26T11:52:36Z</time>
      </trkpt>
      <trkpt lat="42.95826" lon="0.8601">
        <ele>1506</ele>
        <time>2016-03-26T11:52:39Z</time>
      </trkpt>
      <trkpt lat="42.95826" lon="0.86009">
        <ele>1505</ele>
        <time>2016-03-26T11:52:40Z</time>
      </trkpt>
      <trkpt lat="42.95827" lon="0.86009">
        <ele>1505</ele>
        <time>2016-03-26T11:52:42Z</time>
      </trkpt>
      <trkpt lat="42.95828" lon="0.86008">
        <ele>1505</ele>
        <time>2016-03-26T11:52:44Z</time>
      </trkpt>
      <trkpt lat="42.95828" lon="0.86007">
        <ele>1504</ele>
        <time>2016-03-26T11:52:46Z</time>
      </trkpt>
      <trkpt lat="42.95829" lon="0.86007">
        <ele>1504</ele>
        <time>2016-03-26T11:52:48Z</time>
      </trkpt>
      <trkpt lat="42.9583" lon="0.86005">
        <ele>1504</ele>
        <time>2016-03-26T11:52:51Z</time>
      </trkpt>
      <trkpt lat="42.9583" lon="0.86005">
        <ele>1503</ele>
        <time>2016-03-26T11:52:52Z</time>
      </trkpt>
      <trkpt lat="42.95831" lon="0.86005">
        <ele>1503</ele>
        <time>2016-03-26T11:52:54Z</time>
      </trkpt>
      <trkpt lat="42.95832" lon="0.86003">
        <ele>1503</ele>
        <time>2016-03-26T11:52:56Z</time>
      </trkpt>
      <trkpt lat="42.95834" lon="0.86001">
        <ele>1502</ele>
        <time>2016-03-26T11:52:58Z</time>
      </trkpt>
      <trkpt lat="42.95834" lon="0.86">
        <ele>1502</ele>
        <time>2016-03-26T11:52:59Z</time>
      </trkpt>
      <trkpt lat="42.95835" lon="0.85998">
        <ele>1501</ele>
        <time>2016-03-26T11:53:01Z</time>
      </trkpt>
      <trkpt lat="42.95836" lon="0.85996">
        <ele>1501</ele>
        <time>2016-03-26T11:53:03Z</time>
      </trkpt>
      <trkpt lat="42.95836" lon="0.85995">
        <ele>1501</ele>
        <time>2016-03-26T11:53:04Z</time>
      </trkpt>
      <trkpt lat="42.95836" lon="0.85993">
        <ele>1500</ele>
        <time>2016-03-26T11:53:06Z</time>
      </trkpt>
      <trkpt lat="42.95836" lon="0.85992">
        <ele>1500</ele>
        <time>2016-03-26T11:53:08Z</time>
      </trkpt>
      <trkpt lat="42.95837" lon="0.8599">
        <ele>1499</ele>
        <time>2016-03-26T11:53:10Z</time>
      </trkpt>
      <trkpt lat="42.95837" lon="0.85989">
        <ele>1499</ele>
        <time>2016-03-26T11:53:11Z</time>
      </trkpt>
      <trkpt lat="42.95837" lon="0.85987">
        <ele>1499</ele>
        <time>2016-03-26T11:53:13Z</time>
      </trkpt>
      <trkpt lat="42.95837" lon="0.85985">
        <ele>1498</ele>
        <time>2016-03-26T11:53:15Z</time>
      </trkpt>
      <trkpt lat="42.95837" lon="0.85985">
        <ele>1498</ele>
        <time>2016-03-26T11:53:16Z</time>
      </trkpt>
      <trkpt lat="42.95838" lon="0.85984">
        <ele>1498</ele>
        <time>2016-03-26T11:53:18Z</time>
      </trkpt>
      <trkpt lat="42.95838" lon="0.85983">
        <ele>1497</ele>
        <time>2016-03-26T11:53:19Z</time>
      </trkpt>
      <trkpt lat="42.95838" lon="0.85983">
        <ele>1497</ele>
        <time>2016-03-26T11:53:20Z</time>
      </trkpt>
      <trkpt lat="42.95839" lon="0.85983">
        <ele>1497</ele>
        <time>2016-03-26T11:53:22Z</time>
      </trkpt>
      <trkpt lat="42.9584" lon="0.85982">
        <ele>1496</ele>
        <time>2016-03-26T11:53:24Z</time>
      </trkpt>
      <trkpt lat="42.95841" lon="0.85981">
        <ele>1496</ele>
        <time>2016-03-26T11:53:26Z</time>
      </trkpt>
      <trkpt lat="42.95841" lon="0.8598">
        <ele>1496</ele>
        <time>2016-03-26T11:53:27Z</time>
      </trkpt>
      <trkpt lat="42.95841" lon="0.85978">
        <ele>1496</ele>
        <time>2016-03-26T11:53:29Z</time>
      </trkpt>
      <trkpt lat="42.95842" lon="0.85977">
        <ele>1495</ele>
        <time>2016-03-26T11:53:31Z</time>
      </trkpt>
      <trkpt lat="42.95842" lon="0.85975">
        <ele>1495</ele>
        <time>2016-03-26T11:53:33Z</time>
      </trkpt>
      <trkpt lat="42.95842" lon="0.85975">
        <ele>1494</ele>
        <time>2016-03-26T11:53:34Z</time>
      </trkpt>
      <trkpt lat="42.95842" lon="0.85975">
        <ele>1494</ele>
        <time>2016-03-26T11:53:36Z</time>
      </trkpt>
      <trkpt lat="42.95844" lon="0.85972">
        <ele>1493</ele>
        <time>2016-03-26T11:53:45Z</time>
      </trkpt>
      <trkpt lat="42.95844" lon="0.85971">
        <ele>1493</ele>
        <time>2016-03-26T11:53:46Z</time>
      </trkpt>
      <trkpt lat="42.95844" lon="0.85972">
        <ele>1493</ele>
        <time>2016-03-26T11:53:48Z</time>
      </trkpt>
      <trkpt lat="42.95844" lon="0.85971">
        <ele>1493</ele>
        <time>2016-03-26T11:53:50Z</time>
      </trkpt>
      <trkpt lat="42.95845" lon="0.8597">
        <ele>1492</ele>
        <time>2016-03-26T11:53:59Z</time>
      </trkpt>
      <trkpt lat="42.95846" lon="0.85969">
        <ele>1492</ele>
        <time>2016-03-26T11:54:01Z</time>
      </trkpt>
      <trkpt lat="42.95846" lon="0.85969">
        <ele>1492</ele>
        <time>2016-03-26T11:54:03Z</time>
      </trkpt>
      <trkpt lat="42.95847" lon="0.85967">
        <ele>1492</ele>
        <time>2016-03-26T11:54:05Z</time>
      </trkpt>
      <trkpt lat="42.95847" lon="0.85967">
        <ele>1492</ele>
        <time>2016-03-26T11:54:06Z</time>
      </trkpt>
      <trkpt lat="42.95847" lon="0.85966">
        <ele>1491</ele>
        <time>2016-03-26T11:54:07Z</time>
      </trkpt>
      <trkpt lat="42.95848" lon="0.85965">
        <ele>1491</ele>
        <time>2016-03-26T11:54:09Z</time>
      </trkpt>
      <trkpt lat="42.95848" lon="0.85964">
        <ele>1491</ele>
        <time>2016-03-26T11:54:10Z</time>
      </trkpt>
      <trkpt lat="42.95849" lon="0.85963">
        <ele>1491</ele>
        <time>2016-03-26T11:54:12Z</time>
      </trkpt>
      <trkpt lat="42.95849" lon="0.85963">
        <ele>1491</ele>
        <time>2016-03-26T11:54:15Z</time>
      </trkpt>
      <trkpt lat="42.9585" lon="0.85961">
        <ele>1491</ele>
        <time>2016-03-26T11:54:19Z</time>
      </trkpt>
      <trkpt lat="42.9585" lon="0.85959">
        <ele>1490</ele>
        <time>2016-03-26T11:54:21Z</time>
      </trkpt>
      <trkpt lat="42.95851" lon="0.85959">
        <ele>1490</ele>
        <time>2016-03-26T11:54:22Z</time>
      </trkpt>
      <trkpt lat="42.95852" lon="0.85957">
        <ele>1490</ele>
        <time>2016-03-26T11:54:24Z</time>
      </trkpt>
      <trkpt lat="42.95852" lon="0.85957">
        <ele>1490</ele>
        <time>2016-03-26T11:54:25Z</time>
      </trkpt>
      <trkpt lat="42.95852" lon="0.85955">
        <ele>1489</ele>
        <time>2016-03-26T11:54:27Z</time>
      </trkpt>
      <trkpt lat="42.95853" lon="0.85955">
        <ele>1489</ele>
        <time>2016-03-26T11:54:29Z</time>
      </trkpt>
      <trkpt lat="42.95854" lon="0.85956">
        <ele>1489</ele>
        <time>2016-03-26T11:54:30Z</time>
      </trkpt>
      <trkpt lat="42.95855" lon="0.85955">
        <ele>1489</ele>
        <time>2016-03-26T11:54:32Z</time>
      </trkpt>
      <trkpt lat="42.95855" lon="0.85953">
        <ele>1489</ele>
        <time>2016-03-26T11:54:34Z</time>
      </trkpt>
      <trkpt lat="42.95856" lon="0.85952">
        <ele>1488</ele>
        <time>2016-03-26T11:54:36Z</time>
      </trkpt>
      <trkpt lat="42.95856" lon="0.85951">
        <ele>1488</ele>
        <time>2016-03-26T11:54:37Z</time>
      </trkpt>
      <trkpt lat="42.95856" lon="0.8595">
        <ele>1488</ele>
        <time>2016-03-26T11:54:39Z</time>
      </trkpt>
      <trkpt lat="42.95856" lon="0.8595">
        <ele>1487</ele>
        <time>2016-03-26T11:54:40Z</time>
      </trkpt>
      <trkpt lat="42.95857" lon="0.85947">
        <ele>1487</ele>
        <time>2016-03-26T11:54:44Z</time>
      </trkpt>
      <trkpt lat="42.95857" lon="0.85946">
        <ele>1487</ele>
        <time>2016-03-26T11:54:45Z</time>
      </trkpt>
      <trkpt lat="42.95858" lon="0.85944">
        <ele>1486</ele>
        <time>2016-03-26T11:54:47Z</time>
      </trkpt>
      <trkpt lat="42.95858" lon="0.85943">
        <ele>1486</ele>
        <time>2016-03-26T11:54:49Z</time>
      </trkpt>
      <trkpt lat="42.95858" lon="0.85942">
        <ele>1486</ele>
        <time>2016-03-26T11:54:50Z</time>
      </trkpt>
      <trkpt lat="42.95859" lon="0.85942">
        <ele>1485</ele>
        <time>2016-03-26T11:54:52Z</time>
      </trkpt>
      <trkpt lat="42.95859" lon="0.85942">
        <ele>1485</ele>
        <time>2016-03-26T11:54:53Z</time>
      </trkpt>
      <trkpt lat="42.9586" lon="0.85942">
        <ele>1485</ele>
        <time>2016-03-26T11:54:55Z</time>
      </trkpt>
      <trkpt lat="42.9586" lon="0.85942">
        <ele>1485</ele>
        <time>2016-03-26T11:54:57Z</time>
      </trkpt>
      <trkpt lat="42.95861" lon="0.8594">
        <ele>1485</ele>
        <time>2016-03-26T11:54:59Z</time>
      </trkpt>
      <trkpt lat="42.95861" lon="0.8594">
        <ele>1485</ele>
        <time>2016-03-26T11:55:00Z</time>
      </trkpt>
      <trkpt lat="42.95862" lon="0.85939">
        <ele>1484</ele>
        <time>2016-03-26T11:55:01Z</time>
      </trkpt>
      <trkpt lat="42.95862" lon="0.85937">
        <ele>1484</ele>
        <time>2016-03-26T11:55:03Z</time>
      </trkpt>
      <trkpt lat="42.95863" lon="0.85937">
        <ele>1484</ele>
        <time>2016-03-26T11:55:04Z</time>
      </trkpt>
      <trkpt lat="42.95863" lon="0.85936">
        <ele>1484</ele>
        <time>2016-03-26T11:55:06Z</time>
      </trkpt>
      <trkpt lat="42.95863" lon="0.85935">
        <ele>1484</ele>
        <time>2016-03-26T11:55:08Z</time>
      </trkpt>
      <trkpt lat="42.95864" lon="0.85935">
        <ele>1483</ele>
        <time>2016-03-26T11:55:09Z</time>
      </trkpt>
      <trkpt lat="42.95865" lon="0.85934">
        <ele>1483</ele>
        <time>2016-03-26T11:55:11Z</time>
      </trkpt>
      <trkpt lat="42.95865" lon="0.85933">
        <ele>1483</ele>
        <time>2016-03-26T11:55:12Z</time>
      </trkpt>
      <trkpt lat="42.95866" lon="0.85932">
        <ele>1483</ele>
        <time>2016-03-26T11:55:14Z</time>
      </trkpt>
      <trkpt lat="42.95866" lon="0.85932">
        <ele>1483</ele>
        <time>2016-03-26T11:55:16Z</time>
      </trkpt>
      <trkpt lat="42.95867" lon="0.85931">
        <ele>1482</ele>
        <time>2016-03-26T11:55:18Z</time>
      </trkpt>
      <trkpt lat="42.95868" lon="0.8593">
        <ele>1482</ele>
        <time>2016-03-26T11:55:20Z</time>
      </trkpt>
      <trkpt lat="42.95868" lon="0.85929">
        <ele>1482</ele>
        <time>2016-03-26T11:55:22Z</time>
      </trkpt>
      <trkpt lat="42.95868" lon="0.85929">
        <ele>1481</ele>
        <time>2016-03-26T11:55:38Z</time>
      </trkpt>
      <trkpt lat="42.95871" lon="0.85927">
        <ele>1480</ele>
        <time>2016-03-26T11:55:40Z</time>
      </trkpt>
      <trkpt lat="42.95871" lon="0.85927">
        <ele>1479</ele>
        <time>2016-03-26T11:55:42Z</time>
      </trkpt>
      <trkpt lat="42.95871" lon="0.85927">
        <ele>1478</ele>
        <time>2016-03-26T11:56:00Z</time>
      </trkpt>
      <trkpt lat="42.95871" lon="0.85927">
        <ele>1477</ele>
        <time>2016-03-26T11:56:01Z</time>
      </trkpt>
      <trkpt lat="42.95875" lon="0.85923">
        <ele>1476</ele>
        <time>2016-03-26T11:56:08Z</time>
      </trkpt>
      <trkpt lat="42.95875" lon="0.85923">
        <ele>1476</ele>
        <time>2016-03-26T11:56:09Z</time>
      </trkpt>
      <trkpt lat="42.95876" lon="0.85922">
        <ele>1475</ele>
        <time>2016-03-26T11:56:11Z</time>
      </trkpt>
      <trkpt lat="42.95879" lon="0.8592">
        <ele>1474</ele>
        <time>2016-03-26T11:56:30Z</time>
      </trkpt>
      <trkpt lat="42.9588" lon="0.85919">
        <ele>1473</ele>
        <time>2016-03-26T11:56:32Z</time>
      </trkpt>
      <trkpt lat="42.95881" lon="0.85919">
        <ele>1472</ele>
        <time>2016-03-26T11:56:34Z</time>
      </trkpt>
      <trkpt lat="42.95881" lon="0.85918">
        <ele>1471</ele>
        <time>2016-03-26T11:56:35Z</time>
      </trkpt>
      <trkpt lat="42.95881" lon="0.85917">
        <ele>1470</ele>
        <time>2016-03-26T11:56:37Z</time>
      </trkpt>
      <trkpt lat="42.95882" lon="0.85917">
        <ele>1469</ele>
        <time>2016-03-26T11:56:38Z</time>
      </trkpt>
      <trkpt lat="42.95882" lon="0.85917">
        <ele>1469</ele>
        <time>2016-03-26T11:56:40Z</time>
      </trkpt>
      <trkpt lat="42.95883" lon="0.85916">
        <ele>1469</ele>
        <time>2016-03-26T11:56:42Z</time>
      </trkpt>
      <trkpt lat="42.95884" lon="0.85916">
        <ele>1468</ele>
        <time>2016-03-26T11:56:44Z</time>
      </trkpt>
      <trkpt lat="42.95885" lon="0.85913">
        <ele>1468</ele>
        <time>2016-03-26T11:56:50Z</time>
      </trkpt>
      <trkpt lat="42.95886" lon="0.85912">
        <ele>1467</ele>
        <time>2016-03-26T11:56:52Z</time>
      </trkpt>
      <trkpt lat="42.95886" lon="0.85913">
        <ele>1467</ele>
        <time>2016-03-26T11:56:53Z</time>
      </trkpt>
      <trkpt lat="42.95887" lon="0.85912">
        <ele>1467</ele>
        <time>2016-03-26T11:56:54Z</time>
      </trkpt>
      <trkpt lat="42.95887" lon="0.85912">
        <ele>1466</ele>
        <time>2016-03-26T11:56:56Z</time>
      </trkpt>
      <trkpt lat="42.95887" lon="0.85912">
        <ele>1466</ele>
        <time>2016-03-26T11:56:58Z</time>
      </trkpt>
      <trkpt lat="42.95889" lon="0.8591">
        <ele>1465</ele>
        <time>2016-03-26T11:57:06Z</time>
      </trkpt>
      <trkpt lat="42.95889" lon="0.8591">
        <ele>1465</ele>
        <time>2016-03-26T11:57:07Z</time>
      </trkpt>
      <trkpt lat="42.9589" lon="0.8591">
        <ele>1465</ele>
        <time>2016-03-26T11:57:08Z</time>
      </trkpt>
      <trkpt lat="42.9589" lon="0.8591">
        <ele>1464</ele>
        <time>2016-03-26T11:57:10Z</time>
      </trkpt>
      <trkpt lat="42.95891" lon="0.85909">
        <ele>1464</ele>
        <time>2016-03-26T11:57:12Z</time>
      </trkpt>
      <trkpt lat="42.95891" lon="0.85907">
        <ele>1464</ele>
        <time>2016-03-26T11:57:16Z</time>
      </trkpt>
      <trkpt lat="42.95892" lon="0.85905">
        <ele>1463</ele>
        <time>2016-03-26T11:57:18Z</time>
      </trkpt>
      <trkpt lat="42.95892" lon="0.85905">
        <ele>1463</ele>
        <time>2016-03-26T11:57:20Z</time>
      </trkpt>
      <trkpt lat="42.95893" lon="0.85905">
        <ele>1462</ele>
        <time>2016-03-26T11:57:22Z</time>
      </trkpt>
      <trkpt lat="42.95893" lon="0.85905">
        <ele>1462</ele>
        <time>2016-03-26T11:57:23Z</time>
      </trkpt>
      <trkpt lat="42.95894" lon="0.85905">
        <ele>1462</ele>
        <time>2016-03-26T11:57:25Z</time>
      </trkpt>
      <trkpt lat="42.95894" lon="0.85904">
        <ele>1462</ele>
        <time>2016-03-26T11:57:27Z</time>
      </trkpt>
      <trkpt lat="42.95895" lon="0.85904">
        <ele>1461</ele>
        <time>2016-03-26T11:57:28Z</time>
      </trkpt>
      <trkpt lat="42.95895" lon="0.85904">
        <ele>1461</ele>
        <time>2016-03-26T11:57:30Z</time>
      </trkpt>
      <trkpt lat="42.95895" lon="0.85904">
        <ele>1461</ele>
        <time>2016-03-26T11:57:32Z</time>
      </trkpt>
      <trkpt lat="42.95895" lon="0.85904">
        <ele>1461</ele>
        <time>2016-03-26T11:57:50Z</time>
      </trkpt>
      <trkpt lat="42.95895" lon="0.85904">
        <ele>1461</ele>
        <time>2016-03-26T11:57:52Z</time>
      </trkpt>
      <trkpt lat="42.95901" lon="0.85896">
        <ele>1459</ele>
        <time>2016-03-26T11:57:55Z</time>
      </trkpt>
      <trkpt lat="42.95902" lon="0.85895">
        <ele>1458</ele>
        <time>2016-03-26T11:57:57Z</time>
      </trkpt>
      <trkpt lat="42.95902" lon="0.85893">
        <ele>1457</ele>
        <time>2016-03-26T11:57:59Z</time>
      </trkpt>
      <trkpt lat="42.95902" lon="0.85891">
        <ele>1457</ele>
        <time>2016-03-26T11:58:01Z</time>
      </trkpt>
      <trkpt lat="42.95903" lon="0.8589">
        <ele>1456</ele>
        <time>2016-03-26T11:58:03Z</time>
      </trkpt>
      <trkpt lat="42.95903" lon="0.85889">
        <ele>1456</ele>
        <time>2016-03-26T11:58:05Z</time>
      </trkpt>
      <trkpt lat="42.95904" lon="0.85888">
        <ele>1456</ele>
        <time>2016-03-26T11:58:07Z</time>
      </trkpt>
      <trkpt lat="42.95904" lon="0.85888">
        <ele>1455</ele>
        <time>2016-03-26T11:58:09Z</time>
      </trkpt>
      <trkpt lat="42.95905" lon="0.85887">
        <ele>1455</ele>
        <time>2016-03-26T11:58:11Z</time>
      </trkpt>
      <trkpt lat="42.95905" lon="0.85886">
        <ele>1455</ele>
        <time>2016-03-26T11:58:13Z</time>
      </trkpt>
      <trkpt lat="42.95906" lon="0.85887">
        <ele>1454</ele>
        <time>2016-03-26T11:58:14Z</time>
      </trkpt>
      <trkpt lat="42.95905" lon="0.85887">
        <ele>1454</ele>
        <time>2016-03-26T11:58:16Z</time>
      </trkpt>
      <trkpt lat="42.95906" lon="0.85887">
        <ele>1454</ele>
        <time>2016-03-26T11:58:18Z</time>
      </trkpt>
      <trkpt lat="42.95906" lon="0.85887">
        <ele>1454</ele>
        <time>2016-03-26T11:58:20Z</time>
      </trkpt>
      <trkpt lat="42.95907" lon="0.85887">
        <ele>1453</ele>
        <time>2016-03-26T11:58:22Z</time>
      </trkpt>
      <trkpt lat="42.95906" lon="0.85888">
        <ele>1453</ele>
        <time>2016-03-26T11:58:24Z</time>
      </trkpt>
      <trkpt lat="42.95907" lon="0.85888">
        <ele>1453</ele>
        <time>2016-03-26T11:58:27Z</time>
      </trkpt>
      <trkpt lat="42.95908" lon="0.85888">
        <ele>1453</ele>
        <time>2016-03-26T11:58:29Z</time>
      </trkpt>
      <trkpt lat="42.9591" lon="0.85887">
        <ele>1453</ele>
        <time>2016-03-26T11:58:31Z</time>
      </trkpt>
      <trkpt lat="42.95911" lon="0.85887">
        <ele>1453</ele>
        <time>2016-03-26T11:58:32Z</time>
      </trkpt>
      <trkpt lat="42.95912" lon="0.85886">
        <ele>1452</ele>
        <time>2016-03-26T11:58:34Z</time>
      </trkpt>
      <trkpt lat="42.95912" lon="0.85886">
        <ele>1452</ele>
        <time>2016-03-26T11:58:35Z</time>
      </trkpt>
      <trkpt lat="42.95913" lon="0.85884">
        <ele>1452</ele>
        <time>2016-03-26T11:58:37Z</time>
      </trkpt>
      <trkpt lat="42.95913" lon="0.85884">
        <ele>1452</ele>
        <time>2016-03-26T11:58:38Z</time>
      </trkpt>
      <trkpt lat="42.95915" lon="0.85882">
        <ele>1452</ele>
        <time>2016-03-26T11:58:40Z</time>
      </trkpt>
      <trkpt lat="42.95917" lon="0.85879">
        <ele>1451</ele>
        <time>2016-03-26T11:58:42Z</time>
      </trkpt>
      <trkpt lat="42.95917" lon="0.85878">
        <ele>1451</ele>
        <time>2016-03-26T11:58:43Z</time>
      </trkpt>
      <trkpt lat="42.95917" lon="0.85877">
        <ele>1451</ele>
        <time>2016-03-26T11:58:45Z</time>
      </trkpt>
      <trkpt lat="42.95918" lon="0.85875">
        <ele>1450</ele>
        <time>2016-03-26T11:58:46Z</time>
      </trkpt>
      <trkpt lat="42.95919" lon="0.85874">
        <ele>1450</ele>
        <time>2016-03-26T11:58:48Z</time>
      </trkpt>
      <trkpt lat="42.9592" lon="0.85874">
        <ele>1450</ele>
        <time>2016-03-26T11:58:49Z</time>
      </trkpt>
      <trkpt lat="42.95921" lon="0.85872">
        <ele>1449</ele>
        <time>2016-03-26T11:58:51Z</time>
      </trkpt>
      <trkpt lat="42.95921" lon="0.85871">
        <ele>1449</ele>
        <time>2016-03-26T11:58:52Z</time>
      </trkpt>
      <trkpt lat="42.95923" lon="0.85868">
        <ele>1449</ele>
        <time>2016-03-26T11:58:54Z</time>
      </trkpt>
      <trkpt lat="42.95923" lon="0.85867">
        <ele>1448</ele>
        <time>2016-03-26T11:58:55Z</time>
      </trkpt>
      <trkpt lat="42.95924" lon="0.85866">
        <ele>1448</ele>
        <time>2016-03-26T11:58:57Z</time>
      </trkpt>
      <trkpt lat="42.95925" lon="0.85865">
        <ele>1448</ele>
        <time>2016-03-26T11:58:59Z</time>
      </trkpt>
      <trkpt lat="42.95925" lon="0.85865">
        <ele>1447</ele>
        <time>2016-03-26T11:59:00Z</time>
      </trkpt>
      <trkpt lat="42.95926" lon="0.85864">
        <ele>1447</ele>
        <time>2016-03-26T11:59:04Z</time>
      </trkpt>
      <trkpt lat="42.95927" lon="0.85864">
        <ele>1446</ele>
        <time>2016-03-26T11:59:08Z</time>
      </trkpt>
      <trkpt lat="42.95928" lon="0.85862">
        <ele>1446</ele>
        <time>2016-03-26T11:59:12Z</time>
      </trkpt>
      <trkpt lat="42.95929" lon="0.85862">
        <ele>1445</ele>
        <time>2016-03-26T11:59:13Z</time>
      </trkpt>
      <trkpt lat="42.95929" lon="0.85862">
        <ele>1445</ele>
        <time>2016-03-26T11:59:14Z</time>
      </trkpt>
      <trkpt lat="42.9593" lon="0.85862">
        <ele>1444</ele>
        <time>2016-03-26T11:59:16Z</time>
      </trkpt>
      <trkpt lat="42.95931" lon="0.85863">
        <ele>1444</ele>
        <time>2016-03-26T11:59:18Z</time>
      </trkpt>
      <trkpt lat="42.95932" lon="0.85863">
        <ele>1443</ele>
        <time>2016-03-26T11:59:20Z</time>
      </trkpt>
      <trkpt lat="42.95933" lon="0.85862">
        <ele>1443</ele>
        <time>2016-03-26T11:59:22Z</time>
      </trkpt>
      <trkpt lat="42.95934" lon="0.85861">
        <ele>1442</ele>
        <time>2016-03-26T11:59:24Z</time>
      </trkpt>
      <trkpt lat="42.95935" lon="0.85861">
        <ele>1442</ele>
        <time>2016-03-26T11:59:25Z</time>
      </trkpt>
      <trkpt lat="42.95935" lon="0.8586">
        <ele>1441</ele>
        <time>2016-03-26T11:59:26Z</time>
      </trkpt>
      <trkpt lat="42.95936" lon="0.8586">
        <ele>1441</ele>
        <time>2016-03-26T11:59:28Z</time>
      </trkpt>
      <trkpt lat="42.95936" lon="0.85859">
        <ele>1440</ele>
        <time>2016-03-26T11:59:30Z</time>
      </trkpt>
      <trkpt lat="42.95937" lon="0.85858">
        <ele>1440</ele>
        <time>2016-03-26T11:59:31Z</time>
      </trkpt>
      <trkpt lat="42.95937" lon="0.85858">
        <ele>1439</ele>
        <time>2016-03-26T11:59:33Z</time>
      </trkpt>
      <trkpt lat="42.95937" lon="0.85858">
        <ele>1439</ele>
        <time>2016-03-26T11:59:34Z</time>
      </trkpt>
      <trkpt lat="42.9594" lon="0.85857">
        <ele>1438</ele>
        <time>2016-03-26T11:59:40Z</time>
      </trkpt>
      <trkpt lat="42.9594" lon="0.85856">
        <ele>1438</ele>
        <time>2016-03-26T11:59:42Z</time>
      </trkpt>
      <trkpt lat="42.95941" lon="0.85855">
        <ele>1437</ele>
        <time>2016-03-26T11:59:44Z</time>
      </trkpt>
      <trkpt lat="42.95942" lon="0.85854">
        <ele>1437</ele>
        <time>2016-03-26T11:59:46Z</time>
      </trkpt>
      <trkpt lat="42.95942" lon="0.85854">
        <ele>1436</ele>
        <time>2016-03-26T11:59:47Z</time>
      </trkpt>
      <trkpt lat="42.95943" lon="0.85853">
        <ele>1435</ele>
        <time>2016-03-26T11:59:49Z</time>
      </trkpt>
      <trkpt lat="42.95944" lon="0.85853">
        <ele>1435</ele>
        <time>2016-03-26T11:59:50Z</time>
      </trkpt>
      <trkpt lat="42.95944" lon="0.85851">
        <ele>1434</ele>
        <time>2016-03-26T11:59:52Z</time>
      </trkpt>
      <trkpt lat="42.95945" lon="0.85851">
        <ele>1434</ele>
        <time>2016-03-26T11:59:54Z</time>
      </trkpt>
      <trkpt lat="42.95945" lon="0.8585">
        <ele>1433</ele>
        <time>2016-03-26T11:59:55Z</time>
      </trkpt>
      <trkpt lat="42.95947" lon="0.85849">
        <ele>1433</ele>
        <time>2016-03-26T11:59:57Z</time>
      </trkpt>
      <trkpt lat="42.95948" lon="0.85849">
        <ele>1432</ele>
        <time>2016-03-26T11:59:59Z</time>
      </trkpt>
      <trkpt lat="42.95949" lon="0.85848">
        <ele>1432</ele>
        <time>2016-03-26T12:00:01Z</time>
      </trkpt>
      <trkpt lat="42.9595" lon="0.85847">
        <ele>1431</ele>
        <time>2016-03-26T12:00:03Z</time>
      </trkpt>
      <trkpt lat="42.9595" lon="0.85847">
        <ele>1431</ele>
        <time>2016-03-26T12:00:05Z</time>
      </trkpt>
      <trkpt lat="42.9595" lon="0.85847">
        <ele>1430</ele>
        <time>2016-03-26T12:00:07Z</time>
      </trkpt>
      <trkpt lat="42.95955" lon="0.8584">
        <ele>1429</ele>
        <time>2016-03-26T12:00:31Z</time>
      </trkpt>
      <trkpt lat="42.95956" lon="0.8584">
        <ele>1428</ele>
        <time>2016-03-26T12:00:32Z</time>
      </trkpt>
      <trkpt lat="42.95956" lon="0.8584">
        <ele>1426</ele>
        <time>2016-03-26T12:00:33Z</time>
      </trkpt>
      <trkpt lat="42.95957" lon="0.85839">
        <ele>1425</ele>
        <time>2016-03-26T12:00:35Z</time>
      </trkpt>
      <trkpt lat="42.95958" lon="0.85835">
        <ele>1424</ele>
        <time>2016-03-26T12:00:39Z</time>
      </trkpt>
      <trkpt lat="42.9596" lon="0.85831">
        <ele>1423</ele>
        <time>2016-03-26T12:00:47Z</time>
      </trkpt>
      <trkpt lat="42.95961" lon="0.85829">
        <ele>1423</ele>
        <time>2016-03-26T12:00:49Z</time>
      </trkpt>
      <trkpt lat="42.95961" lon="0.85828">
        <ele>1422</ele>
        <time>2016-03-26T12:00:50Z</time>
      </trkpt>
      <trkpt lat="42.95963" lon="0.85828">
        <ele>1421</ele>
        <time>2016-03-26T12:00:54Z</time>
      </trkpt>
      <trkpt lat="42.95964" lon="0.85825">
        <ele>1421</ele>
        <time>2016-03-26T12:00:58Z</time>
      </trkpt>
      <trkpt lat="42.95964" lon="0.85824">
        <ele>1420</ele>
        <time>2016-03-26T12:01:00Z</time>
      </trkpt>
      <trkpt lat="42.95965" lon="0.85824">
        <ele>1420</ele>
        <time>2016-03-26T12:01:01Z</time>
      </trkpt>
      <trkpt lat="42.95965" lon="0.85823">
        <ele>1419</ele>
        <time>2016-03-26T12:01:02Z</time>
      </trkpt>
      <trkpt lat="42.95965" lon="0.85822">
        <ele>1419</ele>
        <time>2016-03-26T12:01:03Z</time>
      </trkpt>
      <trkpt lat="42.95966" lon="0.85822">
        <ele>1418</ele>
        <time>2016-03-26T12:01:05Z</time>
      </trkpt>
      <trkpt lat="42.95967" lon="0.85822">
        <ele>1418</ele>
        <time>2016-03-26T12:01:06Z</time>
      </trkpt>
      <trkpt lat="42.95968" lon="0.85821">
        <ele>1418</ele>
        <time>2016-03-26T12:01:08Z</time>
      </trkpt>
      <trkpt lat="42.95968" lon="0.8582">
        <ele>1418</ele>
        <time>2016-03-26T12:01:10Z</time>
      </trkpt>
      <trkpt lat="42.95968" lon="0.85819">
        <ele>1417</ele>
        <time>2016-03-26T12:01:12Z</time>
      </trkpt>
      <trkpt lat="42.95969" lon="0.85816">
        <ele>1417</ele>
        <time>2016-03-26T12:01:30Z</time>
      </trkpt>
      <trkpt lat="42.9597" lon="0.85815">
        <ele>1416</ele>
        <time>2016-03-26T12:01:32Z</time>
      </trkpt>
      <trkpt lat="42.95971" lon="0.85813">
        <ele>1415</ele>
        <time>2016-03-26T12:01:37Z</time>
      </trkpt>
      <trkpt lat="42.95971" lon="0.85812">
        <ele>1415</ele>
        <time>2016-03-26T12:01:38Z</time>
      </trkpt>
      <trkpt lat="42.95972" lon="0.85811">
        <ele>1414</ele>
        <time>2016-03-26T12:01:40Z</time>
      </trkpt>
      <trkpt lat="42.95972" lon="0.8581">
        <ele>1414</ele>
        <time>2016-03-26T12:01:42Z</time>
      </trkpt>
      <trkpt lat="42.95973" lon="0.85808">
        <ele>1414</ele>
        <time>2016-03-26T12:01:44Z</time>
      </trkpt>
      <trkpt lat="42.95974" lon="0.85807">
        <ele>1414</ele>
        <time>2016-03-26T12:01:45Z</time>
      </trkpt>
      <trkpt lat="42.95974" lon="0.85806">
        <ele>1413</ele>
        <time>2016-03-26T12:01:47Z</time>
      </trkpt>
      <trkpt lat="42.95974" lon="0.85805">
        <ele>1413</ele>
        <time>2016-03-26T12:01:48Z</time>
      </trkpt>
      <trkpt lat="42.95975" lon="0.85804">
        <ele>1413</ele>
        <time>2016-03-26T12:01:50Z</time>
      </trkpt>
      <trkpt lat="42.95975" lon="0.85804">
        <ele>1413</ele>
        <time>2016-03-26T12:01:52Z</time>
      </trkpt>
      <trkpt lat="42.95975" lon="0.85803">
        <ele>1413</ele>
        <time>2016-03-26T12:01:53Z</time>
      </trkpt>
      <trkpt lat="42.95976" lon="0.85803">
        <ele>1412</ele>
        <time>2016-03-26T12:01:55Z</time>
      </trkpt>
      <trkpt lat="42.95976" lon="0.85803">
        <ele>1412</ele>
        <time>2016-03-26T12:01:57Z</time>
      </trkpt>
      <trkpt lat="42.95977" lon="0.85803">
        <ele>1412</ele>
        <time>2016-03-26T12:02:00Z</time>
      </trkpt>
      <trkpt lat="42.95977" lon="0.85802">
        <ele>1412</ele>
        <time>2016-03-26T12:02:01Z</time>
      </trkpt>
      <trkpt lat="42.95977" lon="0.85801">
        <ele>1411</ele>
        <time>2016-03-26T12:02:03Z</time>
      </trkpt>
      <trkpt lat="42.95978" lon="0.85801">
        <ele>1411</ele>
        <time>2016-03-26T12:02:04Z</time>
      </trkpt>
      <trkpt lat="42.95979" lon="0.85799">
        <ele>1411</ele>
        <time>2016-03-26T12:02:06Z</time>
      </trkpt>
      <trkpt lat="42.95979" lon="0.85799">
        <ele>1411</ele>
        <time>2016-03-26T12:02:08Z</time>
      </trkpt>
      <trkpt lat="42.95981" lon="0.85796">
        <ele>1410</ele>
        <time>2016-03-26T12:02:28Z</time>
      </trkpt>
      <trkpt lat="42.95982" lon="0.85795">
        <ele>1409</ele>
        <time>2016-03-26T12:02:30Z</time>
      </trkpt>
      <trkpt lat="42.95984" lon="0.85794">
        <ele>1408</ele>
        <time>2016-03-26T12:02:32Z</time>
      </trkpt>
      <trkpt lat="42.95985" lon="0.85794">
        <ele>1407</ele>
        <time>2016-03-26T12:02:34Z</time>
      </trkpt>
      <trkpt lat="42.95985" lon="0.85794">
        <ele>1406</ele>
        <time>2016-03-26T12:02:36Z</time>
      </trkpt>
      <trkpt lat="42.95987" lon="0.85794">
        <ele>1406</ele>
        <time>2016-03-26T12:02:38Z</time>
      </trkpt>
      <trkpt lat="42.95988" lon="0.85794">
        <ele>1405</ele>
        <time>2016-03-26T12:02:40Z</time>
      </trkpt>
      <trkpt lat="42.9599" lon="0.85793">
        <ele>1405</ele>
        <time>2016-03-26T12:02:42Z</time>
      </trkpt>
      <trkpt lat="42.9599" lon="0.85795">
        <ele>1405</ele>
        <time>2016-03-26T12:02:44Z</time>
      </trkpt>
      <trkpt lat="42.95991" lon="0.85795">
        <ele>1404</ele>
        <time>2016-03-26T12:02:46Z</time>
      </trkpt>
      <trkpt lat="42.95992" lon="0.85794">
        <ele>1404</ele>
        <time>2016-03-26T12:02:48Z</time>
      </trkpt>
      <trkpt lat="42.95993" lon="0.85793">
        <ele>1403</ele>
        <time>2016-03-26T12:02:50Z</time>
      </trkpt>
      <trkpt lat="42.95994" lon="0.85792">
        <ele>1403</ele>
        <time>2016-03-26T12:02:52Z</time>
      </trkpt>
      <trkpt lat="42.95995" lon="0.85792">
        <ele>1403</ele>
        <time>2016-03-26T12:02:53Z</time>
      </trkpt>
      <trkpt lat="42.95995" lon="0.85791">
        <ele>1402</ele>
        <time>2016-03-26T12:02:54Z</time>
      </trkpt>
      <trkpt lat="42.95997" lon="0.85789">
        <ele>1402</ele>
        <time>2016-03-26T12:02:56Z</time>
      </trkpt>
      <trkpt lat="42.95997" lon="0.85788">
        <ele>1401</ele>
        <time>2016-03-26T12:02:58Z</time>
      </trkpt>
      <trkpt lat="42.95998" lon="0.85789">
        <ele>1401</ele>
        <time>2016-03-26T12:03:00Z</time>
      </trkpt>
      <trkpt lat="42.95998" lon="0.85789">
        <ele>1400</ele>
        <time>2016-03-26T12:03:01Z</time>
      </trkpt>
      <trkpt lat="42.95999" lon="0.85789">
        <ele>1400</ele>
        <time>2016-03-26T12:03:03Z</time>
      </trkpt>
      <trkpt lat="42.96" lon="0.85789">
        <ele>1400</ele>
        <time>2016-03-26T12:03:04Z</time>
      </trkpt>
      <trkpt lat="42.96001" lon="0.85788">
        <ele>1399</ele>
        <time>2016-03-26T12:03:06Z</time>
      </trkpt>
      <trkpt lat="42.96001" lon="0.85788">
        <ele>1399</ele>
        <time>2016-03-26T12:03:07Z</time>
      </trkpt>
      <trkpt lat="42.96003" lon="0.85789">
        <ele>1398</ele>
        <time>2016-03-26T12:03:09Z</time>
      </trkpt>
      <trkpt lat="42.96004" lon="0.85788">
        <ele>1398</ele>
        <time>2016-03-26T12:03:11Z</time>
      </trkpt>
      <trkpt lat="42.96004" lon="0.85788">
        <ele>1398</ele>
        <time>2016-03-26T12:03:12Z</time>
      </trkpt>
      <trkpt lat="42.96005" lon="0.85787">
        <ele>1397</ele>
        <time>2016-03-26T12:03:14Z</time>
      </trkpt>
      <trkpt lat="42.96006" lon="0.85786">
        <ele>1397</ele>
        <time>2016-03-26T12:03:16Z</time>
      </trkpt>
      <trkpt lat="42.96006" lon="0.85786">
        <ele>1396</ele>
        <time>2016-03-26T12:03:17Z</time>
      </trkpt>
      <trkpt lat="42.96008" lon="0.85784">
        <ele>1396</ele>
        <time>2016-03-26T12:03:19Z</time>
      </trkpt>
      <trkpt lat="42.96009" lon="0.85782">
        <ele>1396</ele>
        <time>2016-03-26T12:03:21Z</time>
      </trkpt>
      <trkpt lat="42.96009" lon="0.85782">
        <ele>1395</ele>
        <time>2016-03-26T12:03:22Z</time>
      </trkpt>
      <trkpt lat="42.9601" lon="0.85782">
        <ele>1395</ele>
        <time>2016-03-26T12:03:24Z</time>
      </trkpt>
      <trkpt lat="42.96011" lon="0.85781">
        <ele>1394</ele>
        <time>2016-03-26T12:03:25Z</time>
      </trkpt>
      <trkpt lat="42.96012" lon="0.85781">
        <ele>1394</ele>
        <time>2016-03-26T12:03:27Z</time>
      </trkpt>
      <trkpt lat="42.96012" lon="0.8578">
        <ele>1394</ele>
        <time>2016-03-26T12:03:28Z</time>
      </trkpt>
      <trkpt lat="42.96013" lon="0.85779">
        <ele>1393</ele>
        <time>2016-03-26T12:03:30Z</time>
      </trkpt>
      <trkpt lat="42.96013" lon="0.85779">
        <ele>1393</ele>
        <time>2016-03-26T12:03:31Z</time>
      </trkpt>
      <trkpt lat="42.96013" lon="0.85778">
        <ele>1392</ele>
        <time>2016-03-26T12:03:33Z</time>
      </trkpt>
      <trkpt lat="42.96014" lon="0.85778">
        <ele>1392</ele>
        <time>2016-03-26T12:03:34Z</time>
      </trkpt>
      <trkpt lat="42.96014" lon="0.85778">
        <ele>1392</ele>
        <time>2016-03-26T12:03:36Z</time>
      </trkpt>
      <trkpt lat="42.96014" lon="0.85777">
        <ele>1391</ele>
        <time>2016-03-26T12:03:38Z</time>
      </trkpt>
      <trkpt lat="42.96016" lon="0.85775">
        <ele>1390</ele>
        <time>2016-03-26T12:03:48Z</time>
      </trkpt>
      <trkpt lat="42.96018" lon="0.85775">
        <ele>1390</ele>
        <time>2016-03-26T12:03:50Z</time>
      </trkpt>
      <trkpt lat="42.96018" lon="0.85775">
        <ele>1389</ele>
        <time>2016-03-26T12:03:52Z</time>
      </trkpt>
      <trkpt lat="42.96019" lon="0.85775">
        <ele>1388</ele>
        <time>2016-03-26T12:03:54Z</time>
      </trkpt>
      <trkpt lat="42.96019" lon="0.85775">
        <ele>1388</ele>
        <time>2016-03-26T12:03:56Z</time>
      </trkpt>
      <trkpt lat="42.9602" lon="0.85772">
        <ele>1387</ele>
        <time>2016-03-26T12:04:00Z</time>
      </trkpt>
      <trkpt lat="42.96021" lon="0.85771">
        <ele>1387</ele>
        <time>2016-03-26T12:04:01Z</time>
      </trkpt>
      <trkpt lat="42.96021" lon="0.85769">
        <ele>1387</ele>
        <time>2016-03-26T12:04:03Z</time>
      </trkpt>
      <trkpt lat="42.96022" lon="0.85769">
        <ele>1386</ele>
        <time>2016-03-26T12:04:05Z</time>
      </trkpt>
      <trkpt lat="42.96023" lon="0.85769">
        <ele>1386</ele>
        <time>2016-03-26T12:04:08Z</time>
      </trkpt>
      <trkpt lat="42.96023" lon="0.85769">
        <ele>1386</ele>
        <time>2016-03-26T12:04:09Z</time>
      </trkpt>
      <trkpt lat="42.96024" lon="0.85769">
        <ele>1386</ele>
        <time>2016-03-26T12:04:11Z</time>
      </trkpt>
      <trkpt lat="42.96026" lon="0.85769">
        <ele>1385</ele>
        <time>2016-03-26T12:04:12Z</time>
      </trkpt>
      <trkpt lat="42.96026" lon="0.85769">
        <ele>1385</ele>
        <time>2016-03-26T12:04:14Z</time>
      </trkpt>
      <trkpt lat="42.96027" lon="0.85769">
        <ele>1385</ele>
        <time>2016-03-26T12:04:16Z</time>
      </trkpt>
      <trkpt lat="42.96027" lon="0.85769">
        <ele>1384</ele>
        <time>2016-03-26T12:04:17Z</time>
      </trkpt>
      <trkpt lat="42.96028" lon="0.85769">
        <ele>1384</ele>
        <time>2016-03-26T12:04:19Z</time>
      </trkpt>
      <trkpt lat="42.96028" lon="0.85768">
        <ele>1384</ele>
        <time>2016-03-26T12:04:20Z</time>
      </trkpt>
      <trkpt lat="42.96029" lon="0.85766">
        <ele>1383</ele>
        <time>2016-03-26T12:04:22Z</time>
      </trkpt>
      <trkpt lat="42.9603" lon="0.85765">
        <ele>1383</ele>
        <time>2016-03-26T12:04:24Z</time>
      </trkpt>
      <trkpt lat="42.9603" lon="0.85765">
        <ele>1382</ele>
        <time>2016-03-26T12:04:25Z</time>
      </trkpt>
      <trkpt lat="42.96031" lon="0.85765">
        <ele>1382</ele>
        <time>2016-03-26T12:04:27Z</time>
      </trkpt>
      <trkpt lat="42.96031" lon="0.85764">
        <ele>1382</ele>
        <time>2016-03-26T12:04:28Z</time>
      </trkpt>
      <trkpt lat="42.96032" lon="0.85764">
        <ele>1381</ele>
        <time>2016-03-26T12:04:29Z</time>
      </trkpt>
      <trkpt lat="42.96033" lon="0.85764">
        <ele>1381</ele>
        <time>2016-03-26T12:04:31Z</time>
      </trkpt>
      <trkpt lat="42.96034" lon="0.85763">
        <ele>1381</ele>
        <time>2016-03-26T12:04:33Z</time>
      </trkpt>
      <trkpt lat="42.96035" lon="0.85761">
        <ele>1380</ele>
        <time>2016-03-26T12:04:35Z</time>
      </trkpt>
      <trkpt lat="42.96036" lon="0.85759">
        <ele>1380</ele>
        <time>2016-03-26T12:04:36Z</time>
      </trkpt>
      <trkpt lat="42.96036" lon="0.85758">
        <ele>1379</ele>
        <time>2016-03-26T12:04:38Z</time>
      </trkpt>
      <trkpt lat="42.96037" lon="0.85756">
        <ele>1379</ele>
        <time>2016-03-26T12:04:40Z</time>
      </trkpt>
      <trkpt lat="42.96037" lon="0.85756">
        <ele>1378</ele>
        <time>2016-03-26T12:04:42Z</time>
      </trkpt>
      <trkpt lat="42.96038" lon="0.85755">
        <ele>1378</ele>
        <time>2016-03-26T12:04:46Z</time>
      </trkpt>
      <trkpt lat="42.96038" lon="0.85756">
        <ele>1377</ele>
        <time>2016-03-26T12:04:47Z</time>
      </trkpt>
      <trkpt lat="42.9604" lon="0.85754">
        <ele>1377</ele>
        <time>2016-03-26T12:04:49Z</time>
      </trkpt>
      <trkpt lat="42.9604" lon="0.85754">
        <ele>1376</ele>
        <time>2016-03-26T12:04:51Z</time>
      </trkpt>
      <trkpt lat="42.9604" lon="0.85753">
        <ele>1376</ele>
        <time>2016-03-26T12:04:52Z</time>
      </trkpt>
      <trkpt lat="42.96041" lon="0.85753">
        <ele>1376</ele>
        <time>2016-03-26T12:04:54Z</time>
      </trkpt>
      <trkpt lat="42.96041" lon="0.85752">
        <ele>1375</ele>
        <time>2016-03-26T12:04:55Z</time>
      </trkpt>
      <trkpt lat="42.96046" lon="0.85753">
        <ele>1374</ele>
        <time>2016-03-26T12:05:14Z</time>
      </trkpt>
      <trkpt lat="42.96051" lon="0.85754">
        <ele>1373</ele>
        <time>2016-03-26T12:05:24Z</time>
      </trkpt>
      <trkpt lat="42.96055" lon="0.85749">
        <ele>1371</ele>
        <time>2016-03-26T12:05:36Z</time>
      </trkpt>
      <trkpt lat="42.96059" lon="0.85744">
        <ele>1369</ele>
        <time>2016-03-26T12:05:43Z</time>
      </trkpt>
      <trkpt lat="42.96064" lon="0.8574">
        <ele>1366</ele>
        <time>2016-03-26T12:05:50Z</time>
      </trkpt>
      <trkpt lat="42.96068" lon="0.85738">
        <ele>1364</ele>
        <time>2016-03-26T12:05:58Z</time>
      </trkpt>
      <trkpt lat="42.96069" lon="0.85738">
        <ele>1363</ele>
        <time>2016-03-26T12:06:00Z</time>
      </trkpt>
      <trkpt lat="42.9607" lon="0.85738">
        <ele>1362</ele>
        <time>2016-03-26T12:06:01Z</time>
      </trkpt>
      <trkpt lat="42.96071" lon="0.85738">
        <ele>1361</ele>
        <time>2016-03-26T12:06:02Z</time>
      </trkpt>
      <trkpt lat="42.96072" lon="0.85737">
        <ele>1360</ele>
        <time>2016-03-26T12:06:04Z</time>
      </trkpt>
      <trkpt lat="42.96074" lon="0.85737">
        <ele>1360</ele>
        <time>2016-03-26T12:06:06Z</time>
      </trkpt>
      <trkpt lat="42.96074" lon="0.85737">
        <ele>1359</ele>
        <time>2016-03-26T12:06:07Z</time>
      </trkpt>
      <trkpt lat="42.96079" lon="0.85737">
        <ele>1359</ele>
        <time>2016-03-26T12:06:13Z</time>
      </trkpt>
      <trkpt lat="42.9608" lon="0.85737">
        <ele>1358</ele>
        <time>2016-03-26T12:06:15Z</time>
      </trkpt>
      <trkpt lat="42.96084" lon="0.85736">
        <ele>1357</ele>
        <time>2016-03-26T12:06:20Z</time>
      </trkpt>
      <trkpt lat="42.96085" lon="0.85736">
        <ele>1356</ele>
        <time>2016-03-26T12:06:22Z</time>
      </trkpt>
      <trkpt lat="42.96086" lon="0.85735">
        <ele>1355</ele>
        <time>2016-03-26T12:06:23Z</time>
      </trkpt>
      <trkpt lat="42.96092" lon="0.85734">
        <ele>1353</ele>
        <time>2016-03-26T12:06:31Z</time>
      </trkpt>
      <trkpt lat="42.96095" lon="0.85734">
        <ele>1352</ele>
        <time>2016-03-26T12:06:34Z</time>
      </trkpt>
      <trkpt lat="42.96095" lon="0.85734">
        <ele>1351</ele>
        <time>2016-03-26T12:06:35Z</time>
      </trkpt>
      <trkpt lat="42.96098" lon="0.85734">
        <ele>1351</ele>
        <time>2016-03-26T12:06:40Z</time>
      </trkpt>
      <trkpt lat="42.961" lon="0.85734">
        <ele>1350</ele>
        <time>2016-03-26T12:06:42Z</time>
      </trkpt>
      <trkpt lat="42.96101" lon="0.85734">
        <ele>1349</ele>
        <time>2016-03-26T12:06:43Z</time>
      </trkpt>
      <trkpt lat="42.96103" lon="0.85734">
        <ele>1349</ele>
        <time>2016-03-26T12:06:45Z</time>
      </trkpt>
      <trkpt lat="42.96104" lon="0.85733">
        <ele>1349</ele>
        <time>2016-03-26T12:06:46Z</time>
      </trkpt>
      <trkpt lat="42.96108" lon="0.8573">
        <ele>1348</ele>
        <time>2016-03-26T12:06:50Z</time>
      </trkpt>
      <trkpt lat="42.96113" lon="0.85722">
        <ele>1348</ele>
        <time>2016-03-26T12:06:56Z</time>
      </trkpt>
      <trkpt lat="42.96114" lon="0.85719">
        <ele>1347</ele>
        <time>2016-03-26T12:06:58Z</time>
      </trkpt>
      <trkpt lat="42.96114" lon="0.85714">
        <ele>1346</ele>
        <time>2016-03-26T12:07:02Z</time>
      </trkpt>
      <trkpt lat="42.96113" lon="0.85713">
        <ele>1345</ele>
        <time>2016-03-26T12:07:03Z</time>
      </trkpt>
      <trkpt lat="42.96111" lon="0.8571">
        <ele>1345</ele>
        <time>2016-03-26T12:07:06Z</time>
      </trkpt>
      <trkpt lat="42.96111" lon="0.85702">
        <ele>1344</ele>
        <time>2016-03-26T12:07:12Z</time>
      </trkpt>
      <trkpt lat="42.96111" lon="0.85701">
        <ele>1344</ele>
        <time>2016-03-26T12:07:18Z</time>
      </trkpt>
      <trkpt lat="42.96113" lon="0.85701">
        <ele>1344</ele>
        <time>2016-03-26T12:07:21Z</time>
      </trkpt>
      <trkpt lat="42.96114" lon="0.85702">
        <ele>1343</ele>
        <time>2016-03-26T12:07:23Z</time>
      </trkpt>
      <trkpt lat="42.96118" lon="0.85703">
        <ele>1343</ele>
        <time>2016-03-26T12:07:30Z</time>
      </trkpt>
      <trkpt lat="42.96119" lon="0.85703">
        <ele>1342</ele>
        <time>2016-03-26T12:07:33Z</time>
      </trkpt>
      <trkpt lat="42.96119" lon="0.85702">
        <ele>1342</ele>
        <time>2016-03-26T12:07:35Z</time>
      </trkpt>
      <trkpt lat="42.9612" lon="0.85702">
        <ele>1341</ele>
        <time>2016-03-26T12:07:43Z</time>
      </trkpt>
      <trkpt lat="42.96122" lon="0.85697">
        <ele>1341</ele>
        <time>2016-03-26T12:07:45Z</time>
      </trkpt>
      <trkpt lat="42.96122" lon="0.85695">
        <ele>1341</ele>
        <time>2016-03-26T12:07:47Z</time>
      </trkpt>
      <trkpt lat="42.96122" lon="0.85693">
        <ele>1342</ele>
        <time>2016-03-26T12:07:49Z</time>
      </trkpt>
      <trkpt lat="42.96125" lon="0.85688">
        <ele>1342</ele>
        <time>2016-03-26T12:07:54Z</time>
      </trkpt>
      <trkpt lat="42.96125" lon="0.85685">
        <ele>1342</ele>
        <time>2016-03-26T12:07:57Z</time>
      </trkpt>
      <trkpt lat="42.96126" lon="0.85684">
        <ele>1342</ele>
        <time>2016-03-26T12:07:58Z</time>
      </trkpt>
      <trkpt lat="42.96126" lon="0.85683">
        <ele>1342</ele>
        <time>2016-03-26T12:07:59Z</time>
      </trkpt>
      <trkpt lat="42.96127" lon="0.8568">
        <ele>1342</ele>
        <time>2016-03-26T12:08:01Z</time>
      </trkpt>
      <trkpt lat="42.96129" lon="0.8568">
        <ele>1342</ele>
        <time>2016-03-26T12:08:03Z</time>
      </trkpt>
      <trkpt lat="42.96129" lon="0.8568">
        <ele>1342</ele>
        <time>2016-03-26T12:08:04Z</time>
      </trkpt>
      <trkpt lat="42.96131" lon="0.85679">
        <ele>1342</ele>
        <time>2016-03-26T12:08:06Z</time>
      </trkpt>
      <trkpt lat="42.96132" lon="0.85679">
        <ele>1342</ele>
        <time>2016-03-26T12:08:07Z</time>
      </trkpt>
      <trkpt lat="42.96133" lon="0.85679">
        <ele>1343</ele>
        <time>2016-03-26T12:08:09Z</time>
      </trkpt>
      <trkpt lat="42.96134" lon="0.85679">
        <ele>1343</ele>
        <time>2016-03-26T12:08:10Z</time>
      </trkpt>
      <trkpt lat="42.96135" lon="0.85679">
        <ele>1343</ele>
        <time>2016-03-26T12:08:12Z</time>
      </trkpt>
      <trkpt lat="42.96135" lon="0.85678">
        <ele>1343</ele>
        <time>2016-03-26T12:08:13Z</time>
      </trkpt>
      <trkpt lat="42.96137" lon="0.85678">
        <ele>1343</ele>
        <time>2016-03-26T12:08:15Z</time>
      </trkpt>
      <trkpt lat="42.96141" lon="0.8568">
        <ele>1344</ele>
        <time>2016-03-26T12:08:22Z</time>
      </trkpt>
      <trkpt lat="42.96142" lon="0.8568">
        <ele>1344</ele>
        <time>2016-03-26T12:08:23Z</time>
      </trkpt>
      <trkpt lat="42.96143" lon="0.8568">
        <ele>1344</ele>
        <time>2016-03-26T12:08:25Z</time>
      </trkpt>
      <trkpt lat="42.96143" lon="0.8568">
        <ele>1344</ele>
        <time>2016-03-26T12:08:26Z</time>
      </trkpt>
      <trkpt lat="42.96146" lon="0.85678">
        <ele>1344</ele>
        <time>2016-03-26T12:08:30Z</time>
      </trkpt>
      <trkpt lat="42.96146" lon="0.85677">
        <ele>1344</ele>
        <time>2016-03-26T12:08:31Z</time>
      </trkpt>
      <trkpt lat="42.96149" lon="0.85676">
        <ele>1344</ele>
        <time>2016-03-26T12:08:34Z</time>
      </trkpt>
      <trkpt lat="42.9615" lon="0.85675">
        <ele>1344</ele>
        <time>2016-03-26T12:08:36Z</time>
      </trkpt>
      <trkpt lat="42.96152" lon="0.85673">
        <ele>1344</ele>
        <time>2016-03-26T12:08:39Z</time>
      </trkpt>
      <trkpt lat="42.96153" lon="0.85673">
        <ele>1344</ele>
        <time>2016-03-26T12:08:41Z</time>
      </trkpt>
      <trkpt lat="42.96154" lon="0.85673">
        <ele>1344</ele>
        <time>2016-03-26T12:08:43Z</time>
      </trkpt>
      <trkpt lat="42.96155" lon="0.85672">
        <ele>1344</ele>
        <time>2016-03-26T12:08:47Z</time>
      </trkpt>
      <trkpt lat="42.96156" lon="0.85672">
        <ele>1344</ele>
        <time>2016-03-26T12:08:49Z</time>
      </trkpt>
      <trkpt lat="42.96156" lon="0.85672">
        <ele>1344</ele>
        <time>2016-03-26T12:08:51Z</time>
      </trkpt>
      <trkpt lat="42.96158" lon="0.85673">
        <ele>1344</ele>
        <time>2016-03-26T12:09:15Z</time>
      </trkpt>
      <trkpt lat="42.96158" lon="0.85673">
        <ele>1345</ele>
        <time>2016-03-26T12:09:16Z</time>
      </trkpt>
      <trkpt lat="42.96158" lon="0.85673">
        <ele>1345</ele>
        <time>2016-03-26T12:09:45Z</time>
      </trkpt>
      <trkpt lat="42.96158" lon="0.85673">
        <ele>1345</ele>
        <time>2016-03-26T12:09:46Z</time>
      </trkpt>
      <trkpt lat="42.96162" lon="0.85672">
        <ele>1345</ele>
        <time>2016-03-26T12:10:00Z</time>
      </trkpt>
      <trkpt lat="42.96162" lon="0.85671">
        <ele>1346</ele>
        <time>2016-03-26T12:10:02Z</time>
      </trkpt>
      <trkpt lat="42.96163" lon="0.85671">
        <ele>1346</ele>
        <time>2016-03-26T12:10:03Z</time>
      </trkpt>
      <trkpt lat="42.96163" lon="0.85671">
        <ele>1346</ele>
        <time>2016-03-26T12:10:06Z</time>
      </trkpt>
      <trkpt lat="42.96163" lon="0.85671">
        <ele>1347</ele>
        <time>2016-03-26T12:10:31Z</time>
      </trkpt>
      <trkpt lat="42.96163" lon="0.85671">
        <ele>1347</ele>
        <time>2016-03-26T12:10:32Z</time>
      </trkpt>
      <trkpt lat="42.96163" lon="0.85677">
        <ele>1347</ele>
        <time>2016-03-26T12:10:52Z</time>
      </trkpt>
      <trkpt lat="42.96162" lon="0.85676">
        <ele>1347</ele>
        <time>2016-03-26T12:10:54Z</time>
      </trkpt>
      <trkpt lat="42.96162" lon="0.85676">
        <ele>1347</ele>
        <time>2016-03-26T12:11:15Z</time>
      </trkpt>
      <trkpt lat="42.96162" lon="0.85676">
        <ele>1347</ele>
        <time>2016-03-26T12:11:16Z</time>
      </trkpt>
      <trkpt lat="42.96162" lon="0.85676">
        <ele>1346</ele>
        <time>2016-03-26T12:11:36Z</time>
      </trkpt>
      <trkpt lat="42.96163" lon="0.85676">
        <ele>1346</ele>
        <time>2016-03-26T12:11:37Z</time>
      </trkpt>
      <trkpt lat="42.96162" lon="0.85676">
        <ele>1346</ele>
        <time>2016-03-26T12:11:38Z</time>
      </trkpt>
      <trkpt lat="42.96162" lon="0.85677">
        <ele>1346</ele>
        <time>2016-03-26T12:11:42Z</time>
      </trkpt>
      <trkpt lat="42.96162" lon="0.85677">
        <ele>1346</ele>
        <time>2016-03-26T12:11:58Z</time>
      </trkpt>
      <trkpt lat="42.96162" lon="0.85677">
        <ele>1345</ele>
        <time>2016-03-26T12:11:59Z</time>
      </trkpt>
      <trkpt lat="42.9616" lon="0.85677">
        <ele>1346</ele>
        <time>2016-03-26T12:12:16Z</time>
      </trkpt>
      <trkpt lat="42.96161" lon="0.85672">
        <ele>1346</ele>
        <time>2016-03-26T12:12:22Z</time>
      </trkpt>
      <trkpt lat="42.96163" lon="0.8567">
        <ele>1346</ele>
        <time>2016-03-26T12:12:26Z</time>
      </trkpt>
      <trkpt lat="42.96163" lon="0.8567">
        <ele>1346</ele>
        <time>2016-03-26T12:13:00Z</time>
      </trkpt>
      <trkpt lat="42.96163" lon="0.8567">
        <ele>1346</ele>
        <time>2016-03-26T12:13:01Z</time>
      </trkpt>
      <trkpt lat="42.96163" lon="0.8567">
        <ele>1346</ele>
        <time>2016-03-26T12:13:19Z</time>
      </trkpt>
      <trkpt lat="42.96163" lon="0.8567">
        <ele>1346</ele>
        <time>2016-03-26T12:13:20Z</time>
      </trkpt>
      <trkpt lat="42.96163" lon="0.8567">
        <ele>1346</ele>
        <time>2016-03-26T12:13:42Z</time>
      </trkpt>
      <trkpt lat="42.96163" lon="0.8567">
        <ele>1346</ele>
        <time>2016-03-26T12:13:43Z</time>
      </trkpt>
      <trkpt lat="42.96172" lon="0.85667">
        <ele>1346</ele>
        <time>2016-03-26T12:13:54Z</time>
      </trkpt>
      <trkpt lat="42.96172" lon="0.85667">
        <ele>1346</ele>
        <time>2016-03-26T12:13:55Z</time>
      </trkpt>
      <trkpt lat="42.96173" lon="0.85667">
        <ele>1347</ele>
        <time>2016-03-26T12:13:56Z</time>
      </trkpt>
      <trkpt lat="42.96173" lon="0.85667">
        <ele>1347</ele>
        <time>2016-03-26T12:13:58Z</time>
      </trkpt>
      <trkpt lat="42.96173" lon="0.85667">
        <ele>1347</ele>
        <time>2016-03-26T12:14:28Z</time>
      </trkpt>
      <trkpt lat="42.96173" lon="0.85667">
        <ele>1347</ele>
        <time>2016-03-26T12:14:29Z</time>
      </trkpt>
      <trkpt lat="42.96173" lon="0.85667">
        <ele>1347</ele>
        <time>2016-03-26T12:14:50Z</time>
      </trkpt>
      <trkpt lat="42.96173" lon="0.85667">
        <ele>1347</ele>
        <time>2016-03-26T12:14:52Z</time>
      </trkpt>
      <trkpt lat="42.96173" lon="0.85667">
        <ele>1347</ele>
        <time>2016-03-26T12:15:12Z</time>
      </trkpt>
      <trkpt lat="42.96173" lon="0.85667">
        <ele>1347</ele>
        <time>2016-03-26T12:15:14Z</time>
      </trkpt>
      <trkpt lat="42.96173" lon="0.85667">
        <ele>1347</ele>
        <time>2016-03-26T12:15:33Z</time>
      </trkpt>
      <trkpt lat="42.96173" lon="0.85667">
        <ele>1347</ele>
        <time>2016-03-26T12:15:34Z</time>
      </trkpt>
      <trkpt lat="42.96163" lon="0.8567">
        <ele>1347</ele>
        <time>2016-03-26T12:15:45Z</time>
      </trkpt>
      <trkpt lat="42.96163" lon="0.85671">
        <ele>1346</ele>
        <time>2016-03-26T12:15:47Z</time>
      </trkpt>
      <trkpt lat="42.96163" lon="0.85671">
        <ele>1346</ele>
        <time>2016-03-26T12:16:18Z</time>
      </trkpt>
      <trkpt lat="42.96163" lon="0.85671">
        <ele>1346</ele>
        <time>2016-03-26T12:16:20Z</time>
      </trkpt>
      <trkpt lat="42.96163" lon="0.85671">
        <ele>1345</ele>
        <time>2016-03-26T12:16:42Z</time>
      </trkpt>
      <trkpt lat="42.96163" lon="0.85671">
        <ele>1345</ele>
        <time>2016-03-26T12:16:44Z</time>
      </trkpt>
      <trkpt lat="42.96163" lon="0.85671">
        <ele>1345</ele>
        <time>2016-03-26T12:17:04Z</time>
      </trkpt>
      <trkpt lat="42.96163" lon="0.85671">
        <ele>1345</ele>
        <time>2016-03-26T12:17:06Z</time>
      </trkpt>
      <trkpt lat="42.96163" lon="0.85671">
        <ele>1345</ele>
        <time>2016-03-26T12:17:28Z</time>
      </trkpt>
      <trkpt lat="42.96163" lon="0.85671">
        <ele>1345</ele>
        <time>2016-03-26T12:17:29Z</time>
      </trkpt>
      <trkpt lat="42.96167" lon="0.8567">
        <ele>1343</ele>
        <time>2016-03-26T12:49:42Z</time>
      </trkpt>
      <trkpt lat="42.96165" lon="0.85671">
        <ele>1341</ele>
        <time>2016-03-26T12:49:45Z</time>
      </trkpt>
      <trkpt lat="42.96165" lon="0.85672">
        <ele>1339</ele>
        <time>2016-03-26T12:49:47Z</time>
      </trkpt>
      <trkpt lat="42.96165" lon="0.85672">
        <ele>1337</ele>
        <time>2016-03-26T12:49:48Z</time>
      </trkpt>
      <trkpt lat="42.96165" lon="0.85672">
        <ele>1334</ele>
        <time>2016-03-26T12:50:22Z</time>
      </trkpt>
      <trkpt lat="42.96165" lon="0.85672">
        <ele>1334</ele>
        <time>2016-03-26T12:50:23Z</time>
      </trkpt>
      <trkpt lat="42.96165" lon="0.85672">
        <ele>1334</ele>
        <time>2016-03-26T12:50:44Z</time>
      </trkpt>
      <trkpt lat="42.96165" lon="0.85672">
        <ele>1334</ele>
        <time>2016-03-26T12:50:46Z</time>
      </trkpt>
      <trkpt lat="42.96165" lon="0.85672">
        <ele>1334</ele>
        <time>2016-03-26T12:51:03Z</time>
      </trkpt>
      <trkpt lat="42.96165" lon="0.85672">
        <ele>1334</ele>
        <time>2016-03-26T12:51:05Z</time>
      </trkpt>
      <trkpt lat="42.96165" lon="0.85672">
        <ele>1334</ele>
        <time>2016-03-26T12:51:26Z</time>
      </trkpt>
      <trkpt lat="42.96165" lon="0.85672">
        <ele>1334</ele>
        <time>2016-03-26T12:51:28Z</time>
      </trkpt>
      <trkpt lat="42.96166" lon="0.85668">
        <ele>1339</ele>
        <time>2016-03-26T12:57:50Z</time>
      </trkpt>
      <trkpt lat="42.96166" lon="0.85668">
        <ele>1341</ele>
        <time>2016-03-26T12:58:13Z</time>
      </trkpt>
      <trkpt lat="42.96166" lon="0.85668">
        <ele>1342</ele>
        <time>2016-03-26T12:58:14Z</time>
      </trkpt>
      <trkpt lat="42.96166" lon="0.85668">
        <ele>1342</ele>
        <time>2016-03-26T12:58:31Z</time>
      </trkpt>
      <trkpt lat="42.96166" lon="0.85668">
        <ele>1342</ele>
        <time>2016-03-26T12:58:33Z</time>
      </trkpt>
      <trkpt lat="42.96166" lon="0.85668">
        <ele>1342</ele>
        <time>2016-03-26T12:58:52Z</time>
      </trkpt>
      <trkpt lat="42.96166" lon="0.85668">
        <ele>1342</ele>
        <time>2016-03-26T12:58:54Z</time>
      </trkpt>
      <trkpt lat="42.96166" lon="0.85668">
        <ele>1342</ele>
        <time>2016-03-26T12:59:16Z</time>
      </trkpt>
      <trkpt lat="42.96166" lon="0.85668">
        <ele>1342</ele>
        <time>2016-03-26T12:59:17Z</time>
      </trkpt>
      <trkpt lat="42.96167" lon="0.85655">
        <ele>1343</ele>
        <time>2016-03-26T12:59:32Z</time>
      </trkpt>
      <trkpt lat="42.96167" lon="0.85655">
        <ele>1344</ele>
        <time>2016-03-26T12:59:34Z</time>
      </trkpt>
      <trkpt lat="42.96167" lon="0.85654">
        <ele>1344</ele>
        <time>2016-03-26T12:59:36Z</time>
      </trkpt>
      <trkpt lat="42.96167" lon="0.85654">
        <ele>1345</ele>
        <time>2016-03-26T13:00:01Z</time>
      </trkpt>
      <trkpt lat="42.96167" lon="0.85654">
        <ele>1346</ele>
        <time>2016-03-26T13:00:03Z</time>
      </trkpt>
      <trkpt lat="42.96159" lon="0.8566">
        <ele>1346</ele>
        <time>2016-03-26T13:00:18Z</time>
      </trkpt>
      <trkpt lat="42.96158" lon="0.85661">
        <ele>1347</ele>
        <time>2016-03-26T13:00:20Z</time>
      </trkpt>
      <trkpt lat="42.96158" lon="0.85662">
        <ele>1347</ele>
        <time>2016-03-26T13:00:22Z</time>
      </trkpt>
      <trkpt lat="42.96158" lon="0.85662">
        <ele>1347</ele>
        <time>2016-03-26T13:00:46Z</time>
      </trkpt>
      <trkpt lat="42.96158" lon="0.85662">
        <ele>1347</ele>
        <time>2016-03-26T13:00:48Z</time>
      </trkpt>
      <trkpt lat="42.96158" lon="0.85662">
        <ele>1347</ele>
        <time>2016-03-26T13:01:09Z</time>
      </trkpt>
      <trkpt lat="42.96158" lon="0.85662">
        <ele>1347</ele>
        <time>2016-03-26T13:01:10Z</time>
      </trkpt>
      <trkpt lat="42.96158" lon="0.85662">
        <ele>1347</ele>
        <time>2016-03-26T13:01:29Z</time>
      </trkpt>
      <trkpt lat="42.96158" lon="0.85662">
        <ele>1347</ele>
        <time>2016-03-26T13:01:32Z</time>
      </trkpt>
      <trkpt lat="42.96162" lon="0.85653">
        <ele>1348</ele>
        <time>2016-03-26T13:02:37Z</time>
      </trkpt>
      <trkpt lat="42.96162" lon="0.85664">
        <ele>1348</ele>
        <time>2016-03-26T13:02:41Z</time>
      </trkpt>
      <trkpt lat="42.96162" lon="0.85661">
        <ele>1348</ele>
        <time>2016-03-26T13:02:42Z</time>
      </trkpt>
      <trkpt lat="42.96163" lon="0.85663">
        <ele>1349</ele>
        <time>2016-03-26T13:02:43Z</time>
      </trkpt>
      <trkpt lat="42.96163" lon="0.85663">
        <ele>1349</ele>
        <time>2016-03-26T13:03:15Z</time>
      </trkpt>
      <trkpt lat="42.96163" lon="0.85663">
        <ele>1349</ele>
        <time>2016-03-26T13:03:17Z</time>
      </trkpt>
      <trkpt lat="42.96163" lon="0.85663">
        <ele>1349</ele>
        <time>2016-03-26T13:03:36Z</time>
      </trkpt>
      <trkpt lat="42.96163" lon="0.85663">
        <ele>1349</ele>
        <time>2016-03-26T13:03:38Z</time>
      </trkpt>
      <trkpt lat="42.96163" lon="0.85663">
        <ele>1349</ele>
        <time>2016-03-26T13:03:57Z</time>
      </trkpt>
      <trkpt lat="42.96163" lon="0.85663">
        <ele>1349</ele>
        <time>2016-03-26T13:04:01Z</time>
      </trkpt>
      <trkpt lat="42.96163" lon="0.85663">
        <ele>1349</ele>
        <time>2016-03-26T13:04:23Z</time>
      </trkpt>
      <trkpt lat="42.96163" lon="0.85663">
        <ele>1349</ele>
        <time>2016-03-26T13:04:25Z</time>
      </trkpt>
      <trkpt lat="42.96156" lon="0.85654">
        <ele>1350</ele>
        <time>2016-03-26T13:10:23Z</time>
      </trkpt>
      <trkpt lat="42.96156" lon="0.85654">
        <ele>1351</ele>
        <time>2016-03-26T13:10:25Z</time>
      </trkpt>
      <trkpt lat="42.96156" lon="0.85654">
        <ele>1352</ele>
        <time>2016-03-26T13:11:02Z</time>
      </trkpt>
      <trkpt lat="42.96156" lon="0.85654">
        <ele>1353</ele>
        <time>2016-03-26T13:11:04Z</time>
      </trkpt>
      <trkpt lat="42.96156" lon="0.85654">
        <ele>1354</ele>
        <time>2016-03-26T13:11:25Z</time>
      </trkpt>
      <trkpt lat="42.96156" lon="0.85654">
        <ele>1354</ele>
        <time>2016-03-26T13:11:26Z</time>
      </trkpt>
      <trkpt lat="42.96156" lon="0.85654">
        <ele>1354</ele>
        <time>2016-03-26T13:11:48Z</time>
      </trkpt>
      <trkpt lat="42.96156" lon="0.85654">
        <ele>1354</ele>
        <time>2016-03-26T13:11:50Z</time>
      </trkpt>
      <trkpt lat="42.96156" lon="0.85654">
        <ele>1354</ele>
        <time>2016-03-26T13:12:08Z</time>
      </trkpt>
      <trkpt lat="42.96156" lon="0.85654">
        <ele>1354</ele>
        <time>2016-03-26T13:12:09Z</time>
      </trkpt>
      <trkpt lat="42.96158" lon="0.85643">
        <ele>1356</ele>
        <time>2016-03-26T13:24:10Z</time>
      </trkpt>
      <trkpt lat="42.96157" lon="0.85645">
        <ele>1357</ele>
        <time>2016-03-26T13:24:12Z</time>
      </trkpt>
      <trkpt lat="42.96157" lon="0.85645">
        <ele>1358</ele>
        <time>2016-03-26T13:24:50Z</time>
      </trkpt>
      <trkpt lat="42.96157" lon="0.85645">
        <ele>1359</ele>
        <time>2016-03-26T13:24:51Z</time>
      </trkpt>
      <trkpt lat="42.96157" lon="0.85645">
        <ele>1361</ele>
        <time>2016-03-26T13:25:10Z</time>
      </trkpt>
      <trkpt lat="42.96157" lon="0.85645">
        <ele>1361</ele>
        <time>2016-03-26T13:25:12Z</time>
      </trkpt>
      <trkpt lat="42.96157" lon="0.85645">
        <ele>1361</ele>
        <time>2016-03-26T13:25:32Z</time>
      </trkpt>
      <trkpt lat="42.96157" lon="0.85645">
        <ele>1361</ele>
        <time>2016-03-26T13:25:33Z</time>
      </trkpt>
      <trkpt lat="42.96157" lon="0.85645">
        <ele>1361</ele>
        <time>2016-03-26T13:25:54Z</time>
      </trkpt>
      <trkpt lat="42.96157" lon="0.85645">
        <ele>1361</ele>
        <time>2016-03-26T13:25:56Z</time>
      </trkpt>
      <trkpt lat="42.96153" lon="0.85596">
        <ele>1360</ele>
        <time>2016-03-26T13:28:17Z</time>
      </trkpt>
      <trkpt lat="42.96156" lon="0.8565">
        <ele>1356</ele>
        <time>2016-03-26T13:28:23Z</time>
      </trkpt>
      <trkpt lat="42.96157" lon="0.85651">
        <ele>1356</ele>
        <time>2016-03-26T13:28:25Z</time>
      </trkpt>
      <trkpt lat="42.96158" lon="0.85652">
        <ele>1356</ele>
        <time>2016-03-26T13:28:26Z</time>
      </trkpt>
      <trkpt lat="42.96158" lon="0.85652">
        <ele>1356</ele>
        <time>2016-03-26T13:28:53Z</time>
      </trkpt>
      <trkpt lat="42.96158" lon="0.85652">
        <ele>1356</ele>
        <time>2016-03-26T13:28:55Z</time>
      </trkpt>
      <trkpt lat="42.96158" lon="0.85652">
        <ele>1356</ele>
        <time>2016-03-26T13:29:17Z</time>
      </trkpt>
      <trkpt lat="42.96158" lon="0.85652">
        <ele>1356</ele>
        <time>2016-03-26T13:29:18Z</time>
      </trkpt>
      <trkpt lat="42.96158" lon="0.85652">
        <ele>1356</ele>
        <time>2016-03-26T13:29:38Z</time>
      </trkpt>
      <trkpt lat="42.96158" lon="0.85652">
        <ele>1356</ele>
        <time>2016-03-26T13:29:40Z</time>
      </trkpt>
      <trkpt lat="42.96158" lon="0.85652">
        <ele>1356</ele>
        <time>2016-03-26T13:30:01Z</time>
      </trkpt>
      <trkpt lat="42.96158" lon="0.85652">
        <ele>1356</ele>
        <time>2016-03-26T13:30:02Z</time>
      </trkpt>
      <trkpt lat="42.96158" lon="0.85652">
        <ele>1356</ele>
        <time>2016-03-26T13:30:21Z</time>
      </trkpt>
      <trkpt lat="42.96158" lon="0.85652">
        <ele>1356</ele>
        <time>2016-03-26T13:30:23Z</time>
      </trkpt>
      <trkpt lat="42.96158" lon="0.85659">
        <ele>1356</ele>
        <time>2016-03-26T13:32:51Z</time>
      </trkpt>
      <trkpt lat="42.96158" lon="0.85659">
        <ele>1356</ele>
        <time>2016-03-26T13:32:53Z</time>
      </trkpt>
      <trkpt lat="42.96158" lon="0.85659">
        <ele>1356</ele>
        <time>2016-03-26T13:33:22Z</time>
      </trkpt>
      <trkpt lat="42.96158" lon="0.85659">
        <ele>1356</ele>
        <time>2016-03-26T13:33:23Z</time>
      </trkpt>
      <trkpt lat="42.96158" lon="0.85659">
        <ele>1356</ele>
        <time>2016-03-26T13:33:44Z</time>
      </trkpt>
      <trkpt lat="42.96158" lon="0.85659">
        <ele>1356</ele>
        <time>2016-03-26T13:33:46Z</time>
      </trkpt>
      <trkpt lat="42.96158" lon="0.85659">
        <ele>1356</ele>
        <time>2016-03-26T13:34:08Z</time>
      </trkpt>
      <trkpt lat="42.96158" lon="0.85659">
        <ele>1356</ele>
        <time>2016-03-26T13:34:10Z</time>
      </trkpt>
      <trkpt lat="42.96158" lon="0.85659">
        <ele>1356</ele>
        <time>2016-03-26T13:34:28Z</time>
      </trkpt>
      <trkpt lat="42.96158" lon="0.85659">
        <ele>1356</ele>
        <time>2016-03-26T13:34:30Z</time>
      </trkpt>
      <trkpt lat="42.96158" lon="0.85659">
        <ele>1356</ele>
        <time>2016-03-26T13:34:49Z</time>
      </trkpt>
      <trkpt lat="42.96158" lon="0.85659">
        <ele>1356</ele>
        <time>2016-03-26T13:34:51Z</time>
      </trkpt>
      <trkpt lat="42.96155" lon="0.85659">
        <ele>1353</ele>
        <time>2016-03-26T13:42:10Z</time>
      </trkpt>
      <trkpt lat="42.96156" lon="0.85662">
        <ele>1352</ele>
        <time>2016-03-26T13:42:12Z</time>
      </trkpt>
      <trkpt lat="42.96156" lon="0.85663">
        <ele>1351</ele>
        <time>2016-03-26T13:42:13Z</time>
      </trkpt>
      <trkpt lat="42.96156" lon="0.85664">
        <ele>1350</ele>
        <time>2016-03-26T13:42:14Z</time>
      </trkpt>
      <trkpt lat="42.96156" lon="0.85664">
        <ele>1350</ele>
        <time>2016-03-26T13:42:43Z</time>
      </trkpt>
      <trkpt lat="42.96156" lon="0.85664">
        <ele>1350</ele>
        <time>2016-03-26T13:42:45Z</time>
      </trkpt>
      <trkpt lat="42.96156" lon="0.85664">
        <ele>1350</ele>
        <time>2016-03-26T13:43:09Z</time>
      </trkpt>
      <trkpt lat="42.96156" lon="0.85664">
        <ele>1350</ele>
        <time>2016-03-26T13:43:10Z</time>
      </trkpt>
      <trkpt lat="42.96156" lon="0.85664">
        <ele>1350</ele>
        <time>2016-03-26T13:43:30Z</time>
      </trkpt>
      <trkpt lat="42.96156" lon="0.85664">
        <ele>1350</ele>
        <time>2016-03-26T13:43:32Z</time>
      </trkpt>
      <trkpt lat="42.96156" lon="0.85664">
        <ele>1350</ele>
        <time>2016-03-26T13:43:52Z</time>
      </trkpt>
      <trkpt lat="42.96156" lon="0.85664">
        <ele>1350</ele>
        <time>2016-03-26T13:43:54Z</time>
      </trkpt>
      <trkpt lat="42.96158" lon="0.85668">
        <ele>1350</ele>
        <time>2016-03-26T13:48:16Z</time>
      </trkpt>
      <trkpt lat="42.96159" lon="0.85666">
        <ele>1350</ele>
        <time>2016-03-26T13:48:18Z</time>
      </trkpt>
      <trkpt lat="42.9616" lon="0.85666">
        <ele>1350</ele>
        <time>2016-03-26T13:48:19Z</time>
      </trkpt>
      <trkpt lat="42.96161" lon="0.85665">
        <ele>1350</ele>
        <time>2016-03-26T13:48:21Z</time>
      </trkpt>
      <trkpt lat="42.96161" lon="0.85665">
        <ele>1350</ele>
        <time>2016-03-26T13:48:52Z</time>
      </trkpt>
      <trkpt lat="42.96161" lon="0.85665">
        <ele>1350</ele>
        <time>2016-03-26T13:48:54Z</time>
      </trkpt>
      <trkpt lat="42.96161" lon="0.85665">
        <ele>1350</ele>
        <time>2016-03-26T13:49:14Z</time>
      </trkpt>
      <trkpt lat="42.96161" lon="0.85665">
        <ele>1350</ele>
        <time>2016-03-26T13:49:15Z</time>
      </trkpt>
      <trkpt lat="42.96161" lon="0.85665">
        <ele>1350</ele>
        <time>2016-03-26T13:49:35Z</time>
      </trkpt>
      <trkpt lat="42.96161" lon="0.85665">
        <ele>1350</ele>
        <time>2016-03-26T13:49:37Z</time>
      </trkpt>
      <trkpt lat="42.96161" lon="0.85665">
        <ele>1350</ele>
        <time>2016-03-26T13:49:58Z</time>
      </trkpt>
      <trkpt lat="42.96161" lon="0.85665">
        <ele>1350</ele>
        <time>2016-03-26T13:50:00Z</time>
      </trkpt>
      <trkpt lat="42.96162" lon="0.85667">
        <ele>1350</ele>
        <time>2016-03-26T13:50:35Z</time>
      </trkpt>
      <trkpt lat="42.96162" lon="0.85668">
        <ele>1350</ele>
        <time>2016-03-26T13:50:36Z</time>
      </trkpt>
      <trkpt lat="42.96162" lon="0.85667">
        <ele>1349</ele>
        <time>2016-03-26T13:50:38Z</time>
      </trkpt>
      <trkpt lat="42.96162" lon="0.85667">
        <ele>1349</ele>
        <time>2016-03-26T13:50:40Z</time>
      </trkpt>
      <trkpt lat="42.96162" lon="0.85666">
        <ele>1349</ele>
        <time>2016-03-26T13:50:45Z</time>
      </trkpt>
      <trkpt lat="42.96161" lon="0.85667">
        <ele>1349</ele>
        <time>2016-03-26T13:50:46Z</time>
      </trkpt>
      <trkpt lat="42.96159" lon="0.85668">
        <ele>1349</ele>
        <time>2016-03-26T13:50:48Z</time>
      </trkpt>
      <trkpt lat="42.96159" lon="0.85669">
        <ele>1348</ele>
        <time>2016-03-26T13:50:50Z</time>
      </trkpt>
      <trkpt lat="42.96158" lon="0.85668">
        <ele>1348</ele>
        <time>2016-03-26T13:50:52Z</time>
      </trkpt>
      <trkpt lat="42.96158" lon="0.85667">
        <ele>1348</ele>
        <time>2016-03-26T13:50:55Z</time>
      </trkpt>
      <trkpt lat="42.96157" lon="0.85666">
        <ele>1348</ele>
        <time>2016-03-26T13:50:57Z</time>
      </trkpt>
      <trkpt lat="42.96156" lon="0.85665">
        <ele>1348</ele>
        <time>2016-03-26T13:50:59Z</time>
      </trkpt>
      <trkpt lat="42.96156" lon="0.85663">
        <ele>1347</ele>
        <time>2016-03-26T13:51:01Z</time>
      </trkpt>
      <trkpt lat="42.96156" lon="0.85663">
        <ele>1347</ele>
        <time>2016-03-26T13:51:02Z</time>
      </trkpt>
      <trkpt lat="42.96156" lon="0.85661">
        <ele>1347</ele>
        <time>2016-03-26T13:51:04Z</time>
      </trkpt>
      <trkpt lat="42.96155" lon="0.8566">
        <ele>1347</ele>
        <time>2016-03-26T13:51:05Z</time>
      </trkpt>
      <trkpt lat="42.96154" lon="0.85658">
        <ele>1347</ele>
        <time>2016-03-26T13:51:07Z</time>
      </trkpt>
      <trkpt lat="42.96153" lon="0.85657">
        <ele>1347</ele>
        <time>2016-03-26T13:51:09Z</time>
      </trkpt>
      <trkpt lat="42.96153" lon="0.85656">
        <ele>1347</ele>
        <time>2016-03-26T13:51:10Z</time>
      </trkpt>
      <trkpt lat="42.96151" lon="0.85654">
        <ele>1347</ele>
        <time>2016-03-26T13:51:12Z</time>
      </trkpt>
      <trkpt lat="42.96151" lon="0.85652">
        <ele>1346</ele>
        <time>2016-03-26T13:51:14Z</time>
      </trkpt>
      <trkpt lat="42.9615" lon="0.85649">
        <ele>1346</ele>
        <time>2016-03-26T13:51:16Z</time>
      </trkpt>
      <trkpt lat="42.9615" lon="0.85648">
        <ele>1346</ele>
        <time>2016-03-26T13:51:18Z</time>
      </trkpt>
      <trkpt lat="42.96149" lon="0.85647">
        <ele>1346</ele>
        <time>2016-03-26T13:51:20Z</time>
      </trkpt>
      <trkpt lat="42.96149" lon="0.85647">
        <ele>1346</ele>
        <time>2016-03-26T13:51:21Z</time>
      </trkpt>
      <trkpt lat="42.96148" lon="0.85646">
        <ele>1346</ele>
        <time>2016-03-26T13:51:22Z</time>
      </trkpt>
      <trkpt lat="42.96147" lon="0.85641">
        <ele>1346</ele>
        <time>2016-03-26T13:51:27Z</time>
      </trkpt>
      <trkpt lat="42.96146" lon="0.8564">
        <ele>1346</ele>
        <time>2016-03-26T13:51:29Z</time>
      </trkpt>
      <trkpt lat="42.96146" lon="0.85638">
        <ele>1346</ele>
        <time>2016-03-26T13:51:31Z</time>
      </trkpt>
      <trkpt lat="42.96145" lon="0.85636">
        <ele>1345</ele>
        <time>2016-03-26T13:51:33Z</time>
      </trkpt>
      <trkpt lat="42.96143" lon="0.85635">
        <ele>1345</ele>
        <time>2016-03-26T13:51:35Z</time>
      </trkpt>
      <trkpt lat="42.96141" lon="0.85633">
        <ele>1345</ele>
        <time>2016-03-26T13:51:37Z</time>
      </trkpt>
      <trkpt lat="42.9614" lon="0.85632">
        <ele>1345</ele>
        <time>2016-03-26T13:51:38Z</time>
      </trkpt>
      <trkpt lat="42.96138" lon="0.85631">
        <ele>1345</ele>
        <time>2016-03-26T13:51:40Z</time>
      </trkpt>
      <trkpt lat="42.96138" lon="0.85629">
        <ele>1345</ele>
        <time>2016-03-26T13:51:41Z</time>
      </trkpt>
      <trkpt lat="42.96137" lon="0.85627">
        <ele>1345</ele>
        <time>2016-03-26T13:51:43Z</time>
      </trkpt>
      <trkpt lat="42.96137" lon="0.85623">
        <ele>1345</ele>
        <time>2016-03-26T13:51:45Z</time>
      </trkpt>
      <trkpt lat="42.96137" lon="0.85622">
        <ele>1345</ele>
        <time>2016-03-26T13:51:46Z</time>
      </trkpt>
      <trkpt lat="42.96137" lon="0.8562">
        <ele>1345</ele>
        <time>2016-03-26T13:51:48Z</time>
      </trkpt>
      <trkpt lat="42.96137" lon="0.85619">
        <ele>1345</ele>
        <time>2016-03-26T13:51:50Z</time>
      </trkpt>
      <trkpt lat="42.96137" lon="0.85618">
        <ele>1345</ele>
        <time>2016-03-26T13:51:51Z</time>
      </trkpt>
      <trkpt lat="42.96135" lon="0.85618">
        <ele>1345</ele>
        <time>2016-03-26T13:51:53Z</time>
      </trkpt>
      <trkpt lat="42.96134" lon="0.85617">
        <ele>1345</ele>
        <time>2016-03-26T13:51:55Z</time>
      </trkpt>
      <trkpt lat="42.96132" lon="0.85612">
        <ele>1345</ele>
        <time>2016-03-26T13:52:01Z</time>
      </trkpt>
      <trkpt lat="42.96129" lon="0.85607">
        <ele>1345</ele>
        <time>2016-03-26T13:52:07Z</time>
      </trkpt>
      <trkpt lat="42.96124" lon="0.85605">
        <ele>1345</ele>
        <time>2016-03-26T13:52:14Z</time>
      </trkpt>
      <trkpt lat="42.96119" lon="0.85601">
        <ele>1345</ele>
        <time>2016-03-26T13:52:24Z</time>
      </trkpt>
      <trkpt lat="42.96116" lon="0.85597">
        <ele>1345</ele>
        <time>2016-03-26T13:52:31Z</time>
      </trkpt>
      <trkpt lat="42.96113" lon="0.85592">
        <ele>1346</ele>
        <time>2016-03-26T13:52:41Z</time>
      </trkpt>
      <trkpt lat="42.96112" lon="0.85586">
        <ele>1346</ele>
        <time>2016-03-26T13:52:50Z</time>
      </trkpt>
      <trkpt lat="42.96109" lon="0.85581">
        <ele>1347</ele>
        <time>2016-03-26T13:53:00Z</time>
      </trkpt>
      <trkpt lat="42.96105" lon="0.85577">
        <ele>1348</ele>
        <time>2016-03-26T13:53:10Z</time>
      </trkpt>
      <trkpt lat="42.96103" lon="0.85572">
        <ele>1349</ele>
        <time>2016-03-26T13:53:19Z</time>
      </trkpt>
      <trkpt lat="42.96099" lon="0.85568">
        <ele>1351</ele>
        <time>2016-03-26T13:53:27Z</time>
      </trkpt>
      <trkpt lat="42.96095" lon="0.85563">
        <ele>1352</ele>
        <time>2016-03-26T13:53:35Z</time>
      </trkpt>
      <trkpt lat="42.9609" lon="0.85559">
        <ele>1353</ele>
        <time>2016-03-26T13:53:44Z</time>
      </trkpt>
      <trkpt lat="42.96088" lon="0.85556">
        <ele>1355</ele>
        <time>2016-03-26T13:53:50Z</time>
      </trkpt>
      <trkpt lat="42.96085" lon="0.85553">
        <ele>1356</ele>
        <time>2016-03-26T13:53:56Z</time>
      </trkpt>
      <trkpt lat="42.96082" lon="0.85549">
        <ele>1357</ele>
        <time>2016-03-26T13:54:02Z</time>
      </trkpt>
      <trkpt lat="42.96079" lon="0.85544">
        <ele>1358</ele>
        <time>2016-03-26T13:54:09Z</time>
      </trkpt>
      <trkpt lat="42.96077" lon="0.85541">
        <ele>1359</ele>
        <time>2016-03-26T13:54:15Z</time>
      </trkpt>
      <trkpt lat="42.96072" lon="0.85537">
        <ele>1359</ele>
        <time>2016-03-26T13:54:30Z</time>
      </trkpt>
      <trkpt lat="42.96071" lon="0.85534">
        <ele>1360</ele>
        <time>2016-03-26T13:54:33Z</time>
      </trkpt>
      <trkpt lat="42.96071" lon="0.85532">
        <ele>1361</ele>
        <time>2016-03-26T13:54:39Z</time>
      </trkpt>
      <trkpt lat="42.96069" lon="0.85533">
        <ele>1361</ele>
        <time>2016-03-26T13:54:48Z</time>
      </trkpt>
      <trkpt lat="42.96068" lon="0.85533">
        <ele>1362</ele>
        <time>2016-03-26T13:54:50Z</time>
      </trkpt>
      <trkpt lat="42.96064" lon="0.85529">
        <ele>1362</ele>
        <time>2016-03-26T13:54:58Z</time>
      </trkpt>
      <trkpt lat="42.96061" lon="0.85527">
        <ele>1363</ele>
        <time>2016-03-26T13:55:04Z</time>
      </trkpt>
      <trkpt lat="42.9606" lon="0.85526">
        <ele>1363</ele>
        <time>2016-03-26T13:55:06Z</time>
      </trkpt>
      <trkpt lat="42.96058" lon="0.85525">
        <ele>1363</ele>
        <time>2016-03-26T13:55:09Z</time>
      </trkpt>
      <trkpt lat="42.96056" lon="0.85523">
        <ele>1364</ele>
        <time>2016-03-26T13:55:13Z</time>
      </trkpt>
      <trkpt lat="42.96055" lon="0.85523">
        <ele>1364</ele>
        <time>2016-03-26T13:55:15Z</time>
      </trkpt>
      <trkpt lat="42.96053" lon="0.85522">
        <ele>1365</ele>
        <time>2016-03-26T13:55:17Z</time>
      </trkpt>
      <trkpt lat="42.96053" lon="0.85521">
        <ele>1365</ele>
        <time>2016-03-26T13:55:19Z</time>
      </trkpt>
      <trkpt lat="42.96052" lon="0.85521">
        <ele>1365</ele>
        <time>2016-03-26T13:55:20Z</time>
      </trkpt>
      <trkpt lat="42.9605" lon="0.85517">
        <ele>1366</ele>
        <time>2016-03-26T13:55:28Z</time>
      </trkpt>
      <trkpt lat="42.96049" lon="0.85514">
        <ele>1366</ele>
        <time>2016-03-26T13:55:33Z</time>
      </trkpt>
      <trkpt lat="42.96048" lon="0.85509">
        <ele>1367</ele>
        <time>2016-03-26T13:55:37Z</time>
      </trkpt>
      <trkpt lat="42.96048" lon="0.85509">
        <ele>1368</ele>
        <time>2016-03-26T13:55:38Z</time>
      </trkpt>
      <trkpt lat="42.96048" lon="0.85506">
        <ele>1369</ele>
        <time>2016-03-26T13:55:41Z</time>
      </trkpt>
      <trkpt lat="42.96048" lon="0.85503">
        <ele>1370</ele>
        <time>2016-03-26T13:55:43Z</time>
      </trkpt>
      <trkpt lat="42.96047" lon="0.85502">
        <ele>1370</ele>
        <time>2016-03-26T13:55:44Z</time>
      </trkpt>
      <trkpt lat="42.96046" lon="0.855">
        <ele>1371</ele>
        <time>2016-03-26T13:55:46Z</time>
      </trkpt>
      <trkpt lat="42.96046" lon="0.85499">
        <ele>1371</ele>
        <time>2016-03-26T13:55:47Z</time>
      </trkpt>
      <trkpt lat="42.96047" lon="0.85492">
        <ele>1372</ele>
        <time>2016-03-26T13:55:53Z</time>
      </trkpt>
      <trkpt lat="42.96046" lon="0.8549">
        <ele>1373</ele>
        <time>2016-03-26T13:55:55Z</time>
      </trkpt>
      <trkpt lat="42.96047" lon="0.85485">
        <ele>1373</ele>
        <time>2016-03-26T13:55:59Z</time>
      </trkpt>
      <trkpt lat="42.96048" lon="0.85483">
        <ele>1374</ele>
        <time>2016-03-26T13:56:02Z</time>
      </trkpt>
      <trkpt lat="42.96049" lon="0.85481">
        <ele>1375</ele>
        <time>2016-03-26T13:56:04Z</time>
      </trkpt>
      <trkpt lat="42.96049" lon="0.8548">
        <ele>1376</ele>
        <time>2016-03-26T13:56:05Z</time>
      </trkpt>
      <trkpt lat="42.96053" lon="0.85475">
        <ele>1376</ele>
        <time>2016-03-26T13:56:12Z</time>
      </trkpt>
      <trkpt lat="42.96053" lon="0.85475">
        <ele>1377</ele>
        <time>2016-03-26T13:56:13Z</time>
      </trkpt>
      <trkpt lat="42.96055" lon="0.85474">
        <ele>1378</ele>
        <time>2016-03-26T13:56:15Z</time>
      </trkpt>
      <trkpt lat="42.96056" lon="0.85473">
        <ele>1378</ele>
        <time>2016-03-26T13:56:16Z</time>
      </trkpt>
      <trkpt lat="42.96058" lon="0.85471">
        <ele>1379</ele>
        <time>2016-03-26T13:56:21Z</time>
      </trkpt>
      <trkpt lat="42.96059" lon="0.85472">
        <ele>1379</ele>
        <time>2016-03-26T13:56:26Z</time>
      </trkpt>
      <trkpt lat="42.96059" lon="0.85472">
        <ele>1379</ele>
        <time>2016-03-26T13:56:51Z</time>
      </trkpt>
      <trkpt lat="42.96059" lon="0.85472">
        <ele>1379</ele>
        <time>2016-03-26T13:56:53Z</time>
      </trkpt>
      <trkpt lat="42.96061" lon="0.85477">
        <ele>1379</ele>
        <time>2016-03-26T13:57:09Z</time>
      </trkpt>
      <trkpt lat="42.96064" lon="0.85478">
        <ele>1379</ele>
        <time>2016-03-26T13:57:13Z</time>
      </trkpt>
      <trkpt lat="42.96064" lon="0.85478">
        <ele>1379</ele>
        <time>2016-03-26T13:57:15Z</time>
      </trkpt>
      <trkpt lat="42.96064" lon="0.85478">
        <ele>1378</ele>
        <time>2016-03-26T13:57:16Z</time>
      </trkpt>
      <trkpt lat="42.96062" lon="0.85483">
        <ele>1378</ele>
        <time>2016-03-26T13:57:22Z</time>
      </trkpt>
      <trkpt lat="42.96064" lon="0.85489">
        <ele>1378</ele>
        <time>2016-03-26T13:57:28Z</time>
      </trkpt>
      <trkpt lat="42.96064" lon="0.85491">
        <ele>1378</ele>
        <time>2016-03-26T13:57:30Z</time>
      </trkpt>
      <trkpt lat="42.96064" lon="0.85493">
        <ele>1378</ele>
        <time>2016-03-26T13:57:33Z</time>
      </trkpt>
      <trkpt lat="42.96064" lon="0.85498">
        <ele>1378</ele>
        <time>2016-03-26T13:57:37Z</time>
      </trkpt>
      <trkpt lat="42.96064" lon="0.855">
        <ele>1378</ele>
        <time>2016-03-26T13:57:39Z</time>
      </trkpt>
      <trkpt lat="42.96063" lon="0.85503">
        <ele>1378</ele>
        <time>2016-03-26T13:57:44Z</time>
      </trkpt>
      <trkpt lat="42.96063" lon="0.85503">
        <ele>1378</ele>
        <time>2016-03-26T13:57:45Z</time>
      </trkpt>
      <trkpt lat="42.96063" lon="0.85503">
        <ele>1378</ele>
        <time>2016-03-26T13:57:46Z</time>
      </trkpt>
      <trkpt lat="42.96064" lon="0.85506">
        <ele>1378</ele>
        <time>2016-03-26T13:57:52Z</time>
      </trkpt>
      <trkpt lat="42.96063" lon="0.85509">
        <ele>1378</ele>
        <time>2016-03-26T13:57:55Z</time>
      </trkpt>
      <trkpt lat="42.96064" lon="0.8551">
        <ele>1378</ele>
        <time>2016-03-26T13:57:57Z</time>
      </trkpt>
      <trkpt lat="42.96065" lon="0.85513">
        <ele>1377</ele>
        <time>2016-03-26T13:58:01Z</time>
      </trkpt>
      <trkpt lat="42.96067" lon="0.85517">
        <ele>1377</ele>
        <time>2016-03-26T13:58:07Z</time>
      </trkpt>
      <trkpt lat="42.96067" lon="0.85518">
        <ele>1377</ele>
        <time>2016-03-26T13:58:09Z</time>
      </trkpt>
      <trkpt lat="42.96068" lon="0.85521">
        <ele>1377</ele>
        <time>2016-03-26T13:58:12Z</time>
      </trkpt>
      <trkpt lat="42.96069" lon="0.85522">
        <ele>1376</ele>
        <time>2016-03-26T13:58:15Z</time>
      </trkpt>
      <trkpt lat="42.96069" lon="0.85522">
        <ele>1376</ele>
        <time>2016-03-26T13:58:16Z</time>
      </trkpt>
      <trkpt lat="42.96069" lon="0.85523">
        <ele>1376</ele>
        <time>2016-03-26T13:58:24Z</time>
      </trkpt>
      <trkpt lat="42.96072" lon="0.8552">
        <ele>1376</ele>
        <time>2016-03-26T13:58:35Z</time>
      </trkpt>
      <trkpt lat="42.96072" lon="0.8552">
        <ele>1376</ele>
        <time>2016-03-26T13:58:36Z</time>
      </trkpt>
      <trkpt lat="42.96075" lon="0.85516">
        <ele>1376</ele>
        <time>2016-03-26T13:58:41Z</time>
      </trkpt>
      <trkpt lat="42.96076" lon="0.85515">
        <ele>1375</ele>
        <time>2016-03-26T13:58:43Z</time>
      </trkpt>
      <trkpt lat="42.96077" lon="0.85514">
        <ele>1376</ele>
        <time>2016-03-26T13:58:44Z</time>
      </trkpt>
      <trkpt lat="42.96078" lon="0.85512">
        <ele>1376</ele>
        <time>2016-03-26T13:58:48Z</time>
      </trkpt>
      <trkpt lat="42.96079" lon="0.85511">
        <ele>1376</ele>
        <time>2016-03-26T13:58:50Z</time>
      </trkpt>
      <trkpt lat="42.9608" lon="0.8551">
        <ele>1376</ele>
        <time>2016-03-26T13:58:52Z</time>
      </trkpt>
      <trkpt lat="42.9608" lon="0.8551">
        <ele>1376</ele>
        <time>2016-03-26T13:58:54Z</time>
      </trkpt>
      <trkpt lat="42.96081" lon="0.85509">
        <ele>1376</ele>
        <time>2016-03-26T13:58:56Z</time>
      </trkpt>
      <trkpt lat="42.96083" lon="0.85509">
        <ele>1376</ele>
        <time>2016-03-26T13:58:58Z</time>
      </trkpt>
      <trkpt lat="42.96083" lon="0.85509">
        <ele>1376</ele>
        <time>2016-03-26T13:58:59Z</time>
      </trkpt>
      <trkpt lat="42.96087" lon="0.85507">
        <ele>1376</ele>
        <time>2016-03-26T13:59:05Z</time>
      </trkpt>
      <trkpt lat="42.96089" lon="0.85505">
        <ele>1376</ele>
        <time>2016-03-26T13:59:08Z</time>
      </trkpt>
      <trkpt lat="42.9609" lon="0.85505">
        <ele>1376</ele>
        <time>2016-03-26T13:59:10Z</time>
      </trkpt>
      <trkpt lat="42.96093" lon="0.85504">
        <ele>1377</ele>
        <time>2016-03-26T13:59:14Z</time>
      </trkpt>
      <trkpt lat="42.96094" lon="0.85502">
        <ele>1377</ele>
        <time>2016-03-26T13:59:16Z</time>
      </trkpt>
      <trkpt lat="42.96095" lon="0.85501">
        <ele>1377</ele>
        <time>2016-03-26T13:59:18Z</time>
      </trkpt>
      <trkpt lat="42.96097" lon="0.85498">
        <ele>1378</ele>
        <time>2016-03-26T13:59:22Z</time>
      </trkpt>
      <trkpt lat="42.961" lon="0.85494">
        <ele>1378</ele>
        <time>2016-03-26T13:59:27Z</time>
      </trkpt>
      <trkpt lat="42.96102" lon="0.85492">
        <ele>1378</ele>
        <time>2016-03-26T13:59:29Z</time>
      </trkpt>
      <trkpt lat="42.96104" lon="0.85491">
        <ele>1379</ele>
        <time>2016-03-26T13:59:32Z</time>
      </trkpt>
      <trkpt lat="42.96106" lon="0.85489">
        <ele>1379</ele>
        <time>2016-03-26T13:59:35Z</time>
      </trkpt>
      <trkpt lat="42.96107" lon="0.85488">
        <ele>1379</ele>
        <time>2016-03-26T13:59:37Z</time>
      </trkpt>
      <trkpt lat="42.96108" lon="0.85488">
        <ele>1379</ele>
        <time>2016-03-26T13:59:39Z</time>
      </trkpt>
      <trkpt lat="42.9611" lon="0.85487">
        <ele>1380</ele>
        <time>2016-03-26T13:59:41Z</time>
      </trkpt>
      <trkpt lat="42.96112" lon="0.85487">
        <ele>1380</ele>
        <time>2016-03-26T13:59:44Z</time>
      </trkpt>
      <trkpt lat="42.96113" lon="0.85487">
        <ele>1380</ele>
        <time>2016-03-26T13:59:46Z</time>
      </trkpt>
      <trkpt lat="42.96114" lon="0.85487">
        <ele>1379</ele>
        <time>2016-03-26T13:59:48Z</time>
      </trkpt>
      <trkpt lat="42.96117" lon="0.85487">
        <ele>1379</ele>
        <time>2016-03-26T13:59:52Z</time>
      </trkpt>
      <trkpt lat="42.96119" lon="0.85486">
        <ele>1379</ele>
        <time>2016-03-26T13:59:53Z</time>
      </trkpt>
      <trkpt lat="42.96122" lon="0.85487">
        <ele>1379</ele>
        <time>2016-03-26T13:59:57Z</time>
      </trkpt>
      <trkpt lat="42.96124" lon="0.85488">
        <ele>1379</ele>
        <time>2016-03-26T13:59:58Z</time>
      </trkpt>
      <trkpt lat="42.96129" lon="0.85486">
        <ele>1378</ele>
        <time>2016-03-26T14:00:03Z</time>
      </trkpt>
      <trkpt lat="42.96132" lon="0.85486">
        <ele>1378</ele>
        <time>2016-03-26T14:00:06Z</time>
      </trkpt>
      <trkpt lat="42.96133" lon="0.85485">
        <ele>1378</ele>
        <time>2016-03-26T14:00:08Z</time>
      </trkpt>
      <trkpt lat="42.96133" lon="0.85485">
        <ele>1378</ele>
        <time>2016-03-26T14:00:10Z</time>
      </trkpt>
      <trkpt lat="42.96135" lon="0.85484">
        <ele>1379</ele>
        <time>2016-03-26T14:00:12Z</time>
      </trkpt>
      <trkpt lat="42.96137" lon="0.85483">
        <ele>1379</ele>
        <time>2016-03-26T14:00:15Z</time>
      </trkpt>
      <trkpt lat="42.96139" lon="0.85483">
        <ele>1379</ele>
        <time>2016-03-26T14:00:18Z</time>
      </trkpt>
      <trkpt lat="42.9614" lon="0.85483">
        <ele>1379</ele>
        <time>2016-03-26T14:00:19Z</time>
      </trkpt>
      <trkpt lat="42.9614" lon="0.85484">
        <ele>1379</ele>
        <time>2016-03-26T14:00:21Z</time>
      </trkpt>
      <trkpt lat="42.96141" lon="0.85483">
        <ele>1380</ele>
        <time>2016-03-26T14:00:23Z</time>
      </trkpt>
      <trkpt lat="42.96142" lon="0.85482">
        <ele>1380</ele>
        <time>2016-03-26T14:00:24Z</time>
      </trkpt>
      <trkpt lat="42.96143" lon="0.85481">
        <ele>1381</ele>
        <time>2016-03-26T14:00:26Z</time>
      </trkpt>
      <trkpt lat="42.96144" lon="0.85481">
        <ele>1381</ele>
        <time>2016-03-26T14:00:27Z</time>
      </trkpt>
      <trkpt lat="42.96145" lon="0.85481">
        <ele>1381</ele>
        <time>2016-03-26T14:00:28Z</time>
      </trkpt>
      <trkpt lat="42.96146" lon="0.85481">
        <ele>1382</ele>
        <time>2016-03-26T14:00:30Z</time>
      </trkpt>
      <trkpt lat="42.96146" lon="0.85482">
        <ele>1382</ele>
        <time>2016-03-26T14:00:31Z</time>
      </trkpt>
      <trkpt lat="42.96146" lon="0.85482">
        <ele>1382</ele>
        <time>2016-03-26T14:00:33Z</time>
      </trkpt>
      <trkpt lat="42.96149" lon="0.85481">
        <ele>1382</ele>
        <time>2016-03-26T14:00:37Z</time>
      </trkpt>
      <trkpt lat="42.96151" lon="0.85481">
        <ele>1383</ele>
        <time>2016-03-26T14:00:39Z</time>
      </trkpt>
      <trkpt lat="42.96152" lon="0.85478">
        <ele>1383</ele>
        <time>2016-03-26T14:00:42Z</time>
      </trkpt>
      <trkpt lat="42.96157" lon="0.85474">
        <ele>1384</ele>
        <time>2016-03-26T14:00:50Z</time>
      </trkpt>
      <trkpt lat="42.96159" lon="0.85473">
        <ele>1385</ele>
        <time>2016-03-26T14:00:52Z</time>
      </trkpt>
      <trkpt lat="42.96159" lon="0.85473">
        <ele>1385</ele>
        <time>2016-03-26T14:00:53Z</time>
      </trkpt>
      <trkpt lat="42.96163" lon="0.85473">
        <ele>1386</ele>
        <time>2016-03-26T14:00:57Z</time>
      </trkpt>
      <trkpt lat="42.96165" lon="0.85474">
        <ele>1387</ele>
        <time>2016-03-26T14:00:59Z</time>
      </trkpt>
      <trkpt lat="42.96166" lon="0.85474">
        <ele>1387</ele>
        <time>2016-03-26T14:01:00Z</time>
      </trkpt>
      <trkpt lat="42.96168" lon="0.85473">
        <ele>1388</ele>
        <time>2016-03-26T14:01:03Z</time>
      </trkpt>
      <trkpt lat="42.96169" lon="0.85472">
        <ele>1388</ele>
        <time>2016-03-26T14:01:04Z</time>
      </trkpt>
      <trkpt lat="42.96169" lon="0.8547">
        <ele>1388</ele>
        <time>2016-03-26T14:01:06Z</time>
      </trkpt>
      <trkpt lat="42.96171" lon="0.8547">
        <ele>1388</ele>
        <time>2016-03-26T14:01:08Z</time>
      </trkpt>
      <trkpt lat="42.96172" lon="0.8547">
        <ele>1389</ele>
        <time>2016-03-26T14:01:10Z</time>
      </trkpt>
      <trkpt lat="42.96174" lon="0.8547">
        <ele>1389</ele>
        <time>2016-03-26T14:01:13Z</time>
      </trkpt>
      <trkpt lat="42.96174" lon="0.8547">
        <ele>1389</ele>
        <time>2016-03-26T14:01:14Z</time>
      </trkpt>
      <trkpt lat="42.96175" lon="0.8547">
        <ele>1389</ele>
        <time>2016-03-26T14:01:15Z</time>
      </trkpt>
      <trkpt lat="42.96175" lon="0.8547">
        <ele>1390</ele>
        <time>2016-03-26T14:01:16Z</time>
      </trkpt>
      <trkpt lat="42.96178" lon="0.85471">
        <ele>1390</ele>
        <time>2016-03-26T14:01:19Z</time>
      </trkpt>
      <trkpt lat="42.96178" lon="0.85471">
        <ele>1390</ele>
        <time>2016-03-26T14:01:21Z</time>
      </trkpt>
      <trkpt lat="42.96179" lon="0.85471">
        <ele>1391</ele>
        <time>2016-03-26T14:01:22Z</time>
      </trkpt>
      <trkpt lat="42.9618" lon="0.8547">
        <ele>1391</ele>
        <time>2016-03-26T14:01:24Z</time>
      </trkpt>
      <trkpt lat="42.96181" lon="0.8547">
        <ele>1392</ele>
        <time>2016-03-26T14:01:26Z</time>
      </trkpt>
      <trkpt lat="42.96183" lon="0.8547">
        <ele>1392</ele>
        <time>2016-03-26T14:01:32Z</time>
      </trkpt>
      <trkpt lat="42.96189" lon="0.85469">
        <ele>1393</ele>
        <time>2016-03-26T14:01:45Z</time>
      </trkpt>
      <trkpt lat="42.96191" lon="0.85469">
        <ele>1394</ele>
        <time>2016-03-26T14:01:48Z</time>
      </trkpt>
      <trkpt lat="42.96191" lon="0.8547">
        <ele>1395</ele>
        <time>2016-03-26T14:01:50Z</time>
      </trkpt>
      <trkpt lat="42.96192" lon="0.85469">
        <ele>1396</ele>
        <time>2016-03-26T14:01:52Z</time>
      </trkpt>
      <trkpt lat="42.96195" lon="0.85469">
        <ele>1397</ele>
        <time>2016-03-26T14:01:57Z</time>
      </trkpt>
      <trkpt lat="42.96196" lon="0.85468">
        <ele>1397</ele>
        <time>2016-03-26T14:02:01Z</time>
      </trkpt>
      <trkpt lat="42.96197" lon="0.85468">
        <ele>1398</ele>
        <time>2016-03-26T14:02:03Z</time>
      </trkpt>
      <trkpt lat="42.96198" lon="0.85467">
        <ele>1399</ele>
        <time>2016-03-26T14:02:05Z</time>
      </trkpt>
      <trkpt lat="42.96199" lon="0.85467">
        <ele>1399</ele>
        <time>2016-03-26T14:02:07Z</time>
      </trkpt>
      <trkpt lat="42.96201" lon="0.85467">
        <ele>1400</ele>
        <time>2016-03-26T14:02:11Z</time>
      </trkpt>
      <trkpt lat="42.96203" lon="0.85466">
        <ele>1401</ele>
        <time>2016-03-26T14:02:15Z</time>
      </trkpt>
      <trkpt lat="42.96203" lon="0.85465">
        <ele>1401</ele>
        <time>2016-03-26T14:02:17Z</time>
      </trkpt>
      <trkpt lat="42.96204" lon="0.85465">
        <ele>1402</ele>
        <time>2016-03-26T14:02:19Z</time>
      </trkpt>
      <trkpt lat="42.96204" lon="0.85464">
        <ele>1403</ele>
        <time>2016-03-26T14:02:21Z</time>
      </trkpt>
      <trkpt lat="42.96204" lon="0.85464">
        <ele>1403</ele>
        <time>2016-03-26T14:02:41Z</time>
      </trkpt>
      <trkpt lat="42.96204" lon="0.85464">
        <ele>1403</ele>
        <time>2016-03-26T14:02:44Z</time>
      </trkpt>
      <trkpt lat="42.96204" lon="0.85464">
        <ele>1404</ele>
        <time>2016-03-26T14:03:03Z</time>
      </trkpt>
      <trkpt lat="42.96209" lon="0.85463">
        <ele>1404</ele>
        <time>2016-03-26T14:03:05Z</time>
      </trkpt>
      <trkpt lat="42.9621" lon="0.85463">
        <ele>1404</ele>
        <time>2016-03-26T14:03:07Z</time>
      </trkpt>
      <trkpt lat="42.9621" lon="0.85463">
        <ele>1404</ele>
        <time>2016-03-26T14:03:09Z</time>
      </trkpt>
      <trkpt lat="42.96212" lon="0.8546">
        <ele>1404</ele>
        <time>2016-03-26T14:03:18Z</time>
      </trkpt>
      <trkpt lat="42.96213" lon="0.85458">
        <ele>1404</ele>
        <time>2016-03-26T14:03:20Z</time>
      </trkpt>
      <trkpt lat="42.96215" lon="0.85458">
        <ele>1405</ele>
        <time>2016-03-26T14:03:24Z</time>
      </trkpt>
      <trkpt lat="42.96215" lon="0.85457">
        <ele>1405</ele>
        <time>2016-03-26T14:03:26Z</time>
      </trkpt>
      <trkpt lat="42.96216" lon="0.85457">
        <ele>1405</ele>
        <time>2016-03-26T14:03:27Z</time>
      </trkpt>
      <trkpt lat="42.96217" lon="0.85457">
        <ele>1406</ele>
        <time>2016-03-26T14:03:29Z</time>
      </trkpt>
      <trkpt lat="42.96218" lon="0.85458">
        <ele>1406</ele>
        <time>2016-03-26T14:03:31Z</time>
      </trkpt>
      <trkpt lat="42.96219" lon="0.85458">
        <ele>1406</ele>
        <time>2016-03-26T14:03:32Z</time>
      </trkpt>
      <trkpt lat="42.9622" lon="0.85458">
        <ele>1407</ele>
        <time>2016-03-26T14:03:33Z</time>
      </trkpt>
      <trkpt lat="42.9622" lon="0.85458">
        <ele>1407</ele>
        <time>2016-03-26T14:03:34Z</time>
      </trkpt>
      <trkpt lat="42.96221" lon="0.85458">
        <ele>1407</ele>
        <time>2016-03-26T14:03:36Z</time>
      </trkpt>
      <trkpt lat="42.96222" lon="0.85458">
        <ele>1407</ele>
        <time>2016-03-26T14:03:37Z</time>
      </trkpt>
      <trkpt lat="42.96222" lon="0.85458">
        <ele>1407</ele>
        <time>2016-03-26T14:03:39Z</time>
      </trkpt>
      <trkpt lat="42.96224" lon="0.85459">
        <ele>1408</ele>
        <time>2016-03-26T14:03:43Z</time>
      </trkpt>
      <trkpt lat="42.96225" lon="0.8546">
        <ele>1408</ele>
        <time>2016-03-26T14:03:45Z</time>
      </trkpt>
      <trkpt lat="42.96225" lon="0.85459">
        <ele>1408</ele>
        <time>2016-03-26T14:03:46Z</time>
      </trkpt>
      <trkpt lat="42.96226" lon="0.85459">
        <ele>1409</ele>
        <time>2016-03-26T14:03:48Z</time>
      </trkpt>
      <trkpt lat="42.96227" lon="0.85459">
        <ele>1409</ele>
        <time>2016-03-26T14:03:49Z</time>
      </trkpt>
      <trkpt lat="42.96229" lon="0.85458">
        <ele>1409</ele>
        <time>2016-03-26T14:03:51Z</time>
      </trkpt>
      <trkpt lat="42.96231" lon="0.85459">
        <ele>1410</ele>
        <time>2016-03-26T14:03:55Z</time>
      </trkpt>
      <trkpt lat="42.96231" lon="0.85459">
        <ele>1410</ele>
        <time>2016-03-26T14:04:28Z</time>
      </trkpt>
      <trkpt lat="42.96231" lon="0.85459">
        <ele>1410</ele>
        <time>2016-03-26T14:04:30Z</time>
      </trkpt>
      <trkpt lat="42.96233" lon="0.8546">
        <ele>1410</ele>
        <time>2016-03-26T14:04:40Z</time>
      </trkpt>
      <trkpt lat="42.96233" lon="0.85457">
        <ele>1410</ele>
        <time>2016-03-26T14:04:43Z</time>
      </trkpt>
      <trkpt lat="42.96233" lon="0.85456">
        <ele>1410</ele>
        <time>2016-03-26T14:04:46Z</time>
      </trkpt>
      <trkpt lat="42.96233" lon="0.85455">
        <ele>1410</ele>
        <time>2016-03-26T14:05:11Z</time>
      </trkpt>
      <trkpt lat="42.96233" lon="0.85455">
        <ele>1410</ele>
        <time>2016-03-26T14:05:13Z</time>
      </trkpt>
      <trkpt lat="42.96233" lon="0.85455">
        <ele>1410</ele>
        <time>2016-03-26T14:05:35Z</time>
      </trkpt>
      <trkpt lat="42.96233" lon="0.85455">
        <ele>1410</ele>
        <time>2016-03-26T14:05:37Z</time>
      </trkpt>
      <trkpt lat="42.96233" lon="0.85455">
        <ele>1410</ele>
        <time>2016-03-26T14:05:53Z</time>
      </trkpt>
      <trkpt lat="42.96233" lon="0.85455">
        <ele>1410</ele>
        <time>2016-03-26T14:05:55Z</time>
      </trkpt>
      <trkpt lat="42.96233" lon="0.85455">
        <ele>1410</ele>
        <time>2016-03-26T14:06:17Z</time>
      </trkpt>
      <trkpt lat="42.96233" lon="0.85455">
        <ele>1410</ele>
        <time>2016-03-26T14:06:19Z</time>
      </trkpt>
      <trkpt lat="42.96233" lon="0.85455">
        <ele>1410</ele>
        <time>2016-03-26T14:06:41Z</time>
      </trkpt>
      <trkpt lat="42.96232" lon="0.85455">
        <ele>1410</ele>
        <time>2016-03-26T14:06:51Z</time>
      </trkpt>
      <trkpt lat="42.96232" lon="0.85455">
        <ele>1410</ele>
        <time>2016-03-26T14:06:53Z</time>
      </trkpt>
      <trkpt lat="42.96232" lon="0.85455">
        <ele>1410</ele>
        <time>2016-03-26T14:06:54Z</time>
      </trkpt>
      <trkpt lat="42.96232" lon="0.85455">
        <ele>1410</ele>
        <time>2016-03-26T14:07:25Z</time>
      </trkpt>
      <trkpt lat="42.96232" lon="0.85455">
        <ele>1410</ele>
        <time>2016-03-26T14:07:27Z</time>
      </trkpt>
      <trkpt lat="42.96232" lon="0.85455">
        <ele>1409</ele>
        <time>2016-03-26T14:07:33Z</time>
      </trkpt>
      <trkpt lat="42.96232" lon="0.85454">
        <ele>1409</ele>
        <time>2016-03-26T14:07:34Z</time>
      </trkpt>
      <trkpt lat="42.96233" lon="0.85453">
        <ele>1409</ele>
        <time>2016-03-26T14:07:36Z</time>
      </trkpt>
      <trkpt lat="42.96234" lon="0.85456">
        <ele>1409</ele>
        <time>2016-03-26T14:07:38Z</time>
      </trkpt>
      <trkpt lat="42.96232" lon="0.85457">
        <ele>1408</ele>
        <time>2016-03-26T14:07:40Z</time>
      </trkpt>
      <trkpt lat="42.96232" lon="0.85458">
        <ele>1409</ele>
        <time>2016-03-26T14:07:42Z</time>
      </trkpt>
      <trkpt lat="42.96231" lon="0.85459">
        <ele>1409</ele>
        <time>2016-03-26T14:07:43Z</time>
      </trkpt>
      <trkpt lat="42.96229" lon="0.85461">
        <ele>1409</ele>
        <time>2016-03-26T14:07:45Z</time>
      </trkpt>
      <trkpt lat="42.96228" lon="0.85462">
        <ele>1409</ele>
        <time>2016-03-26T14:07:46Z</time>
      </trkpt>
      <trkpt lat="42.96227" lon="0.85462">
        <ele>1409</ele>
        <time>2016-03-26T14:07:48Z</time>
      </trkpt>
      <trkpt lat="42.96227" lon="0.85463">
        <ele>1409</ele>
        <time>2016-03-26T14:07:49Z</time>
      </trkpt>
      <trkpt lat="42.96225" lon="0.85463">
        <ele>1409</ele>
        <time>2016-03-26T14:07:51Z</time>
      </trkpt>
      <trkpt lat="42.96225" lon="0.85463">
        <ele>1409</ele>
        <time>2016-03-26T14:07:52Z</time>
      </trkpt>
      <trkpt lat="42.96224" lon="0.85464">
        <ele>1409</ele>
        <time>2016-03-26T14:07:54Z</time>
      </trkpt>
      <trkpt lat="42.96224" lon="0.85464">
        <ele>1409</ele>
        <time>2016-03-26T14:07:55Z</time>
      </trkpt>
      <trkpt lat="42.96224" lon="0.85464">
        <ele>1409</ele>
        <time>2016-03-26T14:07:57Z</time>
      </trkpt>
      <trkpt lat="42.96222" lon="0.85463">
        <ele>1409</ele>
        <time>2016-03-26T14:08:01Z</time>
      </trkpt>
      <trkpt lat="42.96221" lon="0.85464">
        <ele>1409</ele>
        <time>2016-03-26T14:08:03Z</time>
      </trkpt>
      <trkpt lat="42.96219" lon="0.85464">
        <ele>1409</ele>
        <time>2016-03-26T14:08:05Z</time>
      </trkpt>
      <trkpt lat="42.96219" lon="0.85464">
        <ele>1408</ele>
        <time>2016-03-26T14:08:06Z</time>
      </trkpt>
      <trkpt lat="42.96217" lon="0.85464">
        <ele>1408</ele>
        <time>2016-03-26T14:08:08Z</time>
      </trkpt>
      <trkpt lat="42.96216" lon="0.85464">
        <ele>1408</ele>
        <time>2016-03-26T14:08:09Z</time>
      </trkpt>
      <trkpt lat="42.96215" lon="0.85464">
        <ele>1408</ele>
        <time>2016-03-26T14:08:11Z</time>
      </trkpt>
      <trkpt lat="42.96213" lon="0.85464">
        <ele>1408</ele>
        <time>2016-03-26T14:08:12Z</time>
      </trkpt>
      <trkpt lat="42.96212" lon="0.85465">
        <ele>1408</ele>
        <time>2016-03-26T14:08:14Z</time>
      </trkpt>
      <trkpt lat="42.96211" lon="0.85465">
        <ele>1408</ele>
        <time>2016-03-26T14:08:16Z</time>
      </trkpt>
      <trkpt lat="42.96209" lon="0.85464">
        <ele>1408</ele>
        <time>2016-03-26T14:08:18Z</time>
      </trkpt>
      <trkpt lat="42.96209" lon="0.85464">
        <ele>1408</ele>
        <time>2016-03-26T14:08:20Z</time>
      </trkpt>
      <trkpt lat="42.96207" lon="0.85465">
        <ele>1408</ele>
        <time>2016-03-26T14:08:21Z</time>
      </trkpt>
      <trkpt lat="42.96206" lon="0.85466">
        <ele>1407</ele>
        <time>2016-03-26T14:08:23Z</time>
      </trkpt>
      <trkpt lat="42.96204" lon="0.85466">
        <ele>1407</ele>
        <time>2016-03-26T14:08:25Z</time>
      </trkpt>
      <trkpt lat="42.96201" lon="0.85467">
        <ele>1407</ele>
        <time>2016-03-26T14:08:27Z</time>
      </trkpt>
      <trkpt lat="42.962" lon="0.85468">
        <ele>1406</ele>
        <time>2016-03-26T14:08:28Z</time>
      </trkpt>
      <trkpt lat="42.96198" lon="0.85469">
        <ele>1406</ele>
        <time>2016-03-26T14:08:30Z</time>
      </trkpt>
      <trkpt lat="42.96196" lon="0.85471">
        <ele>1405</ele>
        <time>2016-03-26T14:08:32Z</time>
      </trkpt>
      <trkpt lat="42.96188" lon="0.85472">
        <ele>1403</ele>
        <time>2016-03-26T14:08:37Z</time>
      </trkpt>
      <trkpt lat="42.96186" lon="0.85472">
        <ele>1403</ele>
        <time>2016-03-26T14:08:39Z</time>
      </trkpt>
      <trkpt lat="42.96184" lon="0.85472">
        <ele>1402</ele>
        <time>2016-03-26T14:08:41Z</time>
      </trkpt>
      <trkpt lat="42.96183" lon="0.85472">
        <ele>1401</ele>
        <time>2016-03-26T14:08:43Z</time>
      </trkpt>
      <trkpt lat="42.96183" lon="0.85471">
        <ele>1401</ele>
        <time>2016-03-26T14:08:45Z</time>
      </trkpt>
      <trkpt lat="42.96182" lon="0.85471">
        <ele>1400</ele>
        <time>2016-03-26T14:08:47Z</time>
      </trkpt>
      <trkpt lat="42.9618" lon="0.85471">
        <ele>1400</ele>
        <time>2016-03-26T14:08:48Z</time>
      </trkpt>
      <trkpt lat="42.96178" lon="0.85472">
        <ele>1399</ele>
        <time>2016-03-26T14:08:50Z</time>
      </trkpt>
      <trkpt lat="42.96176" lon="0.85472">
        <ele>1398</ele>
        <time>2016-03-26T14:08:52Z</time>
      </trkpt>
      <trkpt lat="42.96175" lon="0.85472">
        <ele>1398</ele>
        <time>2016-03-26T14:08:53Z</time>
      </trkpt>
      <trkpt lat="42.96175" lon="0.85472">
        <ele>1397</ele>
        <time>2016-03-26T14:08:54Z</time>
      </trkpt>
      <trkpt lat="42.96174" lon="0.85473">
        <ele>1396</ele>
        <time>2016-03-26T14:08:56Z</time>
      </trkpt>
      <trkpt lat="42.96172" lon="0.85473">
        <ele>1396</ele>
        <time>2016-03-26T14:08:57Z</time>
      </trkpt>
      <trkpt lat="42.96171" lon="0.85474">
        <ele>1395</ele>
        <time>2016-03-26T14:08:58Z</time>
      </trkpt>
      <trkpt lat="42.96169" lon="0.85476">
        <ele>1395</ele>
        <time>2016-03-26T14:09:00Z</time>
      </trkpt>
      <trkpt lat="42.96168" lon="0.85477">
        <ele>1394</ele>
        <time>2016-03-26T14:09:01Z</time>
      </trkpt>
      <trkpt lat="42.96167" lon="0.8548">
        <ele>1394</ele>
        <time>2016-03-26T14:09:03Z</time>
      </trkpt>
      <trkpt lat="42.96167" lon="0.85481">
        <ele>1393</ele>
        <time>2016-03-26T14:09:04Z</time>
      </trkpt>
      <trkpt lat="42.96166" lon="0.85485">
        <ele>1392</ele>
        <time>2016-03-26T14:09:06Z</time>
      </trkpt>
      <trkpt lat="42.96166" lon="0.85487">
        <ele>1392</ele>
        <time>2016-03-26T14:09:07Z</time>
      </trkpt>
      <trkpt lat="42.96165" lon="0.85489">
        <ele>1391</ele>
        <time>2016-03-26T14:09:08Z</time>
      </trkpt>
      <trkpt lat="42.96165" lon="0.85491">
        <ele>1390</ele>
        <time>2016-03-26T14:09:10Z</time>
      </trkpt>
      <trkpt lat="42.96165" lon="0.85495">
        <ele>1390</ele>
        <time>2016-03-26T14:09:12Z</time>
      </trkpt>
      <trkpt lat="42.96163" lon="0.85498">
        <ele>1389</ele>
        <time>2016-03-26T14:09:14Z</time>
      </trkpt>
      <trkpt lat="42.96162" lon="0.855">
        <ele>1388</ele>
        <time>2016-03-26T14:09:15Z</time>
      </trkpt>
      <trkpt lat="42.96161" lon="0.85503">
        <ele>1388</ele>
        <time>2016-03-26T14:09:17Z</time>
      </trkpt>
      <trkpt lat="42.9616" lon="0.85505">
        <ele>1387</ele>
        <time>2016-03-26T14:09:19Z</time>
      </trkpt>
      <trkpt lat="42.96159" lon="0.85507">
        <ele>1387</ele>
        <time>2016-03-26T14:09:21Z</time>
      </trkpt>
      <trkpt lat="42.96159" lon="0.85508">
        <ele>1386</ele>
        <time>2016-03-26T14:09:22Z</time>
      </trkpt>
      <trkpt lat="42.96158" lon="0.8551">
        <ele>1386</ele>
        <time>2016-03-26T14:09:24Z</time>
      </trkpt>
      <trkpt lat="42.96157" lon="0.85512">
        <ele>1385</ele>
        <time>2016-03-26T14:09:26Z</time>
      </trkpt>
      <trkpt lat="42.96156" lon="0.85513">
        <ele>1385</ele>
        <time>2016-03-26T14:09:27Z</time>
      </trkpt>
      <trkpt lat="42.96156" lon="0.85514">
        <ele>1385</ele>
        <time>2016-03-26T14:09:29Z</time>
      </trkpt>
      <trkpt lat="42.96155" lon="0.85516">
        <ele>1384</ele>
        <time>2016-03-26T14:09:30Z</time>
      </trkpt>
      <trkpt lat="42.96154" lon="0.85518">
        <ele>1384</ele>
        <time>2016-03-26T14:09:32Z</time>
      </trkpt>
      <trkpt lat="42.96154" lon="0.85519">
        <ele>1384</ele>
        <time>2016-03-26T14:09:33Z</time>
      </trkpt>
      <trkpt lat="42.96153" lon="0.8552">
        <ele>1383</ele>
        <time>2016-03-26T14:09:35Z</time>
      </trkpt>
      <trkpt lat="42.96153" lon="0.85521">
        <ele>1383</ele>
        <time>2016-03-26T14:09:36Z</time>
      </trkpt>
      <trkpt lat="42.96152" lon="0.85523">
        <ele>1382</ele>
        <time>2016-03-26T14:09:38Z</time>
      </trkpt>
      <trkpt lat="42.96151" lon="0.85526">
        <ele>1381</ele>
        <time>2016-03-26T14:09:40Z</time>
      </trkpt>
      <trkpt lat="42.9615" lon="0.85528">
        <ele>1381</ele>
        <time>2016-03-26T14:09:42Z</time>
      </trkpt>
      <trkpt lat="42.96149" lon="0.8553">
        <ele>1380</ele>
        <time>2016-03-26T14:09:44Z</time>
      </trkpt>
      <trkpt lat="42.96147" lon="0.85532">
        <ele>1380</ele>
        <time>2016-03-26T14:09:46Z</time>
      </trkpt>
      <trkpt lat="42.96147" lon="0.85534">
        <ele>1379</ele>
        <time>2016-03-26T14:09:48Z</time>
      </trkpt>
      <trkpt lat="42.96146" lon="0.85536">
        <ele>1378</ele>
        <time>2016-03-26T14:09:50Z</time>
      </trkpt>
      <trkpt lat="42.96147" lon="0.85538">
        <ele>1378</ele>
        <time>2016-03-26T14:09:52Z</time>
      </trkpt>
      <trkpt lat="42.96147" lon="0.8554">
        <ele>1377</ele>
        <time>2016-03-26T14:09:54Z</time>
      </trkpt>
      <trkpt lat="42.96147" lon="0.85542">
        <ele>1376</ele>
        <time>2016-03-26T14:09:56Z</time>
      </trkpt>
      <trkpt lat="42.96148" lon="0.85544">
        <ele>1375</ele>
        <time>2016-03-26T14:09:58Z</time>
      </trkpt>
      <trkpt lat="42.96148" lon="0.85546">
        <ele>1375</ele>
        <time>2016-03-26T14:10:00Z</time>
      </trkpt>
      <trkpt lat="42.96148" lon="0.85547">
        <ele>1374</ele>
        <time>2016-03-26T14:10:01Z</time>
      </trkpt>
      <trkpt lat="42.96147" lon="0.85548">
        <ele>1373</ele>
        <time>2016-03-26T14:10:03Z</time>
      </trkpt>
      <trkpt lat="42.96146" lon="0.8555">
        <ele>1373</ele>
        <time>2016-03-26T14:10:05Z</time>
      </trkpt>
      <trkpt lat="42.96146" lon="0.85551">
        <ele>1372</ele>
        <time>2016-03-26T14:10:07Z</time>
      </trkpt>
      <trkpt lat="42.96146" lon="0.85552">
        <ele>1372</ele>
        <time>2016-03-26T14:10:08Z</time>
      </trkpt>
      <trkpt lat="42.96145" lon="0.85554">
        <ele>1371</ele>
        <time>2016-03-26T14:10:10Z</time>
      </trkpt>
      <trkpt lat="42.96144" lon="0.85556">
        <ele>1371</ele>
        <time>2016-03-26T14:10:11Z</time>
      </trkpt>
      <trkpt lat="42.96143" lon="0.85559">
        <ele>1370</ele>
        <time>2016-03-26T14:10:13Z</time>
      </trkpt>
      <trkpt lat="42.96143" lon="0.8556">
        <ele>1370</ele>
        <time>2016-03-26T14:10:14Z</time>
      </trkpt>
      <trkpt lat="42.96143" lon="0.85561">
        <ele>1369</ele>
        <time>2016-03-26T14:10:15Z</time>
      </trkpt>
      <trkpt lat="42.96143" lon="0.85563">
        <ele>1369</ele>
        <time>2016-03-26T14:10:17Z</time>
      </trkpt>
      <trkpt lat="42.96144" lon="0.85563">
        <ele>1368</ele>
        <time>2016-03-26T14:10:18Z</time>
      </trkpt>
      <trkpt lat="42.96144" lon="0.85564">
        <ele>1368</ele>
        <time>2016-03-26T14:10:19Z</time>
      </trkpt>
      <trkpt lat="42.96143" lon="0.85564">
        <ele>1368</ele>
        <time>2016-03-26T14:10:21Z</time>
      </trkpt>
      <trkpt lat="42.96144" lon="0.85566">
        <ele>1367</ele>
        <time>2016-03-26T14:10:22Z</time>
      </trkpt>
      <trkpt lat="42.96144" lon="0.85567">
        <ele>1367</ele>
        <time>2016-03-26T14:10:24Z</time>
      </trkpt>
      <trkpt lat="42.96143" lon="0.85568">
        <ele>1367</ele>
        <time>2016-03-26T14:10:26Z</time>
      </trkpt>
      <trkpt lat="42.96143" lon="0.85569">
        <ele>1366</ele>
        <time>2016-03-26T14:10:28Z</time>
      </trkpt>
      <trkpt lat="42.96144" lon="0.8557">
        <ele>1366</ele>
        <time>2016-03-26T14:10:30Z</time>
      </trkpt>
      <trkpt lat="42.96145" lon="0.85571">
        <ele>1366</ele>
        <time>2016-03-26T14:10:31Z</time>
      </trkpt>
      <trkpt lat="42.96146" lon="0.85573">
        <ele>1365</ele>
        <time>2016-03-26T14:10:33Z</time>
      </trkpt>
      <trkpt lat="42.96146" lon="0.85573">
        <ele>1365</ele>
        <time>2016-03-26T14:10:34Z</time>
      </trkpt>
      <trkpt lat="42.96146" lon="0.85575">
        <ele>1365</ele>
        <time>2016-03-26T14:10:36Z</time>
      </trkpt>
      <trkpt lat="42.96146" lon="0.85576">
        <ele>1365</ele>
        <time>2016-03-26T14:10:38Z</time>
      </trkpt>
      <trkpt lat="42.96147" lon="0.85577">
        <ele>1364</ele>
        <time>2016-03-26T14:10:40Z</time>
      </trkpt>
      <trkpt lat="42.96147" lon="0.85578">
        <ele>1364</ele>
        <time>2016-03-26T14:10:41Z</time>
      </trkpt>
      <trkpt lat="42.96149" lon="0.85579">
        <ele>1364</ele>
        <time>2016-03-26T14:10:43Z</time>
      </trkpt>
      <trkpt lat="42.96149" lon="0.8558">
        <ele>1364</ele>
        <time>2016-03-26T14:10:44Z</time>
      </trkpt>
      <trkpt lat="42.9615" lon="0.85581">
        <ele>1363</ele>
        <time>2016-03-26T14:10:46Z</time>
      </trkpt>
      <trkpt lat="42.9615" lon="0.85583">
        <ele>1363</ele>
        <time>2016-03-26T14:10:48Z</time>
      </trkpt>
      <trkpt lat="42.96151" lon="0.85585">
        <ele>1363</ele>
        <time>2016-03-26T14:10:50Z</time>
      </trkpt>
      <trkpt lat="42.96152" lon="0.85586">
        <ele>1362</ele>
        <time>2016-03-26T14:10:51Z</time>
      </trkpt>
      <trkpt lat="42.96154" lon="0.85586">
        <ele>1362</ele>
        <time>2016-03-26T14:10:53Z</time>
      </trkpt>
      <trkpt lat="42.96154" lon="0.85587">
        <ele>1362</ele>
        <time>2016-03-26T14:10:54Z</time>
      </trkpt>
      <trkpt lat="42.96155" lon="0.85588">
        <ele>1362</ele>
        <time>2016-03-26T14:10:56Z</time>
      </trkpt>
      <trkpt lat="42.96156" lon="0.85589">
        <ele>1362</ele>
        <time>2016-03-26T14:10:57Z</time>
      </trkpt>
      <trkpt lat="42.96155" lon="0.85591">
        <ele>1361</ele>
        <time>2016-03-26T14:10:59Z</time>
      </trkpt>
      <trkpt lat="42.96155" lon="0.85591">
        <ele>1361</ele>
        <time>2016-03-26T14:11:01Z</time>
      </trkpt>
      <trkpt lat="42.96156" lon="0.85592">
        <ele>1361</ele>
        <time>2016-03-26T14:11:03Z</time>
      </trkpt>
      <trkpt lat="42.96157" lon="0.85592">
        <ele>1361</ele>
        <time>2016-03-26T14:11:04Z</time>
      </trkpt>
      <trkpt lat="42.96159" lon="0.85594">
        <ele>1360</ele>
        <time>2016-03-26T14:11:06Z</time>
      </trkpt>
      <trkpt lat="42.96159" lon="0.85597">
        <ele>1360</ele>
        <time>2016-03-26T14:11:08Z</time>
      </trkpt>
      <trkpt lat="42.96159" lon="0.85597">
        <ele>1360</ele>
        <time>2016-03-26T14:11:09Z</time>
      </trkpt>
      <trkpt lat="42.96159" lon="0.85598">
        <ele>1360</ele>
        <time>2016-03-26T14:11:10Z</time>
      </trkpt>
      <trkpt lat="42.9616" lon="0.85601">
        <ele>1359</ele>
        <time>2016-03-26T14:11:12Z</time>
      </trkpt>
      <trkpt lat="42.9616" lon="0.85604">
        <ele>1359</ele>
        <time>2016-03-26T14:11:14Z</time>
      </trkpt>
      <trkpt lat="42.96161" lon="0.85607">
        <ele>1359</ele>
        <time>2016-03-26T14:11:16Z</time>
      </trkpt>
      <trkpt lat="42.9616" lon="0.85608">
        <ele>1359</ele>
        <time>2016-03-26T14:11:17Z</time>
      </trkpt>
      <trkpt lat="42.96161" lon="0.8561">
        <ele>1358</ele>
        <time>2016-03-26T14:11:19Z</time>
      </trkpt>
      <trkpt lat="42.96161" lon="0.85612">
        <ele>1358</ele>
        <time>2016-03-26T14:11:20Z</time>
      </trkpt>
      <trkpt lat="42.96161" lon="0.85615">
        <ele>1358</ele>
        <time>2016-03-26T14:11:22Z</time>
      </trkpt>
      <trkpt lat="42.96161" lon="0.85617">
        <ele>1358</ele>
        <time>2016-03-26T14:11:24Z</time>
      </trkpt>
      <trkpt lat="42.96161" lon="0.85618">
        <ele>1357</ele>
        <time>2016-03-26T14:11:25Z</time>
      </trkpt>
      <trkpt lat="42.96161" lon="0.85621">
        <ele>1357</ele>
        <time>2016-03-26T14:11:27Z</time>
      </trkpt>
      <trkpt lat="42.96161" lon="0.85622">
        <ele>1357</ele>
        <time>2016-03-26T14:11:28Z</time>
      </trkpt>
      <trkpt lat="42.9616" lon="0.85623">
        <ele>1357</ele>
        <time>2016-03-26T14:11:29Z</time>
      </trkpt>
      <trkpt lat="42.9616" lon="0.85625">
        <ele>1356</ele>
        <time>2016-03-26T14:11:31Z</time>
      </trkpt>
      <trkpt lat="42.96159" lon="0.85626">
        <ele>1356</ele>
        <time>2016-03-26T14:11:33Z</time>
      </trkpt>
      <trkpt lat="42.96159" lon="0.85627">
        <ele>1356</ele>
        <time>2016-03-26T14:11:34Z</time>
      </trkpt>
      <trkpt lat="42.96159" lon="0.85629">
        <ele>1355</ele>
        <time>2016-03-26T14:11:36Z</time>
      </trkpt>
      <trkpt lat="42.96159" lon="0.85629">
        <ele>1355</ele>
        <time>2016-03-26T14:11:37Z</time>
      </trkpt>
      <trkpt lat="42.96159" lon="0.8563">
        <ele>1355</ele>
        <time>2016-03-26T14:11:39Z</time>
      </trkpt>
      <trkpt lat="42.96159" lon="0.8563">
        <ele>1354</ele>
        <time>2016-03-26T14:11:40Z</time>
      </trkpt>
      <trkpt lat="42.96158" lon="0.85632">
        <ele>1354</ele>
        <time>2016-03-26T14:11:42Z</time>
      </trkpt>
      <trkpt lat="42.96158" lon="0.85633">
        <ele>1354</ele>
        <time>2016-03-26T14:11:44Z</time>
      </trkpt>
      <trkpt lat="42.96159" lon="0.85636">
        <ele>1354</ele>
        <time>2016-03-26T14:11:46Z</time>
      </trkpt>
      <trkpt lat="42.9616" lon="0.85638">
        <ele>1353</ele>
        <time>2016-03-26T14:11:48Z</time>
      </trkpt>
      <trkpt lat="42.9616" lon="0.85639">
        <ele>1353</ele>
        <time>2016-03-26T14:11:50Z</time>
      </trkpt>
      <trkpt lat="42.96159" lon="0.85641">
        <ele>1353</ele>
        <time>2016-03-26T14:11:52Z</time>
      </trkpt>
      <trkpt lat="42.96159" lon="0.85642">
        <ele>1352</ele>
        <time>2016-03-26T14:11:54Z</time>
      </trkpt>
      <trkpt lat="42.9616" lon="0.85642">
        <ele>1352</ele>
        <time>2016-03-26T14:11:55Z</time>
      </trkpt>
      <trkpt lat="42.96161" lon="0.85643">
        <ele>1352</ele>
        <time>2016-03-26T14:11:57Z</time>
      </trkpt>
      <trkpt lat="42.9616" lon="0.85645">
        <ele>1352</ele>
        <time>2016-03-26T14:11:59Z</time>
      </trkpt>
      <trkpt lat="42.9616" lon="0.85646">
        <ele>1351</ele>
        <time>2016-03-26T14:12:01Z</time>
      </trkpt>
      <trkpt lat="42.96161" lon="0.85648">
        <ele>1351</ele>
        <time>2016-03-26T14:12:03Z</time>
      </trkpt>
      <trkpt lat="42.96162" lon="0.8565">
        <ele>1351</ele>
        <time>2016-03-26T14:12:05Z</time>
      </trkpt>
      <trkpt lat="42.96162" lon="0.85651">
        <ele>1350</ele>
        <time>2016-03-26T14:12:07Z</time>
      </trkpt>
      <trkpt lat="42.96162" lon="0.85653">
        <ele>1350</ele>
        <time>2016-03-26T14:12:09Z</time>
      </trkpt>
      <trkpt lat="42.96162" lon="0.85653">
        <ele>1350</ele>
        <time>2016-03-26T14:12:10Z</time>
      </trkpt>
      <trkpt lat="42.96163" lon="0.85654">
        <ele>1349</ele>
        <time>2016-03-26T14:12:12Z</time>
      </trkpt>
      <trkpt lat="42.96163" lon="0.85656">
        <ele>1349</ele>
        <time>2016-03-26T14:12:14Z</time>
      </trkpt>
      <trkpt lat="42.96163" lon="0.85657">
        <ele>1348</ele>
        <time>2016-03-26T14:12:16Z</time>
      </trkpt>
      <trkpt lat="42.96163" lon="0.85657">
        <ele>1348</ele>
        <time>2016-03-26T14:12:18Z</time>
      </trkpt>
      <trkpt lat="42.96165" lon="0.8566">
        <ele>1348</ele>
        <time>2016-03-26T14:12:25Z</time>
      </trkpt>
      <trkpt lat="42.96164" lon="0.85662">
        <ele>1348</ele>
        <time>2016-03-26T14:12:26Z</time>
      </trkpt>
      <trkpt lat="42.96165" lon="0.85663">
        <ele>1347</ele>
        <time>2016-03-26T14:12:28Z</time>
      </trkpt>
      <trkpt lat="42.96165" lon="0.85664">
        <ele>1347</ele>
        <time>2016-03-26T14:12:29Z</time>
      </trkpt>
      <trkpt lat="42.96165" lon="0.85665">
        <ele>1347</ele>
        <time>2016-03-26T14:12:31Z</time>
      </trkpt>
      <trkpt lat="42.96165" lon="0.85666">
        <ele>1347</ele>
        <time>2016-03-26T14:12:33Z</time>
      </trkpt>
      <trkpt lat="42.96165" lon="0.85667">
        <ele>1347</ele>
        <time>2016-03-26T14:12:34Z</time>
      </trkpt>
      <trkpt lat="42.96165" lon="0.85667">
        <ele>1347</ele>
        <time>2016-03-26T14:12:36Z</time>
      </trkpt>
      <trkpt lat="42.96165" lon="0.85668">
        <ele>1347</ele>
        <time>2016-03-26T14:12:38Z</time>
      </trkpt>
      <trkpt lat="42.96166" lon="0.85668">
        <ele>1347</ele>
        <time>2016-03-26T14:12:40Z</time>
      </trkpt>
      <trkpt lat="42.96166" lon="0.85668">
        <ele>1347</ele>
        <time>2016-03-26T14:12:42Z</time>
      </trkpt>
      <trkpt lat="42.96166" lon="0.85668">
        <ele>1347</ele>
        <time>2016-03-26T14:12:58Z</time>
      </trkpt>
      <trkpt lat="42.96166" lon="0.85668">
        <ele>1347</ele>
        <time>2016-03-26T14:12:59Z</time>
      </trkpt>
      <trkpt lat="42.96166" lon="0.85668">
        <ele>1347</ele>
        <time>2016-03-26T14:13:20Z</time>
      </trkpt>
      <trkpt lat="42.96166" lon="0.85668">
        <ele>1347</ele>
        <time>2016-03-26T14:13:22Z</time>
      </trkpt>
      <trkpt lat="42.96162" lon="0.85681">
        <ele>1347</ele>
        <time>2016-03-26T14:13:39Z</time>
      </trkpt>
      <trkpt lat="42.96162" lon="0.85683">
        <ele>1347</ele>
        <time>2016-03-26T14:13:41Z</time>
      </trkpt>
      <trkpt lat="42.96162" lon="0.85685">
        <ele>1347</ele>
        <time>2016-03-26T14:13:43Z</time>
      </trkpt>
      <trkpt lat="42.96158" lon="0.85681">
        <ele>1347</ele>
        <time>2016-03-26T14:13:57Z</time>
      </trkpt>
      <trkpt lat="42.96157" lon="0.85681">
        <ele>1346</ele>
        <time>2016-03-26T14:13:58Z</time>
      </trkpt>
      <trkpt lat="42.96158" lon="0.85678">
        <ele>1347</ele>
        <time>2016-03-26T14:14:00Z</time>
      </trkpt>
      <trkpt lat="42.96159" lon="0.85676">
        <ele>1347</ele>
        <time>2016-03-26T14:14:02Z</time>
      </trkpt>
      <trkpt lat="42.96159" lon="0.85676">
        <ele>1347</ele>
        <time>2016-03-26T14:14:04Z</time>
      </trkpt>
      <trkpt lat="42.96159" lon="0.85677">
        <ele>1347</ele>
        <time>2016-03-26T14:14:06Z</time>
      </trkpt>
      <trkpt lat="42.96161" lon="0.85676">
        <ele>1347</ele>
        <time>2016-03-26T14:14:07Z</time>
      </trkpt>
      <trkpt lat="42.96161" lon="0.85676">
        <ele>1347</ele>
        <time>2016-03-26T14:14:22Z</time>
      </trkpt>
      <trkpt lat="42.96161" lon="0.85676">
        <ele>1347</ele>
        <time>2016-03-26T14:14:23Z</time>
      </trkpt>
      <trkpt lat="42.96161" lon="0.85676">
        <ele>1347</ele>
        <time>2016-03-26T14:14:44Z</time>
      </trkpt>
      <trkpt lat="42.96145" lon="0.8567">
        <ele>1349</ele>
        <time>2016-03-26T14:14:47Z</time>
      </trkpt>
      <trkpt lat="42.96153" lon="0.85674">
        <ele>1351</ele>
        <time>2016-03-26T14:14:51Z</time>
      </trkpt>
      <trkpt lat="42.96154" lon="0.85674">
        <ele>1352</ele>
        <time>2016-03-26T14:14:53Z</time>
      </trkpt>
      <trkpt lat="42.96155" lon="0.85674">
        <ele>1350</ele>
        <time>2016-03-26T14:14:54Z</time>
      </trkpt>
      <trkpt lat="42.96155" lon="0.85674">
        <ele>1350</ele>
        <time>2016-03-26T14:15:26Z</time>
      </trkpt>
      <trkpt lat="42.96155" lon="0.85674">
        <ele>1349</ele>
        <time>2016-03-26T14:15:27Z</time>
      </trkpt>
      <trkpt lat="42.96163" lon="0.85679">
        <ele>1349</ele>
        <time>2016-03-26T14:15:43Z</time>
      </trkpt>
      <trkpt lat="42.96164" lon="0.8568">
        <ele>1348</ele>
        <time>2016-03-26T14:15:45Z</time>
      </trkpt>
      <trkpt lat="42.96164" lon="0.8568">
        <ele>1348</ele>
        <time>2016-03-26T14:15:47Z</time>
      </trkpt>
      <trkpt lat="42.96164" lon="0.8568">
        <ele>1348</ele>
        <time>2016-03-26T14:16:10Z</time>
      </trkpt>
      <trkpt lat="42.96164" lon="0.8568">
        <ele>1348</ele>
        <time>2016-03-26T14:16:12Z</time>
      </trkpt>
      <trkpt lat="42.96165" lon="0.85669">
        <ele>1348</ele>
        <time>2016-03-26T14:16:26Z</time>
      </trkpt>
      <trkpt lat="42.96164" lon="0.85669">
        <ele>1348</ele>
        <time>2016-03-26T14:16:27Z</time>
      </trkpt>
      <trkpt lat="42.96163" lon="0.85669">
        <ele>1348</ele>
        <time>2016-03-26T14:16:29Z</time>
      </trkpt>
      <trkpt lat="42.96163" lon="0.85669">
        <ele>1348</ele>
        <time>2016-03-26T14:16:56Z</time>
      </trkpt>
      <trkpt lat="42.96163" lon="0.85669">
        <ele>1348</ele>
        <time>2016-03-26T14:16:57Z</time>
      </trkpt>
      <trkpt lat="42.96163" lon="0.85669">
        <ele>1348</ele>
        <time>2016-03-26T14:17:18Z</time>
      </trkpt>
      <trkpt lat="42.96163" lon="0.85669">
        <ele>1348</ele>
        <time>2016-03-26T14:17:19Z</time>
      </trkpt>
      <trkpt lat="42.96163" lon="0.85669">
        <ele>1348</ele>
        <time>2016-03-26T14:17:38Z</time>
      </trkpt>
      <trkpt lat="42.96163" lon="0.85669">
        <ele>1348</ele>
        <time>2016-03-26T14:17:40Z</time>
      </trkpt>
      <trkpt lat="42.96162" lon="0.85681">
        <ele>1348</ele>
        <time>2016-03-26T14:17:49Z</time>
      </trkpt>
      <trkpt lat="42.96162" lon="0.85683">
        <ele>1348</ele>
        <time>2016-03-26T14:17:51Z</time>
      </trkpt>
      <trkpt lat="42.96161" lon="0.85683">
        <ele>1349</ele>
        <time>2016-03-26T14:17:53Z</time>
      </trkpt>
      <trkpt lat="42.96161" lon="0.85684">
        <ele>1349</ele>
        <time>2016-03-26T14:17:55Z</time>
      </trkpt>
      <trkpt lat="42.96159" lon="0.85689">
        <ele>1349</ele>
        <time>2016-03-26T14:18:14Z</time>
      </trkpt>
      <trkpt lat="42.96159" lon="0.8569">
        <ele>1349</ele>
        <time>2016-03-26T14:18:16Z</time>
      </trkpt>
      <trkpt lat="42.96159" lon="0.85691">
        <ele>1348</ele>
        <time>2016-03-26T14:18:18Z</time>
      </trkpt>
      <trkpt lat="42.96159" lon="0.85691">
        <ele>1348</ele>
        <time>2016-03-26T14:18:19Z</time>
      </trkpt>
      <trkpt lat="42.9616" lon="0.85691">
        <ele>1348</ele>
        <time>2016-03-26T14:18:21Z</time>
      </trkpt>
      <trkpt lat="42.96162" lon="0.85692">
        <ele>1348</ele>
        <time>2016-03-26T14:18:24Z</time>
      </trkpt>
      <trkpt lat="42.96162" lon="0.85692">
        <ele>1348</ele>
        <time>2016-03-26T14:18:26Z</time>
      </trkpt>
      <trkpt lat="42.96163" lon="0.85692">
        <ele>1348</ele>
        <time>2016-03-26T14:18:28Z</time>
      </trkpt>
      <trkpt lat="42.96161" lon="0.85695">
        <ele>1348</ele>
        <time>2016-03-26T14:18:35Z</time>
      </trkpt>
      <trkpt lat="42.96159" lon="0.85698">
        <ele>1348</ele>
        <time>2016-03-26T14:18:37Z</time>
      </trkpt>
      <trkpt lat="42.96159" lon="0.85701">
        <ele>1348</ele>
        <time>2016-03-26T14:18:39Z</time>
      </trkpt>
      <trkpt lat="42.96158" lon="0.85704">
        <ele>1348</ele>
        <time>2016-03-26T14:18:41Z</time>
      </trkpt>
      <trkpt lat="42.96157" lon="0.85708">
        <ele>1348</ele>
        <time>2016-03-26T14:18:43Z</time>
      </trkpt>
      <trkpt lat="42.96157" lon="0.85711">
        <ele>1347</ele>
        <time>2016-03-26T14:18:44Z</time>
      </trkpt>
      <trkpt lat="42.96156" lon="0.85713">
        <ele>1347</ele>
        <time>2016-03-26T14:18:45Z</time>
      </trkpt>
      <trkpt lat="42.96154" lon="0.85716">
        <ele>1347</ele>
        <time>2016-03-26T14:18:47Z</time>
      </trkpt>
      <trkpt lat="42.96153" lon="0.85716">
        <ele>1347</ele>
        <time>2016-03-26T14:18:49Z</time>
      </trkpt>
      <trkpt lat="42.96151" lon="0.85716">
        <ele>1347</ele>
        <time>2016-03-26T14:18:51Z</time>
      </trkpt>
      <trkpt lat="42.9615" lon="0.85715">
        <ele>1347</ele>
        <time>2016-03-26T14:18:52Z</time>
      </trkpt>
      <trkpt lat="42.9615" lon="0.85712">
        <ele>1346</ele>
        <time>2016-03-26T14:18:54Z</time>
      </trkpt>
      <trkpt lat="42.9615" lon="0.85708">
        <ele>1346</ele>
        <time>2016-03-26T14:18:56Z</time>
      </trkpt>
      <trkpt lat="42.9615" lon="0.85707">
        <ele>1346</ele>
        <time>2016-03-26T14:18:58Z</time>
      </trkpt>
      <trkpt lat="42.9615" lon="0.85708">
        <ele>1346</ele>
        <time>2016-03-26T14:18:59Z</time>
      </trkpt>
      <trkpt lat="42.96149" lon="0.85708">
        <ele>1345</ele>
        <time>2016-03-26T14:19:01Z</time>
      </trkpt>
      <trkpt lat="42.96148" lon="0.85708">
        <ele>1345</ele>
        <time>2016-03-26T14:19:02Z</time>
      </trkpt>
      <trkpt lat="42.96147" lon="0.85713">
        <ele>1345</ele>
        <time>2016-03-26T14:19:07Z</time>
      </trkpt>
      <trkpt lat="42.96147" lon="0.85716">
        <ele>1345</ele>
        <time>2016-03-26T14:19:09Z</time>
      </trkpt>
      <trkpt lat="42.96148" lon="0.85717">
        <ele>1344</ele>
        <time>2016-03-26T14:19:10Z</time>
      </trkpt>
      <trkpt lat="42.96148" lon="0.8572">
        <ele>1344</ele>
        <time>2016-03-26T14:19:12Z</time>
      </trkpt>
      <trkpt lat="42.96148" lon="0.85722">
        <ele>1344</ele>
        <time>2016-03-26T14:19:14Z</time>
      </trkpt>
      <trkpt lat="42.96149" lon="0.85723">
        <ele>1343</ele>
        <time>2016-03-26T14:19:15Z</time>
      </trkpt>
      <trkpt lat="42.9615" lon="0.85725">
        <ele>1343</ele>
        <time>2016-03-26T14:19:17Z</time>
      </trkpt>
      <trkpt lat="42.96151" lon="0.85726">
        <ele>1343</ele>
        <time>2016-03-26T14:19:18Z</time>
      </trkpt>
      <trkpt lat="42.96153" lon="0.85727">
        <ele>1343</ele>
        <time>2016-03-26T14:19:19Z</time>
      </trkpt>
      <trkpt lat="42.96154" lon="0.85731">
        <ele>1343</ele>
        <time>2016-03-26T14:19:21Z</time>
      </trkpt>
      <trkpt lat="42.96154" lon="0.85732">
        <ele>1343</ele>
        <time>2016-03-26T14:19:22Z</time>
      </trkpt>
      <trkpt lat="42.96156" lon="0.85734">
        <ele>1342</ele>
        <time>2016-03-26T14:19:24Z</time>
      </trkpt>
      <trkpt lat="42.96158" lon="0.85736">
        <ele>1342</ele>
        <time>2016-03-26T14:19:26Z</time>
      </trkpt>
      <trkpt lat="42.96159" lon="0.8574">
        <ele>1342</ele>
        <time>2016-03-26T14:19:28Z</time>
      </trkpt>
      <trkpt lat="42.96158" lon="0.85744">
        <ele>1342</ele>
        <time>2016-03-26T14:19:30Z</time>
      </trkpt>
      <trkpt lat="42.96158" lon="0.85747">
        <ele>1342</ele>
        <time>2016-03-26T14:19:32Z</time>
      </trkpt>
      <trkpt lat="42.96156" lon="0.85751">
        <ele>1342</ele>
        <time>2016-03-26T14:19:34Z</time>
      </trkpt>
      <trkpt lat="42.96156" lon="0.85754">
        <ele>1341</ele>
        <time>2016-03-26T14:19:36Z</time>
      </trkpt>
      <trkpt lat="42.96156" lon="0.85755">
        <ele>1341</ele>
        <time>2016-03-26T14:19:37Z</time>
      </trkpt>
      <trkpt lat="42.96156" lon="0.85757">
        <ele>1341</ele>
        <time>2016-03-26T14:19:39Z</time>
      </trkpt>
      <trkpt lat="42.96157" lon="0.85759">
        <ele>1341</ele>
        <time>2016-03-26T14:19:41Z</time>
      </trkpt>
      <trkpt lat="42.96158" lon="0.85761">
        <ele>1341</ele>
        <time>2016-03-26T14:19:42Z</time>
      </trkpt>
      <trkpt lat="42.96159" lon="0.85764">
        <ele>1341</ele>
        <time>2016-03-26T14:19:44Z</time>
      </trkpt>
      <trkpt lat="42.9616" lon="0.85765">
        <ele>1341</ele>
        <time>2016-03-26T14:19:45Z</time>
      </trkpt>
      <trkpt lat="42.96161" lon="0.85765">
        <ele>1341</ele>
        <time>2016-03-26T14:19:47Z</time>
      </trkpt>
      <trkpt lat="42.96162" lon="0.85765">
        <ele>1341</ele>
        <time>2016-03-26T14:19:49Z</time>
      </trkpt>
      <trkpt lat="42.96164" lon="0.85765">
        <ele>1341</ele>
        <time>2016-03-26T14:19:51Z</time>
      </trkpt>
      <trkpt lat="42.96165" lon="0.85765">
        <ele>1340</ele>
        <time>2016-03-26T14:19:52Z</time>
      </trkpt>
      <trkpt lat="42.96166" lon="0.85767">
        <ele>1340</ele>
        <time>2016-03-26T14:19:54Z</time>
      </trkpt>
      <trkpt lat="42.96166" lon="0.85768">
        <ele>1340</ele>
        <time>2016-03-26T14:19:56Z</time>
      </trkpt>
      <trkpt lat="42.96167" lon="0.85769">
        <ele>1340</ele>
        <time>2016-03-26T14:19:57Z</time>
      </trkpt>
      <trkpt lat="42.96167" lon="0.85772">
        <ele>1340</ele>
        <time>2016-03-26T14:19:59Z</time>
      </trkpt>
      <trkpt lat="42.96167" lon="0.85773">
        <ele>1339</ele>
        <time>2016-03-26T14:20:00Z</time>
      </trkpt>
      <trkpt lat="42.96166" lon="0.85774">
        <ele>1339</ele>
        <time>2016-03-26T14:20:01Z</time>
      </trkpt>
      <trkpt lat="42.96166" lon="0.85776">
        <ele>1339</ele>
        <time>2016-03-26T14:20:03Z</time>
      </trkpt>
      <trkpt lat="42.96165" lon="0.85779">
        <ele>1339</ele>
        <time>2016-03-26T14:20:05Z</time>
      </trkpt>
      <trkpt lat="42.96164" lon="0.85782">
        <ele>1339</ele>
        <time>2016-03-26T14:20:07Z</time>
      </trkpt>
      <trkpt lat="42.96164" lon="0.85786">
        <ele>1338</ele>
        <time>2016-03-26T14:20:09Z</time>
      </trkpt>
      <trkpt lat="42.96163" lon="0.85787">
        <ele>1338</ele>
        <time>2016-03-26T14:20:10Z</time>
      </trkpt>
      <trkpt lat="42.96162" lon="0.85789">
        <ele>1338</ele>
        <time>2016-03-26T14:20:11Z</time>
      </trkpt>
      <trkpt lat="42.96161" lon="0.85793">
        <ele>1338</ele>
        <time>2016-03-26T14:20:13Z</time>
      </trkpt>
      <trkpt lat="42.96159" lon="0.85796">
        <ele>1338</ele>
        <time>2016-03-26T14:20:15Z</time>
      </trkpt>
      <trkpt lat="42.96159" lon="0.85798">
        <ele>1337</ele>
        <time>2016-03-26T14:20:16Z</time>
      </trkpt>
      <trkpt lat="42.96158" lon="0.858">
        <ele>1337</ele>
        <time>2016-03-26T14:20:18Z</time>
      </trkpt>
      <trkpt lat="42.96156" lon="0.85802">
        <ele>1337</ele>
        <time>2016-03-26T14:20:19Z</time>
      </trkpt>
      <trkpt lat="42.96156" lon="0.85804">
        <ele>1337</ele>
        <time>2016-03-26T14:20:20Z</time>
      </trkpt>
      <trkpt lat="42.96156" lon="0.85806">
        <ele>1337</ele>
        <time>2016-03-26T14:20:21Z</time>
      </trkpt>
      <trkpt lat="42.96155" lon="0.8581">
        <ele>1337</ele>
        <time>2016-03-26T14:20:23Z</time>
      </trkpt>
      <trkpt lat="42.96154" lon="0.85813">
        <ele>1337</ele>
        <time>2016-03-26T14:20:25Z</time>
      </trkpt>
      <trkpt lat="42.96154" lon="0.85817">
        <ele>1336</ele>
        <time>2016-03-26T14:20:27Z</time>
      </trkpt>
      <trkpt lat="42.96154" lon="0.85819">
        <ele>1336</ele>
        <time>2016-03-26T14:20:29Z</time>
      </trkpt>
      <trkpt lat="42.96155" lon="0.85822">
        <ele>1336</ele>
        <time>2016-03-26T14:20:31Z</time>
      </trkpt>
      <trkpt lat="42.96155" lon="0.85823">
        <ele>1336</ele>
        <time>2016-03-26T14:20:32Z</time>
      </trkpt>
      <trkpt lat="42.96155" lon="0.85828">
        <ele>1335</ele>
        <time>2016-03-26T14:20:36Z</time>
      </trkpt>
      <trkpt lat="42.96156" lon="0.85829">
        <ele>1335</ele>
        <time>2016-03-26T14:20:38Z</time>
      </trkpt>
      <trkpt lat="42.96156" lon="0.85832">
        <ele>1335</ele>
        <time>2016-03-26T14:20:40Z</time>
      </trkpt>
      <trkpt lat="42.96157" lon="0.85834">
        <ele>1335</ele>
        <time>2016-03-26T14:20:42Z</time>
      </trkpt>
      <trkpt lat="42.96158" lon="0.85835">
        <ele>1335</ele>
        <time>2016-03-26T14:20:44Z</time>
      </trkpt>
      <trkpt lat="42.96158" lon="0.85837">
        <ele>1334</ele>
        <time>2016-03-26T14:20:46Z</time>
      </trkpt>
      <trkpt lat="42.96159" lon="0.85838">
        <ele>1334</ele>
        <time>2016-03-26T14:20:47Z</time>
      </trkpt>
      <trkpt lat="42.96159" lon="0.85839">
        <ele>1334</ele>
        <time>2016-03-26T14:20:48Z</time>
      </trkpt>
      <trkpt lat="42.96161" lon="0.8584">
        <ele>1334</ele>
        <time>2016-03-26T14:20:50Z</time>
      </trkpt>
      <trkpt lat="42.96161" lon="0.85841">
        <ele>1333</ele>
        <time>2016-03-26T14:20:51Z</time>
      </trkpt>
      <trkpt lat="42.96162" lon="0.85842">
        <ele>1333</ele>
        <time>2016-03-26T14:20:53Z</time>
      </trkpt>
      <trkpt lat="42.96163" lon="0.85844">
        <ele>1333</ele>
        <time>2016-03-26T14:20:55Z</time>
      </trkpt>
      <trkpt lat="42.96164" lon="0.85848">
        <ele>1333</ele>
        <time>2016-03-26T14:20:57Z</time>
      </trkpt>
      <trkpt lat="42.96166" lon="0.85851">
        <ele>1332</ele>
        <time>2016-03-26T14:20:59Z</time>
      </trkpt>
      <trkpt lat="42.96168" lon="0.85852">
        <ele>1332</ele>
        <time>2016-03-26T14:21:01Z</time>
      </trkpt>
      <trkpt lat="42.9617" lon="0.85852">
        <ele>1332</ele>
        <time>2016-03-26T14:21:02Z</time>
      </trkpt>
      <trkpt lat="42.96171" lon="0.85853">
        <ele>1331</ele>
        <time>2016-03-26T14:21:03Z</time>
      </trkpt>
      <trkpt lat="42.96172" lon="0.85854">
        <ele>1331</ele>
        <time>2016-03-26T14:21:04Z</time>
      </trkpt>
      <trkpt lat="42.96174" lon="0.85855">
        <ele>1331</ele>
        <time>2016-03-26T14:21:05Z</time>
      </trkpt>
      <trkpt lat="42.96175" lon="0.85856">
        <ele>1331</ele>
        <time>2016-03-26T14:21:07Z</time>
      </trkpt>
      <trkpt lat="42.96175" lon="0.85858">
        <ele>1330</ele>
        <time>2016-03-26T14:21:09Z</time>
      </trkpt>
      <trkpt lat="42.96176" lon="0.85859">
        <ele>1330</ele>
        <time>2016-03-26T14:21:10Z</time>
      </trkpt>
      <trkpt lat="42.96177" lon="0.85861">
        <ele>1330</ele>
        <time>2016-03-26T14:21:12Z</time>
      </trkpt>
      <trkpt lat="42.96177" lon="0.85864">
        <ele>1330</ele>
        <time>2016-03-26T14:21:14Z</time>
      </trkpt>
      <trkpt lat="42.96177" lon="0.85865">
        <ele>1329</ele>
        <time>2016-03-26T14:21:15Z</time>
      </trkpt>
      <trkpt lat="42.96178" lon="0.85868">
        <ele>1329</ele>
        <time>2016-03-26T14:21:17Z</time>
      </trkpt>
      <trkpt lat="42.96179" lon="0.8587">
        <ele>1329</ele>
        <time>2016-03-26T14:21:19Z</time>
      </trkpt>
      <trkpt lat="42.96179" lon="0.85873">
        <ele>1329</ele>
        <time>2016-03-26T14:21:21Z</time>
      </trkpt>
      <trkpt lat="42.96179" lon="0.85875">
        <ele>1329</ele>
        <time>2016-03-26T14:21:22Z</time>
      </trkpt>
      <trkpt lat="42.9618" lon="0.85879">
        <ele>1328</ele>
        <time>2016-03-26T14:21:24Z</time>
      </trkpt>
      <trkpt lat="42.9618" lon="0.8588">
        <ele>1328</ele>
        <time>2016-03-26T14:21:25Z</time>
      </trkpt>
      <trkpt lat="42.96181" lon="0.85884">
        <ele>1328</ele>
        <time>2016-03-26T14:21:27Z</time>
      </trkpt>
      <trkpt lat="42.96182" lon="0.85887">
        <ele>1328</ele>
        <time>2016-03-26T14:21:29Z</time>
      </trkpt>
      <trkpt lat="42.96183" lon="0.85889">
        <ele>1328</ele>
        <time>2016-03-26T14:21:30Z</time>
      </trkpt>
      <trkpt lat="42.96183" lon="0.85893">
        <ele>1328</ele>
        <time>2016-03-26T14:21:32Z</time>
      </trkpt>
      <trkpt lat="42.96184" lon="0.85895">
        <ele>1327</ele>
        <time>2016-03-26T14:21:34Z</time>
      </trkpt>
      <trkpt lat="42.96185" lon="0.85898">
        <ele>1327</ele>
        <time>2016-03-26T14:21:36Z</time>
      </trkpt>
      <trkpt lat="42.96186" lon="0.859">
        <ele>1327</ele>
        <time>2016-03-26T14:21:38Z</time>
      </trkpt>
      <trkpt lat="42.96186" lon="0.85901">
        <ele>1327</ele>
        <time>2016-03-26T14:21:39Z</time>
      </trkpt>
      <trkpt lat="42.96187" lon="0.85902">
        <ele>1327</ele>
        <time>2016-03-26T14:21:40Z</time>
      </trkpt>
      <trkpt lat="42.96189" lon="0.85904">
        <ele>1327</ele>
        <time>2016-03-26T14:21:42Z</time>
      </trkpt>
      <trkpt lat="42.9619" lon="0.85905">
        <ele>1326</ele>
        <time>2016-03-26T14:21:43Z</time>
      </trkpt>
      <trkpt lat="42.96192" lon="0.85907">
        <ele>1326</ele>
        <time>2016-03-26T14:21:45Z</time>
      </trkpt>
      <trkpt lat="42.96193" lon="0.85909">
        <ele>1326</ele>
        <time>2016-03-26T14:21:47Z</time>
      </trkpt>
      <trkpt lat="42.96195" lon="0.8591">
        <ele>1326</ele>
        <time>2016-03-26T14:21:49Z</time>
      </trkpt>
      <trkpt lat="42.96196" lon="0.85912">
        <ele>1326</ele>
        <time>2016-03-26T14:21:51Z</time>
      </trkpt>
      <trkpt lat="42.96198" lon="0.85914">
        <ele>1326</ele>
        <time>2016-03-26T14:21:53Z</time>
      </trkpt>
      <trkpt lat="42.96198" lon="0.85915">
        <ele>1326</ele>
        <time>2016-03-26T14:21:54Z</time>
      </trkpt>
      <trkpt lat="42.96199" lon="0.85917">
        <ele>1326</ele>
        <time>2016-03-26T14:21:56Z</time>
      </trkpt>
      <trkpt lat="42.962" lon="0.8592">
        <ele>1325</ele>
        <time>2016-03-26T14:21:58Z</time>
      </trkpt>
      <trkpt lat="42.96202" lon="0.85922">
        <ele>1325</ele>
        <time>2016-03-26T14:22:00Z</time>
      </trkpt>
      <trkpt lat="42.96202" lon="0.85924">
        <ele>1325</ele>
        <time>2016-03-26T14:22:01Z</time>
      </trkpt>
      <trkpt lat="42.96203" lon="0.85927">
        <ele>1325</ele>
        <time>2016-03-26T14:22:03Z</time>
      </trkpt>
      <trkpt lat="42.96204" lon="0.85927">
        <ele>1325</ele>
        <time>2016-03-26T14:22:05Z</time>
      </trkpt>
      <trkpt lat="42.96205" lon="0.85929">
        <ele>1324</ele>
        <time>2016-03-26T14:22:06Z</time>
      </trkpt>
      <trkpt lat="42.96207" lon="0.85932">
        <ele>1324</ele>
        <time>2016-03-26T14:22:08Z</time>
      </trkpt>
      <trkpt lat="42.96209" lon="0.85935">
        <ele>1324</ele>
        <time>2016-03-26T14:22:10Z</time>
      </trkpt>
      <trkpt lat="42.9621" lon="0.85938">
        <ele>1324</ele>
        <time>2016-03-26T14:22:12Z</time>
      </trkpt>
      <trkpt lat="42.96211" lon="0.85939">
        <ele>1324</ele>
        <time>2016-03-26T14:22:13Z</time>
      </trkpt>
      <trkpt lat="42.96211" lon="0.85941">
        <ele>1324</ele>
        <time>2016-03-26T14:22:14Z</time>
      </trkpt>
      <trkpt lat="42.96213" lon="0.85943">
        <ele>1323</ele>
        <time>2016-03-26T14:22:16Z</time>
      </trkpt>
      <trkpt lat="42.96214" lon="0.85945">
        <ele>1323</ele>
        <time>2016-03-26T14:22:18Z</time>
      </trkpt>
      <trkpt lat="42.96216" lon="0.85948">
        <ele>1323</ele>
        <time>2016-03-26T14:22:20Z</time>
      </trkpt>
      <trkpt lat="42.96216" lon="0.85949">
        <ele>1323</ele>
        <time>2016-03-26T14:22:21Z</time>
      </trkpt>
      <trkpt lat="42.96217" lon="0.8595">
        <ele>1323</ele>
        <time>2016-03-26T14:22:22Z</time>
      </trkpt>
      <trkpt lat="42.96217" lon="0.85951">
        <ele>1323</ele>
        <time>2016-03-26T14:22:23Z</time>
      </trkpt>
      <trkpt lat="42.96219" lon="0.85954">
        <ele>1323</ele>
        <time>2016-03-26T14:22:25Z</time>
      </trkpt>
      <trkpt lat="42.96219" lon="0.85956">
        <ele>1323</ele>
        <time>2016-03-26T14:22:26Z</time>
      </trkpt>
      <trkpt lat="42.9622" lon="0.85959">
        <ele>1323</ele>
        <time>2016-03-26T14:22:28Z</time>
      </trkpt>
      <trkpt lat="42.9622" lon="0.8596">
        <ele>1322</ele>
        <time>2016-03-26T14:22:29Z</time>
      </trkpt>
      <trkpt lat="42.96222" lon="0.85962">
        <ele>1322</ele>
        <time>2016-03-26T14:22:31Z</time>
      </trkpt>
      <trkpt lat="42.96223" lon="0.85966">
        <ele>1322</ele>
        <time>2016-03-26T14:22:33Z</time>
      </trkpt>
      <trkpt lat="42.96223" lon="0.85969">
        <ele>1322</ele>
        <time>2016-03-26T14:22:35Z</time>
      </trkpt>
      <trkpt lat="42.96224" lon="0.85971">
        <ele>1322</ele>
        <time>2016-03-26T14:22:37Z</time>
      </trkpt>
      <trkpt lat="42.96227" lon="0.85972">
        <ele>1322</ele>
        <time>2016-03-26T14:22:40Z</time>
      </trkpt>
      <trkpt lat="42.96228" lon="0.85973">
        <ele>1322</ele>
        <time>2016-03-26T14:22:41Z</time>
      </trkpt>
      <trkpt lat="42.96229" lon="0.85974">
        <ele>1322</ele>
        <time>2016-03-26T14:22:42Z</time>
      </trkpt>
      <trkpt lat="42.96231" lon="0.85976">
        <ele>1321</ele>
        <time>2016-03-26T14:22:44Z</time>
      </trkpt>
      <trkpt lat="42.96232" lon="0.85977">
        <ele>1321</ele>
        <time>2016-03-26T14:22:46Z</time>
      </trkpt>
      <trkpt lat="42.96233" lon="0.85979">
        <ele>1321</ele>
        <time>2016-03-26T14:22:48Z</time>
      </trkpt>
      <trkpt lat="42.96235" lon="0.85979">
        <ele>1321</ele>
        <time>2016-03-26T14:22:50Z</time>
      </trkpt>
      <trkpt lat="42.96236" lon="0.85981">
        <ele>1321</ele>
        <time>2016-03-26T14:22:52Z</time>
      </trkpt>
      <trkpt lat="42.96238" lon="0.85983">
        <ele>1321</ele>
        <time>2016-03-26T14:22:54Z</time>
      </trkpt>
      <trkpt lat="42.96238" lon="0.85984">
        <ele>1320</ele>
        <time>2016-03-26T14:22:55Z</time>
      </trkpt>
      <trkpt lat="42.9624" lon="0.85984">
        <ele>1320</ele>
        <time>2016-03-26T14:22:56Z</time>
      </trkpt>
      <trkpt lat="42.96241" lon="0.85987">
        <ele>1320</ele>
        <time>2016-03-26T14:22:58Z</time>
      </trkpt>
      <trkpt lat="42.96243" lon="0.85988">
        <ele>1320</ele>
        <time>2016-03-26T14:23:00Z</time>
      </trkpt>
      <trkpt lat="42.96243" lon="0.85989">
        <ele>1320</ele>
        <time>2016-03-26T14:23:01Z</time>
      </trkpt>
      <trkpt lat="42.96244" lon="0.8599">
        <ele>1320</ele>
        <time>2016-03-26T14:23:03Z</time>
      </trkpt>
      <trkpt lat="42.96246" lon="0.85991">
        <ele>1319</ele>
        <time>2016-03-26T14:23:05Z</time>
      </trkpt>
      <trkpt lat="42.96247" lon="0.85992">
        <ele>1319</ele>
        <time>2016-03-26T14:23:06Z</time>
      </trkpt>
      <trkpt lat="42.96249" lon="0.85993">
        <ele>1319</ele>
        <time>2016-03-26T14:23:08Z</time>
      </trkpt>
      <trkpt lat="42.9625" lon="0.85994">
        <ele>1319</ele>
        <time>2016-03-26T14:23:10Z</time>
      </trkpt>
      <trkpt lat="42.96251" lon="0.85995">
        <ele>1319</ele>
        <time>2016-03-26T14:23:12Z</time>
      </trkpt>
      <trkpt lat="42.96252" lon="0.85997">
        <ele>1319</ele>
        <time>2016-03-26T14:23:14Z</time>
      </trkpt>
      <trkpt lat="42.96253" lon="0.85997">
        <ele>1319</ele>
        <time>2016-03-26T14:23:16Z</time>
      </trkpt>
      <trkpt lat="42.96254" lon="0.85998">
        <ele>1318</ele>
        <time>2016-03-26T14:23:18Z</time>
      </trkpt>
      <trkpt lat="42.96255" lon="0.85999">
        <ele>1318</ele>
        <time>2016-03-26T14:23:20Z</time>
      </trkpt>
      <trkpt lat="42.96257" lon="0.85998">
        <ele>1318</ele>
        <time>2016-03-26T14:23:21Z</time>
      </trkpt>
      <trkpt lat="42.96257" lon="0.86">
        <ele>1318</ele>
        <time>2016-03-26T14:23:22Z</time>
      </trkpt>
      <trkpt lat="42.96259" lon="0.86">
        <ele>1318</ele>
        <time>2016-03-26T14:23:24Z</time>
      </trkpt>
      <trkpt lat="42.96259" lon="0.86004">
        <ele>1318</ele>
        <time>2016-03-26T14:23:26Z</time>
      </trkpt>
      <trkpt lat="42.9626" lon="0.86007">
        <ele>1318</ele>
        <time>2016-03-26T14:23:29Z</time>
      </trkpt>
      <trkpt lat="42.9626" lon="0.86009">
        <ele>1317</ele>
        <time>2016-03-26T14:23:30Z</time>
      </trkpt>
      <trkpt lat="42.9626" lon="0.86012">
        <ele>1317</ele>
        <time>2016-03-26T14:23:32Z</time>
      </trkpt>
      <trkpt lat="42.96262" lon="0.86014">
        <ele>1317</ele>
        <time>2016-03-26T14:23:34Z</time>
      </trkpt>
      <trkpt lat="42.96263" lon="0.86015">
        <ele>1317</ele>
        <time>2016-03-26T14:23:36Z</time>
      </trkpt>
      <trkpt lat="42.96265" lon="0.86016">
        <ele>1317</ele>
        <time>2016-03-26T14:23:38Z</time>
      </trkpt>
      <trkpt lat="42.96266" lon="0.86017">
        <ele>1316</ele>
        <time>2016-03-26T14:23:40Z</time>
      </trkpt>
      <trkpt lat="42.96268" lon="0.86019">
        <ele>1316</ele>
        <time>2016-03-26T14:23:42Z</time>
      </trkpt>
      <trkpt lat="42.9627" lon="0.8602">
        <ele>1316</ele>
        <time>2016-03-26T14:23:44Z</time>
      </trkpt>
      <trkpt lat="42.96271" lon="0.86022">
        <ele>1316</ele>
        <time>2016-03-26T14:23:46Z</time>
      </trkpt>
      <trkpt lat="42.96273" lon="0.86025">
        <ele>1316</ele>
        <time>2016-03-26T14:23:48Z</time>
      </trkpt>
      <trkpt lat="42.96273" lon="0.86029">
        <ele>1316</ele>
        <time>2016-03-26T14:23:50Z</time>
      </trkpt>
      <trkpt lat="42.96274" lon="0.8603">
        <ele>1316</ele>
        <time>2016-03-26T14:23:51Z</time>
      </trkpt>
      <trkpt lat="42.96274" lon="0.86032">
        <ele>1315</ele>
        <time>2016-03-26T14:23:52Z</time>
      </trkpt>
      <trkpt lat="42.96275" lon="0.86036">
        <ele>1315</ele>
        <time>2016-03-26T14:23:54Z</time>
      </trkpt>
      <trkpt lat="42.96276" lon="0.86038">
        <ele>1315</ele>
        <time>2016-03-26T14:23:55Z</time>
      </trkpt>
      <trkpt lat="42.96277" lon="0.86039">
        <ele>1315</ele>
        <time>2016-03-26T14:23:56Z</time>
      </trkpt>
      <trkpt lat="42.96278" lon="0.86042">
        <ele>1315</ele>
        <time>2016-03-26T14:23:58Z</time>
      </trkpt>
      <trkpt lat="42.9628" lon="0.86044">
        <ele>1315</ele>
        <time>2016-03-26T14:23:59Z</time>
      </trkpt>
      <trkpt lat="42.96281" lon="0.86046">
        <ele>1315</ele>
        <time>2016-03-26T14:24:01Z</time>
      </trkpt>
      <trkpt lat="42.96283" lon="0.86047">
        <ele>1314</ele>
        <time>2016-03-26T14:24:03Z</time>
      </trkpt>
      <trkpt lat="42.96283" lon="0.86049">
        <ele>1314</ele>
        <time>2016-03-26T14:24:04Z</time>
      </trkpt>
      <trkpt lat="42.96283" lon="0.86051">
        <ele>1314</ele>
        <time>2016-03-26T14:24:06Z</time>
      </trkpt>
      <trkpt lat="42.96283" lon="0.86052">
        <ele>1314</ele>
        <time>2016-03-26T14:24:07Z</time>
      </trkpt>
      <trkpt lat="42.96284" lon="0.86054">
        <ele>1314</ele>
        <time>2016-03-26T14:24:09Z</time>
      </trkpt>
      <trkpt lat="42.96285" lon="0.86056">
        <ele>1314</ele>
        <time>2016-03-26T14:24:10Z</time>
      </trkpt>
      <trkpt lat="42.96286" lon="0.86058">
        <ele>1314</ele>
        <time>2016-03-26T14:24:12Z</time>
      </trkpt>
      <trkpt lat="42.96286" lon="0.86061">
        <ele>1313</ele>
        <time>2016-03-26T14:24:14Z</time>
      </trkpt>
      <trkpt lat="42.96287" lon="0.86063">
        <ele>1313</ele>
        <time>2016-03-26T14:24:16Z</time>
      </trkpt>
      <trkpt lat="42.96289" lon="0.86067">
        <ele>1313</ele>
        <time>2016-03-26T14:24:19Z</time>
      </trkpt>
      <trkpt lat="42.96288" lon="0.86068">
        <ele>1313</ele>
        <time>2016-03-26T14:24:20Z</time>
      </trkpt>
      <trkpt lat="42.96288" lon="0.86068">
        <ele>1313</ele>
        <time>2016-03-26T14:24:21Z</time>
      </trkpt>
      <trkpt lat="42.96288" lon="0.86069">
        <ele>1313</ele>
        <time>2016-03-26T14:24:22Z</time>
      </trkpt>
      <trkpt lat="42.96286" lon="0.86079">
        <ele>1313</ele>
        <time>2016-03-26T14:24:39Z</time>
      </trkpt>
      <trkpt lat="42.96286" lon="0.8608">
        <ele>1313</ele>
        <time>2016-03-26T14:24:40Z</time>
      </trkpt>
      <trkpt lat="42.96286" lon="0.86083">
        <ele>1314</ele>
        <time>2016-03-26T14:24:42Z</time>
      </trkpt>
      <trkpt lat="42.96287" lon="0.86084">
        <ele>1314</ele>
        <time>2016-03-26T14:24:43Z</time>
      </trkpt>
      <trkpt lat="42.96286" lon="0.86086">
        <ele>1314</ele>
        <time>2016-03-26T14:24:45Z</time>
      </trkpt>
      <trkpt lat="42.96287" lon="0.86087">
        <ele>1314</ele>
        <time>2016-03-26T14:24:46Z</time>
      </trkpt>
      <trkpt lat="42.96288" lon="0.86091">
        <ele>1314</ele>
        <time>2016-03-26T14:24:48Z</time>
      </trkpt>
      <trkpt lat="42.96288" lon="0.86092">
        <ele>1313</ele>
        <time>2016-03-26T14:24:49Z</time>
      </trkpt>
      <trkpt lat="42.96288" lon="0.86097">
        <ele>1313</ele>
        <time>2016-03-26T14:24:51Z</time>
      </trkpt>
      <trkpt lat="42.96289" lon="0.861">
        <ele>1313</ele>
        <time>2016-03-26T14:24:53Z</time>
      </trkpt>
      <trkpt lat="42.96289" lon="0.86103">
        <ele>1313</ele>
        <time>2016-03-26T14:24:55Z</time>
      </trkpt>
      <trkpt lat="42.96289" lon="0.86105">
        <ele>1313</ele>
        <time>2016-03-26T14:24:57Z</time>
      </trkpt>
      <trkpt lat="42.96289" lon="0.86109">
        <ele>1313</ele>
        <time>2016-03-26T14:25:00Z</time>
      </trkpt>
      <trkpt lat="42.9629" lon="0.86112">
        <ele>1313</ele>
        <time>2016-03-26T14:25:02Z</time>
      </trkpt>
      <trkpt lat="42.96291" lon="0.86115">
        <ele>1313</ele>
        <time>2016-03-26T14:25:04Z</time>
      </trkpt>
      <trkpt lat="42.96291" lon="0.86117">
        <ele>1313</ele>
        <time>2016-03-26T14:25:05Z</time>
      </trkpt>
      <trkpt lat="42.96292" lon="0.86119">
        <ele>1313</ele>
        <time>2016-03-26T14:25:07Z</time>
      </trkpt>
      <trkpt lat="42.96293" lon="0.86121">
        <ele>1313</ele>
        <time>2016-03-26T14:25:09Z</time>
      </trkpt>
      <trkpt lat="42.96293" lon="0.86124">
        <ele>1313</ele>
        <time>2016-03-26T14:25:11Z</time>
      </trkpt>
      <trkpt lat="42.96293" lon="0.86127">
        <ele>1312</ele>
        <time>2016-03-26T14:25:13Z</time>
      </trkpt>
      <trkpt lat="42.96293" lon="0.8613">
        <ele>1312</ele>
        <time>2016-03-26T14:25:15Z</time>
      </trkpt>
      <trkpt lat="42.96294" lon="0.86134">
        <ele>1312</ele>
        <time>2016-03-26T14:25:17Z</time>
      </trkpt>
      <trkpt lat="42.96294" lon="0.86136">
        <ele>1312</ele>
        <time>2016-03-26T14:25:19Z</time>
      </trkpt>
      <trkpt lat="42.96294" lon="0.86138">
        <ele>1312</ele>
        <time>2016-03-26T14:25:20Z</time>
      </trkpt>
      <trkpt lat="42.96294" lon="0.8614">
        <ele>1311</ele>
        <time>2016-03-26T14:25:21Z</time>
      </trkpt>
      <trkpt lat="42.96294" lon="0.86142">
        <ele>1311</ele>
        <time>2016-03-26T14:25:23Z</time>
      </trkpt>
      <trkpt lat="42.96294" lon="0.86142">
        <ele>1311</ele>
        <time>2016-03-26T14:25:24Z</time>
      </trkpt>
      <trkpt lat="42.96294" lon="0.86143">
        <ele>1311</ele>
        <time>2016-03-26T14:25:26Z</time>
      </trkpt>
      <trkpt lat="42.96293" lon="0.86146">
        <ele>1310</ele>
        <time>2016-03-26T14:25:28Z</time>
      </trkpt>
      <trkpt lat="42.96293" lon="0.86148">
        <ele>1310</ele>
        <time>2016-03-26T14:25:29Z</time>
      </trkpt>
      <trkpt lat="42.96293" lon="0.86151">
        <ele>1310</ele>
        <time>2016-03-26T14:25:31Z</time>
      </trkpt>
      <trkpt lat="42.96292" lon="0.86154">
        <ele>1309</ele>
        <time>2016-03-26T14:25:33Z</time>
      </trkpt>
      <trkpt lat="42.96292" lon="0.86155">
        <ele>1309</ele>
        <time>2016-03-26T14:25:34Z</time>
      </trkpt>
      <trkpt lat="42.96292" lon="0.86156">
        <ele>1309</ele>
        <time>2016-03-26T14:25:35Z</time>
      </trkpt>
      <trkpt lat="42.96291" lon="0.86157">
        <ele>1308</ele>
        <time>2016-03-26T14:25:37Z</time>
      </trkpt>
      <trkpt lat="42.96291" lon="0.86158">
        <ele>1308</ele>
        <time>2016-03-26T14:25:38Z</time>
      </trkpt>
      <trkpt lat="42.96292" lon="0.8616">
        <ele>1308</ele>
        <time>2016-03-26T14:25:40Z</time>
      </trkpt>
      <trkpt lat="42.96293" lon="0.86162">
        <ele>1308</ele>
        <time>2016-03-26T14:25:42Z</time>
      </trkpt>
      <trkpt lat="42.96293" lon="0.86164">
        <ele>1308</ele>
        <time>2016-03-26T14:25:43Z</time>
      </trkpt>
      <trkpt lat="42.96294" lon="0.86166">
        <ele>1307</ele>
        <time>2016-03-26T14:25:45Z</time>
      </trkpt>
      <trkpt lat="42.96294" lon="0.86167">
        <ele>1307</ele>
        <time>2016-03-26T14:25:46Z</time>
      </trkpt>
      <trkpt lat="42.96294" lon="0.86172">
        <ele>1307</ele>
        <time>2016-03-26T14:25:48Z</time>
      </trkpt>
      <trkpt lat="42.96294" lon="0.86174">
        <ele>1307</ele>
        <time>2016-03-26T14:25:49Z</time>
      </trkpt>
      <trkpt lat="42.96294" lon="0.86179">
        <ele>1307</ele>
        <time>2016-03-26T14:25:51Z</time>
      </trkpt>
      <trkpt lat="42.96294" lon="0.86182">
        <ele>1307</ele>
        <time>2016-03-26T14:25:53Z</time>
      </trkpt>
      <trkpt lat="42.96294" lon="0.86184">
        <ele>1307</ele>
        <time>2016-03-26T14:25:54Z</time>
      </trkpt>
      <trkpt lat="42.96295" lon="0.86187">
        <ele>1307</ele>
        <time>2016-03-26T14:25:56Z</time>
      </trkpt>
      <trkpt lat="42.96295" lon="0.86188">
        <ele>1307</ele>
        <time>2016-03-26T14:25:57Z</time>
      </trkpt>
      <trkpt lat="42.96296" lon="0.86191">
        <ele>1306</ele>
        <time>2016-03-26T14:25:59Z</time>
      </trkpt>
      <trkpt lat="42.96296" lon="0.86192">
        <ele>1306</ele>
        <time>2016-03-26T14:26:00Z</time>
      </trkpt>
      <trkpt lat="42.96296" lon="0.86193">
        <ele>1306</ele>
        <time>2016-03-26T14:26:01Z</time>
      </trkpt>
      <trkpt lat="42.96298" lon="0.86195">
        <ele>1306</ele>
        <time>2016-03-26T14:26:03Z</time>
      </trkpt>
      <trkpt lat="42.96299" lon="0.86198">
        <ele>1306</ele>
        <time>2016-03-26T14:26:05Z</time>
      </trkpt>
      <trkpt lat="42.96299" lon="0.862">
        <ele>1306</ele>
        <time>2016-03-26T14:26:06Z</time>
      </trkpt>
      <trkpt lat="42.963" lon="0.86202">
        <ele>1306</ele>
        <time>2016-03-26T14:26:08Z</time>
      </trkpt>
      <trkpt lat="42.96302" lon="0.86203">
        <ele>1306</ele>
        <time>2016-03-26T14:26:09Z</time>
      </trkpt>
      <trkpt lat="42.96302" lon="0.86204">
        <ele>1306</ele>
        <time>2016-03-26T14:26:11Z</time>
      </trkpt>
      <trkpt lat="42.96302" lon="0.86204">
        <ele>1306</ele>
        <time>2016-03-26T14:26:13Z</time>
      </trkpt>
      <trkpt lat="42.96302" lon="0.86204">
        <ele>1305</ele>
        <time>2016-03-26T14:26:14Z</time>
      </trkpt>
      <trkpt lat="42.96302" lon="0.86206">
        <ele>1305</ele>
        <time>2016-03-26T14:26:16Z</time>
      </trkpt>
      <trkpt lat="42.96303" lon="0.86207">
        <ele>1305</ele>
        <time>2016-03-26T14:26:18Z</time>
      </trkpt>
      <trkpt lat="42.96305" lon="0.86208">
        <ele>1304</ele>
        <time>2016-03-26T14:26:20Z</time>
      </trkpt>
      <trkpt lat="42.96306" lon="0.86209">
        <ele>1304</ele>
        <time>2016-03-26T14:26:21Z</time>
      </trkpt>
      <trkpt lat="42.96306" lon="0.86211">
        <ele>1304</ele>
        <time>2016-03-26T14:26:22Z</time>
      </trkpt>
      <trkpt lat="42.96307" lon="0.86213">
        <ele>1304</ele>
        <time>2016-03-26T14:26:24Z</time>
      </trkpt>
      <trkpt lat="42.96308" lon="0.86215">
        <ele>1303</ele>
        <time>2016-03-26T14:26:26Z</time>
      </trkpt>
      <trkpt lat="42.9631" lon="0.86219">
        <ele>1303</ele>
        <time>2016-03-26T14:26:29Z</time>
      </trkpt>
      <trkpt lat="42.9631" lon="0.86223">
        <ele>1303</ele>
        <time>2016-03-26T14:26:32Z</time>
      </trkpt>
      <trkpt lat="42.96311" lon="0.86225">
        <ele>1303</ele>
        <time>2016-03-26T14:26:34Z</time>
      </trkpt>
      <trkpt lat="42.96311" lon="0.86227">
        <ele>1303</ele>
        <time>2016-03-26T14:26:36Z</time>
      </trkpt>
      <trkpt lat="42.96311" lon="0.86229">
        <ele>1302</ele>
        <time>2016-03-26T14:26:37Z</time>
      </trkpt>
      <trkpt lat="42.96311" lon="0.8623">
        <ele>1302</ele>
        <time>2016-03-26T14:26:38Z</time>
      </trkpt>
      <trkpt lat="42.9631" lon="0.86233">
        <ele>1302</ele>
        <time>2016-03-26T14:26:40Z</time>
      </trkpt>
      <trkpt lat="42.96309" lon="0.86236">
        <ele>1302</ele>
        <time>2016-03-26T14:26:42Z</time>
      </trkpt>
      <trkpt lat="42.96307" lon="0.8624">
        <ele>1302</ele>
        <time>2016-03-26T14:26:44Z</time>
      </trkpt>
      <trkpt lat="42.96307" lon="0.86242">
        <ele>1302</ele>
        <time>2016-03-26T14:26:46Z</time>
      </trkpt>
      <trkpt lat="42.96306" lon="0.86245">
        <ele>1302</ele>
        <time>2016-03-26T14:26:48Z</time>
      </trkpt>
      <trkpt lat="42.96305" lon="0.86248">
        <ele>1302</ele>
        <time>2016-03-26T14:26:50Z</time>
      </trkpt>
      <trkpt lat="42.96304" lon="0.8625">
        <ele>1301</ele>
        <time>2016-03-26T14:26:52Z</time>
      </trkpt>
      <trkpt lat="42.96303" lon="0.86252">
        <ele>1301</ele>
        <time>2016-03-26T14:26:54Z</time>
      </trkpt>
      <trkpt lat="42.96303" lon="0.86256">
        <ele>1301</ele>
        <time>2016-03-26T14:26:56Z</time>
      </trkpt>
      <trkpt lat="42.96304" lon="0.86257">
        <ele>1301</ele>
        <time>2016-03-26T14:26:58Z</time>
      </trkpt>
      <trkpt lat="42.96304" lon="0.86258">
        <ele>1301</ele>
        <time>2016-03-26T14:26:59Z</time>
      </trkpt>
      <trkpt lat="42.96304" lon="0.86261">
        <ele>1301</ele>
        <time>2016-03-26T14:27:01Z</time>
      </trkpt>
      <trkpt lat="42.96303" lon="0.86263">
        <ele>1301</ele>
        <time>2016-03-26T14:27:03Z</time>
      </trkpt>
      <trkpt lat="42.96302" lon="0.86265">
        <ele>1300</ele>
        <time>2016-03-26T14:27:05Z</time>
      </trkpt>
      <trkpt lat="42.96302" lon="0.86267">
        <ele>1300</ele>
        <time>2016-03-26T14:27:06Z</time>
      </trkpt>
      <trkpt lat="42.96302" lon="0.86268">
        <ele>1300</ele>
        <time>2016-03-26T14:27:08Z</time>
      </trkpt>
      <trkpt lat="42.96302" lon="0.86271">
        <ele>1300</ele>
        <time>2016-03-26T14:27:10Z</time>
      </trkpt>
      <trkpt lat="42.96302" lon="0.86274">
        <ele>1300</ele>
        <time>2016-03-26T14:27:12Z</time>
      </trkpt>
      <trkpt lat="42.96302" lon="0.86275">
        <ele>1300</ele>
        <time>2016-03-26T14:27:13Z</time>
      </trkpt>
      <trkpt lat="42.96302" lon="0.86276">
        <ele>1300</ele>
        <time>2016-03-26T14:27:14Z</time>
      </trkpt>
      <trkpt lat="42.96302" lon="0.86278">
        <ele>1300</ele>
        <time>2016-03-26T14:27:16Z</time>
      </trkpt>
      <trkpt lat="42.96302" lon="0.86279">
        <ele>1300</ele>
        <time>2016-03-26T14:27:17Z</time>
      </trkpt>
      <trkpt lat="42.96302" lon="0.86281">
        <ele>1300</ele>
        <time>2016-03-26T14:27:19Z</time>
      </trkpt>
      <trkpt lat="42.96302" lon="0.86283">
        <ele>1300</ele>
        <time>2016-03-26T14:27:20Z</time>
      </trkpt>
      <trkpt lat="42.96302" lon="0.86284">
        <ele>1300</ele>
        <time>2016-03-26T14:27:21Z</time>
      </trkpt>
      <trkpt lat="42.96304" lon="0.86287">
        <ele>1299</ele>
        <time>2016-03-26T14:27:24Z</time>
      </trkpt>
      <trkpt lat="42.96305" lon="0.86287">
        <ele>1299</ele>
        <time>2016-03-26T14:27:25Z</time>
      </trkpt>
      <trkpt lat="42.96306" lon="0.86289">
        <ele>1299</ele>
        <time>2016-03-26T14:27:27Z</time>
      </trkpt>
      <trkpt lat="42.96307" lon="0.8629">
        <ele>1299</ele>
        <time>2016-03-26T14:27:29Z</time>
      </trkpt>
      <trkpt lat="42.96307" lon="0.86292">
        <ele>1299</ele>
        <time>2016-03-26T14:27:31Z</time>
      </trkpt>
      <trkpt lat="42.96308" lon="0.86294">
        <ele>1299</ele>
        <time>2016-03-26T14:27:33Z</time>
      </trkpt>
      <trkpt lat="42.96308" lon="0.86295">
        <ele>1299</ele>
        <time>2016-03-26T14:27:34Z</time>
      </trkpt>
      <trkpt lat="42.96309" lon="0.86296">
        <ele>1299</ele>
        <time>2016-03-26T14:27:36Z</time>
      </trkpt>
      <trkpt lat="42.96309" lon="0.86297">
        <ele>1298</ele>
        <time>2016-03-26T14:27:37Z</time>
      </trkpt>
      <trkpt lat="42.9631" lon="0.86297">
        <ele>1298</ele>
        <time>2016-03-26T14:27:39Z</time>
      </trkpt>
      <trkpt lat="42.9631" lon="0.86298">
        <ele>1298</ele>
        <time>2016-03-26T14:27:40Z</time>
      </trkpt>
      <trkpt lat="42.96314" lon="0.86298">
        <ele>1298</ele>
        <time>2016-03-26T14:27:42Z</time>
      </trkpt>
      <trkpt lat="42.96315" lon="0.86297">
        <ele>1298</ele>
        <time>2016-03-26T14:27:44Z</time>
      </trkpt>
      <trkpt lat="42.96317" lon="0.86297">
        <ele>1298</ele>
        <time>2016-03-26T14:27:46Z</time>
      </trkpt>
      <trkpt lat="42.96318" lon="0.86297">
        <ele>1297</ele>
        <time>2016-03-26T14:27:48Z</time>
      </trkpt>
      <trkpt lat="42.9632" lon="0.86299">
        <ele>1297</ele>
        <time>2016-03-26T14:27:50Z</time>
      </trkpt>
      <trkpt lat="42.9632" lon="0.863">
        <ele>1297</ele>
        <time>2016-03-26T14:27:51Z</time>
      </trkpt>
      <trkpt lat="42.9632" lon="0.863">
        <ele>1297</ele>
        <time>2016-03-26T14:27:53Z</time>
      </trkpt>
      <trkpt lat="42.9632" lon="0.863">
        <ele>1297</ele>
        <time>2016-03-26T14:27:55Z</time>
      </trkpt>
      <trkpt lat="42.9632" lon="0.863">
        <ele>1297</ele>
        <time>2016-03-26T14:27:57Z</time>
      </trkpt>
      <trkpt lat="42.9632" lon="0.863">
        <ele>1297</ele>
        <time>2016-03-26T14:28:13Z</time>
      </trkpt>
      <trkpt lat="42.9632" lon="0.863">
        <ele>1297</ele>
        <time>2016-03-26T14:28:15Z</time>
      </trkpt>
      <trkpt lat="42.9632" lon="0.863">
        <ele>1297</ele>
        <time>2016-03-26T14:28:33Z</time>
      </trkpt>
      <trkpt lat="42.9632" lon="0.863">
        <ele>1297</ele>
        <time>2016-03-26T14:28:34Z</time>
      </trkpt>
      <trkpt lat="42.9632" lon="0.863">
        <ele>1297</ele>
        <time>2016-03-26T14:28:52Z</time>
      </trkpt>
      <trkpt lat="42.9632" lon="0.863">
        <ele>1297</ele>
        <time>2016-03-26T14:28:54Z</time>
      </trkpt>
      <trkpt lat="42.9632" lon="0.86301">
        <ele>1297</ele>
        <time>2016-03-26T14:29:10Z</time>
      </trkpt>
      <trkpt lat="42.96322" lon="0.86301">
        <ele>1297</ele>
        <time>2016-03-26T14:29:12Z</time>
      </trkpt>
      <trkpt lat="42.96322" lon="0.86301">
        <ele>1296</ele>
        <time>2016-03-26T14:29:14Z</time>
      </trkpt>
      <trkpt lat="42.96323" lon="0.86301">
        <ele>1296</ele>
        <time>2016-03-26T14:29:16Z</time>
      </trkpt>
      <trkpt lat="42.96324" lon="0.86302">
        <ele>1296</ele>
        <time>2016-03-26T14:29:18Z</time>
      </trkpt>
      <trkpt lat="42.96325" lon="0.86302">
        <ele>1296</ele>
        <time>2016-03-26T14:29:19Z</time>
      </trkpt>
      <trkpt lat="42.96326" lon="0.86302">
        <ele>1296</ele>
        <time>2016-03-26T14:29:21Z</time>
      </trkpt>
      <trkpt lat="42.96326" lon="0.86303">
        <ele>1296</ele>
        <time>2016-03-26T14:29:22Z</time>
      </trkpt>
      <trkpt lat="42.96328" lon="0.86302">
        <ele>1296</ele>
        <time>2016-03-26T14:29:24Z</time>
      </trkpt>
      <trkpt lat="42.96328" lon="0.86302">
        <ele>1296</ele>
        <time>2016-03-26T14:29:26Z</time>
      </trkpt>
      <trkpt lat="42.96332" lon="0.863">
        <ele>1296</ele>
        <time>2016-03-26T14:29:42Z</time>
      </trkpt>
      <trkpt lat="42.96332" lon="0.863">
        <ele>1295</ele>
        <time>2016-03-26T14:29:43Z</time>
      </trkpt>
      <trkpt lat="42.96332" lon="0.86299">
        <ele>1295</ele>
        <time>2016-03-26T14:29:45Z</time>
      </trkpt>
      <trkpt lat="42.96332" lon="0.86299">
        <ele>1295</ele>
        <time>2016-03-26T14:30:19Z</time>
      </trkpt>
      <trkpt lat="42.96332" lon="0.86299">
        <ele>1295</ele>
        <time>2016-03-26T14:30:21Z</time>
      </trkpt>
      <trkpt lat="42.96332" lon="0.86299">
        <ele>1295</ele>
        <time>2016-03-26T14:30:43Z</time>
      </trkpt>
      <trkpt lat="42.96332" lon="0.86299">
        <ele>1295</ele>
        <time>2016-03-26T14:30:44Z</time>
      </trkpt>
      <trkpt lat="42.96332" lon="0.86299">
        <ele>1295</ele>
        <time>2016-03-26T14:31:05Z</time>
      </trkpt>
      <trkpt lat="42.96332" lon="0.86299">
        <ele>1295</ele>
        <time>2016-03-26T14:31:07Z</time>
      </trkpt>
      <trkpt lat="42.96332" lon="0.86299">
        <ele>1295</ele>
        <time>2016-03-26T14:31:26Z</time>
      </trkpt>
      <trkpt lat="42.96332" lon="0.86301">
        <ele>1296</ele>
        <time>2016-03-26T14:31:38Z</time>
      </trkpt>
      <trkpt lat="42.96332" lon="0.86303">
        <ele>1297</ele>
        <time>2016-03-26T14:31:40Z</time>
      </trkpt>
      <trkpt lat="42.96332" lon="0.86305">
        <ele>1297</ele>
        <time>2016-03-26T14:31:42Z</time>
      </trkpt>
      <trkpt lat="42.96332" lon="0.86306">
        <ele>1298</ele>
        <time>2016-03-26T14:31:43Z</time>
      </trkpt>
      <trkpt lat="42.96332" lon="0.86308">
        <ele>1299</ele>
        <time>2016-03-26T14:31:45Z</time>
      </trkpt>
      <trkpt lat="42.96332" lon="0.86311">
        <ele>1299</ele>
        <time>2016-03-26T14:31:47Z</time>
      </trkpt>
      <trkpt lat="42.96332" lon="0.86312">
        <ele>1299</ele>
        <time>2016-03-26T14:31:48Z</time>
      </trkpt>
      <trkpt lat="42.96333" lon="0.86314">
        <ele>1299</ele>
        <time>2016-03-26T14:31:50Z</time>
      </trkpt>
      <trkpt lat="42.96333" lon="0.86316">
        <ele>1299</ele>
        <time>2016-03-26T14:31:51Z</time>
      </trkpt>
      <trkpt lat="42.96335" lon="0.86318">
        <ele>1299</ele>
        <time>2016-03-26T14:31:53Z</time>
      </trkpt>
      <trkpt lat="42.96336" lon="0.8632">
        <ele>1299</ele>
        <time>2016-03-26T14:31:55Z</time>
      </trkpt>
      <trkpt lat="42.96336" lon="0.86323">
        <ele>1299</ele>
        <time>2016-03-26T14:31:57Z</time>
      </trkpt>
      <trkpt lat="42.96337" lon="0.86325">
        <ele>1299</ele>
        <time>2016-03-26T14:31:59Z</time>
      </trkpt>
      <trkpt lat="42.96338" lon="0.86328">
        <ele>1298</ele>
        <time>2016-03-26T14:32:01Z</time>
      </trkpt>
      <trkpt lat="42.96338" lon="0.86329">
        <ele>1298</ele>
        <time>2016-03-26T14:32:02Z</time>
      </trkpt>
      <trkpt lat="42.96339" lon="0.8633">
        <ele>1298</ele>
        <time>2016-03-26T14:32:03Z</time>
      </trkpt>
      <trkpt lat="42.96339" lon="0.86332">
        <ele>1298</ele>
        <time>2016-03-26T14:32:05Z</time>
      </trkpt>
      <trkpt lat="42.96339" lon="0.86333">
        <ele>1298</ele>
        <time>2016-03-26T14:32:06Z</time>
      </trkpt>
      <trkpt lat="42.9634" lon="0.86335">
        <ele>1298</ele>
        <time>2016-03-26T14:32:08Z</time>
      </trkpt>
      <trkpt lat="42.96341" lon="0.86337">
        <ele>1298</ele>
        <time>2016-03-26T14:32:10Z</time>
      </trkpt>
      <trkpt lat="42.96342" lon="0.86341">
        <ele>1298</ele>
        <time>2016-03-26T14:32:12Z</time>
      </trkpt>
      <trkpt lat="42.96342" lon="0.86341">
        <ele>1298</ele>
        <time>2016-03-26T14:32:13Z</time>
      </trkpt>
      <trkpt lat="42.96342" lon="0.86342">
        <ele>1298</ele>
        <time>2016-03-26T14:32:14Z</time>
      </trkpt>
      <trkpt lat="42.96343" lon="0.86345">
        <ele>1298</ele>
        <time>2016-03-26T14:32:16Z</time>
      </trkpt>
      <trkpt lat="42.96344" lon="0.86347">
        <ele>1298</ele>
        <time>2016-03-26T14:32:18Z</time>
      </trkpt>
      <trkpt lat="42.96344" lon="0.86349">
        <ele>1298</ele>
        <time>2016-03-26T14:32:20Z</time>
      </trkpt>
      <trkpt lat="42.96344" lon="0.86351">
        <ele>1298</ele>
        <time>2016-03-26T14:32:22Z</time>
      </trkpt>
      <trkpt lat="42.96344" lon="0.86353">
        <ele>1298</ele>
        <time>2016-03-26T14:32:24Z</time>
      </trkpt>
      <trkpt lat="42.96346" lon="0.86356">
        <ele>1298</ele>
        <time>2016-03-26T14:32:26Z</time>
      </trkpt>
      <trkpt lat="42.96346" lon="0.86358">
        <ele>1298</ele>
        <time>2016-03-26T14:32:28Z</time>
      </trkpt>
      <trkpt lat="42.96344" lon="0.86361">
        <ele>1298</ele>
        <time>2016-03-26T14:32:30Z</time>
      </trkpt>
      <trkpt lat="42.96345" lon="0.86363">
        <ele>1299</ele>
        <time>2016-03-26T14:32:32Z</time>
      </trkpt>
      <trkpt lat="42.96345" lon="0.86364">
        <ele>1299</ele>
        <time>2016-03-26T14:32:33Z</time>
      </trkpt>
      <trkpt lat="42.96346" lon="0.86366">
        <ele>1299</ele>
        <time>2016-03-26T14:32:35Z</time>
      </trkpt>
      <trkpt lat="42.96346" lon="0.86367">
        <ele>1299</ele>
        <time>2016-03-26T14:32:36Z</time>
      </trkpt>
      <trkpt lat="42.96346" lon="0.86368">
        <ele>1299</ele>
        <time>2016-03-26T14:32:38Z</time>
      </trkpt>
      <trkpt lat="42.96346" lon="0.86369">
        <ele>1299</ele>
        <time>2016-03-26T14:32:40Z</time>
      </trkpt>
      <trkpt lat="42.96347" lon="0.86371">
        <ele>1299</ele>
        <time>2016-03-26T14:32:42Z</time>
      </trkpt>
      <trkpt lat="42.96348" lon="0.86371">
        <ele>1299</ele>
        <time>2016-03-26T14:32:43Z</time>
      </trkpt>
      <trkpt lat="42.96347" lon="0.86372">
        <ele>1299</ele>
        <time>2016-03-26T14:32:44Z</time>
      </trkpt>
      <trkpt lat="42.96347" lon="0.86372">
        <ele>1299</ele>
        <time>2016-03-26T14:32:46Z</time>
      </trkpt>
      <trkpt lat="42.96347" lon="0.86372">
        <ele>1299</ele>
        <time>2016-03-26T14:32:48Z</time>
      </trkpt>
      <trkpt lat="42.96346" lon="0.86383">
        <ele>1299</ele>
        <time>2016-03-26T14:33:08Z</time>
      </trkpt>
      <trkpt lat="42.96347" lon="0.86384">
        <ele>1299</ele>
        <time>2016-03-26T14:33:10Z</time>
      </trkpt>
      <trkpt lat="42.96349" lon="0.86384">
        <ele>1300</ele>
        <time>2016-03-26T14:33:12Z</time>
      </trkpt>
      <trkpt lat="42.96349" lon="0.86385">
        <ele>1300</ele>
        <time>2016-03-26T14:33:14Z</time>
      </trkpt>
      <trkpt lat="42.9635" lon="0.86386">
        <ele>1300</ele>
        <time>2016-03-26T14:33:16Z</time>
      </trkpt>
      <trkpt lat="42.96351" lon="0.86388">
        <ele>1300</ele>
        <time>2016-03-26T14:33:18Z</time>
      </trkpt>
      <trkpt lat="42.96351" lon="0.86388">
        <ele>1300</ele>
        <time>2016-03-26T14:33:19Z</time>
      </trkpt>
      <trkpt lat="42.96352" lon="0.86388">
        <ele>1300</ele>
        <time>2016-03-26T14:33:20Z</time>
      </trkpt>
      <trkpt lat="42.96354" lon="0.86389">
        <ele>1300</ele>
        <time>2016-03-26T14:33:22Z</time>
      </trkpt>
      <trkpt lat="42.96355" lon="0.86389">
        <ele>1300</ele>
        <time>2016-03-26T14:33:24Z</time>
      </trkpt>
      <trkpt lat="42.96356" lon="0.8639">
        <ele>1299</ele>
        <time>2016-03-26T14:33:25Z</time>
      </trkpt>
      <trkpt lat="42.96357" lon="0.8639">
        <ele>1299</ele>
        <time>2016-03-26T14:33:26Z</time>
      </trkpt>
      <trkpt lat="42.96358" lon="0.86391">
        <ele>1299</ele>
        <time>2016-03-26T14:33:28Z</time>
      </trkpt>
      <trkpt lat="42.9636" lon="0.86392">
        <ele>1299</ele>
        <time>2016-03-26T14:33:30Z</time>
      </trkpt>
      <trkpt lat="42.96362" lon="0.86393">
        <ele>1299</ele>
        <time>2016-03-26T14:33:32Z</time>
      </trkpt>
      <trkpt lat="42.96364" lon="0.86393">
        <ele>1299</ele>
        <time>2016-03-26T14:33:34Z</time>
      </trkpt>
      <trkpt lat="42.96365" lon="0.86393">
        <ele>1299</ele>
        <time>2016-03-26T14:33:35Z</time>
      </trkpt>
      <trkpt lat="42.96367" lon="0.86395">
        <ele>1299</ele>
        <time>2016-03-26T14:33:37Z</time>
      </trkpt>
      <trkpt lat="42.96368" lon="0.86395">
        <ele>1299</ele>
        <time>2016-03-26T14:33:38Z</time>
      </trkpt>
      <trkpt lat="42.9637" lon="0.86396">
        <ele>1299</ele>
        <time>2016-03-26T14:33:40Z</time>
      </trkpt>
      <trkpt lat="42.96371" lon="0.86397">
        <ele>1298</ele>
        <time>2016-03-26T14:33:42Z</time>
      </trkpt>
      <trkpt lat="42.96373" lon="0.86398">
        <ele>1298</ele>
        <time>2016-03-26T14:33:44Z</time>
      </trkpt>
      <trkpt lat="42.96374" lon="0.86399">
        <ele>1298</ele>
        <time>2016-03-26T14:33:46Z</time>
      </trkpt>
      <trkpt lat="42.96376" lon="0.864">
        <ele>1298</ele>
        <time>2016-03-26T14:33:48Z</time>
      </trkpt>
      <trkpt lat="42.96378" lon="0.864">
        <ele>1298</ele>
        <time>2016-03-26T14:33:50Z</time>
      </trkpt>
      <trkpt lat="42.96379" lon="0.86402">
        <ele>1298</ele>
        <time>2016-03-26T14:33:52Z</time>
      </trkpt>
      <trkpt lat="42.9638" lon="0.86404">
        <ele>1298</ele>
        <time>2016-03-26T14:33:54Z</time>
      </trkpt>
      <trkpt lat="42.96381" lon="0.86405">
        <ele>1298</ele>
        <time>2016-03-26T14:33:55Z</time>
      </trkpt>
      <trkpt lat="42.96381" lon="0.86408">
        <ele>1297</ele>
        <time>2016-03-26T14:33:57Z</time>
      </trkpt>
      <trkpt lat="42.96383" lon="0.8641">
        <ele>1297</ele>
        <time>2016-03-26T14:33:59Z</time>
      </trkpt>
      <trkpt lat="42.96384" lon="0.86412">
        <ele>1297</ele>
        <time>2016-03-26T14:34:01Z</time>
      </trkpt>
      <trkpt lat="42.96384" lon="0.86414">
        <ele>1297</ele>
        <time>2016-03-26T14:34:03Z</time>
      </trkpt>
      <trkpt lat="42.96386" lon="0.86415">
        <ele>1297</ele>
        <time>2016-03-26T14:34:05Z</time>
      </trkpt>
      <trkpt lat="42.96388" lon="0.86416">
        <ele>1297</ele>
        <time>2016-03-26T14:34:07Z</time>
      </trkpt>
      <trkpt lat="42.96389" lon="0.86417">
        <ele>1297</ele>
        <time>2016-03-26T14:34:09Z</time>
      </trkpt>
      <trkpt lat="42.9639" lon="0.86418">
        <ele>1297</ele>
        <time>2016-03-26T14:34:10Z</time>
      </trkpt>
      <trkpt lat="42.96391" lon="0.8642">
        <ele>1297</ele>
        <time>2016-03-26T14:34:12Z</time>
      </trkpt>
      <trkpt lat="42.96392" lon="0.86422">
        <ele>1297</ele>
        <time>2016-03-26T14:34:14Z</time>
      </trkpt>
      <trkpt lat="42.96393" lon="0.86423">
        <ele>1297</ele>
        <time>2016-03-26T14:34:16Z</time>
      </trkpt>
      <trkpt lat="42.96395" lon="0.86424">
        <ele>1296</ele>
        <time>2016-03-26T14:34:18Z</time>
      </trkpt>
      <trkpt lat="42.96396" lon="0.86425">
        <ele>1296</ele>
        <time>2016-03-26T14:34:20Z</time>
      </trkpt>
      <trkpt lat="42.96397" lon="0.86426">
        <ele>1296</ele>
        <time>2016-03-26T14:34:22Z</time>
      </trkpt>
      <trkpt lat="42.96397" lon="0.86429">
        <ele>1296</ele>
        <time>2016-03-26T14:34:24Z</time>
      </trkpt>
      <trkpt lat="42.96397" lon="0.8643">
        <ele>1296</ele>
        <time>2016-03-26T14:34:25Z</time>
      </trkpt>
      <trkpt lat="42.96397" lon="0.86433">
        <ele>1296</ele>
        <time>2016-03-26T14:34:27Z</time>
      </trkpt>
      <trkpt lat="42.96398" lon="0.86434">
        <ele>1295</ele>
        <time>2016-03-26T14:34:29Z</time>
      </trkpt>
      <trkpt lat="42.96397" lon="0.86437">
        <ele>1295</ele>
        <time>2016-03-26T14:34:31Z</time>
      </trkpt>
      <trkpt lat="42.96397" lon="0.86439">
        <ele>1295</ele>
        <time>2016-03-26T14:34:32Z</time>
      </trkpt>
      <trkpt lat="42.96398" lon="0.86441">
        <ele>1295</ele>
        <time>2016-03-26T14:34:34Z</time>
      </trkpt>
      <trkpt lat="42.96398" lon="0.86442">
        <ele>1295</ele>
        <time>2016-03-26T14:34:36Z</time>
      </trkpt>
      <trkpt lat="42.96399" lon="0.86443">
        <ele>1295</ele>
        <time>2016-03-26T14:34:38Z</time>
      </trkpt>
      <trkpt lat="42.96401" lon="0.86444">
        <ele>1295</ele>
        <time>2016-03-26T14:34:40Z</time>
      </trkpt>
      <trkpt lat="42.96402" lon="0.86444">
        <ele>1295</ele>
        <time>2016-03-26T14:34:42Z</time>
      </trkpt>
      <trkpt lat="42.96402" lon="0.86447">
        <ele>1295</ele>
        <time>2016-03-26T14:34:44Z</time>
      </trkpt>
      <trkpt lat="42.96403" lon="0.86449">
        <ele>1295</ele>
        <time>2016-03-26T14:34:46Z</time>
      </trkpt>
      <trkpt lat="42.96404" lon="0.8645">
        <ele>1295</ele>
        <time>2016-03-26T14:34:47Z</time>
      </trkpt>
      <trkpt lat="42.96404" lon="0.86452">
        <ele>1295</ele>
        <time>2016-03-26T14:34:48Z</time>
      </trkpt>
      <trkpt lat="42.96403" lon="0.86456">
        <ele>1295</ele>
        <time>2016-03-26T14:34:50Z</time>
      </trkpt>
      <trkpt lat="42.96403" lon="0.86457">
        <ele>1295</ele>
        <time>2016-03-26T14:34:51Z</time>
      </trkpt>
      <trkpt lat="42.96406" lon="0.86461">
        <ele>1295</ele>
        <time>2016-03-26T14:34:54Z</time>
      </trkpt>
      <trkpt lat="42.96407" lon="0.86463">
        <ele>1294</ele>
        <time>2016-03-26T14:34:56Z</time>
      </trkpt>
      <trkpt lat="42.96407" lon="0.86464">
        <ele>1294</ele>
        <time>2016-03-26T14:34:57Z</time>
      </trkpt>
      <trkpt lat="42.96407" lon="0.86465">
        <ele>1294</ele>
        <time>2016-03-26T14:34:58Z</time>
      </trkpt>
      <trkpt lat="42.96408" lon="0.86467">
        <ele>1294</ele>
        <time>2016-03-26T14:35:00Z</time>
      </trkpt>
      <trkpt lat="42.96409" lon="0.86468">
        <ele>1294</ele>
        <time>2016-03-26T14:35:01Z</time>
      </trkpt>
      <trkpt lat="42.96409" lon="0.86471">
        <ele>1294</ele>
        <time>2016-03-26T14:35:03Z</time>
      </trkpt>
      <trkpt lat="42.9641" lon="0.86473">
        <ele>1294</ele>
        <time>2016-03-26T14:35:04Z</time>
      </trkpt>
      <trkpt lat="42.96411" lon="0.86477">
        <ele>1294</ele>
        <time>2016-03-26T14:35:06Z</time>
      </trkpt>
      <trkpt lat="42.96412" lon="0.86479">
        <ele>1294</ele>
        <time>2016-03-26T14:35:08Z</time>
      </trkpt>
      <trkpt lat="42.96413" lon="0.8648">
        <ele>1294</ele>
        <time>2016-03-26T14:35:09Z</time>
      </trkpt>
      <trkpt lat="42.96413" lon="0.86481">
        <ele>1293</ele>
        <time>2016-03-26T14:35:10Z</time>
      </trkpt>
      <trkpt lat="42.96416" lon="0.86483">
        <ele>1293</ele>
        <time>2016-03-26T14:35:12Z</time>
      </trkpt>
      <trkpt lat="42.96417" lon="0.86485">
        <ele>1293</ele>
        <time>2016-03-26T14:35:14Z</time>
      </trkpt>
      <trkpt lat="42.96418" lon="0.86486">
        <ele>1293</ele>
        <time>2016-03-26T14:35:15Z</time>
      </trkpt>
      <trkpt lat="42.96419" lon="0.86487">
        <ele>1293</ele>
        <time>2016-03-26T14:35:16Z</time>
      </trkpt>
      <trkpt lat="42.9642" lon="0.8649">
        <ele>1293</ele>
        <time>2016-03-26T14:35:18Z</time>
      </trkpt>
      <trkpt lat="42.96421" lon="0.86492">
        <ele>1292</ele>
        <time>2016-03-26T14:35:20Z</time>
      </trkpt>
      <trkpt lat="42.96423" lon="0.86493">
        <ele>1292</ele>
        <time>2016-03-26T14:35:22Z</time>
      </trkpt>
      <trkpt lat="42.96423" lon="0.86494">
        <ele>1292</ele>
        <time>2016-03-26T14:35:23Z</time>
      </trkpt>
      <trkpt lat="42.96425" lon="0.86496">
        <ele>1292</ele>
        <time>2016-03-26T14:35:25Z</time>
      </trkpt>
      <trkpt lat="42.96425" lon="0.86497">
        <ele>1292</ele>
        <time>2016-03-26T14:35:26Z</time>
      </trkpt>
      <trkpt lat="42.96426" lon="0.86498">
        <ele>1292</ele>
        <time>2016-03-26T14:35:27Z</time>
      </trkpt>
      <trkpt lat="42.96426" lon="0.865">
        <ele>1292</ele>
        <time>2016-03-26T14:35:29Z</time>
      </trkpt>
      <trkpt lat="42.96427" lon="0.86503">
        <ele>1292</ele>
        <time>2016-03-26T14:35:31Z</time>
      </trkpt>
      <trkpt lat="42.96427" lon="0.86505">
        <ele>1292</ele>
        <time>2016-03-26T14:35:32Z</time>
      </trkpt>
      <trkpt lat="42.96427" lon="0.86507">
        <ele>1291</ele>
        <time>2016-03-26T14:35:34Z</time>
      </trkpt>
      <trkpt lat="42.96427" lon="0.86508">
        <ele>1291</ele>
        <time>2016-03-26T14:35:35Z</time>
      </trkpt>
      <trkpt lat="42.96426" lon="0.86511">
        <ele>1291</ele>
        <time>2016-03-26T14:35:37Z</time>
      </trkpt>
      <trkpt lat="42.96425" lon="0.86514">
        <ele>1291</ele>
        <time>2016-03-26T14:35:39Z</time>
      </trkpt>
      <trkpt lat="42.96425" lon="0.86516">
        <ele>1291</ele>
        <time>2016-03-26T14:35:40Z</time>
      </trkpt>
      <trkpt lat="42.96425" lon="0.86518">
        <ele>1291</ele>
        <time>2016-03-26T14:35:42Z</time>
      </trkpt>
      <trkpt lat="42.96426" lon="0.8652">
        <ele>1291</ele>
        <time>2016-03-26T14:35:44Z</time>
      </trkpt>
      <trkpt lat="42.96426" lon="0.86522">
        <ele>1291</ele>
        <time>2016-03-26T14:35:46Z</time>
      </trkpt>
      <trkpt lat="42.96427" lon="0.86523">
        <ele>1291</ele>
        <time>2016-03-26T14:35:48Z</time>
      </trkpt>
      <trkpt lat="42.96428" lon="0.86524">
        <ele>1291</ele>
        <time>2016-03-26T14:35:49Z</time>
      </trkpt>
      <trkpt lat="42.96428" lon="0.86525">
        <ele>1290</ele>
        <time>2016-03-26T14:35:50Z</time>
      </trkpt>
      <trkpt lat="42.96429" lon="0.86527">
        <ele>1290</ele>
        <time>2016-03-26T14:35:52Z</time>
      </trkpt>
      <trkpt lat="42.9643" lon="0.86529">
        <ele>1290</ele>
        <time>2016-03-26T14:35:54Z</time>
      </trkpt>
      <trkpt lat="42.96433" lon="0.86531">
        <ele>1290</ele>
        <time>2016-03-26T14:35:56Z</time>
      </trkpt>
      <trkpt lat="42.96433" lon="0.86532">
        <ele>1290</ele>
        <time>2016-03-26T14:35:57Z</time>
      </trkpt>
      <trkpt lat="42.96436" lon="0.86534">
        <ele>1290</ele>
        <time>2016-03-26T14:35:59Z</time>
      </trkpt>
      <trkpt lat="42.96438" lon="0.86537">
        <ele>1290</ele>
        <time>2016-03-26T14:36:01Z</time>
      </trkpt>
      <trkpt lat="42.96439" lon="0.86538">
        <ele>1289</ele>
        <time>2016-03-26T14:36:03Z</time>
      </trkpt>
      <trkpt lat="42.96442" lon="0.8654">
        <ele>1289</ele>
        <time>2016-03-26T14:36:05Z</time>
      </trkpt>
      <trkpt lat="42.96443" lon="0.86542">
        <ele>1289</ele>
        <time>2016-03-26T14:36:07Z</time>
      </trkpt>
      <trkpt lat="42.96445" lon="0.86545">
        <ele>1289</ele>
        <time>2016-03-26T14:36:09Z</time>
      </trkpt>
      <trkpt lat="42.96446" lon="0.86546">
        <ele>1289</ele>
        <time>2016-03-26T14:36:10Z</time>
      </trkpt>
      <trkpt lat="42.96447" lon="0.86549">
        <ele>1288</ele>
        <time>2016-03-26T14:36:12Z</time>
      </trkpt>
      <trkpt lat="42.96451" lon="0.86553">
        <ele>1288</ele>
        <time>2016-03-26T14:36:16Z</time>
      </trkpt>
      <trkpt lat="42.9645" lon="0.86557">
        <ele>1288</ele>
        <time>2016-03-26T14:36:17Z</time>
      </trkpt>
      <trkpt lat="42.96452" lon="0.86559">
        <ele>1288</ele>
        <time>2016-03-26T14:36:19Z</time>
      </trkpt>
      <trkpt lat="42.96453" lon="0.8656">
        <ele>1288</ele>
        <time>2016-03-26T14:36:20Z</time>
      </trkpt>
      <trkpt lat="42.96454" lon="0.86562">
        <ele>1287</ele>
        <time>2016-03-26T14:36:21Z</time>
      </trkpt>
      <trkpt lat="42.96455" lon="0.86564">
        <ele>1287</ele>
        <time>2016-03-26T14:36:23Z</time>
      </trkpt>
      <trkpt lat="42.96455" lon="0.86565">
        <ele>1287</ele>
        <time>2016-03-26T14:36:24Z</time>
      </trkpt>
      <trkpt lat="42.96455" lon="0.86569">
        <ele>1287</ele>
        <time>2016-03-26T14:36:26Z</time>
      </trkpt>
      <trkpt lat="42.96456" lon="0.86571">
        <ele>1287</ele>
        <time>2016-03-26T14:36:28Z</time>
      </trkpt>
      <trkpt lat="42.96456" lon="0.86573">
        <ele>1287</ele>
        <time>2016-03-26T14:36:29Z</time>
      </trkpt>
      <trkpt lat="42.96455" lon="0.86575">
        <ele>1287</ele>
        <time>2016-03-26T14:36:30Z</time>
      </trkpt>
      <trkpt lat="42.96456" lon="0.86578">
        <ele>1287</ele>
        <time>2016-03-26T14:36:32Z</time>
      </trkpt>
      <trkpt lat="42.96457" lon="0.8658">
        <ele>1286</ele>
        <time>2016-03-26T14:36:34Z</time>
      </trkpt>
      <trkpt lat="42.96459" lon="0.86582">
        <ele>1286</ele>
        <time>2016-03-26T14:36:35Z</time>
      </trkpt>
      <trkpt lat="42.96459" lon="0.86584">
        <ele>1286</ele>
        <time>2016-03-26T14:36:36Z</time>
      </trkpt>
      <trkpt lat="42.9646" lon="0.86585">
        <ele>1286</ele>
        <time>2016-03-26T14:36:38Z</time>
      </trkpt>
      <trkpt lat="42.96461" lon="0.86588">
        <ele>1286</ele>
        <time>2016-03-26T14:36:40Z</time>
      </trkpt>
      <trkpt lat="42.96462" lon="0.8659">
        <ele>1286</ele>
        <time>2016-03-26T14:36:42Z</time>
      </trkpt>
      <trkpt lat="42.96463" lon="0.86593">
        <ele>1286</ele>
        <time>2016-03-26T14:36:44Z</time>
      </trkpt>
      <trkpt lat="42.96465" lon="0.86594">
        <ele>1286</ele>
        <time>2016-03-26T14:36:46Z</time>
      </trkpt>
      <trkpt lat="42.96466" lon="0.86596">
        <ele>1285</ele>
        <time>2016-03-26T14:36:48Z</time>
      </trkpt>
      <trkpt lat="42.96468" lon="0.86598">
        <ele>1285</ele>
        <time>2016-03-26T14:36:50Z</time>
      </trkpt>
      <trkpt lat="42.96469" lon="0.86598">
        <ele>1285</ele>
        <time>2016-03-26T14:36:51Z</time>
      </trkpt>
      <trkpt lat="42.9647" lon="0.866">
        <ele>1285</ele>
        <time>2016-03-26T14:36:53Z</time>
      </trkpt>
      <trkpt lat="42.9647" lon="0.86601">
        <ele>1285</ele>
        <time>2016-03-26T14:36:54Z</time>
      </trkpt>
      <trkpt lat="42.96471" lon="0.86602">
        <ele>1285</ele>
        <time>2016-03-26T14:36:56Z</time>
      </trkpt>
      <trkpt lat="42.96473" lon="0.86603">
        <ele>1285</ele>
        <time>2016-03-26T14:36:58Z</time>
      </trkpt>
      <trkpt lat="42.96475" lon="0.86605">
        <ele>1285</ele>
        <time>2016-03-26T14:37:00Z</time>
      </trkpt>
      <trkpt lat="42.96474" lon="0.86606">
        <ele>1285</ele>
        <time>2016-03-26T14:37:01Z</time>
      </trkpt>
      <trkpt lat="42.96473" lon="0.86609">
        <ele>1284</ele>
        <time>2016-03-26T14:37:03Z</time>
      </trkpt>
      <trkpt lat="42.96474" lon="0.86611">
        <ele>1284</ele>
        <time>2016-03-26T14:37:05Z</time>
      </trkpt>
      <trkpt lat="42.96474" lon="0.86613">
        <ele>1284</ele>
        <time>2016-03-26T14:37:07Z</time>
      </trkpt>
      <trkpt lat="42.96473" lon="0.86615">
        <ele>1284</ele>
        <time>2016-03-26T14:37:09Z</time>
      </trkpt>
      <trkpt lat="42.96473" lon="0.86617">
        <ele>1284</ele>
        <time>2016-03-26T14:37:10Z</time>
      </trkpt>
      <trkpt lat="42.96473" lon="0.8662">
        <ele>1284</ele>
        <time>2016-03-26T14:37:12Z</time>
      </trkpt>
      <trkpt lat="42.96475" lon="0.86622">
        <ele>1283</ele>
        <time>2016-03-26T14:37:14Z</time>
      </trkpt>
      <trkpt lat="42.96476" lon="0.86623">
        <ele>1283</ele>
        <time>2016-03-26T14:37:15Z</time>
      </trkpt>
      <trkpt lat="42.96478" lon="0.86625">
        <ele>1283</ele>
        <time>2016-03-26T14:37:17Z</time>
      </trkpt>
      <trkpt lat="42.96479" lon="0.86627">
        <ele>1283</ele>
        <time>2016-03-26T14:37:18Z</time>
      </trkpt>
      <trkpt lat="42.96479" lon="0.86628">
        <ele>1283</ele>
        <time>2016-03-26T14:37:19Z</time>
      </trkpt>
      <trkpt lat="42.96479" lon="0.8663">
        <ele>1283</ele>
        <time>2016-03-26T14:37:21Z</time>
      </trkpt>
      <trkpt lat="42.96479" lon="0.86631">
        <ele>1283</ele>
        <time>2016-03-26T14:37:22Z</time>
      </trkpt>
      <trkpt lat="42.9648" lon="0.86634">
        <ele>1282</ele>
        <time>2016-03-26T14:37:24Z</time>
      </trkpt>
      <trkpt lat="42.9648" lon="0.86635">
        <ele>1282</ele>
        <time>2016-03-26T14:37:25Z</time>
      </trkpt>
      <trkpt lat="42.96481" lon="0.86636">
        <ele>1282</ele>
        <time>2016-03-26T14:37:26Z</time>
      </trkpt>
      <trkpt lat="42.96481" lon="0.86639">
        <ele>1282</ele>
        <time>2016-03-26T14:37:28Z</time>
      </trkpt>
      <trkpt lat="42.96483" lon="0.86641">
        <ele>1282</ele>
        <time>2016-03-26T14:37:30Z</time>
      </trkpt>
      <trkpt lat="42.96484" lon="0.86642">
        <ele>1282</ele>
        <time>2016-03-26T14:37:32Z</time>
      </trkpt>
      <trkpt lat="42.96486" lon="0.86646">
        <ele>1281</ele>
        <time>2016-03-26T14:37:34Z</time>
      </trkpt>
      <trkpt lat="42.96486" lon="0.86648">
        <ele>1281</ele>
        <time>2016-03-26T14:37:36Z</time>
      </trkpt>
      <trkpt lat="42.96487" lon="0.8665">
        <ele>1281</ele>
        <time>2016-03-26T14:37:38Z</time>
      </trkpt>
      <trkpt lat="42.96488" lon="0.86653">
        <ele>1280</ele>
        <time>2016-03-26T14:37:40Z</time>
      </trkpt>
      <trkpt lat="42.96489" lon="0.86655">
        <ele>1280</ele>
        <time>2016-03-26T14:37:42Z</time>
      </trkpt>
      <trkpt lat="42.9649" lon="0.86657">
        <ele>1280</ele>
        <time>2016-03-26T14:37:44Z</time>
      </trkpt>
      <trkpt lat="42.96489" lon="0.86659">
        <ele>1279</ele>
        <time>2016-03-26T14:37:45Z</time>
      </trkpt>
      <trkpt lat="42.9649" lon="0.8666">
        <ele>1279</ele>
        <time>2016-03-26T14:37:46Z</time>
      </trkpt>
      <trkpt lat="42.96492" lon="0.86663">
        <ele>1279</ele>
        <time>2016-03-26T14:37:49Z</time>
      </trkpt>
      <trkpt lat="42.96492" lon="0.86665">
        <ele>1279</ele>
        <time>2016-03-26T14:37:50Z</time>
      </trkpt>
      <trkpt lat="42.96493" lon="0.86665">
        <ele>1278</ele>
        <time>2016-03-26T14:37:51Z</time>
      </trkpt>
      <trkpt lat="42.96493" lon="0.86667">
        <ele>1278</ele>
        <time>2016-03-26T14:37:52Z</time>
      </trkpt>
      <trkpt lat="42.96494" lon="0.8667">
        <ele>1278</ele>
        <time>2016-03-26T14:37:54Z</time>
      </trkpt>
      <trkpt lat="42.96495" lon="0.8667">
        <ele>1278</ele>
        <time>2016-03-26T14:37:55Z</time>
      </trkpt>
      <trkpt lat="42.96495" lon="0.86672">
        <ele>1277</ele>
        <time>2016-03-26T14:37:57Z</time>
      </trkpt>
      <trkpt lat="42.96496" lon="0.86673">
        <ele>1277</ele>
        <time>2016-03-26T14:37:59Z</time>
      </trkpt>
      <trkpt lat="42.96497" lon="0.86674">
        <ele>1277</ele>
        <time>2016-03-26T14:38:00Z</time>
      </trkpt>
      <trkpt lat="42.96496" lon="0.86675">
        <ele>1277</ele>
        <time>2016-03-26T14:38:02Z</time>
      </trkpt>
      <trkpt lat="42.96496" lon="0.86676">
        <ele>1277</ele>
        <time>2016-03-26T14:38:04Z</time>
      </trkpt>
      <trkpt lat="42.96497" lon="0.8668">
        <ele>1276</ele>
        <time>2016-03-26T14:38:07Z</time>
      </trkpt>
      <trkpt lat="42.96497" lon="0.86681">
        <ele>1276</ele>
        <time>2016-03-26T14:38:08Z</time>
      </trkpt>
      <trkpt lat="42.96499" lon="0.86683">
        <ele>1276</ele>
        <time>2016-03-26T14:38:10Z</time>
      </trkpt>
      <trkpt lat="42.965" lon="0.86685">
        <ele>1276</ele>
        <time>2016-03-26T14:38:12Z</time>
      </trkpt>
      <trkpt lat="42.96502" lon="0.8669">
        <ele>1276</ele>
        <time>2016-03-26T14:38:14Z</time>
      </trkpt>
      <trkpt lat="42.96503" lon="0.8669">
        <ele>1275</ele>
        <time>2016-03-26T14:38:15Z</time>
      </trkpt>
      <trkpt lat="42.96503" lon="0.86691">
        <ele>1275</ele>
        <time>2016-03-26T14:38:16Z</time>
      </trkpt>
      <trkpt lat="42.96507" lon="0.86693">
        <ele>1275</ele>
        <time>2016-03-26T14:38:18Z</time>
      </trkpt>
      <trkpt lat="42.96508" lon="0.86696">
        <ele>1275</ele>
        <time>2016-03-26T14:38:20Z</time>
      </trkpt>
      <trkpt lat="42.9651" lon="0.86697">
        <ele>1275</ele>
        <time>2016-03-26T14:38:22Z</time>
      </trkpt>
      <trkpt lat="42.96512" lon="0.86702">
        <ele>1275</ele>
        <time>2016-03-26T14:38:24Z</time>
      </trkpt>
      <trkpt lat="42.96513" lon="0.86704">
        <ele>1275</ele>
        <time>2016-03-26T14:38:25Z</time>
      </trkpt>
      <trkpt lat="42.96513" lon="0.86705">
        <ele>1275</ele>
        <time>2016-03-26T14:38:26Z</time>
      </trkpt>
      <trkpt lat="42.96515" lon="0.86705">
        <ele>1275</ele>
        <time>2016-03-26T14:38:28Z</time>
      </trkpt>
      <trkpt lat="42.96516" lon="0.86707">
        <ele>1275</ele>
        <time>2016-03-26T14:38:30Z</time>
      </trkpt>
      <trkpt lat="42.96518" lon="0.86709">
        <ele>1274</ele>
        <time>2016-03-26T14:38:32Z</time>
      </trkpt>
      <trkpt lat="42.96518" lon="0.86712">
        <ele>1274</ele>
        <time>2016-03-26T14:38:34Z</time>
      </trkpt>
      <trkpt lat="42.9652" lon="0.86713">
        <ele>1274</ele>
        <time>2016-03-26T14:38:35Z</time>
      </trkpt>
      <trkpt lat="42.96522" lon="0.86715">
        <ele>1274</ele>
        <time>2016-03-26T14:38:37Z</time>
      </trkpt>
      <trkpt lat="42.96523" lon="0.86715">
        <ele>1274</ele>
        <time>2016-03-26T14:38:38Z</time>
      </trkpt>
      <trkpt lat="42.96524" lon="0.86717">
        <ele>1274</ele>
        <time>2016-03-26T14:38:40Z</time>
      </trkpt>
      <trkpt lat="42.96527" lon="0.86717">
        <ele>1274</ele>
        <time>2016-03-26T14:38:42Z</time>
      </trkpt>
      <trkpt lat="42.96528" lon="0.86719">
        <ele>1274</ele>
        <time>2016-03-26T14:38:44Z</time>
      </trkpt>
      <trkpt lat="42.96529" lon="0.86719">
        <ele>1273</ele>
        <time>2016-03-26T14:38:45Z</time>
      </trkpt>
      <trkpt lat="42.96529" lon="0.86719">
        <ele>1273</ele>
        <time>2016-03-26T14:38:46Z</time>
      </trkpt>
      <trkpt lat="42.9653" lon="0.8672">
        <ele>1273</ele>
        <time>2016-03-26T14:38:48Z</time>
      </trkpt>
      <trkpt lat="42.96532" lon="0.86721">
        <ele>1273</ele>
        <time>2016-03-26T14:38:49Z</time>
      </trkpt>
      <trkpt lat="42.96532" lon="0.86722">
        <ele>1273</ele>
        <time>2016-03-26T14:38:50Z</time>
      </trkpt>
      <trkpt lat="42.96537" lon="0.86726">
        <ele>1272</ele>
        <time>2016-03-26T14:38:54Z</time>
      </trkpt>
      <trkpt lat="42.96537" lon="0.86726">
        <ele>1272</ele>
        <time>2016-03-26T14:38:55Z</time>
      </trkpt>
      <trkpt lat="42.96538" lon="0.8673">
        <ele>1272</ele>
        <time>2016-03-26T14:38:57Z</time>
      </trkpt>
      <trkpt lat="42.9654" lon="0.86731">
        <ele>1272</ele>
        <time>2016-03-26T14:38:59Z</time>
      </trkpt>
      <trkpt lat="42.96542" lon="0.86733">
        <ele>1271</ele>
        <time>2016-03-26T14:39:01Z</time>
      </trkpt>
      <trkpt lat="42.96543" lon="0.86734">
        <ele>1271</ele>
        <time>2016-03-26T14:39:03Z</time>
      </trkpt>
      <trkpt lat="42.96544" lon="0.86736">
        <ele>1271</ele>
        <time>2016-03-26T14:39:04Z</time>
      </trkpt>
      <trkpt lat="42.96544" lon="0.86737">
        <ele>1271</ele>
        <time>2016-03-26T14:39:06Z</time>
      </trkpt>
      <trkpt lat="42.96545" lon="0.86739">
        <ele>1270</ele>
        <time>2016-03-26T14:39:08Z</time>
      </trkpt>
      <trkpt lat="42.96545" lon="0.86741">
        <ele>1270</ele>
        <time>2016-03-26T14:39:10Z</time>
      </trkpt>
      <trkpt lat="42.96545" lon="0.86743">
        <ele>1270</ele>
        <time>2016-03-26T14:39:12Z</time>
      </trkpt>
      <trkpt lat="42.96545" lon="0.86745">
        <ele>1269</ele>
        <time>2016-03-26T14:39:14Z</time>
      </trkpt>
      <trkpt lat="42.96546" lon="0.86746">
        <ele>1269</ele>
        <time>2016-03-26T14:39:16Z</time>
      </trkpt>
      <trkpt lat="42.96546" lon="0.86748">
        <ele>1269</ele>
        <time>2016-03-26T14:39:18Z</time>
      </trkpt>
      <trkpt lat="42.96547" lon="0.8675">
        <ele>1269</ele>
        <time>2016-03-26T14:39:20Z</time>
      </trkpt>
      <trkpt lat="42.96547" lon="0.86752">
        <ele>1269</ele>
        <time>2016-03-26T14:39:21Z</time>
      </trkpt>
      <trkpt lat="42.96547" lon="0.86754">
        <ele>1268</ele>
        <time>2016-03-26T14:39:23Z</time>
      </trkpt>
      <trkpt lat="42.96547" lon="0.86755">
        <ele>1268</ele>
        <time>2016-03-26T14:39:24Z</time>
      </trkpt>
      <trkpt lat="42.96547" lon="0.86756">
        <ele>1268</ele>
        <time>2016-03-26T14:39:25Z</time>
      </trkpt>
      <trkpt lat="42.96548" lon="0.86758">
        <ele>1268</ele>
        <time>2016-03-26T14:39:27Z</time>
      </trkpt>
      <trkpt lat="42.96549" lon="0.86761">
        <ele>1267</ele>
        <time>2016-03-26T14:39:29Z</time>
      </trkpt>
      <trkpt lat="42.9655" lon="0.86763">
        <ele>1267</ele>
        <time>2016-03-26T14:39:31Z</time>
      </trkpt>
      <trkpt lat="42.9655" lon="0.86765">
        <ele>1267</ele>
        <time>2016-03-26T14:39:33Z</time>
      </trkpt>
      <trkpt lat="42.96552" lon="0.86768">
        <ele>1267</ele>
        <time>2016-03-26T14:39:35Z</time>
      </trkpt>
      <trkpt lat="42.96552" lon="0.8677">
        <ele>1266</ele>
        <time>2016-03-26T14:39:37Z</time>
      </trkpt>
      <trkpt lat="42.96552" lon="0.86772">
        <ele>1266</ele>
        <time>2016-03-26T14:39:39Z</time>
      </trkpt>
      <trkpt lat="42.9655" lon="0.86774">
        <ele>1266</ele>
        <time>2016-03-26T14:39:40Z</time>
      </trkpt>
      <trkpt lat="42.9655" lon="0.86776">
        <ele>1266</ele>
        <time>2016-03-26T14:39:42Z</time>
      </trkpt>
      <trkpt lat="42.9655" lon="0.86777">
        <ele>1266</ele>
        <time>2016-03-26T14:39:43Z</time>
      </trkpt>
      <trkpt lat="42.9655" lon="0.86779">
        <ele>1265</ele>
        <time>2016-03-26T14:39:45Z</time>
      </trkpt>
      <trkpt lat="42.9655" lon="0.86781">
        <ele>1265</ele>
        <time>2016-03-26T14:39:46Z</time>
      </trkpt>
      <trkpt lat="42.96551" lon="0.86783">
        <ele>1265</ele>
        <time>2016-03-26T14:39:48Z</time>
      </trkpt>
      <trkpt lat="42.9655" lon="0.86786">
        <ele>1265</ele>
        <time>2016-03-26T14:39:50Z</time>
      </trkpt>
      <trkpt lat="42.96549" lon="0.86787">
        <ele>1264</ele>
        <time>2016-03-26T14:39:51Z</time>
      </trkpt>
      <trkpt lat="42.9655" lon="0.8679">
        <ele>1264</ele>
        <time>2016-03-26T14:39:53Z</time>
      </trkpt>
      <trkpt lat="42.96551" lon="0.86792">
        <ele>1264</ele>
        <time>2016-03-26T14:39:55Z</time>
      </trkpt>
      <trkpt lat="42.96552" lon="0.86794">
        <ele>1264</ele>
        <time>2016-03-26T14:39:57Z</time>
      </trkpt>
      <trkpt lat="42.96553" lon="0.86796">
        <ele>1263</ele>
        <time>2016-03-26T14:39:59Z</time>
      </trkpt>
      <trkpt lat="42.96554" lon="0.86797">
        <ele>1263</ele>
        <time>2016-03-26T14:40:01Z</time>
      </trkpt>
      <trkpt lat="42.96555" lon="0.86798">
        <ele>1263</ele>
        <time>2016-03-26T14:40:02Z</time>
      </trkpt>
      <trkpt lat="42.96555" lon="0.868">
        <ele>1263</ele>
        <time>2016-03-26T14:40:04Z</time>
      </trkpt>
      <trkpt lat="42.96557" lon="0.86802">
        <ele>1262</ele>
        <time>2016-03-26T14:40:05Z</time>
      </trkpt>
      <trkpt lat="42.96558" lon="0.86804">
        <ele>1262</ele>
        <time>2016-03-26T14:40:07Z</time>
      </trkpt>
      <trkpt lat="42.9656" lon="0.86807">
        <ele>1262</ele>
        <time>2016-03-26T14:40:09Z</time>
      </trkpt>
      <trkpt lat="42.9656" lon="0.86808">
        <ele>1262</ele>
        <time>2016-03-26T14:40:10Z</time>
      </trkpt>
      <trkpt lat="42.96562" lon="0.86811">
        <ele>1261</ele>
        <time>2016-03-26T14:40:12Z</time>
      </trkpt>
      <trkpt lat="42.96562" lon="0.86812">
        <ele>1261</ele>
        <time>2016-03-26T14:40:13Z</time>
      </trkpt>
      <trkpt lat="42.96565" lon="0.86813">
        <ele>1261</ele>
        <time>2016-03-26T14:40:15Z</time>
      </trkpt>
      <trkpt lat="42.96566" lon="0.86816">
        <ele>1261</ele>
        <time>2016-03-26T14:40:17Z</time>
      </trkpt>
      <trkpt lat="42.96567" lon="0.86818">
        <ele>1260</ele>
        <time>2016-03-26T14:40:19Z</time>
      </trkpt>
      <trkpt lat="42.96567" lon="0.86821">
        <ele>1260</ele>
        <time>2016-03-26T14:40:21Z</time>
      </trkpt>
      <trkpt lat="42.96567" lon="0.86821">
        <ele>1260</ele>
        <time>2016-03-26T14:40:22Z</time>
      </trkpt>
      <trkpt lat="42.96567" lon="0.86822">
        <ele>1260</ele>
        <time>2016-03-26T14:40:23Z</time>
      </trkpt>
      <trkpt lat="42.96568" lon="0.86824">
        <ele>1259</ele>
        <time>2016-03-26T14:40:25Z</time>
      </trkpt>
      <trkpt lat="42.96569" lon="0.86826">
        <ele>1259</ele>
        <time>2016-03-26T14:40:27Z</time>
      </trkpt>
      <trkpt lat="42.96569" lon="0.86827">
        <ele>1259</ele>
        <time>2016-03-26T14:40:28Z</time>
      </trkpt>
      <trkpt lat="42.96572" lon="0.86829">
        <ele>1259</ele>
        <time>2016-03-26T14:40:30Z</time>
      </trkpt>
      <trkpt lat="42.96572" lon="0.8683">
        <ele>1259</ele>
        <time>2016-03-26T14:40:31Z</time>
      </trkpt>
      <trkpt lat="42.96571" lon="0.86832">
        <ele>1258</ele>
        <time>2016-03-26T14:40:33Z</time>
      </trkpt>
      <trkpt lat="42.96572" lon="0.86833">
        <ele>1258</ele>
        <time>2016-03-26T14:40:34Z</time>
      </trkpt>
      <trkpt lat="42.96571" lon="0.86836">
        <ele>1258</ele>
        <time>2016-03-26T14:40:36Z</time>
      </trkpt>
      <trkpt lat="42.9657" lon="0.86839">
        <ele>1258</ele>
        <time>2016-03-26T14:40:38Z</time>
      </trkpt>
      <trkpt lat="42.96569" lon="0.8684">
        <ele>1258</ele>
        <time>2016-03-26T14:40:39Z</time>
      </trkpt>
      <trkpt lat="42.96569" lon="0.86842">
        <ele>1257</ele>
        <time>2016-03-26T14:40:41Z</time>
      </trkpt>
      <trkpt lat="42.96569" lon="0.86844">
        <ele>1257</ele>
        <time>2016-03-26T14:40:43Z</time>
      </trkpt>
      <trkpt lat="42.96569" lon="0.86847">
        <ele>1257</ele>
        <time>2016-03-26T14:40:46Z</time>
      </trkpt>
      <trkpt lat="42.96569" lon="0.86849">
        <ele>1257</ele>
        <time>2016-03-26T14:40:48Z</time>
      </trkpt>
      <trkpt lat="42.96569" lon="0.86851">
        <ele>1256</ele>
        <time>2016-03-26T14:40:50Z</time>
      </trkpt>
      <trkpt lat="42.9657" lon="0.86855">
        <ele>1256</ele>
        <time>2016-03-26T14:40:52Z</time>
      </trkpt>
      <trkpt lat="42.96569" lon="0.86857">
        <ele>1256</ele>
        <time>2016-03-26T14:40:53Z</time>
      </trkpt>
      <trkpt lat="42.96569" lon="0.86862">
        <ele>1256</ele>
        <time>2016-03-26T14:40:55Z</time>
      </trkpt>
      <trkpt lat="42.96569" lon="0.86864">
        <ele>1255</ele>
        <time>2016-03-26T14:40:56Z</time>
      </trkpt>
      <trkpt lat="42.96569" lon="0.86866">
        <ele>1255</ele>
        <time>2016-03-26T14:40:57Z</time>
      </trkpt>
      <trkpt lat="42.96568" lon="0.86869">
        <ele>1255</ele>
        <time>2016-03-26T14:40:59Z</time>
      </trkpt>
      <trkpt lat="42.96569" lon="0.8687">
        <ele>1255</ele>
        <time>2016-03-26T14:41:00Z</time>
      </trkpt>
      <trkpt lat="42.96569" lon="0.86871">
        <ele>1255</ele>
        <time>2016-03-26T14:41:01Z</time>
      </trkpt>
      <trkpt lat="42.96569" lon="0.86874">
        <ele>1254</ele>
        <time>2016-03-26T14:41:03Z</time>
      </trkpt>
      <trkpt lat="42.9657" lon="0.86878">
        <ele>1254</ele>
        <time>2016-03-26T14:41:05Z</time>
      </trkpt>
      <trkpt lat="42.96571" lon="0.8688">
        <ele>1254</ele>
        <time>2016-03-26T14:41:07Z</time>
      </trkpt>
      <trkpt lat="42.96572" lon="0.86883">
        <ele>1254</ele>
        <time>2016-03-26T14:41:09Z</time>
      </trkpt>
      <trkpt lat="42.96572" lon="0.86884">
        <ele>1254</ele>
        <time>2016-03-26T14:41:10Z</time>
      </trkpt>
      <trkpt lat="42.96572" lon="0.86888">
        <ele>1253</ele>
        <time>2016-03-26T14:41:12Z</time>
      </trkpt>
      <trkpt lat="42.96573" lon="0.86889">
        <ele>1253</ele>
        <time>2016-03-26T14:41:13Z</time>
      </trkpt>
      <trkpt lat="42.96573" lon="0.86893">
        <ele>1253</ele>
        <time>2016-03-26T14:41:15Z</time>
      </trkpt>
      <trkpt lat="42.96573" lon="0.86896">
        <ele>1253</ele>
        <time>2016-03-26T14:41:17Z</time>
      </trkpt>
      <trkpt lat="42.96574" lon="0.869">
        <ele>1252</ele>
        <time>2016-03-26T14:41:19Z</time>
      </trkpt>
      <trkpt lat="42.96574" lon="0.86901">
        <ele>1252</ele>
        <time>2016-03-26T14:41:20Z</time>
      </trkpt>
      <trkpt lat="42.96575" lon="0.86902">
        <ele>1252</ele>
        <time>2016-03-26T14:41:21Z</time>
      </trkpt>
      <trkpt lat="42.96575" lon="0.86903">
        <ele>1252</ele>
        <time>2016-03-26T14:41:22Z</time>
      </trkpt>
      <trkpt lat="42.96576" lon="0.86906">
        <ele>1251</ele>
        <time>2016-03-26T14:41:24Z</time>
      </trkpt>
      <trkpt lat="42.96576" lon="0.86908">
        <ele>1251</ele>
        <time>2016-03-26T14:41:25Z</time>
      </trkpt>
      <trkpt lat="42.96578" lon="0.86911">
        <ele>1251</ele>
        <time>2016-03-26T14:41:27Z</time>
      </trkpt>
      <trkpt lat="42.96579" lon="0.86913">
        <ele>1251</ele>
        <time>2016-03-26T14:41:29Z</time>
      </trkpt>
      <trkpt lat="42.96579" lon="0.86915">
        <ele>1251</ele>
        <time>2016-03-26T14:41:30Z</time>
      </trkpt>
      <trkpt lat="42.96581" lon="0.86917">
        <ele>1250</ele>
        <time>2016-03-26T14:41:32Z</time>
      </trkpt>
      <trkpt lat="42.96581" lon="0.86919">
        <ele>1250</ele>
        <time>2016-03-26T14:41:33Z</time>
      </trkpt>
      <trkpt lat="42.96581" lon="0.8692">
        <ele>1250</ele>
        <time>2016-03-26T14:41:34Z</time>
      </trkpt>
      <trkpt lat="42.96582" lon="0.86922">
        <ele>1250</ele>
        <time>2016-03-26T14:41:36Z</time>
      </trkpt>
      <trkpt lat="42.96582" lon="0.86922">
        <ele>1249</ele>
        <time>2016-03-26T14:41:37Z</time>
      </trkpt>
      <trkpt lat="42.96582" lon="0.86924">
        <ele>1249</ele>
        <time>2016-03-26T14:41:39Z</time>
      </trkpt>
      <trkpt lat="42.96582" lon="0.86927">
        <ele>1249</ele>
        <time>2016-03-26T14:41:41Z</time>
      </trkpt>
      <trkpt lat="42.96582" lon="0.86928">
        <ele>1249</ele>
        <time>2016-03-26T14:41:42Z</time>
      </trkpt>
      <trkpt lat="42.96583" lon="0.86931">
        <ele>1249</ele>
        <time>2016-03-26T14:41:44Z</time>
      </trkpt>
      <trkpt lat="42.96584" lon="0.86933">
        <ele>1248</ele>
        <time>2016-03-26T14:41:46Z</time>
      </trkpt>
      <trkpt lat="42.96584" lon="0.86935">
        <ele>1248</ele>
        <time>2016-03-26T14:41:47Z</time>
      </trkpt>
      <trkpt lat="42.96584" lon="0.86938">
        <ele>1248</ele>
        <time>2016-03-26T14:41:49Z</time>
      </trkpt>
      <trkpt lat="42.96583" lon="0.8694">
        <ele>1248</ele>
        <time>2016-03-26T14:41:50Z</time>
      </trkpt>
      <trkpt lat="42.96584" lon="0.86942">
        <ele>1247</ele>
        <time>2016-03-26T14:41:52Z</time>
      </trkpt>
      <trkpt lat="42.96584" lon="0.86944">
        <ele>1247</ele>
        <time>2016-03-26T14:41:53Z</time>
      </trkpt>
      <trkpt lat="42.96585" lon="0.86947">
        <ele>1247</ele>
        <time>2016-03-26T14:41:55Z</time>
      </trkpt>
      <trkpt lat="42.96586" lon="0.86949">
        <ele>1247</ele>
        <time>2016-03-26T14:41:57Z</time>
      </trkpt>
      <trkpt lat="42.96586" lon="0.86951">
        <ele>1246</ele>
        <time>2016-03-26T14:41:58Z</time>
      </trkpt>
      <trkpt lat="42.96586" lon="0.86953">
        <ele>1246</ele>
        <time>2016-03-26T14:42:00Z</time>
      </trkpt>
      <trkpt lat="42.96586" lon="0.86955">
        <ele>1246</ele>
        <time>2016-03-26T14:42:01Z</time>
      </trkpt>
      <trkpt lat="42.96585" lon="0.86957">
        <ele>1246</ele>
        <time>2016-03-26T14:42:03Z</time>
      </trkpt>
      <trkpt lat="42.96585" lon="0.86959">
        <ele>1245</ele>
        <time>2016-03-26T14:42:05Z</time>
      </trkpt>
      <trkpt lat="42.96586" lon="0.8696">
        <ele>1245</ele>
        <time>2016-03-26T14:42:06Z</time>
      </trkpt>
      <trkpt lat="42.96584" lon="0.86963">
        <ele>1245</ele>
        <time>2016-03-26T14:42:08Z</time>
      </trkpt>
      <trkpt lat="42.96586" lon="0.86965">
        <ele>1244</ele>
        <time>2016-03-26T14:42:10Z</time>
      </trkpt>
      <trkpt lat="42.96586" lon="0.86967">
        <ele>1244</ele>
        <time>2016-03-26T14:42:12Z</time>
      </trkpt>
      <trkpt lat="42.96588" lon="0.86969">
        <ele>1244</ele>
        <time>2016-03-26T14:42:14Z</time>
      </trkpt>
      <trkpt lat="42.9659" lon="0.86971">
        <ele>1244</ele>
        <time>2016-03-26T14:42:16Z</time>
      </trkpt>
      <trkpt lat="42.96591" lon="0.86971">
        <ele>1243</ele>
        <time>2016-03-26T14:42:17Z</time>
      </trkpt>
      <trkpt lat="42.96591" lon="0.86971">
        <ele>1243</ele>
        <time>2016-03-26T14:42:44Z</time>
      </trkpt>
      <trkpt lat="42.96591" lon="0.86971">
        <ele>1243</ele>
        <time>2016-03-26T14:42:46Z</time>
      </trkpt>
      <trkpt lat="42.96591" lon="0.86971">
        <ele>1243</ele>
        <time>2016-03-26T14:43:07Z</time>
      </trkpt>
      <trkpt lat="42.96591" lon="0.86971">
        <ele>1243</ele>
        <time>2016-03-26T14:43:08Z</time>
      </trkpt>
      <trkpt lat="42.96595" lon="0.86981">
        <ele>1243</ele>
        <time>2016-03-26T14:43:17Z</time>
      </trkpt>
      <trkpt lat="42.96595" lon="0.86982">
        <ele>1244</ele>
        <time>2016-03-26T14:43:18Z</time>
      </trkpt>
      <trkpt lat="42.96594" lon="0.86984">
        <ele>1244</ele>
        <time>2016-03-26T14:43:20Z</time>
      </trkpt>
      <trkpt lat="42.96594" lon="0.86984">
        <ele>1244</ele>
        <time>2016-03-26T14:43:49Z</time>
      </trkpt>
      <trkpt lat="42.96594" lon="0.86984">
        <ele>1245</ele>
        <time>2016-03-26T14:43:51Z</time>
      </trkpt>
      <trkpt lat="42.966" lon="0.8697">
        <ele>1245</ele>
        <time>2016-03-26T14:44:11Z</time>
      </trkpt>
      <trkpt lat="42.96602" lon="0.8697">
        <ele>1245</ele>
        <time>2016-03-26T14:44:12Z</time>
      </trkpt>
      <trkpt lat="42.96602" lon="0.8697">
        <ele>1246</ele>
        <time>2016-03-26T14:44:13Z</time>
      </trkpt>
      <trkpt lat="42.96602" lon="0.8697">
        <ele>1246</ele>
        <time>2016-03-26T14:44:32Z</time>
      </trkpt>
      <trkpt lat="42.96602" lon="0.8697">
        <ele>1247</ele>
        <time>2016-03-26T14:44:34Z</time>
      </trkpt>
      <trkpt lat="42.96598" lon="0.86982">
        <ele>1247</ele>
        <time>2016-03-26T14:44:39Z</time>
      </trkpt>
      <trkpt lat="42.96597" lon="0.86982">
        <ele>1247</ele>
        <time>2016-03-26T14:44:41Z</time>
      </trkpt>
      <trkpt lat="42.96597" lon="0.86982">
        <ele>1247</ele>
        <time>2016-03-26T14:44:42Z</time>
      </trkpt>
      <trkpt lat="42.96597" lon="0.86982">
        <ele>1248</ele>
        <time>2016-03-26T14:44:57Z</time>
      </trkpt>
      <trkpt lat="42.96597" lon="0.86982">
        <ele>1248</ele>
        <time>2016-03-26T14:44:59Z</time>
      </trkpt>
      <trkpt lat="42.96597" lon="0.86982">
        <ele>1248</ele>
        <time>2016-03-26T14:45:18Z</time>
      </trkpt>
      <trkpt lat="42.96597" lon="0.86982">
        <ele>1248</ele>
        <time>2016-03-26T14:45:19Z</time>
      </trkpt>
      <trkpt lat="42.96597" lon="0.86982">
        <ele>1248</ele>
        <time>2016-03-26T14:45:39Z</time>
      </trkpt>
      <trkpt lat="42.96597" lon="0.86982">
        <ele>1248</ele>
        <time>2016-03-26T14:45:41Z</time>
      </trkpt>
      <trkpt lat="42.96587" lon="0.86982">
        <ele>1248</ele>
        <time>2016-03-26T14:45:46Z</time>
      </trkpt>
      <trkpt lat="42.96586" lon="0.86982">
        <ele>1249</ele>
        <time>2016-03-26T14:45:47Z</time>
      </trkpt>
      <trkpt lat="42.96586" lon="0.86982">
        <ele>1249</ele>
        <time>2016-03-26T14:45:49Z</time>
      </trkpt>
      <trkpt lat="42.96595" lon="0.86981">
        <ele>1250</ele>
        <time>2016-03-26T14:46:24Z</time>
      </trkpt>
      <trkpt lat="42.96595" lon="0.86981">
        <ele>1250</ele>
        <time>2016-03-26T14:46:25Z</time>
      </trkpt>
      <trkpt lat="42.96597" lon="0.86982">
        <ele>1251</ele>
        <time>2016-03-26T14:46:27Z</time>
      </trkpt>
      <trkpt lat="42.96597" lon="0.86982">
        <ele>1251</ele>
        <time>2016-03-26T14:46:45Z</time>
      </trkpt>
      <trkpt lat="42.96597" lon="0.86982">
        <ele>1252</ele>
        <time>2016-03-26T14:46:47Z</time>
      </trkpt>
      <trkpt lat="42.96597" lon="0.86982">
        <ele>1252</ele>
        <time>2016-03-26T14:47:09Z</time>
      </trkpt>
      <trkpt lat="42.96597" lon="0.86982">
        <ele>1252</ele>
        <time>2016-03-26T14:47:10Z</time>
      </trkpt>
      <trkpt lat="42.96597" lon="0.86982">
        <ele>1252</ele>
        <time>2016-03-26T14:47:29Z</time>
      </trkpt>
      <trkpt lat="42.96597" lon="0.86982">
        <ele>1252</ele>
        <time>2016-03-26T14:47:31Z</time>
      </trkpt>
      <trkpt lat="42.96588" lon="0.86985">
        <ele>1252</ele>
        <time>2016-03-26T14:47:38Z</time>
      </trkpt>
      <trkpt lat="42.96587" lon="0.86986">
        <ele>1253</ele>
        <time>2016-03-26T14:47:40Z</time>
      </trkpt>
      <trkpt lat="42.96586" lon="0.86987">
        <ele>1254</ele>
        <time>2016-03-26T14:47:42Z</time>
      </trkpt>
      <trkpt lat="42.96584" lon="0.86988">
        <ele>1254</ele>
        <time>2016-03-26T14:47:44Z</time>
      </trkpt>
      <trkpt lat="42.96583" lon="0.86989">
        <ele>1255</ele>
        <time>2016-03-26T14:47:46Z</time>
      </trkpt>
      <trkpt lat="42.96582" lon="0.86989">
        <ele>1255</ele>
        <time>2016-03-26T14:47:48Z</time>
      </trkpt>
      <trkpt lat="42.9658" lon="0.8699">
        <ele>1255</ele>
        <time>2016-03-26T14:47:50Z</time>
      </trkpt>
      <trkpt lat="42.96579" lon="0.8699">
        <ele>1255</ele>
        <time>2016-03-26T14:47:52Z</time>
      </trkpt>
      <trkpt lat="42.96577" lon="0.8699">
        <ele>1254</ele>
        <time>2016-03-26T14:47:54Z</time>
      </trkpt>
      <trkpt lat="42.96576" lon="0.86991">
        <ele>1254</ele>
        <time>2016-03-26T14:47:55Z</time>
      </trkpt>
      <trkpt lat="42.96576" lon="0.86991">
        <ele>1254</ele>
        <time>2016-03-26T14:47:56Z</time>
      </trkpt>
      <trkpt lat="42.96574" lon="0.86991">
        <ele>1254</ele>
        <time>2016-03-26T14:47:58Z</time>
      </trkpt>
      <trkpt lat="42.96573" lon="0.86991">
        <ele>1254</ele>
        <time>2016-03-26T14:48:00Z</time>
      </trkpt>
      <trkpt lat="42.96572" lon="0.86991">
        <ele>1254</ele>
        <time>2016-03-26T14:48:02Z</time>
      </trkpt>
      <trkpt lat="42.96571" lon="0.86991">
        <ele>1254</ele>
        <time>2016-03-26T14:48:04Z</time>
      </trkpt>
      <trkpt lat="42.9657" lon="0.86993">
        <ele>1254</ele>
        <time>2016-03-26T14:48:06Z</time>
      </trkpt>
      <trkpt lat="42.96568" lon="0.86993">
        <ele>1254</ele>
        <time>2016-03-26T14:48:08Z</time>
      </trkpt>
      <trkpt lat="42.96568" lon="0.86993">
        <ele>1254</ele>
        <time>2016-03-26T14:48:10Z</time>
      </trkpt>
      <trkpt lat="42.96568" lon="0.86992">
        <ele>1254</ele>
        <time>2016-03-26T14:48:12Z</time>
      </trkpt>
      <trkpt lat="42.96568" lon="0.86992">
        <ele>1254</ele>
        <time>2016-03-26T14:48:14Z</time>
      </trkpt>
      <trkpt lat="42.96565" lon="0.87001">
        <ele>1254</ele>
        <time>2016-03-26T14:48:22Z</time>
      </trkpt>
      <trkpt lat="42.96565" lon="0.87005">
        <ele>1254</ele>
        <time>2016-03-26T14:48:24Z</time>
      </trkpt>
      <trkpt lat="42.96564" lon="0.87008">
        <ele>1253</ele>
        <time>2016-03-26T14:48:25Z</time>
      </trkpt>
      <trkpt lat="42.96563" lon="0.87011">
        <ele>1253</ele>
        <time>2016-03-26T14:48:27Z</time>
      </trkpt>
      <trkpt lat="42.96563" lon="0.87014">
        <ele>1254</ele>
        <time>2016-03-26T14:48:28Z</time>
      </trkpt>
      <trkpt lat="42.96562" lon="0.87016">
        <ele>1254</ele>
        <time>2016-03-26T14:48:30Z</time>
      </trkpt>
      <trkpt lat="42.96562" lon="0.87019">
        <ele>1254</ele>
        <time>2016-03-26T14:48:32Z</time>
      </trkpt>
      <trkpt lat="42.96561" lon="0.87021">
        <ele>1254</ele>
        <time>2016-03-26T14:48:33Z</time>
      </trkpt>
      <trkpt lat="42.96561" lon="0.87023">
        <ele>1254</ele>
        <time>2016-03-26T14:48:35Z</time>
      </trkpt>
      <trkpt lat="42.96562" lon="0.87025">
        <ele>1254</ele>
        <time>2016-03-26T14:48:36Z</time>
      </trkpt>
      <trkpt lat="42.96562" lon="0.87028">
        <ele>1254</ele>
        <time>2016-03-26T14:48:38Z</time>
      </trkpt>
      <trkpt lat="42.96562" lon="0.87028">
        <ele>1254</ele>
        <time>2016-03-26T14:48:39Z</time>
      </trkpt>
      <trkpt lat="42.96562" lon="0.87029">
        <ele>1254</ele>
        <time>2016-03-26T14:48:41Z</time>
      </trkpt>
      <trkpt lat="42.96563" lon="0.87029">
        <ele>1254</ele>
        <time>2016-03-26T14:48:43Z</time>
      </trkpt>
      <trkpt lat="42.96564" lon="0.8703">
        <ele>1254</ele>
        <time>2016-03-26T14:48:45Z</time>
      </trkpt>
      <trkpt lat="42.96564" lon="0.87032">
        <ele>1254</ele>
        <time>2016-03-26T14:48:46Z</time>
      </trkpt>
      <trkpt lat="42.96563" lon="0.87036">
        <ele>1254</ele>
        <time>2016-03-26T14:48:48Z</time>
      </trkpt>
      <trkpt lat="42.96563" lon="0.8704">
        <ele>1254</ele>
        <time>2016-03-26T14:48:49Z</time>
      </trkpt>
      <trkpt lat="42.96562" lon="0.87045">
        <ele>1254</ele>
        <time>2016-03-26T14:48:51Z</time>
      </trkpt>
      <trkpt lat="42.96561" lon="0.87047">
        <ele>1254</ele>
        <time>2016-03-26T14:48:52Z</time>
      </trkpt>
      <trkpt lat="42.96561" lon="0.8705">
        <ele>1254</ele>
        <time>2016-03-26T14:48:54Z</time>
      </trkpt>
      <trkpt lat="42.96561" lon="0.87052">
        <ele>1254</ele>
        <time>2016-03-26T14:48:55Z</time>
      </trkpt>
      <trkpt lat="42.96561" lon="0.87053">
        <ele>1254</ele>
        <time>2016-03-26T14:48:56Z</time>
      </trkpt>
      <trkpt lat="42.96562" lon="0.87054">
        <ele>1254</ele>
        <time>2016-03-26T14:48:57Z</time>
      </trkpt>
      <trkpt lat="42.96563" lon="0.87058">
        <ele>1253</ele>
        <time>2016-03-26T14:48:59Z</time>
      </trkpt>
      <trkpt lat="42.96564" lon="0.8706">
        <ele>1253</ele>
        <time>2016-03-26T14:49:01Z</time>
      </trkpt>
      <trkpt lat="42.96563" lon="0.87063">
        <ele>1253</ele>
        <time>2016-03-26T14:49:02Z</time>
      </trkpt>
      <trkpt lat="42.96563" lon="0.87066">
        <ele>1253</ele>
        <time>2016-03-26T14:49:04Z</time>
      </trkpt>
      <trkpt lat="42.96565" lon="0.87068">
        <ele>1253</ele>
        <time>2016-03-26T14:49:05Z</time>
      </trkpt>
      <trkpt lat="42.96567" lon="0.8707">
        <ele>1253</ele>
        <time>2016-03-26T14:49:07Z</time>
      </trkpt>
      <trkpt lat="42.96569" lon="0.87072">
        <ele>1253</ele>
        <time>2016-03-26T14:49:09Z</time>
      </trkpt>
      <trkpt lat="42.9657" lon="0.87073">
        <ele>1253</ele>
        <time>2016-03-26T14:49:10Z</time>
      </trkpt>
      <trkpt lat="42.9657" lon="0.87074">
        <ele>1253</ele>
        <time>2016-03-26T14:49:12Z</time>
      </trkpt>
      <trkpt lat="42.96571" lon="0.87076">
        <ele>1253</ele>
        <time>2016-03-26T14:49:14Z</time>
      </trkpt>
      <trkpt lat="42.96571" lon="0.87078">
        <ele>1253</ele>
        <time>2016-03-26T14:49:15Z</time>
      </trkpt>
      <trkpt lat="42.96571" lon="0.87079">
        <ele>1253</ele>
        <time>2016-03-26T14:49:17Z</time>
      </trkpt>
      <trkpt lat="42.96571" lon="0.8708">
        <ele>1253</ele>
        <time>2016-03-26T14:49:19Z</time>
      </trkpt>
      <trkpt lat="42.9657" lon="0.87082">
        <ele>1253</ele>
        <time>2016-03-26T14:49:21Z</time>
      </trkpt>
      <trkpt lat="42.9657" lon="0.87082">
        <ele>1253</ele>
        <time>2016-03-26T14:49:22Z</time>
      </trkpt>
      <trkpt lat="42.96571" lon="0.87083">
        <ele>1253</ele>
        <time>2016-03-26T14:49:23Z</time>
      </trkpt>
      <trkpt lat="42.96571" lon="0.87085">
        <ele>1253</ele>
        <time>2016-03-26T14:49:25Z</time>
      </trkpt>
      <trkpt lat="42.96571" lon="0.87087">
        <ele>1253</ele>
        <time>2016-03-26T14:49:27Z</time>
      </trkpt>
      <trkpt lat="42.96571" lon="0.87089">
        <ele>1253</ele>
        <time>2016-03-26T14:49:28Z</time>
      </trkpt>
      <trkpt lat="42.96571" lon="0.8709">
        <ele>1253</ele>
        <time>2016-03-26T14:49:29Z</time>
      </trkpt>
      <trkpt lat="42.96571" lon="0.87092">
        <ele>1253</ele>
        <time>2016-03-26T14:49:30Z</time>
      </trkpt>
      <trkpt lat="42.96571" lon="0.87093">
        <ele>1253</ele>
        <time>2016-03-26T14:49:31Z</time>
      </trkpt>
      <trkpt lat="42.96572" lon="0.87095">
        <ele>1253</ele>
        <time>2016-03-26T14:49:33Z</time>
      </trkpt>
      <trkpt lat="42.96572" lon="0.87096">
        <ele>1253</ele>
        <time>2016-03-26T14:49:34Z</time>
      </trkpt>
      <trkpt lat="42.96573" lon="0.87097">
        <ele>1253</ele>
        <time>2016-03-26T14:49:36Z</time>
      </trkpt>
      <trkpt lat="42.96574" lon="0.87098">
        <ele>1253</ele>
        <time>2016-03-26T14:49:38Z</time>
      </trkpt>
      <trkpt lat="42.96575" lon="0.87101">
        <ele>1252</ele>
        <time>2016-03-26T14:49:40Z</time>
      </trkpt>
      <trkpt lat="42.96575" lon="0.87103">
        <ele>1252</ele>
        <time>2016-03-26T14:49:42Z</time>
      </trkpt>
      <trkpt lat="42.96574" lon="0.87109">
        <ele>1252</ele>
        <time>2016-03-26T14:49:44Z</time>
      </trkpt>
      <trkpt lat="42.96575" lon="0.87112">
        <ele>1252</ele>
        <time>2016-03-26T14:49:46Z</time>
      </trkpt>
      <trkpt lat="42.96576" lon="0.87117">
        <ele>1252</ele>
        <time>2016-03-26T14:49:48Z</time>
      </trkpt>
      <trkpt lat="42.96577" lon="0.8712">
        <ele>1252</ele>
        <time>2016-03-26T14:49:50Z</time>
      </trkpt>
      <trkpt lat="42.96578" lon="0.87124">
        <ele>1252</ele>
        <time>2016-03-26T14:49:52Z</time>
      </trkpt>
      <trkpt lat="42.96579" lon="0.87127">
        <ele>1252</ele>
        <time>2016-03-26T14:49:54Z</time>
      </trkpt>
      <trkpt lat="42.96579" lon="0.8713">
        <ele>1251</ele>
        <time>2016-03-26T14:49:56Z</time>
      </trkpt>
      <trkpt lat="42.96579" lon="0.87132">
        <ele>1251</ele>
        <time>2016-03-26T14:49:57Z</time>
      </trkpt>
      <trkpt lat="42.96579" lon="0.87136">
        <ele>1251</ele>
        <time>2016-03-26T14:49:59Z</time>
      </trkpt>
      <trkpt lat="42.96579" lon="0.87137">
        <ele>1251</ele>
        <time>2016-03-26T14:50:00Z</time>
      </trkpt>
      <trkpt lat="42.96578" lon="0.87142">
        <ele>1251</ele>
        <time>2016-03-26T14:50:02Z</time>
      </trkpt>
      <trkpt lat="42.96578" lon="0.87145">
        <ele>1251</ele>
        <time>2016-03-26T14:50:04Z</time>
      </trkpt>
      <trkpt lat="42.96579" lon="0.87148">
        <ele>1251</ele>
        <time>2016-03-26T14:50:06Z</time>
      </trkpt>
      <trkpt lat="42.96579" lon="0.8715">
        <ele>1250</ele>
        <time>2016-03-26T14:50:07Z</time>
      </trkpt>
      <trkpt lat="42.96579" lon="0.87152">
        <ele>1250</ele>
        <time>2016-03-26T14:50:09Z</time>
      </trkpt>
      <trkpt lat="42.96579" lon="0.87155">
        <ele>1250</ele>
        <time>2016-03-26T14:50:11Z</time>
      </trkpt>
      <trkpt lat="42.96579" lon="0.87156">
        <ele>1250</ele>
        <time>2016-03-26T14:50:13Z</time>
      </trkpt>
      <trkpt lat="42.9658" lon="0.87158">
        <ele>1250</ele>
        <time>2016-03-26T14:50:15Z</time>
      </trkpt>
      <trkpt lat="42.9658" lon="0.87159">
        <ele>1250</ele>
        <time>2016-03-26T14:50:16Z</time>
      </trkpt>
      <trkpt lat="42.9658" lon="0.8716">
        <ele>1250</ele>
        <time>2016-03-26T14:50:17Z</time>
      </trkpt>
      <trkpt lat="42.96581" lon="0.87162">
        <ele>1250</ele>
        <time>2016-03-26T14:50:19Z</time>
      </trkpt>
      <trkpt lat="42.9658" lon="0.87164">
        <ele>1250</ele>
        <time>2016-03-26T14:50:20Z</time>
      </trkpt>
      <trkpt lat="42.9658" lon="0.87165">
        <ele>1249</ele>
        <time>2016-03-26T14:50:21Z</time>
      </trkpt>
      <trkpt lat="42.9658" lon="0.87167">
        <ele>1249</ele>
        <time>2016-03-26T14:50:22Z</time>
      </trkpt>
      <trkpt lat="42.9658" lon="0.87169">
        <ele>1249</ele>
        <time>2016-03-26T14:50:24Z</time>
      </trkpt>
      <trkpt lat="42.96582" lon="0.87171">
        <ele>1249</ele>
        <time>2016-03-26T14:50:26Z</time>
      </trkpt>
      <trkpt lat="42.96582" lon="0.87172">
        <ele>1249</ele>
        <time>2016-03-26T14:50:27Z</time>
      </trkpt>
      <trkpt lat="42.96583" lon="0.87173">
        <ele>1249</ele>
        <time>2016-03-26T14:50:28Z</time>
      </trkpt>
      <trkpt lat="42.96583" lon="0.87174">
        <ele>1249</ele>
        <time>2016-03-26T14:50:29Z</time>
      </trkpt>
      <trkpt lat="42.96582" lon="0.87176">
        <ele>1249</ele>
        <time>2016-03-26T14:50:31Z</time>
      </trkpt>
      <trkpt lat="42.96582" lon="0.87177">
        <ele>1249</ele>
        <time>2016-03-26T14:50:32Z</time>
      </trkpt>
      <trkpt lat="42.96583" lon="0.87179">
        <ele>1248</ele>
        <time>2016-03-26T14:50:34Z</time>
      </trkpt>
      <trkpt lat="42.96583" lon="0.87181">
        <ele>1248</ele>
        <time>2016-03-26T14:50:36Z</time>
      </trkpt>
      <trkpt lat="42.96584" lon="0.87182">
        <ele>1248</ele>
        <time>2016-03-26T14:50:37Z</time>
      </trkpt>
      <trkpt lat="42.96584" lon="0.87184">
        <ele>1248</ele>
        <time>2016-03-26T14:50:39Z</time>
      </trkpt>
      <trkpt lat="42.96584" lon="0.87185">
        <ele>1248</ele>
        <time>2016-03-26T14:50:40Z</time>
      </trkpt>
      <trkpt lat="42.96584" lon="0.87186">
        <ele>1248</ele>
        <time>2016-03-26T14:50:42Z</time>
      </trkpt>
      <trkpt lat="42.96585" lon="0.87189">
        <ele>1247</ele>
        <time>2016-03-26T14:50:44Z</time>
      </trkpt>
      <trkpt lat="42.96586" lon="0.87193">
        <ele>1247</ele>
        <time>2016-03-26T14:50:46Z</time>
      </trkpt>
      <trkpt lat="42.96586" lon="0.87196">
        <ele>1247</ele>
        <time>2016-03-26T14:50:48Z</time>
      </trkpt>
      <trkpt lat="42.96587" lon="0.87199">
        <ele>1247</ele>
        <time>2016-03-26T14:50:50Z</time>
      </trkpt>
      <trkpt lat="42.96587" lon="0.872">
        <ele>1247</ele>
        <time>2016-03-26T14:50:51Z</time>
      </trkpt>
      <trkpt lat="42.96587" lon="0.87202">
        <ele>1247</ele>
        <time>2016-03-26T14:50:52Z</time>
      </trkpt>
      <trkpt lat="42.96587" lon="0.87206">
        <ele>1247</ele>
        <time>2016-03-26T14:50:54Z</time>
      </trkpt>
      <trkpt lat="42.96586" lon="0.87208">
        <ele>1247</ele>
        <time>2016-03-26T14:50:55Z</time>
      </trkpt>
      <trkpt lat="42.96586" lon="0.8721">
        <ele>1247</ele>
        <time>2016-03-26T14:50:56Z</time>
      </trkpt>
      <trkpt lat="42.96586" lon="0.87214">
        <ele>1246</ele>
        <time>2016-03-26T14:50:58Z</time>
      </trkpt>
      <trkpt lat="42.96587" lon="0.87215">
        <ele>1246</ele>
        <time>2016-03-26T14:50:59Z</time>
      </trkpt>
      <trkpt lat="42.96587" lon="0.87217">
        <ele>1246</ele>
        <time>2016-03-26T14:51:01Z</time>
      </trkpt>
      <trkpt lat="42.96589" lon="0.8722">
        <ele>1246</ele>
        <time>2016-03-26T14:51:03Z</time>
      </trkpt>
      <trkpt lat="42.96589" lon="0.87221">
        <ele>1246</ele>
        <time>2016-03-26T14:51:04Z</time>
      </trkpt>
      <trkpt lat="42.9659" lon="0.87223">
        <ele>1246</ele>
        <time>2016-03-26T14:51:06Z</time>
      </trkpt>
      <trkpt lat="42.9659" lon="0.87226">
        <ele>1245</ele>
        <time>2016-03-26T14:51:08Z</time>
      </trkpt>
      <trkpt lat="42.96591" lon="0.87228">
        <ele>1245</ele>
        <time>2016-03-26T14:51:10Z</time>
      </trkpt>
      <trkpt lat="42.96591" lon="0.8723">
        <ele>1245</ele>
        <time>2016-03-26T14:51:12Z</time>
      </trkpt>
      <trkpt lat="42.96592" lon="0.87231">
        <ele>1245</ele>
        <time>2016-03-26T14:51:14Z</time>
      </trkpt>
      <trkpt lat="42.96593" lon="0.87231">
        <ele>1245</ele>
        <time>2016-03-26T14:51:16Z</time>
      </trkpt>
      <trkpt lat="42.96593" lon="0.87231">
        <ele>1245</ele>
        <time>2016-03-26T14:51:32Z</time>
      </trkpt>
      <trkpt lat="42.96593" lon="0.87231">
        <ele>1245</ele>
        <time>2016-03-26T14:51:33Z</time>
      </trkpt>
      <trkpt lat="42.96593" lon="0.87231">
        <ele>1245</ele>
        <time>2016-03-26T14:51:54Z</time>
      </trkpt>
      <trkpt lat="42.96593" lon="0.87231">
        <ele>1245</ele>
        <time>2016-03-26T14:51:55Z</time>
      </trkpt>
      <trkpt lat="42.96593" lon="0.87231">
        <ele>1245</ele>
        <time>2016-03-26T14:52:17Z</time>
      </trkpt>
      <trkpt lat="42.96593" lon="0.87231">
        <ele>1245</ele>
        <time>2016-03-26T14:52:19Z</time>
      </trkpt>
      <trkpt lat="42.966" lon="0.87228">
        <ele>1244</ele>
        <time>2016-03-26T14:52:36Z</time>
      </trkpt>
      <trkpt lat="42.96602" lon="0.8723">
        <ele>1244</ele>
        <time>2016-03-26T14:52:38Z</time>
      </trkpt>
      <trkpt lat="42.96603" lon="0.87231">
        <ele>1244</ele>
        <time>2016-03-26T14:52:39Z</time>
      </trkpt>
      <trkpt lat="42.96604" lon="0.87233">
        <ele>1243</ele>
        <time>2016-03-26T14:52:41Z</time>
      </trkpt>
      <trkpt lat="42.96605" lon="0.87234">
        <ele>1243</ele>
        <time>2016-03-26T14:52:42Z</time>
      </trkpt>
      <trkpt lat="42.96605" lon="0.87236">
        <ele>1243</ele>
        <time>2016-03-26T14:52:44Z</time>
      </trkpt>
      <trkpt lat="42.96606" lon="0.87238">
        <ele>1243</ele>
        <time>2016-03-26T14:52:46Z</time>
      </trkpt>
      <trkpt lat="42.96608" lon="0.8724">
        <ele>1243</ele>
        <time>2016-03-26T14:52:48Z</time>
      </trkpt>
      <trkpt lat="42.96608" lon="0.87241">
        <ele>1242</ele>
        <time>2016-03-26T14:52:49Z</time>
      </trkpt>
      <trkpt lat="42.9661" lon="0.87243">
        <ele>1242</ele>
        <time>2016-03-26T14:52:51Z</time>
      </trkpt>
      <trkpt lat="42.9661" lon="0.87244">
        <ele>1242</ele>
        <time>2016-03-26T14:52:52Z</time>
      </trkpt>
      <trkpt lat="42.96611" lon="0.87247">
        <ele>1242</ele>
        <time>2016-03-26T14:52:54Z</time>
      </trkpt>
      <trkpt lat="42.9661" lon="0.8725">
        <ele>1242</ele>
        <time>2016-03-26T14:52:56Z</time>
      </trkpt>
      <trkpt lat="42.96611" lon="0.87251">
        <ele>1242</ele>
        <time>2016-03-26T14:52:57Z</time>
      </trkpt>
      <trkpt lat="42.96611" lon="0.87252">
        <ele>1242</ele>
        <time>2016-03-26T14:52:58Z</time>
      </trkpt>
      <trkpt lat="42.96611" lon="0.87255">
        <ele>1242</ele>
        <time>2016-03-26T14:53:00Z</time>
      </trkpt>
      <trkpt lat="42.96611" lon="0.87258">
        <ele>1242</ele>
        <time>2016-03-26T14:53:02Z</time>
      </trkpt>
      <trkpt lat="42.96611" lon="0.87259">
        <ele>1241</ele>
        <time>2016-03-26T14:53:03Z</time>
      </trkpt>
      <trkpt lat="42.96611" lon="0.8726">
        <ele>1241</ele>
        <time>2016-03-26T14:53:04Z</time>
      </trkpt>
      <trkpt lat="42.96613" lon="0.87263">
        <ele>1241</ele>
        <time>2016-03-26T14:53:06Z</time>
      </trkpt>
      <trkpt lat="42.96613" lon="0.87264">
        <ele>1241</ele>
        <time>2016-03-26T14:53:08Z</time>
      </trkpt>
      <trkpt lat="42.96612" lon="0.87266">
        <ele>1241</ele>
        <time>2016-03-26T14:53:10Z</time>
      </trkpt>
      <trkpt lat="42.96612" lon="0.87268">
        <ele>1241</ele>
        <time>2016-03-26T14:53:12Z</time>
      </trkpt>
      <trkpt lat="42.96612" lon="0.87272">
        <ele>1240</ele>
        <time>2016-03-26T14:53:14Z</time>
      </trkpt>
      <trkpt lat="42.96612" lon="0.87275">
        <ele>1240</ele>
        <time>2016-03-26T14:53:16Z</time>
      </trkpt>
      <trkpt lat="42.96613" lon="0.87277">
        <ele>1240</ele>
        <time>2016-03-26T14:53:18Z</time>
      </trkpt>
      <trkpt lat="42.96613" lon="0.87279">
        <ele>1240</ele>
        <time>2016-03-26T14:53:19Z</time>
      </trkpt>
      <trkpt lat="42.96613" lon="0.8728">
        <ele>1240</ele>
        <time>2016-03-26T14:53:20Z</time>
      </trkpt>
      <trkpt lat="42.96613" lon="0.87282">
        <ele>1240</ele>
        <time>2016-03-26T14:53:22Z</time>
      </trkpt>
      <trkpt lat="42.96613" lon="0.87285">
        <ele>1239</ele>
        <time>2016-03-26T14:53:24Z</time>
      </trkpt>
      <trkpt lat="42.96613" lon="0.87289">
        <ele>1239</ele>
        <time>2016-03-26T14:53:26Z</time>
      </trkpt>
      <trkpt lat="42.96612" lon="0.87292">
        <ele>1239</ele>
        <time>2016-03-26T14:53:28Z</time>
      </trkpt>
      <trkpt lat="42.96613" lon="0.87294">
        <ele>1239</ele>
        <time>2016-03-26T14:53:29Z</time>
      </trkpt>
      <trkpt lat="42.96613" lon="0.87297">
        <ele>1239</ele>
        <time>2016-03-26T14:53:31Z</time>
      </trkpt>
      <trkpt lat="42.96613" lon="0.873">
        <ele>1239</ele>
        <time>2016-03-26T14:53:33Z</time>
      </trkpt>
      <trkpt lat="42.96613" lon="0.87301">
        <ele>1238</ele>
        <time>2016-03-26T14:53:34Z</time>
      </trkpt>
      <trkpt lat="42.96613" lon="0.87304">
        <ele>1238</ele>
        <time>2016-03-26T14:53:36Z</time>
      </trkpt>
      <trkpt lat="42.96612" lon="0.87307">
        <ele>1238</ele>
        <time>2016-03-26T14:53:38Z</time>
      </trkpt>
      <trkpt lat="42.96612" lon="0.87309">
        <ele>1238</ele>
        <time>2016-03-26T14:53:40Z</time>
      </trkpt>
      <trkpt lat="42.96611" lon="0.87312">
        <ele>1238</ele>
        <time>2016-03-26T14:53:42Z</time>
      </trkpt>
      <trkpt lat="42.96609" lon="0.87316">
        <ele>1238</ele>
        <time>2016-03-26T14:53:44Z</time>
      </trkpt>
      <trkpt lat="42.96608" lon="0.87321">
        <ele>1238</ele>
        <time>2016-03-26T14:53:46Z</time>
      </trkpt>
      <trkpt lat="42.96607" lon="0.87324">
        <ele>1237</ele>
        <time>2016-03-26T14:53:48Z</time>
      </trkpt>
      <trkpt lat="42.96607" lon="0.87327">
        <ele>1237</ele>
        <time>2016-03-26T14:53:50Z</time>
      </trkpt>
      <trkpt lat="42.96607" lon="0.8733">
        <ele>1237</ele>
        <time>2016-03-26T14:53:52Z</time>
      </trkpt>
      <trkpt lat="42.96606" lon="0.87333">
        <ele>1237</ele>
        <time>2016-03-26T14:53:54Z</time>
      </trkpt>
      <trkpt lat="42.96607" lon="0.87334">
        <ele>1237</ele>
        <time>2016-03-26T14:53:55Z</time>
      </trkpt>
      <trkpt lat="42.96608" lon="0.87335">
        <ele>1237</ele>
        <time>2016-03-26T14:53:57Z</time>
      </trkpt>
      <trkpt lat="42.96608" lon="0.87335">
        <ele>1237</ele>
        <time>2016-03-26T14:53:58Z</time>
      </trkpt>
      <trkpt lat="42.96609" lon="0.87336">
        <ele>1236</ele>
        <time>2016-03-26T14:53:59Z</time>
      </trkpt>
      <trkpt lat="42.96612" lon="0.8734">
        <ele>1236</ele>
        <time>2016-03-26T14:54:03Z</time>
      </trkpt>
      <trkpt lat="42.96612" lon="0.87341">
        <ele>1236</ele>
        <time>2016-03-26T14:54:04Z</time>
      </trkpt>
      <trkpt lat="42.96611" lon="0.87343">
        <ele>1236</ele>
        <time>2016-03-26T14:54:06Z</time>
      </trkpt>
      <trkpt lat="42.96611" lon="0.87344">
        <ele>1235</ele>
        <time>2016-03-26T14:54:07Z</time>
      </trkpt>
      <trkpt lat="42.96611" lon="0.87346">
        <ele>1235</ele>
        <time>2016-03-26T14:54:09Z</time>
      </trkpt>
      <trkpt lat="42.9661" lon="0.8735">
        <ele>1235</ele>
        <time>2016-03-26T14:54:11Z</time>
      </trkpt>
      <trkpt lat="42.96605" lon="0.87355">
        <ele>1235</ele>
        <time>2016-03-26T14:54:16Z</time>
      </trkpt>
      <trkpt lat="42.96605" lon="0.87356">
        <ele>1234</ele>
        <time>2016-03-26T14:54:17Z</time>
      </trkpt>
      <trkpt lat="42.96604" lon="0.87358">
        <ele>1234</ele>
        <time>2016-03-26T14:54:19Z</time>
      </trkpt>
      <trkpt lat="42.96603" lon="0.8736">
        <ele>1234</ele>
        <time>2016-03-26T14:54:21Z</time>
      </trkpt>
      <trkpt lat="42.96603" lon="0.87361">
        <ele>1234</ele>
        <time>2016-03-26T14:54:22Z</time>
      </trkpt>
      <trkpt lat="42.96602" lon="0.87363">
        <ele>1234</ele>
        <time>2016-03-26T14:54:24Z</time>
      </trkpt>
      <trkpt lat="42.96601" lon="0.87366">
        <ele>1233</ele>
        <time>2016-03-26T14:54:26Z</time>
      </trkpt>
      <trkpt lat="42.966" lon="0.87369">
        <ele>1233</ele>
        <time>2016-03-26T14:54:28Z</time>
      </trkpt>
      <trkpt lat="42.96599" lon="0.87371">
        <ele>1233</ele>
        <time>2016-03-26T14:54:30Z</time>
      </trkpt>
      <trkpt lat="42.96599" lon="0.87373">
        <ele>1233</ele>
        <time>2016-03-26T14:54:31Z</time>
      </trkpt>
      <trkpt lat="42.96597" lon="0.87376">
        <ele>1233</ele>
        <time>2016-03-26T14:54:33Z</time>
      </trkpt>
      <trkpt lat="42.96596" lon="0.87376">
        <ele>1233</ele>
        <time>2016-03-26T14:54:34Z</time>
      </trkpt>
      <trkpt lat="42.96595" lon="0.87379">
        <ele>1233</ele>
        <time>2016-03-26T14:54:36Z</time>
      </trkpt>
      <trkpt lat="42.96595" lon="0.87382">
        <ele>1232</ele>
        <time>2016-03-26T14:54:38Z</time>
      </trkpt>
      <trkpt lat="42.96594" lon="0.87384">
        <ele>1232</ele>
        <time>2016-03-26T14:54:40Z</time>
      </trkpt>
      <trkpt lat="42.96593" lon="0.87387">
        <ele>1232</ele>
        <time>2016-03-26T14:54:42Z</time>
      </trkpt>
      <trkpt lat="42.96592" lon="0.87391">
        <ele>1232</ele>
        <time>2016-03-26T14:54:44Z</time>
      </trkpt>
      <trkpt lat="42.96592" lon="0.87393">
        <ele>1231</ele>
        <time>2016-03-26T14:54:46Z</time>
      </trkpt>
      <trkpt lat="42.96591" lon="0.87396">
        <ele>1231</ele>
        <time>2016-03-26T14:54:48Z</time>
      </trkpt>
      <trkpt lat="42.9659" lon="0.87397">
        <ele>1231</ele>
        <time>2016-03-26T14:54:49Z</time>
      </trkpt>
      <trkpt lat="42.9659" lon="0.87398">
        <ele>1231</ele>
        <time>2016-03-26T14:54:50Z</time>
      </trkpt>
      <trkpt lat="42.96589" lon="0.87399">
        <ele>1230</ele>
        <time>2016-03-26T14:54:52Z</time>
      </trkpt>
      <trkpt lat="42.96589" lon="0.874">
        <ele>1230</ele>
        <time>2016-03-26T14:54:53Z</time>
      </trkpt>
      <trkpt lat="42.96589" lon="0.87402">
        <ele>1230</ele>
        <time>2016-03-26T14:54:55Z</time>
      </trkpt>
      <trkpt lat="42.96587" lon="0.87404">
        <ele>1230</ele>
        <time>2016-03-26T14:54:56Z</time>
      </trkpt>
      <trkpt lat="42.96586" lon="0.87406">
        <ele>1229</ele>
        <time>2016-03-26T14:54:58Z</time>
      </trkpt>
      <trkpt lat="42.96586" lon="0.87408">
        <ele>1229</ele>
        <time>2016-03-26T14:55:00Z</time>
      </trkpt>
      <trkpt lat="42.96586" lon="0.87409">
        <ele>1229</ele>
        <time>2016-03-26T14:55:01Z</time>
      </trkpt>
      <trkpt lat="42.96585" lon="0.87412">
        <ele>1229</ele>
        <time>2016-03-26T14:55:03Z</time>
      </trkpt>
      <trkpt lat="42.96585" lon="0.87413">
        <ele>1229</ele>
        <time>2016-03-26T14:55:04Z</time>
      </trkpt>
      <trkpt lat="42.96584" lon="0.87417">
        <ele>1228</ele>
        <time>2016-03-26T14:55:06Z</time>
      </trkpt>
      <trkpt lat="42.96584" lon="0.87419">
        <ele>1228</ele>
        <time>2016-03-26T14:55:08Z</time>
      </trkpt>
      <trkpt lat="42.96583" lon="0.87422">
        <ele>1228</ele>
        <time>2016-03-26T14:55:10Z</time>
      </trkpt>
      <trkpt lat="42.96582" lon="0.87425">
        <ele>1227</ele>
        <time>2016-03-26T14:55:12Z</time>
      </trkpt>
      <trkpt lat="42.96582" lon="0.87427">
        <ele>1227</ele>
        <time>2016-03-26T14:55:13Z</time>
      </trkpt>
      <trkpt lat="42.96582" lon="0.87428">
        <ele>1227</ele>
        <time>2016-03-26T14:55:14Z</time>
      </trkpt>
      <trkpt lat="42.96581" lon="0.87431">
        <ele>1227</ele>
        <time>2016-03-26T14:55:16Z</time>
      </trkpt>
      <trkpt lat="42.9658" lon="0.87434">
        <ele>1227</ele>
        <time>2016-03-26T14:55:17Z</time>
      </trkpt>
      <trkpt lat="42.9658" lon="0.87436">
        <ele>1227</ele>
        <time>2016-03-26T14:55:19Z</time>
      </trkpt>
      <trkpt lat="42.96579" lon="0.8744">
        <ele>1226</ele>
        <time>2016-03-26T14:55:21Z</time>
      </trkpt>
      <trkpt lat="42.96579" lon="0.87441">
        <ele>1226</ele>
        <time>2016-03-26T14:55:22Z</time>
      </trkpt>
      <trkpt lat="42.96578" lon="0.87445">
        <ele>1226</ele>
        <time>2016-03-26T14:55:24Z</time>
      </trkpt>
      <trkpt lat="42.96578" lon="0.87446">
        <ele>1226</ele>
        <time>2016-03-26T14:55:25Z</time>
      </trkpt>
      <trkpt lat="42.96578" lon="0.87451">
        <ele>1226</ele>
        <time>2016-03-26T14:55:27Z</time>
      </trkpt>
      <trkpt lat="42.96576" lon="0.87456">
        <ele>1225</ele>
        <time>2016-03-26T14:55:29Z</time>
      </trkpt>
      <trkpt lat="42.96576" lon="0.87459">
        <ele>1225</ele>
        <time>2016-03-26T14:55:31Z</time>
      </trkpt>
      <trkpt lat="42.96576" lon="0.87461">
        <ele>1225</ele>
        <time>2016-03-26T14:55:32Z</time>
      </trkpt>
      <trkpt lat="42.96575" lon="0.87466">
        <ele>1225</ele>
        <time>2016-03-26T14:55:34Z</time>
      </trkpt>
      <trkpt lat="42.96574" lon="0.87467">
        <ele>1224</ele>
        <time>2016-03-26T14:55:36Z</time>
      </trkpt>
      <trkpt lat="42.96574" lon="0.87469">
        <ele>1224</ele>
        <time>2016-03-26T14:55:38Z</time>
      </trkpt>
      <trkpt lat="42.96574" lon="0.87471">
        <ele>1224</ele>
        <time>2016-03-26T14:55:40Z</time>
      </trkpt>
      <trkpt lat="42.96573" lon="0.87474">
        <ele>1224</ele>
        <time>2016-03-26T14:55:42Z</time>
      </trkpt>
      <trkpt lat="42.96573" lon="0.87475">
        <ele>1224</ele>
        <time>2016-03-26T14:55:43Z</time>
      </trkpt>
      <trkpt lat="42.96572" lon="0.87477">
        <ele>1223</ele>
        <time>2016-03-26T14:55:45Z</time>
      </trkpt>
      <trkpt lat="42.96571" lon="0.87479">
        <ele>1223</ele>
        <time>2016-03-26T14:55:47Z</time>
      </trkpt>
      <trkpt lat="42.96571" lon="0.8748">
        <ele>1223</ele>
        <time>2016-03-26T14:55:48Z</time>
      </trkpt>
      <trkpt lat="42.96571" lon="0.87481">
        <ele>1223</ele>
        <time>2016-03-26T14:55:50Z</time>
      </trkpt>
      <trkpt lat="42.96571" lon="0.87481">
        <ele>1222</ele>
        <time>2016-03-26T14:55:51Z</time>
      </trkpt>
      <trkpt lat="42.96571" lon="0.87481">
        <ele>1222</ele>
        <time>2016-03-26T14:55:52Z</time>
      </trkpt>
      <trkpt lat="42.96571" lon="0.87482">
        <ele>1222</ele>
        <time>2016-03-26T14:55:55Z</time>
      </trkpt>
      <trkpt lat="42.96571" lon="0.87483">
        <ele>1222</ele>
        <time>2016-03-26T14:55:57Z</time>
      </trkpt>
      <trkpt lat="42.96571" lon="0.87485">
        <ele>1221</ele>
        <time>2016-03-26T14:55:59Z</time>
      </trkpt>
      <trkpt lat="42.96571" lon="0.87487">
        <ele>1221</ele>
        <time>2016-03-26T14:56:01Z</time>
      </trkpt>
      <trkpt lat="42.9657" lon="0.87491">
        <ele>1221</ele>
        <time>2016-03-26T14:56:03Z</time>
      </trkpt>
      <trkpt lat="42.96571" lon="0.87492">
        <ele>1220</ele>
        <time>2016-03-26T14:56:05Z</time>
      </trkpt>
      <trkpt lat="42.9657" lon="0.87493">
        <ele>1220</ele>
        <time>2016-03-26T14:56:07Z</time>
      </trkpt>
      <trkpt lat="42.96571" lon="0.87495">
        <ele>1220</ele>
        <time>2016-03-26T14:56:08Z</time>
      </trkpt>
      <trkpt lat="42.96572" lon="0.87496">
        <ele>1220</ele>
        <time>2016-03-26T14:56:10Z</time>
      </trkpt>
      <trkpt lat="42.96572" lon="0.87498">
        <ele>1219</ele>
        <time>2016-03-26T14:56:12Z</time>
      </trkpt>
      <trkpt lat="42.96573" lon="0.87498">
        <ele>1219</ele>
        <time>2016-03-26T14:56:13Z</time>
      </trkpt>
      <trkpt lat="42.96573" lon="0.87498">
        <ele>1219</ele>
        <time>2016-03-26T14:56:14Z</time>
      </trkpt>
      <trkpt lat="42.96574" lon="0.875">
        <ele>1219</ele>
        <time>2016-03-26T14:56:16Z</time>
      </trkpt>
      <trkpt lat="42.96576" lon="0.87502">
        <ele>1219</ele>
        <time>2016-03-26T14:56:18Z</time>
      </trkpt>
      <trkpt lat="42.96578" lon="0.87503">
        <ele>1218</ele>
        <time>2016-03-26T14:56:20Z</time>
      </trkpt>
      <trkpt lat="42.96579" lon="0.87504">
        <ele>1218</ele>
        <time>2016-03-26T14:56:22Z</time>
      </trkpt>
      <trkpt lat="42.9658" lon="0.87506">
        <ele>1218</ele>
        <time>2016-03-26T14:56:24Z</time>
      </trkpt>
      <trkpt lat="42.96581" lon="0.87507">
        <ele>1218</ele>
        <time>2016-03-26T14:56:26Z</time>
      </trkpt>
      <trkpt lat="42.96582" lon="0.87508">
        <ele>1218</ele>
        <time>2016-03-26T14:56:27Z</time>
      </trkpt>
      <trkpt lat="42.96582" lon="0.87509">
        <ele>1217</ele>
        <time>2016-03-26T14:56:29Z</time>
      </trkpt>
      <trkpt lat="42.96583" lon="0.87512">
        <ele>1217</ele>
        <time>2016-03-26T14:56:31Z</time>
      </trkpt>
      <trkpt lat="42.96584" lon="0.87514">
        <ele>1217</ele>
        <time>2016-03-26T14:56:33Z</time>
      </trkpt>
      <trkpt lat="42.96584" lon="0.87514">
        <ele>1217</ele>
        <time>2016-03-26T14:56:34Z</time>
      </trkpt>
      <trkpt lat="42.96584" lon="0.87514">
        <ele>1217</ele>
        <time>2016-03-26T14:56:35Z</time>
      </trkpt>
      <trkpt lat="42.96584" lon="0.87516">
        <ele>1216</ele>
        <time>2016-03-26T14:56:37Z</time>
      </trkpt>
      <trkpt lat="42.96587" lon="0.87524">
        <ele>1216</ele>
        <time>2016-03-26T14:56:44Z</time>
      </trkpt>
      <trkpt lat="42.96589" lon="0.87526">
        <ele>1215</ele>
        <time>2016-03-26T14:56:46Z</time>
      </trkpt>
      <trkpt lat="42.9659" lon="0.87527">
        <ele>1215</ele>
        <time>2016-03-26T14:56:48Z</time>
      </trkpt>
      <trkpt lat="42.96591" lon="0.87528">
        <ele>1215</ele>
        <time>2016-03-26T14:56:49Z</time>
      </trkpt>
      <trkpt lat="42.96591" lon="0.87528">
        <ele>1214</ele>
        <time>2016-03-26T14:56:50Z</time>
      </trkpt>
      <trkpt lat="42.96592" lon="0.87529">
        <ele>1214</ele>
        <time>2016-03-26T14:56:52Z</time>
      </trkpt>
      <trkpt lat="42.96592" lon="0.8753">
        <ele>1214</ele>
        <time>2016-03-26T14:56:54Z</time>
      </trkpt>
      <trkpt lat="42.96595" lon="0.87533">
        <ele>1213</ele>
        <time>2016-03-26T14:57:01Z</time>
      </trkpt>
      <trkpt lat="42.96596" lon="0.87536">
        <ele>1213</ele>
        <time>2016-03-26T14:57:03Z</time>
      </trkpt>
      <trkpt lat="42.96597" lon="0.87537">
        <ele>1212</ele>
        <time>2016-03-26T14:57:04Z</time>
      </trkpt>
      <trkpt lat="42.96597" lon="0.8754">
        <ele>1212</ele>
        <time>2016-03-26T14:57:06Z</time>
      </trkpt>
      <trkpt lat="42.96597" lon="0.87543">
        <ele>1211</ele>
        <time>2016-03-26T14:57:08Z</time>
      </trkpt>
      <trkpt lat="42.96597" lon="0.87544">
        <ele>1211</ele>
        <time>2016-03-26T14:57:09Z</time>
      </trkpt>
      <trkpt lat="42.96598" lon="0.87546">
        <ele>1211</ele>
        <time>2016-03-26T14:57:10Z</time>
      </trkpt>
      <trkpt lat="42.96598" lon="0.87548">
        <ele>1211</ele>
        <time>2016-03-26T14:57:13Z</time>
      </trkpt>
      <trkpt lat="42.96598" lon="0.87549">
        <ele>1210</ele>
        <time>2016-03-26T14:57:14Z</time>
      </trkpt>
      <trkpt lat="42.96597" lon="0.8755">
        <ele>1210</ele>
        <time>2016-03-26T14:57:15Z</time>
      </trkpt>
      <trkpt lat="42.96596" lon="0.87551">
        <ele>1210</ele>
        <time>2016-03-26T14:57:16Z</time>
      </trkpt>
      <trkpt lat="42.96595" lon="0.87552">
        <ele>1210</ele>
        <time>2016-03-26T14:57:18Z</time>
      </trkpt>
      <trkpt lat="42.96593" lon="0.87555">
        <ele>1209</ele>
        <time>2016-03-26T14:57:20Z</time>
      </trkpt>
      <trkpt lat="42.96592" lon="0.87556">
        <ele>1209</ele>
        <time>2016-03-26T14:57:22Z</time>
      </trkpt>
      <trkpt lat="42.96592" lon="0.87558">
        <ele>1209</ele>
        <time>2016-03-26T14:57:24Z</time>
      </trkpt>
      <trkpt lat="42.96591" lon="0.8756">
        <ele>1208</ele>
        <time>2016-03-26T14:57:26Z</time>
      </trkpt>
      <trkpt lat="42.9659" lon="0.87561">
        <ele>1208</ele>
        <time>2016-03-26T14:57:28Z</time>
      </trkpt>
      <trkpt lat="42.96588" lon="0.87563">
        <ele>1207</ele>
        <time>2016-03-26T14:57:30Z</time>
      </trkpt>
      <trkpt lat="42.9658" lon="0.87557">
        <ele>1207</ele>
        <time>2016-03-26T14:57:45Z</time>
      </trkpt>
      <trkpt lat="42.9658" lon="0.87556">
        <ele>1207</ele>
        <time>2016-03-26T14:57:46Z</time>
      </trkpt>
      <trkpt lat="42.96579" lon="0.87555">
        <ele>1206</ele>
        <time>2016-03-26T14:57:48Z</time>
      </trkpt>
      <trkpt lat="42.96579" lon="0.87555">
        <ele>1206</ele>
        <time>2016-03-26T14:58:18Z</time>
      </trkpt>
      <trkpt lat="42.96579" lon="0.87555">
        <ele>1206</ele>
        <time>2016-03-26T14:58:19Z</time>
      </trkpt>
      <trkpt lat="42.96576" lon="0.87558">
        <ele>1206</ele>
        <time>2016-03-26T14:58:40Z</time>
      </trkpt>
      <trkpt lat="42.96574" lon="0.87561">
        <ele>1206</ele>
        <time>2016-03-26T14:58:42Z</time>
      </trkpt>
      <trkpt lat="42.96571" lon="0.87564">
        <ele>1206</ele>
        <time>2016-03-26T14:58:44Z</time>
      </trkpt>
      <trkpt lat="42.9657" lon="0.87565">
        <ele>1205</ele>
        <time>2016-03-26T14:58:45Z</time>
      </trkpt>
      <trkpt lat="42.96568" lon="0.87567">
        <ele>1205</ele>
        <time>2016-03-26T14:58:47Z</time>
      </trkpt>
      <trkpt lat="42.96567" lon="0.87567">
        <ele>1205</ele>
        <time>2016-03-26T14:58:48Z</time>
      </trkpt>
      <trkpt lat="42.96565" lon="0.8757">
        <ele>1205</ele>
        <time>2016-03-26T14:58:50Z</time>
      </trkpt>
      <trkpt lat="42.96564" lon="0.87573">
        <ele>1205</ele>
        <time>2016-03-26T14:58:52Z</time>
      </trkpt>
      <trkpt lat="42.96563" lon="0.87574">
        <ele>1205</ele>
        <time>2016-03-26T14:58:53Z</time>
      </trkpt>
      <trkpt lat="42.96563" lon="0.87575">
        <ele>1205</ele>
        <time>2016-03-26T14:58:55Z</time>
      </trkpt>
      <trkpt lat="42.96563" lon="0.87575">
        <ele>1204</ele>
        <time>2016-03-26T14:58:57Z</time>
      </trkpt>
      <trkpt lat="42.96558" lon="0.87576">
        <ele>1204</ele>
        <time>2016-03-26T14:59:03Z</time>
      </trkpt>
      <trkpt lat="42.96557" lon="0.87577">
        <ele>1204</ele>
        <time>2016-03-26T14:59:05Z</time>
      </trkpt>
      <trkpt lat="42.96557" lon="0.87577">
        <ele>1204</ele>
        <time>2016-03-26T14:59:06Z</time>
      </trkpt>
      <trkpt lat="42.96557" lon="0.87576">
        <ele>1204</ele>
        <time>2016-03-26T14:59:08Z</time>
      </trkpt>
      <trkpt lat="42.96556" lon="0.87576">
        <ele>1204</ele>
        <time>2016-03-26T14:59:09Z</time>
      </trkpt>
      <trkpt lat="42.96555" lon="0.87573">
        <ele>1204</ele>
        <time>2016-03-26T14:59:11Z</time>
      </trkpt>
      <trkpt lat="42.96555" lon="0.87572">
        <ele>1204</ele>
        <time>2016-03-26T14:59:12Z</time>
      </trkpt>
      <trkpt lat="42.96554" lon="0.87568">
        <ele>1204</ele>
        <time>2016-03-26T14:59:14Z</time>
      </trkpt>
      <trkpt lat="42.96553" lon="0.87565">
        <ele>1203</ele>
        <time>2016-03-26T14:59:16Z</time>
      </trkpt>
      <trkpt lat="42.96553" lon="0.87564">
        <ele>1203</ele>
        <time>2016-03-26T14:59:17Z</time>
      </trkpt>
      <trkpt lat="42.96552" lon="0.87561">
        <ele>1203</ele>
        <time>2016-03-26T14:59:19Z</time>
      </trkpt>
      <trkpt lat="42.96552" lon="0.87559">
        <ele>1203</ele>
        <time>2016-03-26T14:59:21Z</time>
      </trkpt>
      <trkpt lat="42.96551" lon="0.87557">
        <ele>1203</ele>
        <time>2016-03-26T14:59:22Z</time>
      </trkpt>
      <trkpt lat="42.9655" lon="0.87554">
        <ele>1203</ele>
        <time>2016-03-26T14:59:24Z</time>
      </trkpt>
      <trkpt lat="42.96548" lon="0.87551">
        <ele>1202</ele>
        <time>2016-03-26T14:59:25Z</time>
      </trkpt>
      <trkpt lat="42.96547" lon="0.87547">
        <ele>1202</ele>
        <time>2016-03-26T14:59:27Z</time>
      </trkpt>
      <trkpt lat="42.96546" lon="0.87544">
        <ele>1202</ele>
        <time>2016-03-26T14:59:29Z</time>
      </trkpt>
      <trkpt lat="42.96545" lon="0.87541">
        <ele>1202</ele>
        <time>2016-03-26T14:59:31Z</time>
      </trkpt>
      <trkpt lat="42.96544" lon="0.8754">
        <ele>1202</ele>
        <time>2016-03-26T14:59:32Z</time>
      </trkpt>
      <trkpt lat="42.96544" lon="0.87537">
        <ele>1202</ele>
        <time>2016-03-26T14:59:34Z</time>
      </trkpt>
      <trkpt lat="42.96544" lon="0.87535">
        <ele>1202</ele>
        <time>2016-03-26T14:59:36Z</time>
      </trkpt>
      <trkpt lat="42.96543" lon="0.87532">
        <ele>1202</ele>
        <time>2016-03-26T14:59:38Z</time>
      </trkpt>
      <trkpt lat="42.96543" lon="0.87529">
        <ele>1201</ele>
        <time>2016-03-26T14:59:40Z</time>
      </trkpt>
      <trkpt lat="42.96543" lon="0.87526">
        <ele>1201</ele>
        <time>2016-03-26T14:59:42Z</time>
      </trkpt>
      <trkpt lat="42.96542" lon="0.87524">
        <ele>1201</ele>
        <time>2016-03-26T14:59:44Z</time>
      </trkpt>
      <trkpt lat="42.96542" lon="0.87521">
        <ele>1201</ele>
        <time>2016-03-26T14:59:46Z</time>
      </trkpt>
      <trkpt lat="42.96542" lon="0.8752">
        <ele>1201</ele>
        <time>2016-03-26T14:59:47Z</time>
      </trkpt>
      <trkpt lat="42.96541" lon="0.87519">
        <ele>1201</ele>
        <time>2016-03-26T14:59:48Z</time>
      </trkpt>
      <trkpt lat="42.9654" lon="0.87516">
        <ele>1201</ele>
        <time>2016-03-26T14:59:50Z</time>
      </trkpt>
      <trkpt lat="42.96539" lon="0.87514">
        <ele>1201</ele>
        <time>2016-03-26T14:59:51Z</time>
      </trkpt>
      <trkpt lat="42.96538" lon="0.87514">
        <ele>1201</ele>
        <time>2016-03-26T14:59:52Z</time>
      </trkpt>
      <trkpt lat="42.96538" lon="0.87512">
        <ele>1201</ele>
        <time>2016-03-26T14:59:54Z</time>
      </trkpt>
      <trkpt lat="42.96537" lon="0.87511">
        <ele>1201</ele>
        <time>2016-03-26T14:59:55Z</time>
      </trkpt>
      <trkpt lat="42.96536" lon="0.87508">
        <ele>1201</ele>
        <time>2016-03-26T14:59:57Z</time>
      </trkpt>
      <trkpt lat="42.96536" lon="0.87506">
        <ele>1201</ele>
        <time>2016-03-26T14:59:58Z</time>
      </trkpt>
      <trkpt lat="42.96534" lon="0.87504">
        <ele>1201</ele>
        <time>2016-03-26T15:00:00Z</time>
      </trkpt>
      <trkpt lat="42.96534" lon="0.87503">
        <ele>1201</ele>
        <time>2016-03-26T15:00:02Z</time>
      </trkpt>
      <trkpt lat="42.96535" lon="0.87501">
        <ele>1200</ele>
        <time>2016-03-26T15:00:04Z</time>
      </trkpt>
      <trkpt lat="42.96536" lon="0.87502">
        <ele>1200</ele>
        <time>2016-03-26T15:00:06Z</time>
      </trkpt>
      <trkpt lat="42.96535" lon="0.87505">
        <ele>1200</ele>
        <time>2016-03-26T15:00:08Z</time>
      </trkpt>
      <trkpt lat="42.96535" lon="0.87506">
        <ele>1200</ele>
        <time>2016-03-26T15:00:10Z</time>
      </trkpt>
      <trkpt lat="42.96524" lon="0.87521">
        <ele>1200</ele>
        <time>2016-03-26T15:00:17Z</time>
      </trkpt>
      <trkpt lat="42.96523" lon="0.87524">
        <ele>1200</ele>
        <time>2016-03-26T15:00:19Z</time>
      </trkpt>
      <trkpt lat="42.96522" lon="0.87526">
        <ele>1200</ele>
        <time>2016-03-26T15:00:21Z</time>
      </trkpt>
      <trkpt lat="42.96523" lon="0.87528">
        <ele>1200</ele>
        <time>2016-03-26T15:00:23Z</time>
      </trkpt>
      <trkpt lat="42.96522" lon="0.8753">
        <ele>1200</ele>
        <time>2016-03-26T15:00:24Z</time>
      </trkpt>
      <trkpt lat="42.96521" lon="0.87532">
        <ele>1200</ele>
        <time>2016-03-26T15:00:26Z</time>
      </trkpt>
      <trkpt lat="42.96521" lon="0.87537">
        <ele>1200</ele>
        <time>2016-03-26T15:00:28Z</time>
      </trkpt>
      <trkpt lat="42.96521" lon="0.87538">
        <ele>1200</ele>
        <time>2016-03-26T15:00:29Z</time>
      </trkpt>
      <trkpt lat="42.9652" lon="0.87541">
        <ele>1200</ele>
        <time>2016-03-26T15:00:31Z</time>
      </trkpt>
      <trkpt lat="42.96519" lon="0.87542">
        <ele>1200</ele>
        <time>2016-03-26T15:00:32Z</time>
      </trkpt>
      <trkpt lat="42.96518" lon="0.87545">
        <ele>1200</ele>
        <time>2016-03-26T15:00:34Z</time>
      </trkpt>
      <trkpt lat="42.96518" lon="0.87545">
        <ele>1200</ele>
        <time>2016-03-26T15:00:36Z</time>
      </trkpt>
      <trkpt lat="42.96515" lon="0.87548">
        <ele>1200</ele>
        <time>2016-03-26T15:00:40Z</time>
      </trkpt>
      <trkpt lat="42.96515" lon="0.87548">
        <ele>1200</ele>
        <time>2016-03-26T15:00:42Z</time>
      </trkpt>
      <trkpt lat="42.96515" lon="0.8755">
        <ele>1200</ele>
        <time>2016-03-26T15:00:43Z</time>
      </trkpt>
      <trkpt lat="42.96515" lon="0.87552">
        <ele>1200</ele>
        <time>2016-03-26T15:00:45Z</time>
      </trkpt>
      <trkpt lat="42.96514" lon="0.87554">
        <ele>1200</ele>
        <time>2016-03-26T15:00:46Z</time>
      </trkpt>
      <trkpt lat="42.96513" lon="0.87558">
        <ele>1200</ele>
        <time>2016-03-26T15:00:48Z</time>
      </trkpt>
      <trkpt lat="42.96513" lon="0.87561">
        <ele>1200</ele>
        <time>2016-03-26T15:00:51Z</time>
      </trkpt>
      <trkpt lat="42.96514" lon="0.87563">
        <ele>1200</ele>
        <time>2016-03-26T15:00:52Z</time>
      </trkpt>
      <trkpt lat="42.96513" lon="0.87566">
        <ele>1200</ele>
        <time>2016-03-26T15:00:54Z</time>
      </trkpt>
      <trkpt lat="42.96514" lon="0.87567">
        <ele>1200</ele>
        <time>2016-03-26T15:00:56Z</time>
      </trkpt>
      <trkpt lat="42.96515" lon="0.8757">
        <ele>1200</ele>
        <time>2016-03-26T15:00:58Z</time>
      </trkpt>
      <trkpt lat="42.96515" lon="0.87571">
        <ele>1200</ele>
        <time>2016-03-26T15:01:00Z</time>
      </trkpt>
      <trkpt lat="42.96515" lon="0.87572">
        <ele>1200</ele>
        <time>2016-03-26T15:01:01Z</time>
      </trkpt>
      <trkpt lat="42.96515" lon="0.87573">
        <ele>1200</ele>
        <time>2016-03-26T15:01:03Z</time>
      </trkpt>
      <trkpt lat="42.96515" lon="0.87573">
        <ele>1200</ele>
        <time>2016-03-26T15:01:05Z</time>
      </trkpt>
      <trkpt lat="42.96517" lon="0.87574">
        <ele>1200</ele>
        <time>2016-03-26T15:01:07Z</time>
      </trkpt>
      <trkpt lat="42.96517" lon="0.87575">
        <ele>1200</ele>
        <time>2016-03-26T15:01:09Z</time>
      </trkpt>
      <trkpt lat="42.96521" lon="0.8758">
        <ele>1200</ele>
        <time>2016-03-26T15:01:16Z</time>
      </trkpt>
      <trkpt lat="42.96521" lon="0.87582">
        <ele>1200</ele>
        <time>2016-03-26T15:01:18Z</time>
      </trkpt>
      <trkpt lat="42.9652" lon="0.87583">
        <ele>1200</ele>
        <time>2016-03-26T15:01:19Z</time>
      </trkpt>
      <trkpt lat="42.9652" lon="0.87585">
        <ele>1200</ele>
        <time>2016-03-26T15:01:21Z</time>
      </trkpt>
      <trkpt lat="42.96519" lon="0.87587">
        <ele>1200</ele>
        <time>2016-03-26T15:01:22Z</time>
      </trkpt>
      <trkpt lat="42.96517" lon="0.87592">
        <ele>1200</ele>
        <time>2016-03-26T15:01:24Z</time>
      </trkpt>
      <trkpt lat="42.96518" lon="0.87594">
        <ele>1200</ele>
        <time>2016-03-26T15:01:26Z</time>
      </trkpt>
      <trkpt lat="42.96516" lon="0.87598">
        <ele>1200</ele>
        <time>2016-03-26T15:01:28Z</time>
      </trkpt>
      <trkpt lat="42.96515" lon="0.87601">
        <ele>1200</ele>
        <time>2016-03-26T15:01:30Z</time>
      </trkpt>
      <trkpt lat="42.96514" lon="0.87604">
        <ele>1200</ele>
        <time>2016-03-26T15:01:32Z</time>
      </trkpt>
      <trkpt lat="42.96514" lon="0.87606">
        <ele>1199</ele>
        <time>2016-03-26T15:01:34Z</time>
      </trkpt>
      <trkpt lat="42.96513" lon="0.8761">
        <ele>1199</ele>
        <time>2016-03-26T15:01:36Z</time>
      </trkpt>
      <trkpt lat="42.96513" lon="0.87613">
        <ele>1199</ele>
        <time>2016-03-26T15:01:38Z</time>
      </trkpt>
      <trkpt lat="42.96512" lon="0.87615">
        <ele>1199</ele>
        <time>2016-03-26T15:01:40Z</time>
      </trkpt>
      <trkpt lat="42.96511" lon="0.87618">
        <ele>1199</ele>
        <time>2016-03-26T15:01:42Z</time>
      </trkpt>
      <trkpt lat="42.96511" lon="0.87618">
        <ele>1199</ele>
        <time>2016-03-26T15:01:43Z</time>
      </trkpt>
      <trkpt lat="42.96511" lon="0.87619">
        <ele>1198</ele>
        <time>2016-03-26T15:01:44Z</time>
      </trkpt>
      <trkpt lat="42.96511" lon="0.87621">
        <ele>1198</ele>
        <time>2016-03-26T15:01:46Z</time>
      </trkpt>
      <trkpt lat="42.9651" lon="0.87622">
        <ele>1198</ele>
        <time>2016-03-26T15:01:48Z</time>
      </trkpt>
      <trkpt lat="42.9651" lon="0.87623">
        <ele>1198</ele>
        <time>2016-03-26T15:01:50Z</time>
      </trkpt>
      <trkpt lat="42.9651" lon="0.87624">
        <ele>1198</ele>
        <time>2016-03-26T15:01:52Z</time>
      </trkpt>
      <trkpt lat="42.9651" lon="0.87628">
        <ele>1198</ele>
        <time>2016-03-26T15:01:54Z</time>
      </trkpt>
      <trkpt lat="42.96509" lon="0.8763">
        <ele>1198</ele>
        <time>2016-03-26T15:01:56Z</time>
      </trkpt>
      <trkpt lat="42.96508" lon="0.87632">
        <ele>1197</ele>
        <time>2016-03-26T15:01:57Z</time>
      </trkpt>
      <trkpt lat="42.96508" lon="0.87632">
        <ele>1197</ele>
        <time>2016-03-26T15:01:58Z</time>
      </trkpt>
      <trkpt lat="42.96508" lon="0.87634">
        <ele>1197</ele>
        <time>2016-03-26T15:02:00Z</time>
      </trkpt>
      <trkpt lat="42.96507" lon="0.87634">
        <ele>1197</ele>
        <time>2016-03-26T15:02:01Z</time>
      </trkpt>
      <trkpt lat="42.96506" lon="0.87637">
        <ele>1197</ele>
        <time>2016-03-26T15:02:03Z</time>
      </trkpt>
      <trkpt lat="42.96505" lon="0.87638">
        <ele>1197</ele>
        <time>2016-03-26T15:02:04Z</time>
      </trkpt>
      <trkpt lat="42.96503" lon="0.87638">
        <ele>1197</ele>
        <time>2016-03-26T15:02:05Z</time>
      </trkpt>
      <trkpt lat="42.96502" lon="0.87639">
        <ele>1197</ele>
        <time>2016-03-26T15:02:06Z</time>
      </trkpt>
      <trkpt lat="42.965" lon="0.87642">
        <ele>1197</ele>
        <time>2016-03-26T15:02:09Z</time>
      </trkpt>
      <trkpt lat="42.965" lon="0.87643">
        <ele>1197</ele>
        <time>2016-03-26T15:02:10Z</time>
      </trkpt>
      <trkpt lat="42.96499" lon="0.87645">
        <ele>1197</ele>
        <time>2016-03-26T15:02:12Z</time>
      </trkpt>
      <trkpt lat="42.96496" lon="0.87647">
        <ele>1196</ele>
        <time>2016-03-26T15:02:14Z</time>
      </trkpt>
      <trkpt lat="42.96493" lon="0.8765">
        <ele>1196</ele>
        <time>2016-03-26T15:02:16Z</time>
      </trkpt>
      <trkpt lat="42.96491" lon="0.87652">
        <ele>1196</ele>
        <time>2016-03-26T15:02:18Z</time>
      </trkpt>
      <trkpt lat="42.96487" lon="0.87653">
        <ele>1196</ele>
        <time>2016-03-26T15:02:20Z</time>
      </trkpt>
      <trkpt lat="42.96484" lon="0.87655">
        <ele>1196</ele>
        <time>2016-03-26T15:02:22Z</time>
      </trkpt>
      <trkpt lat="42.96482" lon="0.87657">
        <ele>1196</ele>
        <time>2016-03-26T15:02:24Z</time>
      </trkpt>
      <trkpt lat="42.96481" lon="0.87658">
        <ele>1196</ele>
        <time>2016-03-26T15:02:25Z</time>
      </trkpt>
      <trkpt lat="42.9648" lon="0.8766">
        <ele>1196</ele>
        <time>2016-03-26T15:02:26Z</time>
      </trkpt>
      <trkpt lat="42.96478" lon="0.87661">
        <ele>1196</ele>
        <time>2016-03-26T15:02:28Z</time>
      </trkpt>
      <trkpt lat="42.96476" lon="0.87662">
        <ele>1196</ele>
        <time>2016-03-26T15:02:30Z</time>
      </trkpt>
      <trkpt lat="42.96464" lon="0.8767">
        <ele>1194</ele>
        <time>2016-03-26T15:02:36Z</time>
      </trkpt>
      <trkpt lat="42.96463" lon="0.87672">
        <ele>1194</ele>
        <time>2016-03-26T15:02:37Z</time>
      </trkpt>
      <trkpt lat="42.96463" lon="0.87673">
        <ele>1193</ele>
        <time>2016-03-26T15:02:38Z</time>
      </trkpt>
      <trkpt lat="42.96462" lon="0.87675">
        <ele>1193</ele>
        <time>2016-03-26T15:02:40Z</time>
      </trkpt>
      <trkpt lat="42.96462" lon="0.87678">
        <ele>1193</ele>
        <time>2016-03-26T15:02:42Z</time>
      </trkpt>
      <trkpt lat="42.96461" lon="0.87681">
        <ele>1193</ele>
        <time>2016-03-26T15:02:44Z</time>
      </trkpt>
      <trkpt lat="42.9646" lon="0.87682">
        <ele>1192</ele>
        <time>2016-03-26T15:02:46Z</time>
      </trkpt>
      <trkpt lat="42.96459" lon="0.87684">
        <ele>1192</ele>
        <time>2016-03-26T15:02:48Z</time>
      </trkpt>
      <trkpt lat="42.96458" lon="0.87686">
        <ele>1192</ele>
        <time>2016-03-26T15:02:50Z</time>
      </trkpt>
      <trkpt lat="42.96458" lon="0.87688">
        <ele>1192</ele>
        <time>2016-03-26T15:02:52Z</time>
      </trkpt>
      <trkpt lat="42.96457" lon="0.8769">
        <ele>1192</ele>
        <time>2016-03-26T15:02:54Z</time>
      </trkpt>
      <trkpt lat="42.96457" lon="0.8769">
        <ele>1192</ele>
        <time>2016-03-26T15:02:55Z</time>
      </trkpt>
      <trkpt lat="42.96455" lon="0.8769">
        <ele>1191</ele>
        <time>2016-03-26T15:02:57Z</time>
      </trkpt>
      <trkpt lat="42.9645" lon="0.87701">
        <ele>1191</ele>
        <time>2016-03-26T15:03:10Z</time>
      </trkpt>
      <trkpt lat="42.96449" lon="0.87704">
        <ele>1191</ele>
        <time>2016-03-26T15:03:12Z</time>
      </trkpt>
      <trkpt lat="42.96448" lon="0.87706">
        <ele>1191</ele>
        <time>2016-03-26T15:03:14Z</time>
      </trkpt>
      <trkpt lat="42.96447" lon="0.87707">
        <ele>1190</ele>
        <time>2016-03-26T15:03:15Z</time>
      </trkpt>
      <trkpt lat="42.96447" lon="0.87708">
        <ele>1190</ele>
        <time>2016-03-26T15:03:16Z</time>
      </trkpt>
      <trkpt lat="42.96446" lon="0.87711">
        <ele>1190</ele>
        <time>2016-03-26T15:03:18Z</time>
      </trkpt>
      <trkpt lat="42.96445" lon="0.87714">
        <ele>1190</ele>
        <time>2016-03-26T15:03:20Z</time>
      </trkpt>
      <trkpt lat="42.96444" lon="0.87716">
        <ele>1190</ele>
        <time>2016-03-26T15:03:21Z</time>
      </trkpt>
      <trkpt lat="42.96443" lon="0.87721">
        <ele>1190</ele>
        <time>2016-03-26T15:03:23Z</time>
      </trkpt>
      <trkpt lat="42.96443" lon="0.87724">
        <ele>1190</ele>
        <time>2016-03-26T15:03:25Z</time>
      </trkpt>
      <trkpt lat="42.96443" lon="0.87727">
        <ele>1190</ele>
        <time>2016-03-26T15:03:27Z</time>
      </trkpt>
      <trkpt lat="42.96443" lon="0.87728">
        <ele>1190</ele>
        <time>2016-03-26T15:03:28Z</time>
      </trkpt>
      <trkpt lat="42.96442" lon="0.8773">
        <ele>1190</ele>
        <time>2016-03-26T15:03:30Z</time>
      </trkpt>
      <trkpt lat="42.96441" lon="0.87732">
        <ele>1190</ele>
        <time>2016-03-26T15:03:32Z</time>
      </trkpt>
      <trkpt lat="42.96441" lon="0.87733">
        <ele>1190</ele>
        <time>2016-03-26T15:03:33Z</time>
      </trkpt>
      <trkpt lat="42.96441" lon="0.87735">
        <ele>1190</ele>
        <time>2016-03-26T15:03:35Z</time>
      </trkpt>
      <trkpt lat="42.9644" lon="0.87738">
        <ele>1190</ele>
        <time>2016-03-26T15:03:37Z</time>
      </trkpt>
      <trkpt lat="42.96439" lon="0.87739">
        <ele>1189</ele>
        <time>2016-03-26T15:03:39Z</time>
      </trkpt>
      <trkpt lat="42.96439" lon="0.8774">
        <ele>1189</ele>
        <time>2016-03-26T15:03:40Z</time>
      </trkpt>
      <trkpt lat="42.96439" lon="0.87743">
        <ele>1189</ele>
        <time>2016-03-26T15:03:42Z</time>
      </trkpt>
      <trkpt lat="42.96439" lon="0.87744">
        <ele>1189</ele>
        <time>2016-03-26T15:03:44Z</time>
      </trkpt>
      <trkpt lat="42.96438" lon="0.87746">
        <ele>1189</ele>
        <time>2016-03-26T15:03:46Z</time>
      </trkpt>
      <trkpt lat="42.96439" lon="0.87747">
        <ele>1189</ele>
        <time>2016-03-26T15:03:48Z</time>
      </trkpt>
      <trkpt lat="42.96439" lon="0.87749">
        <ele>1189</ele>
        <time>2016-03-26T15:03:50Z</time>
      </trkpt>
      <trkpt lat="42.9644" lon="0.87753">
        <ele>1189</ele>
        <time>2016-03-26T15:03:52Z</time>
      </trkpt>
      <trkpt lat="42.96439" lon="0.87757">
        <ele>1189</ele>
        <time>2016-03-26T15:03:54Z</time>
      </trkpt>
      <trkpt lat="42.96439" lon="0.87758">
        <ele>1188</ele>
        <time>2016-03-26T15:03:55Z</time>
      </trkpt>
      <trkpt lat="42.96439" lon="0.87759">
        <ele>1188</ele>
        <time>2016-03-26T15:03:56Z</time>
      </trkpt>
      <trkpt lat="42.96439" lon="0.87761">
        <ele>1188</ele>
        <time>2016-03-26T15:03:58Z</time>
      </trkpt>
      <trkpt lat="42.96438" lon="0.87764">
        <ele>1188</ele>
        <time>2016-03-26T15:04:00Z</time>
      </trkpt>
      <trkpt lat="42.96439" lon="0.87766">
        <ele>1188</ele>
        <time>2016-03-26T15:04:01Z</time>
      </trkpt>
      <trkpt lat="42.96439" lon="0.8777">
        <ele>1188</ele>
        <time>2016-03-26T15:04:03Z</time>
      </trkpt>
      <trkpt lat="42.96438" lon="0.87771">
        <ele>1188</ele>
        <time>2016-03-26T15:04:04Z</time>
      </trkpt>
      <trkpt lat="42.96438" lon="0.87774">
        <ele>1188</ele>
        <time>2016-03-26T15:04:06Z</time>
      </trkpt>
      <trkpt lat="42.96438" lon="0.87776">
        <ele>1187</ele>
        <time>2016-03-26T15:04:08Z</time>
      </trkpt>
      <trkpt lat="42.96438" lon="0.87777">
        <ele>1187</ele>
        <time>2016-03-26T15:04:09Z</time>
      </trkpt>
      <trkpt lat="42.96438" lon="0.8778">
        <ele>1187</ele>
        <time>2016-03-26T15:04:11Z</time>
      </trkpt>
      <trkpt lat="42.96437" lon="0.87782">
        <ele>1187</ele>
        <time>2016-03-26T15:04:12Z</time>
      </trkpt>
      <trkpt lat="42.96438" lon="0.87784">
        <ele>1187</ele>
        <time>2016-03-26T15:04:14Z</time>
      </trkpt>
      <trkpt lat="42.96438" lon="0.87788">
        <ele>1187</ele>
        <time>2016-03-26T15:04:16Z</time>
      </trkpt>
      <trkpt lat="42.96438" lon="0.87791">
        <ele>1187</ele>
        <time>2016-03-26T15:04:18Z</time>
      </trkpt>
      <trkpt lat="42.96439" lon="0.87792">
        <ele>1187</ele>
        <time>2016-03-26T15:04:19Z</time>
      </trkpt>
      <trkpt lat="42.96439" lon="0.87795">
        <ele>1187</ele>
        <time>2016-03-26T15:04:21Z</time>
      </trkpt>
      <trkpt lat="42.96439" lon="0.87796">
        <ele>1187</ele>
        <time>2016-03-26T15:04:22Z</time>
      </trkpt>
      <trkpt lat="42.96439" lon="0.878">
        <ele>1187</ele>
        <time>2016-03-26T15:04:24Z</time>
      </trkpt>
      <trkpt lat="42.96438" lon="0.87803">
        <ele>1187</ele>
        <time>2016-03-26T15:04:26Z</time>
      </trkpt>
      <trkpt lat="42.96436" lon="0.87811">
        <ele>1186</ele>
        <time>2016-03-26T15:04:30Z</time>
      </trkpt>
      <trkpt lat="42.96436" lon="0.87813">
        <ele>1186</ele>
        <time>2016-03-26T15:04:32Z</time>
      </trkpt>
      <trkpt lat="42.96437" lon="0.87816">
        <ele>1186</ele>
        <time>2016-03-26T15:04:35Z</time>
      </trkpt>
      <trkpt lat="42.96437" lon="0.87818">
        <ele>1186</ele>
        <time>2016-03-26T15:04:37Z</time>
      </trkpt>
      <trkpt lat="42.96438" lon="0.87821">
        <ele>1186</ele>
        <time>2016-03-26T15:04:39Z</time>
      </trkpt>
      <trkpt lat="42.96438" lon="0.87822">
        <ele>1186</ele>
        <time>2016-03-26T15:04:40Z</time>
      </trkpt>
      <trkpt lat="42.96438" lon="0.87824">
        <ele>1185</ele>
        <time>2016-03-26T15:04:42Z</time>
      </trkpt>
      <trkpt lat="42.9644" lon="0.87826">
        <ele>1185</ele>
        <time>2016-03-26T15:04:44Z</time>
      </trkpt>
      <trkpt lat="42.96441" lon="0.87828">
        <ele>1185</ele>
        <time>2016-03-26T15:04:45Z</time>
      </trkpt>
      <trkpt lat="42.96441" lon="0.87829">
        <ele>1185</ele>
        <time>2016-03-26T15:04:46Z</time>
      </trkpt>
      <trkpt lat="42.96441" lon="0.87832">
        <ele>1184</ele>
        <time>2016-03-26T15:04:48Z</time>
      </trkpt>
      <trkpt lat="42.96442" lon="0.87833">
        <ele>1184</ele>
        <time>2016-03-26T15:04:49Z</time>
      </trkpt>
      <trkpt lat="42.96442" lon="0.87835">
        <ele>1184</ele>
        <time>2016-03-26T15:04:51Z</time>
      </trkpt>
      <trkpt lat="42.96442" lon="0.87836">
        <ele>1184</ele>
        <time>2016-03-26T15:04:52Z</time>
      </trkpt>
      <trkpt lat="42.96442" lon="0.87838">
        <ele>1183</ele>
        <time>2016-03-26T15:04:54Z</time>
      </trkpt>
      <trkpt lat="42.9644" lon="0.8784">
        <ele>1183</ele>
        <time>2016-03-26T15:04:56Z</time>
      </trkpt>
      <trkpt lat="42.96438" lon="0.8784">
        <ele>1182</ele>
        <time>2016-03-26T15:04:58Z</time>
      </trkpt>
      <trkpt lat="42.96438" lon="0.87839">
        <ele>1181</ele>
        <time>2016-03-26T15:05:00Z</time>
      </trkpt>
      <trkpt lat="42.96439" lon="0.8784">
        <ele>1180</ele>
        <time>2016-03-26T15:05:02Z</time>
      </trkpt>
      <trkpt lat="42.96439" lon="0.8784">
        <ele>1180</ele>
        <time>2016-03-26T15:05:03Z</time>
      </trkpt>
      <trkpt lat="42.96439" lon="0.87841">
        <ele>1179</ele>
        <time>2016-03-26T15:05:04Z</time>
      </trkpt>
      <trkpt lat="42.9644" lon="0.87842">
        <ele>1179</ele>
        <time>2016-03-26T15:05:05Z</time>
      </trkpt>
      <trkpt lat="42.9644" lon="0.87845">
        <ele>1178</ele>
        <time>2016-03-26T15:05:07Z</time>
      </trkpt>
      <trkpt lat="42.96441" lon="0.87848">
        <ele>1178</ele>
        <time>2016-03-26T15:05:09Z</time>
      </trkpt>
      <trkpt lat="42.96441" lon="0.8785">
        <ele>1178</ele>
        <time>2016-03-26T15:05:10Z</time>
      </trkpt>
      <trkpt lat="42.96442" lon="0.87853">
        <ele>1177</ele>
        <time>2016-03-26T15:05:12Z</time>
      </trkpt>
      <trkpt lat="42.96442" lon="0.87856">
        <ele>1177</ele>
        <time>2016-03-26T15:05:14Z</time>
      </trkpt>
      <trkpt lat="42.96443" lon="0.87858">
        <ele>1177</ele>
        <time>2016-03-26T15:05:15Z</time>
      </trkpt>
      <trkpt lat="42.96444" lon="0.87861">
        <ele>1176</ele>
        <time>2016-03-26T15:05:17Z</time>
      </trkpt>
      <trkpt lat="42.96444" lon="0.87865">
        <ele>1176</ele>
        <time>2016-03-26T15:05:19Z</time>
      </trkpt>
      <trkpt lat="42.96446" lon="0.87867">
        <ele>1176</ele>
        <time>2016-03-26T15:05:20Z</time>
      </trkpt>
      <trkpt lat="42.96449" lon="0.87868">
        <ele>1176</ele>
        <time>2016-03-26T15:05:22Z</time>
      </trkpt>
      <trkpt lat="42.9645" lon="0.8787">
        <ele>1175</ele>
        <time>2016-03-26T15:05:23Z</time>
      </trkpt>
      <trkpt lat="42.96452" lon="0.87872">
        <ele>1175</ele>
        <time>2016-03-26T15:05:25Z</time>
      </trkpt>
      <trkpt lat="42.96454" lon="0.87874">
        <ele>1175</ele>
        <time>2016-03-26T15:05:27Z</time>
      </trkpt>
      <trkpt lat="42.96455" lon="0.87875">
        <ele>1174</ele>
        <time>2016-03-26T15:05:28Z</time>
      </trkpt>
      <trkpt lat="42.96456" lon="0.87877">
        <ele>1174</ele>
        <time>2016-03-26T15:05:30Z</time>
      </trkpt>
      <trkpt lat="42.96457" lon="0.87878">
        <ele>1174</ele>
        <time>2016-03-26T15:05:31Z</time>
      </trkpt>
      <trkpt lat="42.9646" lon="0.87879">
        <ele>1174</ele>
        <time>2016-03-26T15:05:33Z</time>
      </trkpt>
      <trkpt lat="42.96458" lon="0.87884">
        <ele>1173</ele>
        <time>2016-03-26T15:05:35Z</time>
      </trkpt>
      <trkpt lat="42.96459" lon="0.87886">
        <ele>1173</ele>
        <time>2016-03-26T15:05:37Z</time>
      </trkpt>
      <trkpt lat="42.96461" lon="0.87888">
        <ele>1173</ele>
        <time>2016-03-26T15:05:39Z</time>
      </trkpt>
      <trkpt lat="42.96463" lon="0.8789">
        <ele>1173</ele>
        <time>2016-03-26T15:05:41Z</time>
      </trkpt>
      <trkpt lat="42.96465" lon="0.8789">
        <ele>1172</ele>
        <time>2016-03-26T15:05:43Z</time>
      </trkpt>
      <trkpt lat="42.96467" lon="0.87891">
        <ele>1172</ele>
        <time>2016-03-26T15:05:45Z</time>
      </trkpt>
      <trkpt lat="42.96468" lon="0.87891">
        <ele>1172</ele>
        <time>2016-03-26T15:05:46Z</time>
      </trkpt>
      <trkpt lat="42.96468" lon="0.87891">
        <ele>1172</ele>
        <time>2016-03-26T15:05:47Z</time>
      </trkpt>
      <trkpt lat="42.9647" lon="0.87892">
        <ele>1172</ele>
        <time>2016-03-26T15:05:49Z</time>
      </trkpt>
      <trkpt lat="42.96471" lon="0.87893">
        <ele>1172</ele>
        <time>2016-03-26T15:05:50Z</time>
      </trkpt>
      <trkpt lat="42.96473" lon="0.87894">
        <ele>1172</ele>
        <time>2016-03-26T15:05:52Z</time>
      </trkpt>
      <trkpt lat="42.96475" lon="0.87895">
        <ele>1171</ele>
        <time>2016-03-26T15:05:54Z</time>
      </trkpt>
      <trkpt lat="42.96476" lon="0.87895">
        <ele>1171</ele>
        <time>2016-03-26T15:05:55Z</time>
      </trkpt>
      <trkpt lat="42.96476" lon="0.87895">
        <ele>1171</ele>
        <time>2016-03-26T15:05:56Z</time>
      </trkpt>
      <trkpt lat="42.96478" lon="0.87894">
        <ele>1171</ele>
        <time>2016-03-26T15:05:58Z</time>
      </trkpt>
      <trkpt lat="42.96478" lon="0.87893">
        <ele>1171</ele>
        <time>2016-03-26T15:06:00Z</time>
      </trkpt>
      <trkpt lat="42.96479" lon="0.87893">
        <ele>1171</ele>
        <time>2016-03-26T15:06:01Z</time>
      </trkpt>
      <trkpt lat="42.96479" lon="0.87892">
        <ele>1170</ele>
        <time>2016-03-26T15:06:02Z</time>
      </trkpt>
      <trkpt lat="42.96479" lon="0.87893">
        <ele>1170</ele>
        <time>2016-03-26T15:06:04Z</time>
      </trkpt>
      <trkpt lat="42.96479" lon="0.87893">
        <ele>1170</ele>
        <time>2016-03-26T15:06:06Z</time>
      </trkpt>
      <trkpt lat="42.96481" lon="0.87893">
        <ele>1170</ele>
        <time>2016-03-26T15:06:08Z</time>
      </trkpt>
      <trkpt lat="42.96481" lon="0.87893">
        <ele>1170</ele>
        <time>2016-03-26T15:06:09Z</time>
      </trkpt>
      <trkpt lat="42.96482" lon="0.87894">
        <ele>1170</ele>
        <time>2016-03-26T15:06:10Z</time>
      </trkpt>
      <trkpt lat="42.96482" lon="0.87895">
        <ele>1169</ele>
        <time>2016-03-26T15:06:12Z</time>
      </trkpt>
      <trkpt lat="42.96483" lon="0.87895">
        <ele>1169</ele>
        <time>2016-03-26T15:06:13Z</time>
      </trkpt>
      <trkpt lat="42.96482" lon="0.87896">
        <ele>1169</ele>
        <time>2016-03-26T15:06:15Z</time>
      </trkpt>
      <trkpt lat="42.96481" lon="0.87896">
        <ele>1169</ele>
        <time>2016-03-26T15:06:17Z</time>
      </trkpt>
      <trkpt lat="42.96482" lon="0.87896">
        <ele>1169</ele>
        <time>2016-03-26T15:06:19Z</time>
      </trkpt>
      <trkpt lat="42.96473" lon="0.87897">
        <ele>1168</ele>
        <time>2016-03-26T15:06:28Z</time>
      </trkpt>
      <trkpt lat="42.96473" lon="0.87897">
        <ele>1167</ele>
        <time>2016-03-26T15:06:30Z</time>
      </trkpt>
      <trkpt lat="42.96475" lon="0.87896">
        <ele>1166</ele>
        <time>2016-03-26T15:06:35Z</time>
      </trkpt>
      <trkpt lat="42.96475" lon="0.87896">
        <ele>1166</ele>
        <time>2016-03-26T15:06:37Z</time>
      </trkpt>
      <trkpt lat="42.96476" lon="0.87896">
        <ele>1165</ele>
        <time>2016-03-26T15:06:39Z</time>
      </trkpt>
      <trkpt lat="42.96476" lon="0.87895">
        <ele>1165</ele>
        <time>2016-03-26T15:06:40Z</time>
      </trkpt>
      <trkpt lat="42.96478" lon="0.87896">
        <ele>1164</ele>
        <time>2016-03-26T15:06:42Z</time>
      </trkpt>
      <trkpt lat="42.96478" lon="0.87895">
        <ele>1164</ele>
        <time>2016-03-26T15:06:43Z</time>
      </trkpt>
      <trkpt lat="42.9648" lon="0.87895">
        <ele>1164</ele>
        <time>2016-03-26T15:06:45Z</time>
      </trkpt>
      <trkpt lat="42.9648" lon="0.87894">
        <ele>1163</ele>
        <time>2016-03-26T15:06:46Z</time>
      </trkpt>
      <trkpt lat="42.9648" lon="0.87893">
        <ele>1163</ele>
        <time>2016-03-26T15:06:48Z</time>
      </trkpt>
      <trkpt lat="42.96481" lon="0.87892">
        <ele>1162</ele>
        <time>2016-03-26T15:06:49Z</time>
      </trkpt>
      <trkpt lat="42.96482" lon="0.87891">
        <ele>1162</ele>
        <time>2016-03-26T15:06:51Z</time>
      </trkpt>
      <trkpt lat="42.96482" lon="0.87891">
        <ele>1161</ele>
        <time>2016-03-26T15:07:08Z</time>
      </trkpt>
      <trkpt lat="42.96482" lon="0.87891">
        <ele>1161</ele>
        <time>2016-03-26T15:07:09Z</time>
      </trkpt>
      <trkpt lat="42.96486" lon="0.87879">
        <ele>1160</ele>
        <time>2016-03-26T15:07:13Z</time>
      </trkpt>
      <trkpt lat="42.96488" lon="0.87879">
        <ele>1159</ele>
        <time>2016-03-26T15:07:15Z</time>
      </trkpt>
      <trkpt lat="42.96489" lon="0.87878">
        <ele>1158</ele>
        <time>2016-03-26T15:07:17Z</time>
      </trkpt>
      <trkpt lat="42.9649" lon="0.87879">
        <ele>1157</ele>
        <time>2016-03-26T15:07:19Z</time>
      </trkpt>
      <trkpt lat="42.96492" lon="0.87879">
        <ele>1155</ele>
        <time>2016-03-26T15:07:22Z</time>
      </trkpt>
      <trkpt lat="42.96494" lon="0.87879">
        <ele>1155</ele>
        <time>2016-03-26T15:07:24Z</time>
      </trkpt>
      <trkpt lat="42.96495" lon="0.8788">
        <ele>1155</ele>
        <time>2016-03-26T15:07:26Z</time>
      </trkpt>
      <trkpt lat="42.96497" lon="0.87881">
        <ele>1155</ele>
        <time>2016-03-26T15:07:28Z</time>
      </trkpt>
      <trkpt lat="42.96499" lon="0.87882">
        <ele>1154</ele>
        <time>2016-03-26T15:07:30Z</time>
      </trkpt>
      <trkpt lat="42.965" lon="0.87883">
        <ele>1154</ele>
        <time>2016-03-26T15:07:31Z</time>
      </trkpt>
      <trkpt lat="42.96502" lon="0.87883">
        <ele>1154</ele>
        <time>2016-03-26T15:07:35Z</time>
      </trkpt>
      <trkpt lat="42.96502" lon="0.87884">
        <ele>1153</ele>
        <time>2016-03-26T15:07:37Z</time>
      </trkpt>
      <trkpt lat="42.96505" lon="0.87883">
        <ele>1153</ele>
        <time>2016-03-26T15:07:45Z</time>
      </trkpt>
      <trkpt lat="42.96507" lon="0.87884">
        <ele>1152</ele>
        <time>2016-03-26T15:07:46Z</time>
      </trkpt>
      <trkpt lat="42.96508" lon="0.87883">
        <ele>1152</ele>
        <time>2016-03-26T15:07:48Z</time>
      </trkpt>
      <trkpt lat="42.9651" lon="0.87883">
        <ele>1152</ele>
        <time>2016-03-26T15:07:50Z</time>
      </trkpt>
      <trkpt lat="42.9651" lon="0.87883">
        <ele>1152</ele>
        <time>2016-03-26T15:07:51Z</time>
      </trkpt>
      <trkpt lat="42.96512" lon="0.87883">
        <ele>1152</ele>
        <time>2016-03-26T15:07:53Z</time>
      </trkpt>
      <trkpt lat="42.96513" lon="0.87883">
        <ele>1151</ele>
        <time>2016-03-26T15:07:54Z</time>
      </trkpt>
      <trkpt lat="42.96515" lon="0.87883">
        <ele>1151</ele>
        <time>2016-03-26T15:07:56Z</time>
      </trkpt>
      <trkpt lat="42.96518" lon="0.87883">
        <ele>1151</ele>
        <time>2016-03-26T15:07:58Z</time>
      </trkpt>
      <trkpt lat="42.96521" lon="0.87883">
        <ele>1151</ele>
        <time>2016-03-26T15:08:00Z</time>
      </trkpt>
      <trkpt lat="42.96523" lon="0.87882">
        <ele>1151</ele>
        <time>2016-03-26T15:08:02Z</time>
      </trkpt>
      <trkpt lat="42.96525" lon="0.87883">
        <ele>1151</ele>
        <time>2016-03-26T15:08:03Z</time>
      </trkpt>
      <trkpt lat="42.96526" lon="0.87884">
        <ele>1151</ele>
        <time>2016-03-26T15:08:04Z</time>
      </trkpt>
      <trkpt lat="42.96529" lon="0.87885">
        <ele>1150</ele>
        <time>2016-03-26T15:08:06Z</time>
      </trkpt>
      <trkpt lat="42.96531" lon="0.87886">
        <ele>1150</ele>
        <time>2016-03-26T15:08:08Z</time>
      </trkpt>
      <trkpt lat="42.96534" lon="0.87888">
        <ele>1150</ele>
        <time>2016-03-26T15:08:10Z</time>
      </trkpt>
      <trkpt lat="42.96537" lon="0.8789">
        <ele>1150</ele>
        <time>2016-03-26T15:08:12Z</time>
      </trkpt>
      <trkpt lat="42.9654" lon="0.87892">
        <ele>1149</ele>
        <time>2016-03-26T15:08:14Z</time>
      </trkpt>
      <trkpt lat="42.96542" lon="0.87893">
        <ele>1149</ele>
        <time>2016-03-26T15:08:16Z</time>
      </trkpt>
      <trkpt lat="42.96544" lon="0.87893">
        <ele>1149</ele>
        <time>2016-03-26T15:08:17Z</time>
      </trkpt>
      <trkpt lat="42.96545" lon="0.87894">
        <ele>1149</ele>
        <time>2016-03-26T15:08:19Z</time>
      </trkpt>
      <trkpt lat="42.96546" lon="0.87895">
        <ele>1148</ele>
        <time>2016-03-26T15:08:20Z</time>
      </trkpt>
      <trkpt lat="42.96549" lon="0.87897">
        <ele>1148</ele>
        <time>2016-03-26T15:08:22Z</time>
      </trkpt>
      <trkpt lat="42.96552" lon="0.879">
        <ele>1148</ele>
        <time>2016-03-26T15:08:24Z</time>
      </trkpt>
      <trkpt lat="42.96553" lon="0.87901">
        <ele>1148</ele>
        <time>2016-03-26T15:08:25Z</time>
      </trkpt>
      <trkpt lat="42.96555" lon="0.87903">
        <ele>1148</ele>
        <time>2016-03-26T15:08:27Z</time>
      </trkpt>
      <trkpt lat="42.96555" lon="0.87903">
        <ele>1148</ele>
        <time>2016-03-26T15:08:28Z</time>
      </trkpt>
      <trkpt lat="42.96557" lon="0.87905">
        <ele>1148</ele>
        <time>2016-03-26T15:08:30Z</time>
      </trkpt>
      <trkpt lat="42.96558" lon="0.87907">
        <ele>1147</ele>
        <time>2016-03-26T15:08:32Z</time>
      </trkpt>
      <trkpt lat="42.9656" lon="0.87909">
        <ele>1147</ele>
        <time>2016-03-26T15:08:34Z</time>
      </trkpt>
      <trkpt lat="42.96562" lon="0.8791">
        <ele>1147</ele>
        <time>2016-03-26T15:08:36Z</time>
      </trkpt>
      <trkpt lat="42.96564" lon="0.87911">
        <ele>1147</ele>
        <time>2016-03-26T15:08:38Z</time>
      </trkpt>
      <trkpt lat="42.96566" lon="0.87911">
        <ele>1147</ele>
        <time>2016-03-26T15:08:40Z</time>
      </trkpt>
      <trkpt lat="42.96568" lon="0.87912">
        <ele>1146</ele>
        <time>2016-03-26T15:08:42Z</time>
      </trkpt>
      <trkpt lat="42.9657" lon="0.87912">
        <ele>1146</ele>
        <time>2016-03-26T15:08:44Z</time>
      </trkpt>
      <trkpt lat="42.96573" lon="0.87914">
        <ele>1146</ele>
        <time>2016-03-26T15:08:46Z</time>
      </trkpt>
      <trkpt lat="42.96574" lon="0.87915">
        <ele>1146</ele>
        <time>2016-03-26T15:08:48Z</time>
      </trkpt>
      <trkpt lat="42.96576" lon="0.87915">
        <ele>1146</ele>
        <time>2016-03-26T15:08:49Z</time>
      </trkpt>
      <trkpt lat="42.96578" lon="0.87915">
        <ele>1146</ele>
        <time>2016-03-26T15:08:50Z</time>
      </trkpt>
      <trkpt lat="42.9658" lon="0.87916">
        <ele>1146</ele>
        <time>2016-03-26T15:08:52Z</time>
      </trkpt>
      <trkpt lat="42.96582" lon="0.87916">
        <ele>1146</ele>
        <time>2016-03-26T15:08:54Z</time>
      </trkpt>
      <trkpt lat="42.96584" lon="0.87918">
        <ele>1145</ele>
        <time>2016-03-26T15:08:56Z</time>
      </trkpt>
      <trkpt lat="42.96586" lon="0.87918">
        <ele>1145</ele>
        <time>2016-03-26T15:08:58Z</time>
      </trkpt>
      <trkpt lat="42.96587" lon="0.87918">
        <ele>1145</ele>
        <time>2016-03-26T15:08:59Z</time>
      </trkpt>
      <trkpt lat="42.96593" lon="0.87919">
        <ele>1145</ele>
        <time>2016-03-26T15:09:03Z</time>
      </trkpt>
      <trkpt lat="42.96595" lon="0.8792">
        <ele>1145</ele>
        <time>2016-03-26T15:09:05Z</time>
      </trkpt>
      <trkpt lat="42.96597" lon="0.87921">
        <ele>1145</ele>
        <time>2016-03-26T15:09:06Z</time>
      </trkpt>
      <trkpt lat="42.966" lon="0.87922">
        <ele>1145</ele>
        <time>2016-03-26T15:09:08Z</time>
      </trkpt>
      <trkpt lat="42.966" lon="0.87922">
        <ele>1144</ele>
        <time>2016-03-26T15:09:09Z</time>
      </trkpt>
      <trkpt lat="42.96602" lon="0.87922">
        <ele>1144</ele>
        <time>2016-03-26T15:09:10Z</time>
      </trkpt>
      <trkpt lat="42.96604" lon="0.87923">
        <ele>1144</ele>
        <time>2016-03-26T15:09:12Z</time>
      </trkpt>
      <trkpt lat="42.96605" lon="0.87923">
        <ele>1144</ele>
        <time>2016-03-26T15:09:13Z</time>
      </trkpt>
      <trkpt lat="42.96606" lon="0.87923">
        <ele>1144</ele>
        <time>2016-03-26T15:09:14Z</time>
      </trkpt>
      <trkpt lat="42.96608" lon="0.87924">
        <ele>1144</ele>
        <time>2016-03-26T15:09:16Z</time>
      </trkpt>
      <trkpt lat="42.96611" lon="0.87926">
        <ele>1143</ele>
        <time>2016-03-26T15:09:19Z</time>
      </trkpt>
      <trkpt lat="42.96613" lon="0.87928">
        <ele>1143</ele>
        <time>2016-03-26T15:09:21Z</time>
      </trkpt>
      <trkpt lat="42.96616" lon="0.87929">
        <ele>1143</ele>
        <time>2016-03-26T15:09:23Z</time>
      </trkpt>
      <trkpt lat="42.96617" lon="0.87931">
        <ele>1142</ele>
        <time>2016-03-26T15:09:24Z</time>
      </trkpt>
      <trkpt lat="42.9662" lon="0.87933">
        <ele>1142</ele>
        <time>2016-03-26T15:09:26Z</time>
      </trkpt>
      <trkpt lat="42.96624" lon="0.87934">
        <ele>1141</ele>
        <time>2016-03-26T15:09:29Z</time>
      </trkpt>
      <trkpt lat="42.96627" lon="0.87934">
        <ele>1141</ele>
        <time>2016-03-26T15:09:31Z</time>
      </trkpt>
      <trkpt lat="42.9663" lon="0.87935">
        <ele>1141</ele>
        <time>2016-03-26T15:09:33Z</time>
      </trkpt>
      <trkpt lat="42.96631" lon="0.87935">
        <ele>1140</ele>
        <time>2016-03-26T15:09:34Z</time>
      </trkpt>
      <trkpt lat="42.96633" lon="0.87935">
        <ele>1140</ele>
        <time>2016-03-26T15:09:36Z</time>
      </trkpt>
      <trkpt lat="42.96634" lon="0.87935">
        <ele>1140</ele>
        <time>2016-03-26T15:09:37Z</time>
      </trkpt>
      <trkpt lat="42.96635" lon="0.87937">
        <ele>1140</ele>
        <time>2016-03-26T15:09:38Z</time>
      </trkpt>
      <trkpt lat="42.96638" lon="0.87937">
        <ele>1139</ele>
        <time>2016-03-26T15:09:40Z</time>
      </trkpt>
      <trkpt lat="42.96639" lon="0.87938">
        <ele>1139</ele>
        <time>2016-03-26T15:09:42Z</time>
      </trkpt>
      <trkpt lat="42.9664" lon="0.87939">
        <ele>1139</ele>
        <time>2016-03-26T15:09:43Z</time>
      </trkpt>
      <trkpt lat="42.96642" lon="0.87939">
        <ele>1139</ele>
        <time>2016-03-26T15:09:44Z</time>
      </trkpt>
      <trkpt lat="42.96644" lon="0.8794">
        <ele>1139</ele>
        <time>2016-03-26T15:09:45Z</time>
      </trkpt>
      <trkpt lat="42.96646" lon="0.87941">
        <ele>1139</ele>
        <time>2016-03-26T15:09:47Z</time>
      </trkpt>
      <trkpt lat="42.96649" lon="0.87943">
        <ele>1139</ele>
        <time>2016-03-26T15:09:49Z</time>
      </trkpt>
      <trkpt lat="42.96652" lon="0.87945">
        <ele>1138</ele>
        <time>2016-03-26T15:09:51Z</time>
      </trkpt>
      <trkpt lat="42.96653" lon="0.87945">
        <ele>1138</ele>
        <time>2016-03-26T15:09:52Z</time>
      </trkpt>
      <trkpt lat="42.96654" lon="0.87945">
        <ele>1138</ele>
        <time>2016-03-26T15:09:53Z</time>
      </trkpt>
      <trkpt lat="42.96656" lon="0.87946">
        <ele>1138</ele>
        <time>2016-03-26T15:09:55Z</time>
      </trkpt>
      <trkpt lat="42.96659" lon="0.87947">
        <ele>1137</ele>
        <time>2016-03-26T15:09:57Z</time>
      </trkpt>
      <trkpt lat="42.96661" lon="0.87947">
        <ele>1137</ele>
        <time>2016-03-26T15:09:59Z</time>
      </trkpt>
      <trkpt lat="42.96663" lon="0.87947">
        <ele>1137</ele>
        <time>2016-03-26T15:10:01Z</time>
      </trkpt>
      <trkpt lat="42.96665" lon="0.87947">
        <ele>1136</ele>
        <time>2016-03-26T15:10:03Z</time>
      </trkpt>
      <trkpt lat="42.96666" lon="0.87947">
        <ele>1136</ele>
        <time>2016-03-26T15:10:05Z</time>
      </trkpt>
      <trkpt lat="42.96668" lon="0.87948">
        <ele>1136</ele>
        <time>2016-03-26T15:10:07Z</time>
      </trkpt>
      <trkpt lat="42.9667" lon="0.87948">
        <ele>1136</ele>
        <time>2016-03-26T15:10:09Z</time>
      </trkpt>
      <trkpt lat="42.96672" lon="0.87948">
        <ele>1135</ele>
        <time>2016-03-26T15:10:11Z</time>
      </trkpt>
      <trkpt lat="42.96673" lon="0.87947">
        <ele>1135</ele>
        <time>2016-03-26T15:10:12Z</time>
      </trkpt>
      <trkpt lat="42.96674" lon="0.87948">
        <ele>1135</ele>
        <time>2016-03-26T15:10:14Z</time>
      </trkpt>
      <trkpt lat="42.96676" lon="0.87948">
        <ele>1135</ele>
        <time>2016-03-26T15:10:16Z</time>
      </trkpt>
      <trkpt lat="42.96678" lon="0.87948">
        <ele>1134</ele>
        <time>2016-03-26T15:10:18Z</time>
      </trkpt>
      <trkpt lat="42.96681" lon="0.87948">
        <ele>1134</ele>
        <time>2016-03-26T15:10:21Z</time>
      </trkpt>
      <trkpt lat="42.96682" lon="0.87948">
        <ele>1134</ele>
        <time>2016-03-26T15:10:22Z</time>
      </trkpt>
      <trkpt lat="42.96684" lon="0.8795">
        <ele>1133</ele>
        <time>2016-03-26T15:10:24Z</time>
      </trkpt>
      <trkpt lat="42.96685" lon="0.87952">
        <ele>1133</ele>
        <time>2016-03-26T15:10:26Z</time>
      </trkpt>
      <trkpt lat="42.96687" lon="0.87953">
        <ele>1132</ele>
        <time>2016-03-26T15:10:27Z</time>
      </trkpt>
      <trkpt lat="42.96689" lon="0.87955">
        <ele>1132</ele>
        <time>2016-03-26T15:10:29Z</time>
      </trkpt>
      <trkpt lat="42.9669" lon="0.87956">
        <ele>1131</ele>
        <time>2016-03-26T15:10:30Z</time>
      </trkpt>
      <trkpt lat="42.96693" lon="0.87958">
        <ele>1131</ele>
        <time>2016-03-26T15:10:32Z</time>
      </trkpt>
      <trkpt lat="42.96694" lon="0.87958">
        <ele>1130</ele>
        <time>2016-03-26T15:10:33Z</time>
      </trkpt>
      <trkpt lat="42.96697" lon="0.8796">
        <ele>1129</ele>
        <time>2016-03-26T15:10:35Z</time>
      </trkpt>
      <trkpt lat="42.96698" lon="0.87962">
        <ele>1129</ele>
        <time>2016-03-26T15:10:37Z</time>
      </trkpt>
      <trkpt lat="42.967" lon="0.87965">
        <ele>1128</ele>
        <time>2016-03-26T15:10:39Z</time>
      </trkpt>
      <trkpt lat="42.96702" lon="0.87966">
        <ele>1128</ele>
        <time>2016-03-26T15:10:41Z</time>
      </trkpt>
      <trkpt lat="42.96704" lon="0.87967">
        <ele>1127</ele>
        <time>2016-03-26T15:10:43Z</time>
      </trkpt>
      <trkpt lat="42.96705" lon="0.87968">
        <ele>1127</ele>
        <time>2016-03-26T15:10:44Z</time>
      </trkpt>
      <trkpt lat="42.96708" lon="0.87969">
        <ele>1126</ele>
        <time>2016-03-26T15:10:46Z</time>
      </trkpt>
      <trkpt lat="42.9671" lon="0.8797">
        <ele>1126</ele>
        <time>2016-03-26T15:10:48Z</time>
      </trkpt>
      <trkpt lat="42.96713" lon="0.87971">
        <ele>1126</ele>
        <time>2016-03-26T15:10:50Z</time>
      </trkpt>
      <trkpt lat="42.96715" lon="0.87972">
        <ele>1125</ele>
        <time>2016-03-26T15:10:52Z</time>
      </trkpt>
      <trkpt lat="42.96716" lon="0.87974">
        <ele>1125</ele>
        <time>2016-03-26T15:10:54Z</time>
      </trkpt>
      <trkpt lat="42.96717" lon="0.87976">
        <ele>1124</ele>
        <time>2016-03-26T15:10:56Z</time>
      </trkpt>
      <trkpt lat="42.96718" lon="0.87976">
        <ele>1124</ele>
        <time>2016-03-26T15:10:57Z</time>
      </trkpt>
      <trkpt lat="42.96719" lon="0.87978">
        <ele>1124</ele>
        <time>2016-03-26T15:10:59Z</time>
      </trkpt>
      <trkpt lat="42.96719" lon="0.87979">
        <ele>1123</ele>
        <time>2016-03-26T15:11:00Z</time>
      </trkpt>
      <trkpt lat="42.96721" lon="0.8798">
        <ele>1123</ele>
        <time>2016-03-26T15:11:01Z</time>
      </trkpt>
      <trkpt lat="42.96722" lon="0.87982">
        <ele>1123</ele>
        <time>2016-03-26T15:11:03Z</time>
      </trkpt>
      <trkpt lat="42.96723" lon="0.87983">
        <ele>1122</ele>
        <time>2016-03-26T15:11:04Z</time>
      </trkpt>
      <trkpt lat="42.96722" lon="0.87987">
        <ele>1122</ele>
        <time>2016-03-26T15:11:06Z</time>
      </trkpt>
      <trkpt lat="42.96721" lon="0.87991">
        <ele>1122</ele>
        <time>2016-03-26T15:11:08Z</time>
      </trkpt>
      <trkpt lat="42.96723" lon="0.87995">
        <ele>1121</ele>
        <time>2016-03-26T15:11:10Z</time>
      </trkpt>
      <trkpt lat="42.96724" lon="0.87996">
        <ele>1121</ele>
        <time>2016-03-26T15:11:11Z</time>
      </trkpt>
      <trkpt lat="42.96725" lon="0.87997">
        <ele>1121</ele>
        <time>2016-03-26T15:11:12Z</time>
      </trkpt>
      <trkpt lat="42.96728" lon="0.87999">
        <ele>1120</ele>
        <time>2016-03-26T15:11:14Z</time>
      </trkpt>
      <trkpt lat="42.9673" lon="0.88002">
        <ele>1120</ele>
        <time>2016-03-26T15:11:16Z</time>
      </trkpt>
      <trkpt lat="42.96731" lon="0.88005">
        <ele>1120</ele>
        <time>2016-03-26T15:11:18Z</time>
      </trkpt>
      <trkpt lat="42.96732" lon="0.88008">
        <ele>1119</ele>
        <time>2016-03-26T15:11:20Z</time>
      </trkpt>
      <trkpt lat="42.96733" lon="0.8801">
        <ele>1119</ele>
        <time>2016-03-26T15:11:22Z</time>
      </trkpt>
      <trkpt lat="42.96734" lon="0.88014">
        <ele>1119</ele>
        <time>2016-03-26T15:11:24Z</time>
      </trkpt>
      <trkpt lat="42.96734" lon="0.88016">
        <ele>1118</ele>
        <time>2016-03-26T15:11:26Z</time>
      </trkpt>
      <trkpt lat="42.96734" lon="0.88017">
        <ele>1118</ele>
        <time>2016-03-26T15:11:27Z</time>
      </trkpt>
      <trkpt lat="42.96735" lon="0.88018">
        <ele>1118</ele>
        <time>2016-03-26T15:11:28Z</time>
      </trkpt>
      <trkpt lat="42.96736" lon="0.8802">
        <ele>1117</ele>
        <time>2016-03-26T15:11:30Z</time>
      </trkpt>
      <trkpt lat="42.96736" lon="0.88022">
        <ele>1117</ele>
        <time>2016-03-26T15:11:31Z</time>
      </trkpt>
      <trkpt lat="42.96737" lon="0.88024">
        <ele>1117</ele>
        <time>2016-03-26T15:11:32Z</time>
      </trkpt>
      <trkpt lat="42.96737" lon="0.88027">
        <ele>1117</ele>
        <time>2016-03-26T15:11:34Z</time>
      </trkpt>
      <trkpt lat="42.96737" lon="0.88029">
        <ele>1116</ele>
        <time>2016-03-26T15:11:35Z</time>
      </trkpt>
      <trkpt lat="42.96737" lon="0.88031">
        <ele>1116</ele>
        <time>2016-03-26T15:11:37Z</time>
      </trkpt>
      <trkpt lat="42.96738" lon="0.88034">
        <ele>1116</ele>
        <time>2016-03-26T15:11:39Z</time>
      </trkpt>
      <trkpt lat="42.96738" lon="0.88036">
        <ele>1115</ele>
        <time>2016-03-26T15:11:41Z</time>
      </trkpt>
      <trkpt lat="42.96738" lon="0.88037">
        <ele>1115</ele>
        <time>2016-03-26T15:11:42Z</time>
      </trkpt>
      <trkpt lat="42.96739" lon="0.88041">
        <ele>1115</ele>
        <time>2016-03-26T15:11:44Z</time>
      </trkpt>
      <trkpt lat="42.96741" lon="0.88044">
        <ele>1114</ele>
        <time>2016-03-26T15:11:46Z</time>
      </trkpt>
      <trkpt lat="42.96742" lon="0.88047">
        <ele>1114</ele>
        <time>2016-03-26T15:11:48Z</time>
      </trkpt>
      <trkpt lat="42.96743" lon="0.88048">
        <ele>1114</ele>
        <time>2016-03-26T15:11:49Z</time>
      </trkpt>
      <trkpt lat="42.96744" lon="0.88051">
        <ele>1113</ele>
        <time>2016-03-26T15:11:51Z</time>
      </trkpt>
      <trkpt lat="42.96747" lon="0.88054">
        <ele>1113</ele>
        <time>2016-03-26T15:11:53Z</time>
      </trkpt>
      <trkpt lat="42.96749" lon="0.88057">
        <ele>1113</ele>
        <time>2016-03-26T15:11:55Z</time>
      </trkpt>
      <trkpt lat="42.9675" lon="0.88058">
        <ele>1112</ele>
        <time>2016-03-26T15:11:56Z</time>
      </trkpt>
      <trkpt lat="42.96751" lon="0.88059">
        <ele>1112</ele>
        <time>2016-03-26T15:11:57Z</time>
      </trkpt>
      <trkpt lat="42.96752" lon="0.88063">
        <ele>1112</ele>
        <time>2016-03-26T15:11:59Z</time>
      </trkpt>
      <trkpt lat="42.96753" lon="0.88066">
        <ele>1111</ele>
        <time>2016-03-26T15:12:01Z</time>
      </trkpt>
      <trkpt lat="42.96755" lon="0.88068">
        <ele>1111</ele>
        <time>2016-03-26T15:12:03Z</time>
      </trkpt>
      <trkpt lat="42.96756" lon="0.88069">
        <ele>1111</ele>
        <time>2016-03-26T15:12:04Z</time>
      </trkpt>
      <trkpt lat="42.96757" lon="0.8807">
        <ele>1111</ele>
        <time>2016-03-26T15:12:05Z</time>
      </trkpt>
      <trkpt lat="42.96758" lon="0.88073">
        <ele>1110</ele>
        <time>2016-03-26T15:12:07Z</time>
      </trkpt>
      <trkpt lat="42.96759" lon="0.88074">
        <ele>1110</ele>
        <time>2016-03-26T15:12:09Z</time>
      </trkpt>
      <trkpt lat="42.96761" lon="0.88076">
        <ele>1110</ele>
        <time>2016-03-26T15:12:11Z</time>
      </trkpt>
      <trkpt lat="42.96763" lon="0.88077">
        <ele>1109</ele>
        <time>2016-03-26T15:12:12Z</time>
      </trkpt>
      <trkpt lat="42.96765" lon="0.88078">
        <ele>1109</ele>
        <time>2016-03-26T15:12:14Z</time>
      </trkpt>
      <trkpt lat="42.96767" lon="0.88079">
        <ele>1109</ele>
        <time>2016-03-26T15:12:16Z</time>
      </trkpt>
      <trkpt lat="42.9677" lon="0.88081">
        <ele>1108</ele>
        <time>2016-03-26T15:12:18Z</time>
      </trkpt>
      <trkpt lat="42.96771" lon="0.88082">
        <ele>1108</ele>
        <time>2016-03-26T15:12:19Z</time>
      </trkpt>
      <trkpt lat="42.96771" lon="0.88083">
        <ele>1108</ele>
        <time>2016-03-26T15:12:20Z</time>
      </trkpt>
      <trkpt lat="42.96772" lon="0.88085">
        <ele>1107</ele>
        <time>2016-03-26T15:12:22Z</time>
      </trkpt>
      <trkpt lat="42.96774" lon="0.88087">
        <ele>1107</ele>
        <time>2016-03-26T15:12:24Z</time>
      </trkpt>
      <trkpt lat="42.96777" lon="0.88088">
        <ele>1107</ele>
        <time>2016-03-26T15:12:26Z</time>
      </trkpt>
      <trkpt lat="42.96778" lon="0.88089">
        <ele>1106</ele>
        <time>2016-03-26T15:12:27Z</time>
      </trkpt>
      <trkpt lat="42.96779" lon="0.88089">
        <ele>1106</ele>
        <time>2016-03-26T15:12:28Z</time>
      </trkpt>
      <trkpt lat="42.96782" lon="0.8809">
        <ele>1106</ele>
        <time>2016-03-26T15:12:30Z</time>
      </trkpt>
      <trkpt lat="42.96784" lon="0.88092">
        <ele>1106</ele>
        <time>2016-03-26T15:12:32Z</time>
      </trkpt>
      <trkpt lat="42.96786" lon="0.88095">
        <ele>1105</ele>
        <time>2016-03-26T15:12:34Z</time>
      </trkpt>
      <trkpt lat="42.96787" lon="0.88096">
        <ele>1105</ele>
        <time>2016-03-26T15:12:36Z</time>
      </trkpt>
      <trkpt lat="42.96789" lon="0.88098">
        <ele>1105</ele>
        <time>2016-03-26T15:12:38Z</time>
      </trkpt>
      <trkpt lat="42.96789" lon="0.88099">
        <ele>1104</ele>
        <time>2016-03-26T15:12:39Z</time>
      </trkpt>
      <trkpt lat="42.96789" lon="0.881">
        <ele>1104</ele>
        <time>2016-03-26T15:12:40Z</time>
      </trkpt>
      <trkpt lat="42.9679" lon="0.88102">
        <ele>1104</ele>
        <time>2016-03-26T15:12:42Z</time>
      </trkpt>
      <trkpt lat="42.96791" lon="0.88104">
        <ele>1104</ele>
        <time>2016-03-26T15:12:43Z</time>
      </trkpt>
      <trkpt lat="42.96793" lon="0.88107">
        <ele>1103</ele>
        <time>2016-03-26T15:12:46Z</time>
      </trkpt>
      <trkpt lat="42.96793" lon="0.8811">
        <ele>1103</ele>
        <time>2016-03-26T15:12:47Z</time>
      </trkpt>
      <trkpt lat="42.96794" lon="0.88113">
        <ele>1103</ele>
        <time>2016-03-26T15:12:49Z</time>
      </trkpt>
      <trkpt lat="42.96795" lon="0.88116">
        <ele>1103</ele>
        <time>2016-03-26T15:12:51Z</time>
      </trkpt>
      <trkpt lat="42.96795" lon="0.88117">
        <ele>1102</ele>
        <time>2016-03-26T15:12:52Z</time>
      </trkpt>
      <trkpt lat="42.96796" lon="0.8812">
        <ele>1102</ele>
        <time>2016-03-26T15:12:55Z</time>
      </trkpt>
      <trkpt lat="42.96796" lon="0.88121">
        <ele>1102</ele>
        <time>2016-03-26T15:12:56Z</time>
      </trkpt>
      <trkpt lat="42.96796" lon="0.88122">
        <ele>1101</ele>
        <time>2016-03-26T15:12:57Z</time>
      </trkpt>
      <trkpt lat="42.96797" lon="0.88123">
        <ele>1101</ele>
        <time>2016-03-26T15:12:59Z</time>
      </trkpt>
      <trkpt lat="42.96798" lon="0.88124">
        <ele>1101</ele>
        <time>2016-03-26T15:13:01Z</time>
      </trkpt>
      <trkpt lat="42.96797" lon="0.88124">
        <ele>1100</ele>
        <time>2016-03-26T15:13:03Z</time>
      </trkpt>
      <trkpt lat="42.96798" lon="0.88125">
        <ele>1100</ele>
        <time>2016-03-26T15:13:04Z</time>
      </trkpt>
      <trkpt lat="42.96793" lon="0.88133">
        <ele>1100</ele>
        <time>2016-03-26T15:13:14Z</time>
      </trkpt>
      <trkpt lat="42.96793" lon="0.88136">
        <ele>1100</ele>
        <time>2016-03-26T15:13:16Z</time>
      </trkpt>
      <trkpt lat="42.96793" lon="0.88139">
        <ele>1100</ele>
        <time>2016-03-26T15:13:18Z</time>
      </trkpt>
      <trkpt lat="42.96792" lon="0.8814">
        <ele>1100</ele>
        <time>2016-03-26T15:13:19Z</time>
      </trkpt>
      <trkpt lat="42.96792" lon="0.88142">
        <ele>1100</ele>
        <time>2016-03-26T15:13:20Z</time>
      </trkpt>
      <trkpt lat="42.96792" lon="0.88145">
        <ele>1100</ele>
        <time>2016-03-26T15:13:22Z</time>
      </trkpt>
      <trkpt lat="42.9679" lon="0.88148">
        <ele>1100</ele>
        <time>2016-03-26T15:13:24Z</time>
      </trkpt>
      <trkpt lat="42.9679" lon="0.88151">
        <ele>1100</ele>
        <time>2016-03-26T15:13:26Z</time>
      </trkpt>
      <trkpt lat="42.96789" lon="0.88152">
        <ele>1100</ele>
        <time>2016-03-26T15:13:27Z</time>
      </trkpt>
      <trkpt lat="42.96789" lon="0.88155">
        <ele>1100</ele>
        <time>2016-03-26T15:13:29Z</time>
      </trkpt>
      <trkpt lat="42.96789" lon="0.88156">
        <ele>1099</ele>
        <time>2016-03-26T15:13:30Z</time>
      </trkpt>
      <trkpt lat="42.96789" lon="0.88159">
        <ele>1099</ele>
        <time>2016-03-26T15:13:32Z</time>
      </trkpt>
      <trkpt lat="42.96788" lon="0.88161">
        <ele>1099</ele>
        <time>2016-03-26T15:13:34Z</time>
      </trkpt>
      <trkpt lat="42.96788" lon="0.88165">
        <ele>1099</ele>
        <time>2016-03-26T15:13:36Z</time>
      </trkpt>
      <trkpt lat="42.96788" lon="0.88167">
        <ele>1099</ele>
        <time>2016-03-26T15:13:38Z</time>
      </trkpt>
      <trkpt lat="42.96786" lon="0.88169">
        <ele>1099</ele>
        <time>2016-03-26T15:13:40Z</time>
      </trkpt>
      <trkpt lat="42.96785" lon="0.88172">
        <ele>1099</ele>
        <time>2016-03-26T15:13:42Z</time>
      </trkpt>
      <trkpt lat="42.96783" lon="0.88175">
        <ele>1098</ele>
        <time>2016-03-26T15:13:44Z</time>
      </trkpt>
      <trkpt lat="42.96783" lon="0.88177">
        <ele>1098</ele>
        <time>2016-03-26T15:13:46Z</time>
      </trkpt>
      <trkpt lat="42.96783" lon="0.88179">
        <ele>1098</ele>
        <time>2016-03-26T15:13:48Z</time>
      </trkpt>
      <trkpt lat="42.96783" lon="0.88179">
        <ele>1098</ele>
        <time>2016-03-26T15:13:49Z</time>
      </trkpt>
      <trkpt lat="42.96783" lon="0.88181">
        <ele>1098</ele>
        <time>2016-03-26T15:13:51Z</time>
      </trkpt>
      <trkpt lat="42.96784" lon="0.88182">
        <ele>1098</ele>
        <time>2016-03-26T15:13:52Z</time>
      </trkpt>
      <trkpt lat="42.96784" lon="0.88187">
        <ele>1098</ele>
        <time>2016-03-26T15:13:56Z</time>
      </trkpt>
      <trkpt lat="42.96784" lon="0.88188">
        <ele>1098</ele>
        <time>2016-03-26T15:13:57Z</time>
      </trkpt>
      <trkpt lat="42.96783" lon="0.8819">
        <ele>1098</ele>
        <time>2016-03-26T15:13:58Z</time>
      </trkpt>
      <trkpt lat="42.96783" lon="0.88193">
        <ele>1098</ele>
        <time>2016-03-26T15:14:00Z</time>
      </trkpt>
      <trkpt lat="42.96782" lon="0.88197">
        <ele>1098</ele>
        <time>2016-03-26T15:14:02Z</time>
      </trkpt>
      <trkpt lat="42.96782" lon="0.882">
        <ele>1098</ele>
        <time>2016-03-26T15:14:04Z</time>
      </trkpt>
      <trkpt lat="42.96782" lon="0.88202">
        <ele>1098</ele>
        <time>2016-03-26T15:14:06Z</time>
      </trkpt>
      <trkpt lat="42.96783" lon="0.88205">
        <ele>1098</ele>
        <time>2016-03-26T15:14:08Z</time>
      </trkpt>
      <trkpt lat="42.96783" lon="0.88208">
        <ele>1098</ele>
        <time>2016-03-26T15:14:10Z</time>
      </trkpt>
      <trkpt lat="42.96783" lon="0.88212">
        <ele>1098</ele>
        <time>2016-03-26T15:14:12Z</time>
      </trkpt>
      <trkpt lat="42.96781" lon="0.88219">
        <ele>1098</ele>
        <time>2016-03-26T15:14:14Z</time>
      </trkpt>
      <trkpt lat="42.96781" lon="0.88224">
        <ele>1098</ele>
        <time>2016-03-26T15:14:16Z</time>
      </trkpt>
      <trkpt lat="42.96781" lon="0.88231">
        <ele>1098</ele>
        <time>2016-03-26T15:14:18Z</time>
      </trkpt>
      <trkpt lat="42.96783" lon="0.88234">
        <ele>1098</ele>
        <time>2016-03-26T15:14:20Z</time>
      </trkpt>
      <trkpt lat="42.96783" lon="0.88235">
        <ele>1098</ele>
        <time>2016-03-26T15:14:21Z</time>
      </trkpt>
      <trkpt lat="42.96783" lon="0.8824">
        <ele>1098</ele>
        <time>2016-03-26T15:14:23Z</time>
      </trkpt>
      <trkpt lat="42.96784" lon="0.88243">
        <ele>1098</ele>
        <time>2016-03-26T15:14:25Z</time>
      </trkpt>
      <trkpt lat="42.96786" lon="0.88246">
        <ele>1098</ele>
        <time>2016-03-26T15:14:27Z</time>
      </trkpt>
      <trkpt lat="42.96788" lon="0.88249">
        <ele>1097</ele>
        <time>2016-03-26T15:14:29Z</time>
      </trkpt>
      <trkpt lat="42.96789" lon="0.88251">
        <ele>1097</ele>
        <time>2016-03-26T15:14:31Z</time>
      </trkpt>
      <trkpt lat="42.96789" lon="0.88255">
        <ele>1097</ele>
        <time>2016-03-26T15:14:33Z</time>
      </trkpt>
      <trkpt lat="42.9679" lon="0.88257">
        <ele>1097</ele>
        <time>2016-03-26T15:14:34Z</time>
      </trkpt>
      <trkpt lat="42.9679" lon="0.88261">
        <ele>1097</ele>
        <time>2016-03-26T15:14:36Z</time>
      </trkpt>
      <trkpt lat="42.96792" lon="0.88263">
        <ele>1097</ele>
        <time>2016-03-26T15:14:38Z</time>
      </trkpt>
      <trkpt lat="42.96793" lon="0.88263">
        <ele>1097</ele>
        <time>2016-03-26T15:14:39Z</time>
      </trkpt>
      <trkpt lat="42.96794" lon="0.88266">
        <ele>1096</ele>
        <time>2016-03-26T15:14:41Z</time>
      </trkpt>
      <trkpt lat="42.96795" lon="0.88268">
        <ele>1096</ele>
        <time>2016-03-26T15:14:42Z</time>
      </trkpt>
      <trkpt lat="42.96796" lon="0.88271">
        <ele>1096</ele>
        <time>2016-03-26T15:14:44Z</time>
      </trkpt>
      <trkpt lat="42.96797" lon="0.88273">
        <ele>1096</ele>
        <time>2016-03-26T15:14:46Z</time>
      </trkpt>
      <trkpt lat="42.96798" lon="0.88275">
        <ele>1096</ele>
        <time>2016-03-26T15:14:48Z</time>
      </trkpt>
      <trkpt lat="42.96798" lon="0.88276">
        <ele>1096</ele>
        <time>2016-03-26T15:14:49Z</time>
      </trkpt>
      <trkpt lat="42.968" lon="0.88279">
        <ele>1096</ele>
        <time>2016-03-26T15:14:51Z</time>
      </trkpt>
      <trkpt lat="42.96801" lon="0.88283">
        <ele>1096</ele>
        <time>2016-03-26T15:14:53Z</time>
      </trkpt>
      <trkpt lat="42.96801" lon="0.88286">
        <ele>1095</ele>
        <time>2016-03-26T15:14:55Z</time>
      </trkpt>
      <trkpt lat="42.96802" lon="0.88288">
        <ele>1095</ele>
        <time>2016-03-26T15:14:56Z</time>
      </trkpt>
      <trkpt lat="42.96801" lon="0.88291">
        <ele>1095</ele>
        <time>2016-03-26T15:14:58Z</time>
      </trkpt>
      <trkpt lat="42.96803" lon="0.88293">
        <ele>1095</ele>
        <time>2016-03-26T15:15:00Z</time>
      </trkpt>
      <trkpt lat="42.96806" lon="0.88298">
        <ele>1095</ele>
        <time>2016-03-26T15:15:06Z</time>
      </trkpt>
      <trkpt lat="42.96809" lon="0.88303">
        <ele>1095</ele>
        <time>2016-03-26T15:15:10Z</time>
      </trkpt>
      <trkpt lat="42.96811" lon="0.88311">
        <ele>1095</ele>
        <time>2016-03-26T15:15:14Z</time>
      </trkpt>
      <trkpt lat="42.96812" lon="0.88319">
        <ele>1094</ele>
        <time>2016-03-26T15:15:18Z</time>
      </trkpt>
      <trkpt lat="42.96814" lon="0.88325">
        <ele>1094</ele>
        <time>2016-03-26T15:15:22Z</time>
      </trkpt>
      <trkpt lat="42.96816" lon="0.88332">
        <ele>1093</ele>
        <time>2016-03-26T15:15:27Z</time>
      </trkpt>
      <trkpt lat="42.96819" lon="0.88339">
        <ele>1093</ele>
        <time>2016-03-26T15:15:33Z</time>
      </trkpt>
      <trkpt lat="42.96818" lon="0.88347">
        <ele>1092</ele>
        <time>2016-03-26T15:15:38Z</time>
      </trkpt>
      <trkpt lat="42.96813" lon="0.88354">
        <ele>1091</ele>
        <time>2016-03-26T15:15:42Z</time>
      </trkpt>
      <trkpt lat="42.9681" lon="0.8836">
        <ele>1090</ele>
        <time>2016-03-26T15:15:48Z</time>
      </trkpt>
      <trkpt lat="42.9681" lon="0.88361">
        <ele>1089</ele>
        <time>2016-03-26T15:16:03Z</time>
      </trkpt>
      <trkpt lat="42.9681" lon="0.88361">
        <ele>1089</ele>
        <time>2016-03-26T15:16:20Z</time>
      </trkpt>
      <trkpt lat="42.9681" lon="0.88361">
        <ele>1088</ele>
        <time>2016-03-26T15:16:23Z</time>
      </trkpt>
      <trkpt lat="42.9681" lon="0.88361">
        <ele>1088</ele>
        <time>2016-03-26T15:16:44Z</time>
      </trkpt>
      <trkpt lat="42.9681" lon="0.88361">
        <ele>1088</ele>
        <time>2016-03-26T15:16:45Z</time>
      </trkpt>
      <trkpt lat="42.96801" lon="0.8836">
        <ele>1087</ele>
        <time>2016-03-26T15:17:04Z</time>
      </trkpt>
      <trkpt lat="42.96801" lon="0.8836">
        <ele>1087</ele>
        <time>2016-03-26T15:17:26Z</time>
      </trkpt>
      <trkpt lat="42.96801" lon="0.8836">
        <ele>1087</ele>
        <time>2016-03-26T15:17:28Z</time>
      </trkpt>
      <trkpt lat="42.96801" lon="0.8836">
        <ele>1087</ele>
        <time>2016-03-26T15:17:49Z</time>
      </trkpt>
      <trkpt lat="42.96801" lon="0.8836">
        <ele>1087</ele>
        <time>2016-03-26T15:17:50Z</time>
      </trkpt>
      <trkpt lat="42.96801" lon="0.8836">
        <ele>1087</ele>
        <time>2016-03-26T15:18:11Z</time>
      </trkpt>
      <trkpt lat="42.96801" lon="0.8836">
        <ele>1087</ele>
        <time>2016-03-26T15:18:13Z</time>
      </trkpt>
      <trkpt lat="42.96801" lon="0.8836">
        <ele>1087</ele>
        <time>2016-03-26T15:18:29Z</time>
      </trkpt>
      <trkpt lat="42.96801" lon="0.8836">
        <ele>1087</ele>
        <time>2016-03-26T15:18:30Z</time>
      </trkpt>
      <trkpt lat="42.96801" lon="0.8836">
        <ele>1087</ele>
        <time>2016-03-26T15:18:58Z</time>
      </trkpt>
      <trkpt lat="42.96801" lon="0.8836">
        <ele>1087</ele>
        <time>2016-03-26T15:19:00Z</time>
      </trkpt>
      <trkpt lat="42.96801" lon="0.8837">
        <ele>1087</ele>
        <time>2016-03-26T15:19:33Z</time>
      </trkpt>
      <trkpt lat="42.96799" lon="0.8837">
        <ele>1087</ele>
        <time>2016-03-26T15:19:36Z</time>
      </trkpt>
      <trkpt lat="42.96798" lon="0.88367">
        <ele>1088</ele>
        <time>2016-03-26T15:19:37Z</time>
      </trkpt>
    </trkseg>
  </trk>
</gpx>